<?xml version="1.0" encoding="UTF-8" standalone="no" ?><gpx xmlns="http://www.topografix.com/GPX/1/1" xmlns:gpxx="http://www.garmin.com/xmlschemas/GpxExtensions/v3" xmlns:wptx1="http://www.garmin.com/xmlschemas/WaypointExtension/v1" xmlns:gpxtpx="http://www.garmin.com/xmlschemas/TrackPointExtension/v1" creator="Astro 320" version="1.1" xmlns:xsi="http://www.w3.org/2001/XMLSchema-instance" xsi:schemaLocation="http://www.topografix.com/GPX/1/1 http://www.topografix.com/GPX/1/1/gpx.xsd http://www.garmin.com/xmlschemas/GpxExtensions/v3 http://www8.garmin.com/xmlschemas/GpxExtensionsv3.xsd http://www.garmin.com/xmlschemas/WaypointExtension/v1 http://www8.garmin.com/xmlschemas/WaypointExtensionv1.xsd http://www.garmin.com/xmlschemas/TrackPointExtension/v1 http://www.garmin.com/xmlschemas/TrackPointExtensionv1.xsd"><metadata><link href="http://www.garmin.com"><text>Garmin International</text></link><time>2026-08-18T18:29:21Z</time></metadata><trk><name>2026-08-18 21:29:17</name><extensions><gpxx:TrackExtension><gpxx:DisplayColor>Blue</gpxx:DisplayColor></gpxx:TrackExtension></extensions><trkseg><trkpt lat="55.6580057088" lon="60.8743167669"><ele>247.20</ele><time>2026-08-07T09:00:06Z</time></trkpt><trkpt lat="55.6580098160" lon="60.8743321057"><ele>247.20</ele><time>2026-08-07T09:00:26Z</time></trkpt><trkpt lat="55.6580726802" lon="60.8745042700"><ele>254.41</ele><time>2026-08-07T09:00:37Z</time></trkpt><trkpt lat="55.6580147613" lon="60.8744702395"><ele>254.41</ele><time>2026-08-07T09:00:38Z</time></trkpt><trkpt lat="55.6580104865" lon="60.8743161801"><ele>252.96</ele><time>2026-08-07T09:00:45Z</time></trkpt></trkseg><trkseg><trkpt lat="59.3519834429" lon="34.7024733759"><ele>218.84</ele><time>2026-08-18T02:39:34Z</time></trkpt><trkpt lat="59.3519898131" lon="34.7024555225"><ele>214.99</ele><time>2026-08-18T02:39:40Z</time></trkpt><trkpt lat="59.3519871309" lon="34.7024397645"><ele>212.11</ele><time>2026-08-18T02:39:44Z</time></trkpt><trkpt lat="59.3519855384" lon="34.7024377529"><ele>211.15</ele><time>2026-08-18T02:39:46Z</time></trkpt><trkpt lat="59.3519839458" lon="34.7024273593"><ele>208.26</ele><time>2026-08-18T02:39:52Z</time></trkpt><trkpt lat="59.3519833591" lon="34.7024434526"><ele>204.90</ele><time>2026-08-18T02:39:58Z</time></trkpt><trkpt lat="59.3519838620" lon="34.7024552710"><ele>201.53</ele><time>2026-08-18T02:40:03Z</time></trkpt><trkpt lat="59.3519845325" lon="34.7024622280"><ele>197.69</ele><time>2026-08-18T02:40:06Z</time></trkpt><trkpt lat="59.3519853707" lon="34.7024612222"><ele>194.32</ele><time>2026-08-18T02:40:09Z</time></trkpt><trkpt lat="59.3519863766" lon="34.7024604678"><ele>190.96</ele><time>2026-08-18T02:40:12Z</time></trkpt><trkpt lat="59.3519862927" lon="34.7024583723"><ele>187.11</ele><time>2026-08-18T02:40:16Z</time></trkpt><trkpt lat="59.3519838620" lon="34.7024610545"><ele>183.75</ele><time>2026-08-18T02:40:20Z</time></trkpt><trkpt lat="59.3519826885" lon="34.7024602164"><ele>180.38</ele><time>2026-08-18T02:40:25Z</time></trkpt><trkpt lat="59.3519852031" lon="34.7024701908"><ele>177.02</ele><time>2026-08-18T02:40:31Z</time></trkpt><trkpt lat="59.3519847840" lon="34.7024679277"><ele>173.66</ele><time>2026-08-18T02:40:38Z</time></trkpt><trkpt lat="59.3519892264" lon="34.7024696041"><ele>170.29</ele><time>2026-08-18T02:40:48Z</time></trkpt><trkpt lat="59.3519893941" lon="34.7024637368"><ele>166.93</ele><time>2026-08-18T02:41:03Z</time></trkpt><trkpt lat="59.3519879691" lon="34.7024654131"><ele>164.04</ele><time>2026-08-18T02:41:22Z</time></trkpt><trkpt lat="59.3519757316" lon="34.7024779022"><ele>161.64</ele><time>2026-08-18T02:42:05Z</time></trkpt><trkpt lat="59.3519776594" lon="34.7024809197"><ele>161.64</ele><time>2026-08-18T02:42:41Z</time></trkpt><trkpt lat="59.3519763183" lon="34.7024830151"><ele>161.64</ele><time>2026-08-18T02:43:18Z</time></trkpt><trkpt lat="59.3519798387" lon="34.7024797462"><ele>161.64</ele><time>2026-08-18T02:43:51Z</time></trkpt><trkpt lat="59.3519795034" lon="34.7024803329"><ele>161.64</ele><time>2026-08-18T02:44:30Z</time></trkpt><trkpt lat="59.3519815989" lon="34.7024798300"><ele>161.64</ele><time>2026-08-18T02:45:07Z</time></trkpt><trkpt lat="59.3519821856" lon="34.7024792433"><ele>161.64</ele><time>2026-08-18T02:45:40Z</time></trkpt><trkpt lat="59.3519813474" lon="34.7024943307"><ele>161.64</ele><time>2026-08-18T02:46:13Z</time></trkpt><trkpt lat="59.3519803416" lon="34.7024960071"><ele>161.64</ele><time>2026-08-18T02:46:44Z</time></trkpt><trkpt lat="59.3519832753" lon="34.7025005333"><ele>161.64</ele><time>2026-08-18T02:47:13Z</time></trkpt><trkpt lat="59.3519834429" lon="34.7025032993"><ele>161.64</ele><time>2026-08-18T02:47:44Z</time></trkpt><trkpt lat="59.3519848678" lon="34.7024941631"><ele>161.64</ele><time>2026-08-18T02:48:15Z</time></trkpt><trkpt lat="59.3519826047" lon="34.7024888825"><ele>161.64</ele><time>2026-08-18T02:48:49Z</time></trkpt><trkpt lat="59.3519795034" lon="34.7024938278"><ele>161.64</ele><time>2026-08-18T02:49:23Z</time></trkpt><trkpt lat="59.3519792520" lon="34.7024904750"><ele>161.64</ele><time>2026-08-18T02:49:59Z</time></trkpt><trkpt lat="59.3519753125" lon="34.7024872061"><ele>161.64</ele><time>2026-08-18T02:50:37Z</time></trkpt><trkpt lat="59.3519738037" lon="34.7024859488"><ele>161.64</ele><time>2026-08-18T02:51:10Z</time></trkpt><trkpt lat="59.3519694451" lon="34.7024846077"><ele>161.64</ele><time>2026-08-18T02:51:46Z</time></trkpt><trkpt lat="59.3519689422" lon="34.7024830151"><ele>161.64</ele><time>2026-08-18T02:52:21Z</time></trkpt><trkpt lat="59.3519704510" lon="34.7024833504"><ele>161.64</ele><time>2026-08-18T02:52:52Z</time></trkpt><trkpt lat="59.3519732170" lon="34.7024805006"><ele>161.64</ele><time>2026-08-18T02:53:28Z</time></trkpt><trkpt lat="59.3519710377" lon="34.7024851944"><ele>161.64</ele><time>2026-08-18T02:54:01Z</time></trkpt><trkpt lat="59.3519731332" lon="34.7024820931"><ele>161.64</ele><time>2026-08-18T02:54:38Z</time></trkpt><trkpt lat="59.3519747257" lon="34.7024864517"><ele>161.64</ele><time>2026-08-18T02:55:11Z</time></trkpt><trkpt lat="59.3519788329" lon="34.7024921514"><ele>161.64</ele><time>2026-08-18T02:55:43Z</time></trkpt><trkpt lat="59.3519903161" lon="34.7024904750"><ele>161.64</ele><time>2026-08-18T02:56:16Z</time></trkpt><trkpt lat="59.3519940041" lon="34.7024844401"><ele>161.64</ele><time>2026-08-18T02:56:49Z</time></trkpt><trkpt lat="59.3519924954" lon="34.7024803329"><ele>161.64</ele><time>2026-08-18T02:57:24Z</time></trkpt><trkpt lat="59.3519908190" lon="34.7024846915"><ele>161.64</ele><time>2026-08-18T02:58:00Z</time></trkpt><trkpt lat="59.3519865442" lon="34.7024848592"><ele>161.64</ele><time>2026-08-18T02:58:33Z</time></trkpt><trkpt lat="59.3519880529" lon="34.7024846915"><ele>161.64</ele><time>2026-08-18T02:59:08Z</time></trkpt><trkpt lat="59.3519888073" lon="34.7024845239"><ele>161.16</ele><time>2026-08-18T02:59:45Z</time></trkpt><trkpt lat="59.3519875500" lon="34.7024893854"><ele>161.16</ele><time>2026-08-18T03:00:22Z</time></trkpt><trkpt lat="59.3519879691" lon="34.7024870384"><ele>161.64</ele><time>2026-08-18T03:00:58Z</time></trkpt><trkpt lat="59.3519898131" lon="34.7024814226"><ele>161.16</ele><time>2026-08-18T03:01:34Z</time></trkpt><trkpt lat="59.3519891426" lon="34.7024885472"><ele>161.16</ele><time>2026-08-18T03:02:03Z</time></trkpt><trkpt lat="59.3519866280" lon="34.7025004495"><ele>161.16</ele><time>2026-08-18T03:02:45Z</time></trkpt><trkpt lat="59.3519936688" lon="34.7025087476"><ele>161.16</ele><time>2026-08-18T03:03:12Z</time></trkpt><trkpt lat="59.3519908190" lon="34.7025075741"><ele>161.16</ele><time>2026-08-18T03:03:29Z</time></trkpt><trkpt lat="59.3519785814" lon="34.7025148664"><ele>161.16</ele><time>2026-08-18T03:03:43Z</time></trkpt><trkpt lat="59.3519849516" lon="34.7025105916"><ele>161.16</ele><time>2026-08-18T03:03:53Z</time></trkpt><trkpt lat="59.3519864604" lon="34.7024943307"><ele>161.16</ele><time>2026-08-18T03:03:54Z</time></trkpt><trkpt lat="59.3520130310" lon="34.7021419555"><ele>162.60</ele><time>2026-08-18T03:04:08Z</time></trkpt><trkpt lat="59.3520440441" lon="34.7019171529"><ele>163.08</ele><time>2026-08-18T03:04:23Z</time></trkpt><trkpt lat="59.3520442955" lon="34.7019231878"><ele>163.56</ele><time>2026-08-18T03:04:41Z</time></trkpt><trkpt lat="59.3520379253" lon="34.7019114532"><ele>163.56</ele><time>2026-08-18T03:04:53Z</time></trkpt><trkpt lat="59.3520414457" lon="34.7019201703"><ele>163.56</ele><time>2026-08-18T03:05:16Z</time></trkpt><trkpt lat="59.3520380929" lon="34.7019163147"><ele>163.56</ele><time>2026-08-18T03:05:29Z</time></trkpt><trkpt lat="59.3520361651" lon="34.7019374371"><ele>163.56</ele><time>2026-08-18T03:05:37Z</time></trkpt><trkpt lat="59.3520159647" lon="34.7019966971"><ele>163.56</ele><time>2026-08-18T03:05:50Z</time></trkpt><trkpt lat="59.3520172220" lon="34.7020047437"><ele>163.56</ele><time>2026-08-18T03:05:56Z</time></trkpt><trkpt lat="59.3520049844" lon="34.7023591306"><ele>163.56</ele><time>2026-08-18T03:06:11Z</time></trkpt><trkpt lat="59.3519915733" lon="34.7024694365"><ele>162.12</ele><time>2026-08-18T03:06:24Z</time></trkpt><trkpt lat="59.3519864604" lon="34.7024920676"><ele>161.64</ele><time>2026-08-18T03:06:39Z</time></trkpt><trkpt lat="59.3519893941" lon="34.7024983540"><ele>161.64</ele><time>2026-08-18T03:06:57Z</time></trkpt><trkpt lat="59.3519890588" lon="34.7024921514"><ele>161.64</ele><time>2026-08-18T03:07:09Z</time></trkpt><trkpt lat="59.3519821856" lon="34.7024943307"><ele>161.64</ele><time>2026-08-18T03:07:23Z</time></trkpt><trkpt lat="59.3519775756" lon="34.7025312111"><ele>162.60</ele><time>2026-08-18T03:07:38Z</time></trkpt><trkpt lat="59.3519590516" lon="34.7026021220"><ele>162.60</ele><time>2026-08-18T03:07:53Z</time></trkpt><trkpt lat="59.3519588001" lon="34.7026115935"><ele>162.60</ele><time>2026-08-18T03:07:56Z</time></trkpt><trkpt lat="59.3519473169" lon="34.7026155330"><ele>162.60</ele><time>2026-08-18T03:08:08Z</time></trkpt><trkpt lat="59.3519463949" lon="34.7026281059"><ele>162.60</ele><time>2026-08-18T03:08:24Z</time></trkpt><trkpt lat="59.3519520108" lon="34.7026410140"><ele>162.60</ele><time>2026-08-18T03:08:35Z</time></trkpt><trkpt lat="59.3519525137" lon="34.7026474681"><ele>162.60</ele><time>2026-08-18T03:08:59Z</time></trkpt><trkpt lat="59.3519582134" lon="34.7026523296"><ele>162.60</ele><time>2026-08-18T03:09:24Z</time></trkpt><trkpt lat="59.3519634102" lon="34.7026432771"><ele>162.60</ele><time>2026-08-18T03:09:53Z</time></trkpt><trkpt lat="59.3519621529" lon="34.7026458755"><ele>162.60</ele><time>2026-08-18T03:10:16Z</time></trkpt><trkpt lat="59.3519485742" lon="34.7026226576"><ele>162.60</ele><time>2026-08-18T03:10:18Z</time></trkpt><trkpt lat="59.3517253641" lon="34.7024897207"><ele>162.60</ele><time>2026-08-18T03:10:33Z</time></trkpt><trkpt lat="59.3513511121" lon="34.7023899760"><ele>163.56</ele><time>2026-08-18T03:10:51Z</time></trkpt><trkpt lat="59.3510303367" lon="34.7020283807"><ele>164.04</ele><time>2026-08-18T03:11:08Z</time></trkpt><trkpt lat="59.3510176800" lon="34.7014512029"><ele>164.52</ele><time>2026-08-18T03:11:21Z</time></trkpt><trkpt lat="59.3508999981" lon="34.7007904574"><ele>165.00</ele><time>2026-08-18T03:11:34Z</time></trkpt><trkpt lat="59.3507902790" lon="34.7000453062"><ele>165.00</ele><time>2026-08-18T03:11:47Z</time></trkpt><trkpt lat="59.3505614530" lon="34.6994762588"><ele>165.00</ele><time>2026-08-18T03:12:01Z</time></trkpt><trkpt lat="59.3502523284" lon="34.6993743349"><ele>165.00</ele><time>2026-08-18T03:12:13Z</time></trkpt><trkpt lat="59.3500619754" lon="34.6992615983"><ele>165.00</ele><time>2026-08-18T03:12:24Z</time></trkpt><trkpt lat="59.3500618916" lon="34.6992650349"><ele>165.00</ele><time>2026-08-18T03:12:26Z</time></trkpt><trkpt lat="59.3501944933" lon="34.6993848123"><ele>165.00</ele><time>2026-08-18T03:12:42Z</time></trkpt><trkpt lat="59.3502017017" lon="34.6993993130"><ele>165.00</ele><time>2026-08-18T03:12:47Z</time></trkpt><trkpt lat="59.3500608020" lon="34.6993989777"><ele>165.00</ele><time>2026-08-18T03:12:56Z</time></trkpt><trkpt lat="59.3498023879" lon="34.6993834712"><ele>165.00</ele><time>2026-08-18T03:13:08Z</time></trkpt><trkpt lat="59.3495354243" lon="34.6993574873"><ele>165.00</ele><time>2026-08-18T03:13:22Z</time></trkpt><trkpt lat="59.3492145650" lon="34.6993304137"><ele>165.48</ele><time>2026-08-18T03:13:38Z</time></trkpt><trkpt lat="59.3488665484" lon="34.6993578225"><ele>165.48</ele><time>2026-08-18T03:13:54Z</time></trkpt><trkpt lat="59.3485679850" lon="34.6993274800"><ele>165.48</ele><time>2026-08-18T03:14:09Z</time></trkpt><trkpt lat="59.3482042942" lon="34.6993181761"><ele>165.48</ele><time>2026-08-18T03:14:25Z</time></trkpt><trkpt lat="59.3480496481" lon="34.6993107162"><ele>165.96</ele><time>2026-08-18T03:14:35Z</time></trkpt><trkpt lat="59.3478789087" lon="34.6993350238"><ele>166.45</ele><time>2026-08-18T03:14:47Z</time></trkpt><trkpt lat="59.3476147112" lon="34.6993459202"><ele>166.45</ele><time>2026-08-18T03:15:01Z</time></trkpt><trkpt lat="59.3471547961" lon="34.6992703993"><ele>166.45</ele><time>2026-08-18T03:15:17Z</time></trkpt><trkpt lat="59.3466717470" lon="34.6992103849"><ele>166.93</ele><time>2026-08-18T03:15:36Z</time></trkpt><trkpt lat="59.3464066274" lon="34.6992038470"><ele>166.93</ele><time>2026-08-18T03:15:48Z</time></trkpt><trkpt lat="59.3459686730" lon="34.6991693974"><ele>165.48</ele><time>2026-08-18T03:16:05Z</time></trkpt><trkpt lat="59.3455444649" lon="34.6991410665"><ele>165.48</ele><time>2026-08-18T03:16:21Z</time></trkpt><trkpt lat="59.3450932670" lon="34.6991329361"><ele>166.45</ele><time>2026-08-18T03:16:39Z</time></trkpt><trkpt lat="59.3447294924" lon="34.6991033480"><ele>166.93</ele><time>2026-08-18T03:16:54Z</time></trkpt><trkpt lat="59.3442890234" lon="34.6991054434"><ele>166.93</ele><time>2026-08-18T03:17:11Z</time></trkpt><trkpt lat="59.3440165278" lon="34.6990725026"><ele>165.48</ele><time>2026-08-18T03:17:25Z</time></trkpt><trkpt lat="59.3436769769" lon="34.6991030965"><ele>165.48</ele><time>2026-08-18T03:17:39Z</time></trkpt><trkpt lat="59.3434168026" lon="34.6991094667"><ele>165.48</ele><time>2026-08-18T03:17:52Z</time></trkpt><trkpt lat="59.3431081809" lon="34.6990854945"><ele>164.52</ele><time>2026-08-18T03:18:06Z</time></trkpt><trkpt lat="59.3428460788" lon="34.6990771126"><ele>164.52</ele><time>2026-08-18T03:18:19Z</time></trkpt><trkpt lat="59.3425584119" lon="34.6990285814"><ele>164.52</ele><time>2026-08-18T03:18:32Z</time></trkpt><trkpt lat="59.3422134127" lon="34.6990108117"><ele>165.00</ele><time>2026-08-18T03:18:48Z</time></trkpt><trkpt lat="59.3419673201" lon="34.6989790443"><ele>165.96</ele><time>2026-08-18T03:19:00Z</time></trkpt><trkpt lat="59.3416295294" lon="34.6990004182"><ele>165.96</ele><time>2026-08-18T03:19:14Z</time></trkpt><trkpt lat="59.3412765674" lon="34.6989565808"><ele>166.93</ele><time>2026-08-18T03:19:29Z</time></trkpt><trkpt lat="59.3409936782" lon="34.6989798825"><ele>166.93</ele><time>2026-08-18T03:19:44Z</time></trkpt><trkpt lat="59.3409211747" lon="34.6989989094"><ele>166.93</ele><time>2026-08-18T03:19:58Z</time></trkpt><trkpt lat="59.3409105297" lon="34.6989923716"><ele>166.93</ele><time>2026-08-18T03:20:25Z</time></trkpt><trkpt lat="59.3409052491" lon="34.6989973169"><ele>166.93</ele><time>2026-08-18T03:21:01Z</time></trkpt><trkpt lat="59.3409024831" lon="34.6990057826"><ele>166.93</ele><time>2026-08-18T03:21:40Z</time></trkpt><trkpt lat="59.3408963643" lon="34.6990103927"><ele>166.93</ele><time>2026-08-18T03:22:11Z</time></trkpt><trkpt lat="59.3406193424" lon="34.6989403199"><ele>166.93</ele><time>2026-08-18T03:22:28Z</time></trkpt><trkpt lat="59.3403545581" lon="34.6989513002"><ele>166.93</ele><time>2026-08-18T03:22:41Z</time></trkpt><trkpt lat="59.3401568290" lon="34.6989088878"><ele>166.93</ele><time>2026-08-18T03:22:54Z</time></trkpt><trkpt lat="59.3398355506" lon="34.6989276633"><ele>166.93</ele><time>2026-08-18T03:23:09Z</time></trkpt><trkpt lat="59.3395487219" lon="34.6988772880"><ele>166.93</ele><time>2026-08-18T03:23:22Z</time></trkpt><trkpt lat="59.3392455485" lon="34.6988637093"><ele>166.93</ele><time>2026-08-18T03:23:35Z</time></trkpt><trkpt lat="59.3389527686" lon="34.6988491248"><ele>165.48</ele><time>2026-08-18T03:23:48Z</time></trkpt><trkpt lat="59.3385509402" lon="34.6990927029"><ele>165.00</ele><time>2026-08-18T03:24:05Z</time></trkpt><trkpt lat="59.3381658755" lon="34.6993938647"><ele>165.00</ele><time>2026-08-18T03:24:22Z</time></trkpt><trkpt lat="59.3378537335" lon="34.6996062621"><ele>165.00</ele><time>2026-08-18T03:24:36Z</time></trkpt><trkpt lat="59.3375627976" lon="34.6998144686"><ele>165.00</ele><time>2026-08-18T03:24:50Z</time></trkpt><trkpt lat="59.3371670041" lon="34.7001365852"><ele>164.52</ele><time>2026-08-18T03:25:04Z</time></trkpt><trkpt lat="59.3367624097" lon="34.7004642338"><ele>164.52</ele><time>2026-08-18T03:25:20Z</time></trkpt><trkpt lat="59.3363469187" lon="34.7008057963"><ele>164.04</ele><time>2026-08-18T03:25:34Z</time></trkpt><trkpt lat="59.3358786218" lon="34.7011437546"><ele>164.04</ele><time>2026-08-18T03:25:50Z</time></trkpt><trkpt lat="59.3355984148" lon="34.7013846505"><ele>164.04</ele><time>2026-08-18T03:26:02Z</time></trkpt><trkpt lat="59.3352613784" lon="34.7016851418"><ele>164.04</ele><time>2026-08-18T03:26:14Z</time></trkpt><trkpt lat="59.3347372580" lon="34.7020494193"><ele>164.04</ele><time>2026-08-18T03:26:31Z</time></trkpt><trkpt lat="59.3343902472" lon="34.7023219150"><ele>164.52</ele><time>2026-08-18T03:26:44Z</time></trkpt><trkpt lat="59.3339666259" lon="34.7026500665"><ele>164.52</ele><time>2026-08-18T03:26:58Z</time></trkpt><trkpt lat="59.3335623667" lon="34.7028899565"><ele>164.52</ele><time>2026-08-18T03:27:12Z</time></trkpt><trkpt lat="59.3335402384" lon="34.7028768808"><ele>164.52</ele><time>2026-08-18T03:27:13Z</time></trkpt><trkpt lat="59.3334669806" lon="34.7026985139"><ele>163.08</ele><time>2026-08-18T03:27:26Z</time></trkpt><trkpt lat="59.3334638793" lon="34.7026757151"><ele>162.60</ele><time>2026-08-18T03:27:54Z</time></trkpt><trkpt lat="59.3334616162" lon="34.7026584484"><ele>162.60</ele><time>2026-08-18T03:28:30Z</time></trkpt><trkpt lat="59.3334632926" lon="34.7026664112"><ele>162.60</ele><time>2026-08-18T03:29:04Z</time></trkpt><trkpt lat="59.3334701657" lon="34.7026566882"><ele>162.60</ele><time>2026-08-18T03:29:36Z</time></trkpt><trkpt lat="59.3334714230" lon="34.7026597057"><ele>162.60</ele><time>2026-08-18T03:30:06Z</time></trkpt><trkpt lat="59.3334732670" lon="34.7026663274"><ele>162.60</ele><time>2026-08-18T03:30:33Z</time></trkpt><trkpt lat="59.3334741052" lon="34.7026633099"><ele>162.60</ele><time>2026-08-18T03:30:41Z</time></trkpt><trkpt lat="59.3333907053" lon="34.7022133693"><ele>162.60</ele><time>2026-08-18T03:30:57Z</time></trkpt><trkpt lat="59.3332293537" lon="34.7020300571"><ele>162.12</ele><time>2026-08-18T03:31:07Z</time></trkpt><trkpt lat="59.3330431916" lon="34.7017501853"><ele>161.64</ele><time>2026-08-18T03:31:21Z</time></trkpt><trkpt lat="59.3330130167" lon="34.7016518656"><ele>161.64</ele><time>2026-08-18T03:31:24Z</time></trkpt><trkpt lat="59.3328781519" lon="34.7011935432"><ele>161.16</ele><time>2026-08-18T03:31:39Z</time></trkpt><trkpt lat="59.3326521758" lon="34.7007992584"><ele>161.16</ele><time>2026-08-18T03:31:51Z</time></trkpt><trkpt lat="59.3324230146" lon="34.7001724597"><ele>161.16</ele><time>2026-08-18T03:32:05Z</time></trkpt><trkpt lat="59.3322287221" lon="34.6996560507"><ele>162.12</ele><time>2026-08-18T03:32:19Z</time></trkpt><trkpt lat="59.3321273848" lon="34.6990952175"><ele>162.60</ele><time>2026-08-18T03:32:33Z</time></trkpt><trkpt lat="59.3319182564" lon="34.6987766214"><ele>162.12</ele><time>2026-08-18T03:32:45Z</time></trkpt><trkpt lat="59.3317841459" lon="34.6986026131"><ele>162.12</ele><time>2026-08-18T03:32:53Z</time></trkpt><trkpt lat="59.3316460960" lon="34.6979814302"><ele>162.12</ele><time>2026-08-18T03:33:10Z</time></trkpt><trkpt lat="59.3316127360" lon="34.6976861358"><ele>162.12</ele><time>2026-08-18T03:33:18Z</time></trkpt><trkpt lat="59.3316124007" lon="34.6976464055"><ele>162.12</ele><time>2026-08-18T03:33:19Z</time></trkpt><trkpt lat="59.3316067848" lon="34.6976101957"><ele>162.12</ele><time>2026-08-18T03:33:20Z</time></trkpt><trkpt lat="59.3316009175" lon="34.6975664422"><ele>162.12</ele><time>2026-08-18T03:33:21Z</time></trkpt><trkpt lat="59.3315921165" lon="34.6975238621"><ele>162.12</ele><time>2026-08-18T03:33:22Z</time></trkpt><trkpt lat="59.3315761071" lon="34.6974854730"><ele>162.12</ele><time>2026-08-18T03:33:23Z</time></trkpt><trkpt lat="59.3315627798" lon="34.6974486765"><ele>162.12</ele><time>2026-08-18T03:33:24Z</time></trkpt><trkpt lat="59.3313014321" lon="34.6970569063"><ele>162.12</ele><time>2026-08-18T03:33:39Z</time></trkpt><trkpt lat="59.3309683353" lon="34.6967002563"><ele>162.12</ele><time>2026-08-18T03:33:56Z</time></trkpt><trkpt lat="59.3307740428" lon="34.6962547582"><ele>161.64</ele><time>2026-08-18T03:34:10Z</time></trkpt><trkpt lat="59.3304966018" lon="34.6958780754"><ele>161.64</ele><time>2026-08-18T03:34:26Z</time></trkpt><trkpt lat="59.3304439634" lon="34.6957189031"><ele>161.64</ele><time>2026-08-18T03:34:30Z</time></trkpt><trkpt lat="59.3304399401" lon="34.6956689470"><ele>161.64</ele><time>2026-08-18T03:34:31Z</time></trkpt><trkpt lat="59.3304284569" lon="34.6956330724"><ele>161.64</ele><time>2026-08-18T03:34:32Z</time></trkpt><trkpt lat="59.3304182310" lon="34.6955981199"><ele>161.64</ele><time>2026-08-18T03:34:33Z</time></trkpt><trkpt lat="59.3304088432" lon="34.6955560427"><ele>161.64</ele><time>2026-08-18T03:34:34Z</time></trkpt><trkpt lat="59.3303985335" lon="34.6955149714"><ele>161.64</ele><time>2026-08-18T03:34:35Z</time></trkpt><trkpt lat="59.3303867988" lon="34.6954812761"><ele>161.64</ele><time>2026-08-18T03:34:36Z</time></trkpt><trkpt lat="59.3303730525" lon="34.6954503469"><ele>161.64</ele><time>2026-08-18T03:34:37Z</time></trkpt><trkpt lat="59.3301609065" lon="34.6951239556"><ele>161.64</ele><time>2026-08-18T03:34:50Z</time></trkpt><trkpt lat="59.3299837131" lon="34.6946871746"><ele>161.64</ele><time>2026-08-18T03:35:03Z</time></trkpt><trkpt lat="59.3297481816" lon="34.6941243298"><ele>161.64</ele><time>2026-08-18T03:35:21Z</time></trkpt><trkpt lat="59.3294558208" lon="34.6938610543"><ele>161.16</ele><time>2026-08-18T03:35:36Z</time></trkpt><trkpt lat="59.3291628733" lon="34.6932502650"><ele>161.64</ele><time>2026-08-18T03:35:55Z</time></trkpt><trkpt lat="59.3288889527" lon="34.6926711593"><ele>161.64</ele><time>2026-08-18T03:36:12Z</time></trkpt><trkpt lat="59.3287537526" lon="34.6921023633"><ele>161.64</ele><time>2026-08-18T03:36:27Z</time></trkpt><trkpt lat="59.3286091648" lon="34.6914525982"><ele>161.64</ele><time>2026-08-18T03:36:44Z</time></trkpt><trkpt lat="59.3285258487" lon="34.6910855547"><ele>161.64</ele><time>2026-08-18T03:36:54Z</time></trkpt><trkpt lat="59.3285191432" lon="34.6910424717"><ele>161.64</ele><time>2026-08-18T03:36:55Z</time></trkpt><trkpt lat="59.3285135273" lon="34.6909982152"><ele>161.64</ele><time>2026-08-18T03:36:56Z</time></trkpt><trkpt lat="59.3285060674" lon="34.6909580659"><ele>161.64</ele><time>2026-08-18T03:36:57Z</time></trkpt><trkpt lat="59.3284963444" lon="34.6909251250"><ele>161.64</ele><time>2026-08-18T03:36:58Z</time></trkpt><trkpt lat="59.3284843583" lon="34.6908919327"><ele>161.64</ele><time>2026-08-18T03:36:59Z</time></trkpt><trkpt lat="59.3282813486" lon="34.6904483624"><ele>161.16</ele><time>2026-08-18T03:37:15Z</time></trkpt><trkpt lat="59.3280967791" lon="34.6899171174"><ele>161.16</ele><time>2026-08-18T03:37:30Z</time></trkpt><trkpt lat="59.3279362656" lon="34.6894537657"><ele>161.16</ele><time>2026-08-18T03:37:42Z</time></trkpt><trkpt lat="59.3277170788" lon="34.6890401188"><ele>161.16</ele><time>2026-08-18T03:37:56Z</time></trkpt><trkpt lat="59.3276078627" lon="34.6888203453"><ele>161.16</ele><time>2026-08-18T03:38:12Z</time></trkpt><trkpt lat="59.3275903445" lon="34.6887977142"><ele>160.68</ele><time>2026-08-18T03:38:50Z</time></trkpt><trkpt lat="59.3275975529" lon="34.6887660306"><ele>160.68</ele><time>2026-08-18T03:39:19Z</time></trkpt><trkpt lat="59.3275983911" lon="34.6887756698"><ele>160.68</ele><time>2026-08-18T03:39:51Z</time></trkpt><trkpt lat="59.3275937811" lon="34.6887817048"><ele>160.68</ele><time>2026-08-18T03:40:19Z</time></trkpt><trkpt lat="59.3276471738" lon="34.6887673717"><ele>160.68</ele><time>2026-08-18T03:40:39Z</time></trkpt><trkpt lat="59.3276498560" lon="34.6887532901"><ele>160.68</ele><time>2026-08-18T03:41:02Z</time></trkpt><trkpt lat="59.3276367802" lon="34.6887366101"><ele>160.68</ele><time>2026-08-18T03:41:05Z</time></trkpt><trkpt lat="59.3276197650" lon="34.6887175832"><ele>160.68</ele><time>2026-08-18T03:41:06Z</time></trkpt><trkpt lat="59.3275989778" lon="34.6886890847"><ele>160.68</ele><time>2026-08-18T03:41:07Z</time></trkpt><trkpt lat="59.3274094630" lon="34.6884445008"><ele>160.20</ele><time>2026-08-18T03:41:20Z</time></trkpt><trkpt lat="59.3271937966" lon="34.6882420778"><ele>160.20</ele><time>2026-08-18T03:41:33Z</time></trkpt><trkpt lat="59.3269492965" lon="34.6878098231"><ele>160.68</ele><time>2026-08-18T03:41:49Z</time></trkpt><trkpt lat="59.3269016873" lon="34.6873898897"><ele>160.68</ele><time>2026-08-18T03:41:59Z</time></trkpt><trkpt lat="59.3269009329" lon="34.6873535961"><ele>160.68</ele><time>2026-08-18T03:42:00Z</time></trkpt><trkpt lat="59.3268978316" lon="34.6873215772"><ele>160.68</ele><time>2026-08-18T03:42:01Z</time></trkpt><trkpt lat="59.3268906232" lon="34.6872862056"><ele>160.68</ele><time>2026-08-18T03:42:02Z</time></trkpt><trkpt lat="59.3268832471" lon="34.6872478165"><ele>160.68</ele><time>2026-08-18T03:42:03Z</time></trkpt><trkpt lat="59.3268751167" lon="34.6872074995"><ele>160.68</ele><time>2026-08-18T03:42:04Z</time></trkpt><trkpt lat="59.3268679082" lon="34.6871645842"><ele>160.68</ele><time>2026-08-18T03:42:05Z</time></trkpt><trkpt lat="59.3267742824" lon="34.6868242789"><ele>159.24</ele><time>2026-08-18T03:42:21Z</time></trkpt><trkpt lat="59.3267813232" lon="34.6867342573"><ele>159.72</ele><time>2026-08-18T03:42:24Z</time></trkpt><trkpt lat="59.3267402519" lon="34.6865851432"><ele>159.72</ele><time>2026-08-18T03:42:31Z</time></trkpt><trkpt lat="59.3267358094" lon="34.6865533758"><ele>159.72</ele><time>2026-08-18T03:42:32Z</time></trkpt><trkpt lat="59.3267318700" lon="34.6865289006"><ele>159.72</ele><time>2026-08-18T03:42:33Z</time></trkpt><trkpt lat="59.3266456202" lon="34.6861452609"><ele>159.72</ele><time>2026-08-18T03:42:50Z</time></trkpt><trkpt lat="59.3265646510" lon="34.6858560015"><ele>159.72</ele><time>2026-08-18T03:43:03Z</time></trkpt><trkpt lat="59.3264261819" lon="34.6854472160"><ele>159.72</ele><time>2026-08-18T03:43:16Z</time></trkpt><trkpt lat="59.3264207337" lon="34.6854081564"><ele>159.72</ele><time>2026-08-18T03:43:17Z</time></trkpt><trkpt lat="59.3264156207" lon="34.6853727009"><ele>159.72</ele><time>2026-08-18T03:43:18Z</time></trkpt><trkpt lat="59.3263402674" lon="34.6851655003"><ele>159.72</ele><time>2026-08-18T03:43:25Z</time></trkpt><trkpt lat="59.3263336457" lon="34.6851240098"><ele>159.72</ele><time>2026-08-18T03:43:26Z</time></trkpt><trkpt lat="59.3261805922" lon="34.6847773343"><ele>159.72</ele><time>2026-08-18T03:43:38Z</time></trkpt><trkpt lat="59.3260870501" lon="34.6842921898"><ele>159.72</ele><time>2026-08-18T03:43:51Z</time></trkpt><trkpt lat="59.3260540254" lon="34.6837366372"><ele>159.72</ele><time>2026-08-18T03:44:05Z</time></trkpt><trkpt lat="59.3260117806" lon="34.6834879462"><ele>159.72</ele><time>2026-08-18T03:44:13Z</time></trkpt><trkpt lat="59.3260167260" lon="34.6834595315"><ele>159.72</ele><time>2026-08-18T03:44:14Z</time></trkpt><trkpt lat="59.3260182347" lon="34.6834285185"><ele>159.72</ele><time>2026-08-18T03:44:15Z</time></trkpt><trkpt lat="59.3260228448" lon="34.6832699329"><ele>159.72</ele><time>2026-08-18T03:44:22Z</time></trkpt><trkpt lat="59.3260306399" lon="34.6832446195"><ele>159.72</ele><time>2026-08-18T03:44:23Z</time></trkpt><trkpt lat="59.3260078412" lon="34.6828728821"><ele>159.24</ele><time>2026-08-18T03:44:37Z</time></trkpt><trkpt lat="59.3259495869" lon="34.6828115266"><ele>159.24</ele><time>2026-08-18T03:44:41Z</time></trkpt><trkpt lat="59.3259453960" lon="34.6827924158"><ele>159.24</ele><time>2026-08-18T03:44:42Z</time></trkpt><trkpt lat="59.3259404507" lon="34.6827686951"><ele>159.24</ele><time>2026-08-18T03:44:43Z</time></trkpt><trkpt lat="59.3259363435" lon="34.6827431303"><ele>159.24</ele><time>2026-08-18T03:44:44Z</time></trkpt><trkpt lat="59.3259356730" lon="34.6827175654"><ele>159.24</ele><time>2026-08-18T03:44:45Z</time></trkpt><trkpt lat="59.3259273749" lon="34.6826971974"><ele>159.24</ele><time>2026-08-18T03:44:46Z</time></trkpt><trkpt lat="59.3259194121" lon="34.6826807689"><ele>159.24</ele><time>2026-08-18T03:44:47Z</time></trkpt><trkpt lat="59.3258425500" lon="34.6824608278"><ele>159.24</ele><time>2026-08-18T03:44:59Z</time></trkpt><trkpt lat="59.3257672805" lon="34.6820961311"><ele>159.24</ele><time>2026-08-18T03:45:14Z</time></trkpt><trkpt lat="59.3257625867" lon="34.6820706502"><ele>159.24</ele><time>2026-08-18T03:45:15Z</time></trkpt><trkpt lat="59.3257635925" lon="34.6820410620"><ele>159.24</ele><time>2026-08-18T03:45:16Z</time></trkpt><trkpt lat="59.3257640116" lon="34.6820150781"><ele>159.24</ele><time>2026-08-18T03:45:17Z</time></trkpt><trkpt lat="59.3257639278" lon="34.6819887590"><ele>159.24</ele><time>2026-08-18T03:45:18Z</time></trkpt><trkpt lat="59.3257642630" lon="34.6819586679"><ele>159.24</ele><time>2026-08-18T03:45:19Z</time></trkpt><trkpt lat="59.3257646821" lon="34.6819253080"><ele>159.24</ele><time>2026-08-18T03:45:20Z</time></trkpt><trkpt lat="59.3257628381" lon="34.6818974800"><ele>159.24</ele><time>2026-08-18T03:45:21Z</time></trkpt><trkpt lat="59.3257606588" lon="34.6818749327"><ele>159.24</ele><time>2026-08-18T03:45:22Z</time></trkpt><trkpt lat="59.3257589824" lon="34.6818522178"><ele>159.24</ele><time>2026-08-18T03:45:23Z</time></trkpt><trkpt lat="59.3257558811" lon="34.6818302572"><ele>159.24</ele><time>2026-08-18T03:45:24Z</time></trkpt><trkpt lat="59.3257097807" lon="34.6815179475"><ele>159.24</ele><time>2026-08-18T03:45:37Z</time></trkpt><trkpt lat="59.3256628420" lon="34.6813771315"><ele>159.24</ele><time>2026-08-18T03:45:43Z</time></trkpt><trkpt lat="59.3256515265" lon="34.6813659836"><ele>159.24</ele><time>2026-08-18T03:45:44Z</time></trkpt><trkpt lat="59.3256396241" lon="34.6813494712"><ele>159.24</ele><time>2026-08-18T03:45:45Z</time></trkpt><trkpt lat="59.3255791068" lon="34.6811825875"><ele>159.24</ele><time>2026-08-18T03:45:52Z</time></trkpt><trkpt lat="59.3255698867" lon="34.6811558492"><ele>159.24</ele><time>2026-08-18T03:45:53Z</time></trkpt><trkpt lat="59.3255615048" lon="34.6811246686"><ele>159.24</ele><time>2026-08-18T03:45:54Z</time></trkpt><trkpt lat="59.3255522847" lon="34.6810942423"><ele>159.24</ele><time>2026-08-18T03:45:55Z</time></trkpt><trkpt lat="59.3255434837" lon="34.6810675878"><ele>159.24</ele><time>2026-08-18T03:45:56Z</time></trkpt><trkpt lat="59.3254100438" lon="34.6806367580"><ele>159.24</ele><time>2026-08-18T03:46:10Z</time></trkpt><trkpt lat="59.3253403902" lon="34.6803371049"><ele>159.24</ele><time>2026-08-18T03:46:25Z</time></trkpt><trkpt lat="59.3254030868" lon="34.6802522801"><ele>160.20</ele><time>2026-08-18T03:46:55Z</time></trkpt><trkpt lat="59.3254062720" lon="34.6802479215"><ele>160.20</ele><time>2026-08-18T03:47:23Z</time></trkpt><trkpt lat="59.3254044279" lon="34.6802478377"><ele>160.20</ele><time>2026-08-18T03:47:53Z</time></trkpt><trkpt lat="59.3254123069" lon="34.6802533697"><ele>160.20</ele><time>2026-08-18T03:48:05Z</time></trkpt><trkpt lat="59.3254158273" lon="34.6802465804"><ele>160.20</ele><time>2026-08-18T03:48:21Z</time></trkpt><trkpt lat="59.3254136480" lon="34.6802513581"><ele>160.20</ele><time>2026-08-18T03:48:45Z</time></trkpt><trkpt lat="59.3254569825" lon="34.6803443972"><ele>160.20</ele><time>2026-08-18T03:49:05Z</time></trkpt><trkpt lat="59.3253970519" lon="34.6802911721"><ele>160.20</ele><time>2026-08-18T03:49:23Z</time></trkpt><trkpt lat="59.3253993988" lon="34.6802568901"><ele>160.20</ele><time>2026-08-18T03:49:51Z</time></trkpt><trkpt lat="59.3254110496" lon="34.6802340075"><ele>160.20</ele><time>2026-08-18T03:50:19Z</time></trkpt><trkpt lat="59.3254128098" lon="34.6802302357"><ele>160.20</ele><time>2026-08-18T03:50:31Z</time></trkpt><trkpt lat="59.3253378756" lon="34.6798447520"><ele>160.20</ele><time>2026-08-18T03:50:43Z</time></trkpt><trkpt lat="59.3253449164" lon="34.6792024467"><ele>160.20</ele><time>2026-08-18T03:51:01Z</time></trkpt><trkpt lat="59.3252749275" lon="34.6786675137"><ele>161.16</ele><time>2026-08-18T03:51:14Z</time></trkpt><trkpt lat="59.3252416514" lon="34.6782610752"><ele>162.12</ele><time>2026-08-18T03:51:26Z</time></trkpt><trkpt lat="59.3252395559" lon="34.6782112867"><ele>162.12</ele><time>2026-08-18T03:51:27Z</time></trkpt><trkpt lat="59.3251876719" lon="34.6777885035"><ele>163.08</ele><time>2026-08-18T03:51:39Z</time></trkpt><trkpt lat="59.3251863308" lon="34.6777615137"><ele>163.08</ele><time>2026-08-18T03:51:40Z</time></trkpt><trkpt lat="59.3251827266" lon="34.6777321771"><ele>164.04</ele><time>2026-08-18T03:51:41Z</time></trkpt><trkpt lat="59.3251749314" lon="34.6777034272"><ele>163.56</ele><time>2026-08-18T03:51:42Z</time></trkpt><trkpt lat="59.3251646217" lon="34.6776750963"><ele>163.56</ele><time>2026-08-18T03:51:43Z</time></trkpt><trkpt lat="59.3251523841" lon="34.6776445862"><ele>163.56</ele><time>2026-08-18T03:51:44Z</time></trkpt><trkpt lat="59.3251418229" lon="34.6776123997"><ele>163.56</ele><time>2026-08-18T03:51:45Z</time></trkpt><trkpt lat="59.3250571657" lon="34.6773912851"><ele>164.52</ele><time>2026-08-18T03:51:57Z</time></trkpt><trkpt lat="59.3250613566" lon="34.6773719229"><ele>164.52</ele><time>2026-08-18T03:52:27Z</time></trkpt><trkpt lat="59.3250419106" lon="34.6772102360"><ele>164.52</ele><time>2026-08-18T03:52:50Z</time></trkpt><trkpt lat="59.3250035215" lon="34.6769548394"><ele>165.00</ele><time>2026-08-18T03:53:06Z</time></trkpt><trkpt lat="59.3249818124" lon="34.6768722776"><ele>165.00</ele><time>2026-08-18T03:53:10Z</time></trkpt><trkpt lat="59.3248986639" lon="34.6764604747"><ele>165.96</ele><time>2026-08-18T03:53:27Z</time></trkpt><trkpt lat="59.3248913717" lon="34.6764375083"><ele>165.96</ele><time>2026-08-18T03:53:28Z</time></trkpt><trkpt lat="59.3248813134" lon="34.6764134523"><ele>165.96</ele><time>2026-08-18T03:53:29Z</time></trkpt><trkpt lat="59.3247587699" lon="34.6760572214"><ele>165.96</ele><time>2026-08-18T03:53:46Z</time></trkpt><trkpt lat="59.3246185407" lon="34.6757012419"><ele>165.96</ele><time>2026-08-18T03:54:02Z</time></trkpt><trkpt lat="59.3244636431" lon="34.6754485276"><ele>165.96</ele><time>2026-08-18T03:54:18Z</time></trkpt><trkpt lat="59.3242411036" lon="34.6752857510"><ele>165.96</ele><time>2026-08-18T03:54:31Z</time></trkpt><trkpt lat="59.3240214977" lon="34.6750794724"><ele>165.96</ele><time>2026-08-18T03:54:44Z</time></trkpt><trkpt lat="59.3238278758" lon="34.6748427674"><ele>165.96</ele><time>2026-08-18T03:54:57Z</time></trkpt><trkpt lat="59.3235639296" lon="34.6746329684"><ele>165.96</ele><time>2026-08-18T03:55:12Z</time></trkpt><trkpt lat="59.3232878298" lon="34.6744888835"><ele>164.52</ele><time>2026-08-18T03:55:27Z</time></trkpt><trkpt lat="59.3229757715" lon="34.6743348241"><ele>163.56</ele><time>2026-08-18T03:55:45Z</time></trkpt><trkpt lat="59.3226963188" lon="34.6742307208"><ele>162.12</ele><time>2026-08-18T03:56:01Z</time></trkpt><trkpt lat="59.3223814107" lon="34.6740305610"><ele>161.64</ele><time>2026-08-18T03:56:19Z</time></trkpt><trkpt lat="59.3220562767" lon="34.6737822890"><ele>161.64</ele><time>2026-08-18T03:56:35Z</time></trkpt><trkpt lat="59.3217967730" lon="34.6733750962"><ele>161.64</ele><time>2026-08-18T03:56:51Z</time></trkpt><trkpt lat="59.3216159754" lon="34.6730072144"><ele>161.64</ele><time>2026-08-18T03:57:06Z</time></trkpt><trkpt lat="59.3214434758" lon="34.6726244129"><ele>161.64</ele><time>2026-08-18T03:57:22Z</time></trkpt><trkpt lat="59.3212092854" lon="34.6722188964"><ele>161.64</ele><time>2026-08-18T03:57:37Z</time></trkpt><trkpt lat="59.3209833093" lon="34.6718148887"><ele>161.64</ele><time>2026-08-18T03:57:53Z</time></trkpt><trkpt lat="59.3209802918" lon="34.6717982087"><ele>161.64</ele><time>2026-08-18T03:58:09Z</time></trkpt><trkpt lat="59.3209838122" lon="34.6717895754"><ele>161.64</ele><time>2026-08-18T03:58:40Z</time></trkpt><trkpt lat="59.3209864106" lon="34.6717713866"><ele>161.64</ele><time>2026-08-18T03:59:13Z</time></trkpt><trkpt lat="59.3209853210" lon="34.6717751585"><ele>161.64</ele><time>2026-08-18T03:59:42Z</time></trkpt><trkpt lat="59.3209877517" lon="34.6717671119"><ele>161.64</ele><time>2026-08-18T04:00:13Z</time></trkpt><trkpt lat="59.3209872488" lon="34.6717764996"><ele>161.64</ele><time>2026-08-18T04:00:41Z</time></trkpt><trkpt lat="59.3209875003" lon="34.6717831213"><ele>161.64</ele><time>2026-08-18T04:01:14Z</time></trkpt><trkpt lat="59.3209912721" lon="34.6717798524"><ele>161.64</ele><time>2026-08-18T04:01:42Z</time></trkpt><trkpt lat="59.3209978100" lon="34.6717729792"><ele>161.64</ele><time>2026-08-18T04:02:09Z</time></trkpt><trkpt lat="59.3210009951" lon="34.6717697941"><ele>161.64</ele><time>2026-08-18T04:02:33Z</time></trkpt><trkpt lat="59.3209994026" lon="34.6717686206"><ele>161.64</ele><time>2026-08-18T04:02:59Z</time></trkpt><trkpt lat="59.3209998216" lon="34.6717644297"><ele>161.64</ele><time>2026-08-18T04:03:27Z</time></trkpt><trkpt lat="59.3209983967" lon="34.6717655193"><ele>161.64</ele><time>2026-08-18T04:03:52Z</time></trkpt><trkpt lat="59.3208953831" lon="34.6716057602"><ele>161.64</ele><time>2026-08-18T04:04:05Z</time></trkpt><trkpt lat="59.3207089696" lon="34.6712562349"><ele>161.64</ele><time>2026-08-18T04:04:19Z</time></trkpt><trkpt lat="59.3206748553" lon="34.6711915266"><ele>161.64</ele><time>2026-08-18T04:04:22Z</time></trkpt><trkpt lat="59.3206572533" lon="34.6710677259"><ele>161.64</ele><time>2026-08-18T04:04:25Z</time></trkpt><trkpt lat="59.3206443451" lon="34.6708917897"><ele>162.60</ele><time>2026-08-18T04:04:29Z</time></trkpt><trkpt lat="59.3205759488" lon="34.6707421727"><ele>162.60</ele><time>2026-08-18T04:04:34Z</time></trkpt><trkpt lat="59.3205613643" lon="34.6705986746"><ele>162.60</ele><time>2026-08-18T04:04:38Z</time></trkpt><trkpt lat="59.3205373921" lon="34.6703430265"><ele>162.60</ele><time>2026-08-18T04:04:45Z</time></trkpt><trkpt lat="59.3203834165" lon="34.6699841972"><ele>162.60</ele><time>2026-08-18T04:04:58Z</time></trkpt><trkpt lat="59.3203415070" lon="34.6698082611"><ele>162.60</ele><time>2026-08-18T04:05:03Z</time></trkpt><trkpt lat="59.3201814964" lon="34.6693216916"><ele>162.60</ele><time>2026-08-18T04:05:18Z</time></trkpt><trkpt lat="59.3200815003" lon="34.6688571665"><ele>162.60</ele><time>2026-08-18T04:05:32Z</time></trkpt><trkpt lat="59.3199756369" lon="34.6683755424"><ele>162.60</ele><time>2026-08-18T04:05:46Z</time></trkpt><trkpt lat="59.3198934104" lon="34.6677990351"><ele>162.60</ele><time>2026-08-18T04:06:01Z</time></trkpt><trkpt lat="59.3198421132" lon="34.6674871445"><ele>161.16</ele><time>2026-08-18T04:06:10Z</time></trkpt><trkpt lat="59.3197364174" lon="34.6670175903"><ele>160.68</ele><time>2026-08-18T04:06:24Z</time></trkpt><trkpt lat="59.3195614871" lon="34.6664722636"><ele>160.68</ele><time>2026-08-18T04:06:39Z</time></trkpt><trkpt lat="59.3194373511" lon="34.6658345684"><ele>162.12</ele><time>2026-08-18T04:06:56Z</time></trkpt><trkpt lat="59.3193987105" lon="34.6656590514"><ele>162.12</ele><time>2026-08-18T04:07:00Z</time></trkpt><trkpt lat="59.3193297274" lon="34.6653975360"><ele>162.12</ele><time>2026-08-18T04:07:07Z</time></trkpt><trkpt lat="59.3192599062" lon="34.6647891775"><ele>160.68</ele><time>2026-08-18T04:07:21Z</time></trkpt><trkpt lat="59.3192029931" lon="34.6641897876"><ele>160.68</ele><time>2026-08-18T04:07:34Z</time></trkpt><trkpt lat="59.3190861493" lon="34.6637443732"><ele>160.68</ele><time>2026-08-18T04:07:46Z</time></trkpt><trkpt lat="59.3190475926" lon="34.6636578720"><ele>160.68</ele><time>2026-08-18T04:07:49Z</time></trkpt><trkpt lat="59.3189438246" lon="34.6634330694"><ele>160.68</ele><time>2026-08-18T04:07:58Z</time></trkpt><trkpt lat="59.3187947106" lon="34.6631683689"><ele>160.68</ele><time>2026-08-18T04:08:09Z</time></trkpt><trkpt lat="59.3186984025" lon="34.6629095357"><ele>160.68</ele><time>2026-08-18T04:08:17Z</time></trkpt><trkpt lat="59.3186776154" lon="34.6627983917"><ele>160.68</ele><time>2026-08-18T04:08:24Z</time></trkpt><trkpt lat="59.3186247256" lon="34.6627073642"><ele>160.68</ele><time>2026-08-18T04:08:28Z</time></trkpt><trkpt lat="59.3184748571" lon="34.6622992493"><ele>160.68</ele><time>2026-08-18T04:08:41Z</time></trkpt><trkpt lat="59.3183885235" lon="34.6618562657"><ele>160.68</ele><time>2026-08-18T04:08:54Z</time></trkpt><trkpt lat="59.3183505535" lon="34.6612904035"><ele>159.72</ele><time>2026-08-18T04:09:10Z</time></trkpt><trkpt lat="59.3183265813" lon="34.6607763413"><ele>159.72</ele><time>2026-08-18T04:09:25Z</time></trkpt><trkpt lat="59.3183310237" lon="34.6606624313"><ele>159.72</ele><time>2026-08-18T04:09:28Z</time></trkpt><trkpt lat="59.3183154333" lon="34.6601842437"><ele>159.72</ele><time>2026-08-18T04:09:41Z</time></trkpt><trkpt lat="59.3182646390" lon="34.6597084869"><ele>159.72</ele><time>2026-08-18T04:09:55Z</time></trkpt><trkpt lat="59.3182476237" lon="34.6592817642"><ele>159.72</ele><time>2026-08-18T04:10:07Z</time></trkpt><trkpt lat="59.3184977397" lon="34.6588351764"><ele>159.72</ele><time>2026-08-18T04:10:25Z</time></trkpt><trkpt lat="59.3188196048" lon="34.6585669555"><ele>161.16</ele><time>2026-08-18T04:10:42Z</time></trkpt><trkpt lat="59.3190945312" lon="34.6583522949"><ele>163.08</ele><time>2026-08-18T04:10:55Z</time></trkpt><trkpt lat="59.3194001354" lon="34.6581741795"><ele>163.08</ele><time>2026-08-18T04:11:11Z</time></trkpt><trkpt lat="59.3196992856" lon="34.6580611914"><ele>163.56</ele><time>2026-08-18T04:11:24Z</time></trkpt><trkpt lat="59.3198791612" lon="34.6578023583"><ele>163.56</ele><time>2026-08-18T04:11:35Z</time></trkpt><trkpt lat="59.3199535925" lon="34.6576250810"><ele>163.56</ele><time>2026-08-18T04:11:41Z</time></trkpt><trkpt lat="59.3201319594" lon="34.6572071593"><ele>163.56</ele><time>2026-08-18T04:11:56Z</time></trkpt><trkpt lat="59.3202763796" lon="34.6567956079"><ele>163.56</ele><time>2026-08-18T04:12:10Z</time></trkpt><trkpt lat="59.3203542475" lon="34.6566396207"><ele>162.60</ele><time>2026-08-18T04:12:17Z</time></trkpt><trkpt lat="59.3204360548" lon="34.6563593298"><ele>161.64</ele><time>2026-08-18T04:12:29Z</time></trkpt><trkpt lat="59.3204994220" lon="34.6560300048"><ele>162.12</ele><time>2026-08-18T04:12:43Z</time></trkpt><trkpt lat="59.3205891084" lon="34.6558021009"><ele>162.12</ele><time>2026-08-18T04:12:56Z</time></trkpt><trkpt lat="59.3206784595" lon="34.6555373166"><ele>162.12</ele><time>2026-08-18T04:13:10Z</time></trkpt><trkpt lat="59.3206913676" lon="34.6553982608"><ele>162.12</ele><time>2026-08-18T04:13:23Z</time></trkpt><trkpt lat="59.3206924573" lon="34.6553050540"><ele>162.12</ele><time>2026-08-18T04:13:28Z</time></trkpt><trkpt lat="59.3207115680" lon="34.6551181376"><ele>162.12</ele><time>2026-08-18T04:13:41Z</time></trkpt><trkpt lat="59.3207320198" lon="34.6549571212"><ele>162.12</ele><time>2026-08-18T04:13:54Z</time></trkpt><trkpt lat="59.3207653798" lon="34.6547388565"><ele>162.60</ele><time>2026-08-18T04:14:10Z</time></trkpt><trkpt lat="59.3207655475" lon="34.6547229309"><ele>162.60</ele><time>2026-08-18T04:14:12Z</time></trkpt><trkpt lat="59.3208056130" lon="34.6544317435"><ele>163.56</ele><time>2026-08-18T04:14:28Z</time></trkpt><trkpt lat="59.3208716623" lon="34.6541178413"><ele>163.56</ele><time>2026-08-18T04:14:52Z</time></trkpt><trkpt lat="59.3209522963" lon="34.6537758596"><ele>164.52</ele><time>2026-08-18T04:15:06Z</time></trkpt><trkpt lat="59.3209659588" lon="34.6536182798"><ele>164.04</ele><time>2026-08-18T04:15:21Z</time></trkpt><trkpt lat="59.3209865782" lon="34.6535756998"><ele>164.04</ele><time>2026-08-18T04:15:36Z</time></trkpt><trkpt lat="59.3210679665" lon="34.6534440201"><ele>164.04</ele><time>2026-08-18T04:15:53Z</time></trkpt><trkpt lat="59.3211690523" lon="34.6532073151"><ele>164.04</ele><time>2026-08-18T04:16:07Z</time></trkpt><trkpt lat="59.3212808669" lon="34.6529156249"><ele>163.08</ele><time>2026-08-18T04:16:21Z</time></trkpt><trkpt lat="59.3213067669" lon="34.6528732125"><ele>163.08</ele><time>2026-08-18T04:16:24Z</time></trkpt><trkpt lat="59.3215200026" lon="34.6525868028"><ele>162.60</ele><time>2026-08-18T04:16:38Z</time></trkpt><trkpt lat="59.3216356728" lon="34.6524215955"><ele>162.60</ele><time>2026-08-18T04:16:50Z</time></trkpt><trkpt lat="59.3218133692" lon="34.6520730760"><ele>162.60</ele><time>2026-08-18T04:17:07Z</time></trkpt><trkpt lat="59.3219793309" lon="34.6519215312"><ele>162.60</ele><time>2026-08-18T04:17:21Z</time></trkpt><trkpt lat="59.3222362362" lon="34.6518910211"><ele>164.52</ele><time>2026-08-18T04:17:37Z</time></trkpt><trkpt lat="59.3224127591" lon="34.6517600957"><ele>165.96</ele><time>2026-08-18T04:17:52Z</time></trkpt><trkpt lat="59.3223904632" lon="34.6517554019"><ele>165.96</ele><time>2026-08-18T04:18:16Z</time></trkpt><trkpt lat="59.3224400841" lon="34.6518013347"><ele>165.96</ele><time>2026-08-18T04:18:42Z</time></trkpt><trkpt lat="59.3224611226" lon="34.6518151648"><ele>166.45</ele><time>2026-08-18T04:19:05Z</time></trkpt><trkpt lat="59.3223911338" lon="34.6516730078"><ele>166.45</ele><time>2026-08-18T04:19:27Z</time></trkpt><trkpt lat="59.3224482983" lon="34.6517838165"><ele>166.45</ele><time>2026-08-18T04:19:56Z</time></trkpt><trkpt lat="59.3224858493" lon="34.6518341079"><ele>166.45</ele><time>2026-08-18T04:20:22Z</time></trkpt><trkpt lat="59.3225384876" lon="34.6519020852"><ele>166.45</ele><time>2026-08-18T04:20:50Z</time></trkpt><trkpt lat="59.3225395773" lon="34.6519034263"><ele>166.45</ele><time>2026-08-18T04:20:58Z</time></trkpt><trkpt lat="59.3225861806" lon="34.6517754346"><ele>166.45</ele><time>2026-08-18T04:21:04Z</time></trkpt><trkpt lat="59.3226130866" lon="34.6516517177"><ele>166.45</ele><time>2026-08-18T04:21:08Z</time></trkpt><trkpt lat="59.3226723466" lon="34.6515300963"><ele>165.48</ele><time>2026-08-18T04:21:20Z</time></trkpt><trkpt lat="59.3227654696" lon="34.6514279209"><ele>165.00</ele><time>2026-08-18T04:21:38Z</time></trkpt><trkpt lat="59.3229389749" lon="34.6513408329"><ele>165.48</ele><time>2026-08-18T04:21:57Z</time></trkpt><trkpt lat="59.3231125642" lon="34.6513233986"><ele>165.48</ele><time>2026-08-18T04:22:16Z</time></trkpt><trkpt lat="59.3232084531" lon="34.6511471272"><ele>165.48</ele><time>2026-08-18T04:22:33Z</time></trkpt><trkpt lat="59.3233346008" lon="34.6510761324"><ele>165.48</ele><time>2026-08-18T04:22:50Z</time></trkpt><trkpt lat="59.3233824614" lon="34.6509868652"><ele>165.48</ele><time>2026-08-18T04:22:55Z</time></trkpt><trkpt lat="59.3235578947" lon="34.6507649962"><ele>165.00</ele><time>2026-08-18T04:23:12Z</time></trkpt><trkpt lat="59.3237062544" lon="34.6505678538"><ele>164.52</ele><time>2026-08-18T04:23:29Z</time></trkpt><trkpt lat="59.3238543626" lon="34.6504214220"><ele>164.04</ele><time>2026-08-18T04:23:45Z</time></trkpt><trkpt lat="59.3240900617" lon="34.6503666881"><ele>163.56</ele><time>2026-08-18T04:24:04Z</time></trkpt><trkpt lat="59.3242045585" lon="34.6501415502"><ele>163.56</ele><time>2026-08-18T04:24:18Z</time></trkpt><trkpt lat="59.3242273573" lon="34.6500417218"><ele>163.56</ele><time>2026-08-18T04:24:22Z</time></trkpt><trkpt lat="59.3243192229" lon="34.6498723235"><ele>164.04</ele><time>2026-08-18T04:24:34Z</time></trkpt><trkpt lat="59.3243297841" lon="34.6498896740"><ele>164.04</ele><time>2026-08-18T04:24:52Z</time></trkpt><trkpt lat="59.3243342265" lon="34.6498882491"><ele>164.04</ele><time>2026-08-18T04:24:55Z</time></trkpt><trkpt lat="59.3243683409" lon="34.6498569846"><ele>164.04</ele><time>2026-08-18T04:25:00Z</time></trkpt><trkpt lat="59.3244312890" lon="34.6498251334"><ele>164.04</ele><time>2026-08-18T04:25:18Z</time></trkpt><trkpt lat="59.3244053889" lon="34.6498452500"><ele>164.04</ele><time>2026-08-18T04:25:35Z</time></trkpt><trkpt lat="59.3243858591" lon="34.6498322580"><ele>164.04</ele><time>2026-08-18T04:25:53Z</time></trkpt><trkpt lat="59.3243840151" lon="34.6498249657"><ele>164.52</ele><time>2026-08-18T04:26:13Z</time></trkpt><trkpt lat="59.3243904691" lon="34.6498374548"><ele>164.52</ele><time>2026-08-18T04:26:44Z</time></trkpt><trkpt lat="59.3243905529" lon="34.6498436574"><ele>165.00</ele><time>2026-08-18T04:27:07Z</time></trkpt><trkpt lat="59.3243939895" lon="34.6498403046"><ele>165.48</ele><time>2026-08-18T04:27:37Z</time></trkpt><trkpt lat="59.3243920617" lon="34.6498413943"><ele>165.00</ele><time>2026-08-18T04:28:07Z</time></trkpt><trkpt lat="59.3243853562" lon="34.6498313360"><ele>165.48</ele><time>2026-08-18T04:28:36Z</time></trkpt><trkpt lat="59.3243843503" lon="34.6498276480"><ele>165.96</ele><time>2026-08-18T04:29:05Z</time></trkpt><trkpt lat="59.3243861105" lon="34.6498239599"><ele>165.96</ele><time>2026-08-18T04:29:34Z</time></trkpt><trkpt lat="59.3243897986" lon="34.6498346888"><ele>166.45</ele><time>2026-08-18T04:29:55Z</time></trkpt><trkpt lat="59.3243922293" lon="34.6498388797"><ele>166.45</ele><time>2026-08-18T04:30:14Z</time></trkpt><trkpt lat="59.3244034611" lon="34.6498595830"><ele>166.93</ele><time>2026-08-18T04:30:29Z</time></trkpt><trkpt lat="59.3244088255" lon="34.6498698927"><ele>166.45</ele><time>2026-08-18T04:30:42Z</time></trkpt><trkpt lat="59.3244148605" lon="34.6498670429"><ele>165.48</ele><time>2026-08-18T04:31:04Z</time></trkpt><trkpt lat="59.3244362343" lon="34.6498694737"><ele>165.96</ele><time>2026-08-18T04:31:25Z</time></trkpt><trkpt lat="59.3244354799" lon="34.6498838905"><ele>165.96</ele><time>2026-08-18T04:31:49Z</time></trkpt><trkpt lat="59.3244422693" lon="34.6499247942"><ele>166.45</ele><time>2026-08-18T04:32:17Z</time></trkpt><trkpt lat="59.3244576082" lon="34.6499807853"><ele>165.96</ele><time>2026-08-18T04:32:39Z</time></trkpt><trkpt lat="59.3244400900" lon="34.6499067731"><ele>166.45</ele><time>2026-08-18T04:33:01Z</time></trkpt><trkpt lat="59.3244427722" lon="34.6499324217"><ele>167.41</ele><time>2026-08-18T04:33:21Z</time></trkpt><trkpt lat="59.3244552612" lon="34.6499466710"><ele>167.89</ele><time>2026-08-18T04:33:47Z</time></trkpt><trkpt lat="59.3244566862" lon="34.6499519516"><ele>167.89</ele><time>2026-08-18T04:34:09Z</time></trkpt><trkpt lat="59.3244742882" lon="34.6499333438"><ele>168.37</ele><time>2026-08-18T04:34:31Z</time></trkpt><trkpt lat="59.3245084863" lon="34.6500128042"><ele>168.37</ele><time>2026-08-18T04:34:57Z</time></trkpt><trkpt lat="59.3244799040" lon="34.6499605011"><ele>168.85</ele><time>2026-08-18T04:35:20Z</time></trkpt><trkpt lat="59.3244162016" lon="34.6500937734"><ele>168.85</ele><time>2026-08-18T04:35:41Z</time></trkpt><trkpt lat="59.3244019523" lon="34.6499628481"><ele>168.85</ele><time>2026-08-18T04:35:57Z</time></trkpt><trkpt lat="59.3244084902" lon="34.6499577351"><ele>168.85</ele><time>2026-08-18T04:36:11Z</time></trkpt><trkpt lat="59.3244855199" lon="34.6500321664"><ele>169.33</ele><time>2026-08-18T04:36:23Z</time></trkpt><trkpt lat="59.3244849332" lon="34.6500143968"><ele>169.33</ele><time>2026-08-18T04:36:40Z</time></trkpt><trkpt lat="59.3244868610" lon="34.6499951184"><ele>169.33</ele><time>2026-08-18T04:36:55Z</time></trkpt><trkpt lat="59.3244788144" lon="34.6499860659"><ele>169.81</ele><time>2026-08-18T04:37:16Z</time></trkpt><trkpt lat="59.3244868610" lon="34.6499674581"><ele>169.81</ele><time>2026-08-18T04:37:37Z</time></trkpt><trkpt lat="59.3244857714" lon="34.6499406360"><ele>169.81</ele><time>2026-08-18T04:38:06Z</time></trkpt><trkpt lat="59.3244555965" lon="34.6499650273"><ele>169.81</ele><time>2026-08-18T04:38:22Z</time></trkpt><trkpt lat="59.3244550936" lon="34.6499627642"><ele>169.81</ele><time>2026-08-18T04:38:31Z</time></trkpt><trkpt lat="59.3244327977" lon="34.6499525383"><ele>169.81</ele><time>2026-08-18T04:38:47Z</time></trkpt><trkpt lat="59.3244251702" lon="34.6499560587"><ele>170.29</ele><time>2026-08-18T04:39:10Z</time></trkpt><trkpt lat="59.3244318757" lon="34.6499648597"><ele>170.29</ele><time>2026-08-18T04:39:44Z</time></trkpt><trkpt lat="59.3244312890" lon="34.6499555558"><ele>170.29</ele><time>2026-08-18T04:40:05Z</time></trkpt><trkpt lat="59.3244442809" lon="34.6499239560"><ele>170.29</ele><time>2026-08-18T04:40:22Z</time></trkpt><trkpt lat="59.3245519046" lon="34.6497522108"><ele>170.29</ele><time>2026-08-18T04:40:37Z</time></trkpt><trkpt lat="59.3246570136" lon="34.6494828165"><ele>169.81</ele><time>2026-08-18T04:40:52Z</time></trkpt><trkpt lat="59.3247925490" lon="34.6493124124"><ele>169.81</ele><time>2026-08-18T04:41:06Z</time></trkpt><trkpt lat="59.3249629531" lon="34.6490498073"><ele>169.81</ele><time>2026-08-18T04:41:24Z</time></trkpt><trkpt lat="59.3250613566" lon="34.6488301177"><ele>169.81</ele><time>2026-08-18T04:41:38Z</time></trkpt><trkpt lat="59.3251377158" lon="34.6486664191"><ele>169.33</ele><time>2026-08-18T04:41:51Z</time></trkpt><trkpt lat="59.3252662942" lon="34.6484919079"><ele>169.33</ele><time>2026-08-18T04:42:07Z</time></trkpt><trkpt lat="59.3254244607" lon="34.6480948571"><ele>170.29</ele><time>2026-08-18T04:42:24Z</time></trkpt><trkpt lat="59.3255381193" lon="34.6479090303"><ele>170.29</ele><time>2026-08-18T04:42:36Z</time></trkpt><trkpt lat="59.3255749159" lon="34.6477197669"><ele>170.77</ele><time>2026-08-18T04:42:48Z</time></trkpt><trkpt lat="59.3256079406" lon="34.6476160828"><ele>171.25</ele><time>2026-08-18T04:42:56Z</time></trkpt><trkpt lat="59.3256554659" lon="34.6474607661"><ele>171.25</ele><time>2026-08-18T04:43:09Z</time></trkpt><trkpt lat="59.3256691284" lon="34.6474135760"><ele>171.25</ele><time>2026-08-18T04:43:28Z</time></trkpt><trkpt lat="59.3257510196" lon="34.6472347900"><ele>171.25</ele><time>2026-08-18T04:43:43Z</time></trkpt><trkpt lat="59.3257988803" lon="34.6468717698"><ele>171.73</ele><time>2026-08-18T04:44:01Z</time></trkpt><trkpt lat="59.3258608226" lon="34.6466621384"><ele>171.73</ele><time>2026-08-18T04:44:17Z</time></trkpt><trkpt lat="59.3259031512" lon="34.6465266030"><ele>171.25</ele><time>2026-08-18T04:44:34Z</time></trkpt><trkpt lat="59.3260091823" lon="34.6462727990"><ele>171.73</ele><time>2026-08-18T04:44:49Z</time></trkpt><trkpt lat="59.3261153810" lon="34.6459853835"><ele>171.73</ele><time>2026-08-18T04:45:02Z</time></trkpt><trkpt lat="59.3261611462" lon="34.6457226947"><ele>171.73</ele><time>2026-08-18T04:45:16Z</time></trkpt><trkpt lat="59.3262256030" lon="34.6454941202"><ele>170.29</ele><time>2026-08-18T04:45:30Z</time></trkpt><trkpt lat="59.3263582047" lon="34.6451352909"><ele>170.29</ele><time>2026-08-18T04:45:45Z</time></trkpt><trkpt lat="59.3264221586" lon="34.6449275874"><ele>170.29</ele><time>2026-08-18T04:45:58Z</time></trkpt><trkpt lat="59.3265076540" lon="34.6446726937"><ele>170.29</ele><time>2026-08-18T04:46:12Z</time></trkpt><trkpt lat="59.3266045488" lon="34.6443667542"><ele>169.81</ele><time>2026-08-18T04:46:26Z</time></trkpt><trkpt lat="59.3266131822" lon="34.6443406865"><ele>169.81</ele><time>2026-08-18T04:46:27Z</time></trkpt><trkpt lat="59.3266533315" lon="34.6442247648"><ele>169.81</ele><time>2026-08-18T04:46:42Z</time></trkpt><trkpt lat="59.3266512360" lon="34.6442255192"><ele>169.33</ele><time>2026-08-18T04:47:10Z</time></trkpt><trkpt lat="59.3266841769" lon="34.6441501658"><ele>169.33</ele><time>2026-08-18T04:47:31Z</time></trkpt><trkpt lat="59.3266094103" lon="34.6440870501"><ele>169.33</ele><time>2026-08-18T04:48:02Z</time></trkpt><trkpt lat="59.3266331311" lon="34.6440836135"><ele>169.33</ele><time>2026-08-18T04:48:32Z</time></trkpt><trkpt lat="59.3266323768" lon="34.6440633293"><ele>169.33</ele><time>2026-08-18T04:49:04Z</time></trkpt><trkpt lat="59.3266643956" lon="34.6439593099"><ele>169.33</ele><time>2026-08-18T04:49:18Z</time></trkpt><trkpt lat="59.3267333787" lon="34.6437485889"><ele>169.33</ele><time>2026-08-18T04:49:28Z</time></trkpt><trkpt lat="59.3267691694" lon="34.6434441581"><ele>169.33</ele><time>2026-08-18T04:49:43Z</time></trkpt><trkpt lat="59.3267699238" lon="34.6431341115"><ele>169.33</ele><time>2026-08-18T04:49:57Z</time></trkpt><trkpt lat="59.3268149346" lon="34.6428128332"><ele>169.33</ele><time>2026-08-18T04:50:12Z</time></trkpt><trkpt lat="59.3268254958" lon="34.6425463725"><ele>168.85</ele><time>2026-08-18T04:50:26Z</time></trkpt><trkpt lat="59.3268827442" lon="34.6423308738"><ele>168.85</ele><time>2026-08-18T04:50:42Z</time></trkpt><trkpt lat="59.3270340376" lon="34.6420960128"><ele>168.85</ele><time>2026-08-18T04:51:00Z</time></trkpt><trkpt lat="59.3272098899" lon="34.6417345013"><ele>168.85</ele><time>2026-08-18T04:51:17Z</time></trkpt><trkpt lat="59.3273032643" lon="34.6415350959"><ele>168.85</ele><time>2026-08-18T04:51:31Z</time></trkpt><trkpt lat="59.3275160808" lon="34.6414460801"><ele>168.85</ele><time>2026-08-18T04:51:46Z</time></trkpt><trkpt lat="59.3276675418" lon="34.6412045974"><ele>168.85</ele><time>2026-08-18T04:52:03Z</time></trkpt><trkpt lat="59.3277024105" lon="34.6411037631"><ele>168.85</ele><time>2026-08-18T04:52:08Z</time></trkpt><trkpt lat="59.3278043345" lon="34.6408061218"><ele>168.85</ele><time>2026-08-18T04:52:24Z</time></trkpt><trkpt lat="59.3278153148" lon="34.6407621168"><ele>168.85</ele><time>2026-08-18T04:52:27Z</time></trkpt><trkpt lat="59.3279210106" lon="34.6404352225"><ele>167.89</ele><time>2026-08-18T04:52:45Z</time></trkpt><trkpt lat="59.3280173186" lon="34.6401645709"><ele>167.89</ele><time>2026-08-18T04:52:59Z</time></trkpt><trkpt lat="59.3280964438" lon="34.6397842839"><ele>167.89</ele><time>2026-08-18T04:53:16Z</time></trkpt><trkpt lat="59.3281692825" lon="34.6394704655"><ele>167.41</ele><time>2026-08-18T04:53:30Z</time></trkpt><trkpt lat="59.3281915784" lon="34.6394148935"><ele>167.41</ele><time>2026-08-18T04:53:44Z</time></trkpt><trkpt lat="59.3281868845" lon="34.6394016501"><ele>167.41</ele><time>2026-08-18T04:54:02Z</time></trkpt><trkpt lat="59.3281886447" lon="34.6392273065"><ele>167.41</ele><time>2026-08-18T04:54:17Z</time></trkpt><trkpt lat="59.3282993697" lon="34.6388479415"><ele>167.41</ele><time>2026-08-18T04:54:33Z</time></trkpt><trkpt lat="59.3283496611" lon="34.6385061275"><ele>167.41</ele><time>2026-08-18T04:54:49Z</time></trkpt><trkpt lat="59.3283411115" lon="34.6381835919"><ele>166.93</ele><time>2026-08-18T04:55:02Z</time></trkpt><trkpt lat="59.3283370882" lon="34.6378805861"><ele>166.93</ele><time>2026-08-18T04:55:18Z</time></trkpt><trkpt lat="59.3283370882" lon="34.6376634110"><ele>166.93</ele><time>2026-08-18T04:55:29Z</time></trkpt><trkpt lat="59.3283684365" lon="34.6373804379"><ele>166.93</ele><time>2026-08-18T04:55:42Z</time></trkpt><trkpt lat="59.3284206558" lon="34.6370607521"><ele>166.93</ele><time>2026-08-18T04:55:57Z</time></trkpt><trkpt lat="59.3284552731" lon="34.6368290763"><ele>166.93</ele><time>2026-08-18T04:56:09Z</time></trkpt><trkpt lat="59.3284695223" lon="34.6367824730"><ele>166.93</ele><time>2026-08-18T04:56:24Z</time></trkpt><trkpt lat="59.3284777366" lon="34.6368143242"><ele>166.93</ele><time>2026-08-18T04:56:52Z</time></trkpt><trkpt lat="59.3284818437" lon="34.6368077025"><ele>166.93</ele><time>2026-08-18T04:57:19Z</time></trkpt><trkpt lat="59.3284862861" lon="34.6368077025"><ele>166.93</ele><time>2026-08-18T04:57:49Z</time></trkpt><trkpt lat="59.3284923211" lon="34.6368050203"><ele>166.93</ele><time>2026-08-18T04:58:10Z</time></trkpt><trkpt lat="59.3284338154" lon="34.6367367078"><ele>166.93</ele><time>2026-08-18T04:58:25Z</time></trkpt><trkpt lat="59.3284393474" lon="34.6367061976"><ele>166.93</ele><time>2026-08-18T04:58:43Z</time></trkpt><trkpt lat="59.3284841068" lon="34.6365058701"><ele>166.93</ele><time>2026-08-18T04:58:57Z</time></trkpt><trkpt lat="59.3284985237" lon="34.6362584364"><ele>166.93</ele><time>2026-08-18T04:59:12Z</time></trkpt><trkpt lat="59.3285038043" lon="34.6359859407"><ele>166.93</ele><time>2026-08-18T04:59:27Z</time></trkpt><trkpt lat="59.3285259325" lon="34.6356998663"><ele>166.93</ele><time>2026-08-18T04:59:42Z</time></trkpt><trkpt lat="59.3285416067" lon="34.6354188211"><ele>166.93</ele><time>2026-08-18T04:59:56Z</time></trkpt><trkpt lat="59.3285673391" lon="34.6351853851"><ele>166.93</ele><time>2026-08-18T05:00:08Z</time></trkpt><trkpt lat="59.3286400940" lon="34.6349334251"><ele>166.93</ele><time>2026-08-18T05:00:20Z</time></trkpt><trkpt lat="59.3286420219" lon="34.6348351892"><ele>166.93</ele><time>2026-08-18T05:00:24Z</time></trkpt><trkpt lat="59.3286631443" lon="34.6346893441"><ele>167.89</ele><time>2026-08-18T05:00:30Z</time></trkpt><trkpt lat="59.3286715262" lon="34.6346238814"><ele>167.89</ele><time>2026-08-18T05:00:32Z</time></trkpt><trkpt lat="59.3287069816" lon="34.6343807224"><ele>167.89</ele><time>2026-08-18T05:00:43Z</time></trkpt><trkpt lat="59.3286918104" lon="34.6342785470"><ele>167.89</ele><time>2026-08-18T05:00:49Z</time></trkpt><trkpt lat="59.3286982644" lon="34.6341125853"><ele>167.41</ele><time>2026-08-18T05:01:01Z</time></trkpt><trkpt lat="59.3286966719" lon="34.6340905409"><ele>167.41</ele><time>2026-08-18T05:01:02Z</time></trkpt><trkpt lat="59.3287091609" lon="34.6339269262"><ele>167.41</ele><time>2026-08-18T05:01:09Z</time></trkpt><trkpt lat="59.3287059758" lon="34.6338514052"><ele>167.41</ele><time>2026-08-18T05:01:12Z</time></trkpt><trkpt lat="59.3287706003" lon="34.6334894747"><ele>167.89</ele><time>2026-08-18T05:01:27Z</time></trkpt><trkpt lat="59.3288173713" lon="34.6333566215"><ele>167.89</ele><time>2026-08-18T05:01:33Z</time></trkpt><trkpt lat="59.3288281001" lon="34.6332852915"><ele>167.89</ele><time>2026-08-18T05:01:36Z</time></trkpt><trkpt lat="59.3288645614" lon="34.6329482552"><ele>167.41</ele><time>2026-08-18T05:01:50Z</time></trkpt><trkpt lat="59.3288758770" lon="34.6328066010"><ele>167.41</ele><time>2026-08-18T05:02:06Z</time></trkpt><trkpt lat="59.3289131764" lon="34.6325318422"><ele>167.41</ele><time>2026-08-18T05:02:17Z</time></trkpt><trkpt lat="59.3289100751" lon="34.6322891861"><ele>167.41</ele><time>2026-08-18T05:02:30Z</time></trkpt><trkpt lat="59.3289152719" lon="34.6321063768"><ele>167.41</ele><time>2026-08-18T05:02:40Z</time></trkpt><trkpt lat="59.3289151881" lon="34.6319048759"><ele>167.41</ele><time>2026-08-18T05:02:51Z</time></trkpt><trkpt lat="59.3289272580" lon="34.6317047160"><ele>167.41</ele><time>2026-08-18T05:03:00Z</time></trkpt><trkpt lat="59.3289437704" lon="34.6315579489"><ele>166.45</ele><time>2026-08-18T05:03:15Z</time></trkpt><trkpt lat="59.3289575167" lon="34.6314411052"><ele>166.45</ele><time>2026-08-18T05:03:29Z</time></trkpt><trkpt lat="59.3289746158" lon="34.6314615570"><ele>166.45</ele><time>2026-08-18T05:03:51Z</time></trkpt><trkpt lat="59.3289911281" lon="34.6315069869"><ele>166.45</ele><time>2026-08-18T05:04:22Z</time></trkpt><trkpt lat="59.3289720174" lon="34.6315641515"><ele>166.45</ele><time>2026-08-18T05:04:47Z</time></trkpt><trkpt lat="59.3290123343" lon="34.6313755587"><ele>165.96</ele><time>2026-08-18T05:05:05Z</time></trkpt><trkpt lat="59.3290080596" lon="34.6313565318"><ele>165.96</ele><time>2026-08-18T05:05:07Z</time></trkpt><trkpt lat="59.3290083110" lon="34.6312671807"><ele>165.96</ele><time>2026-08-18T05:05:12Z</time></trkpt><trkpt lat="59.3290342949" lon="34.6311671007"><ele>165.96</ele><time>2026-08-18T05:05:22Z</time></trkpt><trkpt lat="59.3290772103" lon="34.6309385262"><ele>165.96</ele><time>2026-08-18T05:05:34Z</time></trkpt><trkpt lat="59.3290582672" lon="34.6306003164"><ele>165.96</ele><time>2026-08-18T05:05:45Z</time></trkpt><trkpt lat="59.3290182017" lon="34.6304513700"><ele>165.96</ele><time>2026-08-18T05:05:51Z</time></trkpt><trkpt lat="59.3289669883" lon="34.6303484403"><ele>165.96</ele><time>2026-08-18T05:05:55Z</time></trkpt><trkpt lat="59.3289560918" lon="34.6301346179"><ele>165.96</ele><time>2026-08-18T05:06:06Z</time></trkpt><trkpt lat="59.3289547507" lon="34.6297559235"><ele>165.96</ele><time>2026-08-18T05:06:21Z</time></trkpt><trkpt lat="59.3289586063" lon="34.6297043748"><ele>165.96</ele><time>2026-08-18T05:06:23Z</time></trkpt><trkpt lat="59.3289649766" lon="34.6296258364"><ele>165.96</ele><time>2026-08-18T05:06:26Z</time></trkpt><trkpt lat="59.3289705925" lon="34.6293908916"><ele>167.41</ele><time>2026-08-18T05:06:36Z</time></trkpt><trkpt lat="59.3289918825" lon="34.6292101778"><ele>167.41</ele><time>2026-08-18T05:06:47Z</time></trkpt><trkpt lat="59.3290050421" lon="34.6290752292"><ele>167.41</ele><time>2026-08-18T05:06:56Z</time></trkpt><trkpt lat="59.3290615361" lon="34.6288577188"><ele>167.41</ele><time>2026-08-18T05:07:09Z</time></trkpt><trkpt lat="59.3290935550" lon="34.6287174895"><ele>167.41</ele><time>2026-08-18T05:07:15Z</time></trkpt><trkpt lat="59.3290974945" lon="34.6285335068"><ele>167.41</ele><time>2026-08-18T05:07:22Z</time></trkpt><trkpt lat="59.3291036133" lon="34.6282467619"><ele>167.41</ele><time>2026-08-18T05:07:33Z</time></trkpt><trkpt lat="59.3291001767" lon="34.6279296745"><ele>167.41</ele><time>2026-08-18T05:07:46Z</time></trkpt><trkpt lat="59.3291019369" lon="34.6276118327"><ele>167.41</ele><time>2026-08-18T05:07:59Z</time></trkpt><trkpt lat="59.3291344587" lon="34.6275000181"><ele>167.41</ele><time>2026-08-18T05:08:10Z</time></trkpt><trkpt lat="59.3291388173" lon="34.6273359004"><ele>167.41</ele><time>2026-08-18T05:08:22Z</time></trkpt><trkpt lat="59.3291580956" lon="34.6269541048"><ele>166.93</ele><time>2026-08-18T05:08:34Z</time></trkpt><trkpt lat="59.3292094767" lon="34.6267186571"><ele>166.93</ele><time>2026-08-18T05:08:47Z</time></trkpt><trkpt lat="59.3292159308" lon="34.6267018933"><ele>166.93</ele><time>2026-08-18T05:08:48Z</time></trkpt><trkpt lat="59.3292870931" lon="34.6264374442"><ele>166.93</ele><time>2026-08-18T05:08:59Z</time></trkpt><trkpt lat="59.3293171003" lon="34.6262554731"><ele>166.93</ele><time>2026-08-18T05:09:09Z</time></trkpt><trkpt lat="59.3293824792" lon="34.6260512900"><ele>166.93</ele><time>2026-08-18T05:09:20Z</time></trkpt><trkpt lat="59.3293965608" lon="34.6257443447"><ele>166.93</ele><time>2026-08-18T05:09:33Z</time></trkpt><trkpt lat="59.3294471875" lon="34.6253938135"><ele>166.93</ele><time>2026-08-18T05:09:50Z</time></trkpt><trkpt lat="59.3295036815" lon="34.6251457091"><ele>167.89</ele><time>2026-08-18T05:10:03Z</time></trkpt><trkpt lat="59.3295465969" lon="34.6249230020"><ele>167.41</ele><time>2026-08-18T05:10:14Z</time></trkpt><trkpt lat="59.3295524642" lon="34.6248821821"><ele>167.41</ele><time>2026-08-18T05:10:16Z</time></trkpt><trkpt lat="59.3296019174" lon="34.6246025618"><ele>167.89</ele><time>2026-08-18T05:10:30Z</time></trkpt><trkpt lat="59.3296281528" lon="34.6243292280"><ele>167.89</ele><time>2026-08-18T05:10:43Z</time></trkpt><trkpt lat="59.3296423182" lon="34.6242211852"><ele>167.89</ele><time>2026-08-18T05:10:48Z</time></trkpt><trkpt lat="59.3296575733" lon="34.6240549721"><ele>167.89</ele><time>2026-08-18T05:10:56Z</time></trkpt><trkpt lat="59.3296849821" lon="34.6239735000"><ele>167.89</ele><time>2026-08-18T05:11:01Z</time></trkpt><trkpt lat="59.3297547195" lon="34.6237653773"><ele>167.89</ele><time>2026-08-18T05:11:12Z</time></trkpt><trkpt lat="59.3299082760" lon="34.6236073785"><ele>168.37</ele><time>2026-08-18T05:11:28Z</time></trkpt><trkpt lat="59.3300446495" lon="34.6234794706"><ele>168.85</ele><time>2026-08-18T05:11:43Z</time></trkpt><trkpt lat="59.3301241100" lon="34.6233649738"><ele>169.33</ele><time>2026-08-18T05:11:55Z</time></trkpt><trkpt lat="59.3301657680" lon="34.6232738625"><ele>169.81</ele><time>2026-08-18T05:12:08Z</time></trkpt><trkpt lat="59.3302341644" lon="34.6231257543"><ele>169.81</ele><time>2026-08-18T05:12:21Z</time></trkpt><trkpt lat="59.3302391935" lon="34.6231436916"><ele>169.81</ele><time>2026-08-18T05:12:41Z</time></trkpt><trkpt lat="59.3303152174" lon="34.6230493952"><ele>169.33</ele><time>2026-08-18T05:13:05Z</time></trkpt><trkpt lat="59.3303185701" lon="34.6230488084"><ele>169.33</ele><time>2026-08-18T05:13:33Z</time></trkpt><trkpt lat="59.3303238507" lon="34.6230373252"><ele>169.33</ele><time>2026-08-18T05:14:07Z</time></trkpt><trkpt lat="59.3303503376" lon="34.6230390016"><ele>169.33</ele><time>2026-08-18T05:14:37Z</time></trkpt><trkpt lat="59.3303717952" lon="34.6230198909"><ele>169.33</ele><time>2026-08-18T05:14:54Z</time></trkpt><trkpt lat="59.3303635810" lon="34.6230183821"><ele>168.85</ele><time>2026-08-18T05:15:23Z</time></trkpt><trkpt lat="59.3303785007" lon="34.6230231598"><ele>168.85</ele><time>2026-08-18T05:15:48Z</time></trkpt><trkpt lat="59.3303822726" lon="34.6230391692"><ele>168.85</ele><time>2026-08-18T05:16:03Z</time></trkpt><trkpt lat="59.3304183148" lon="34.6230489761"><ele>168.85</ele><time>2026-08-18T05:16:21Z</time></trkpt><trkpt lat="59.3304458912" lon="34.6230451204"><ele>168.85</ele><time>2026-08-18T05:16:40Z</time></trkpt><trkpt lat="59.3304547761" lon="34.6230535861"><ele>168.85</ele><time>2026-08-18T05:17:01Z</time></trkpt><trkpt lat="59.3304541055" lon="34.6230703499"><ele>168.85</ele><time>2026-08-18T05:17:28Z</time></trkpt><trkpt lat="59.3304590508" lon="34.6230643149"><ele>168.85</ele><time>2026-08-18T05:17:46Z</time></trkpt><trkpt lat="59.3304697797" lon="34.6230583638"><ele>168.85</ele><time>2026-08-18T05:18:12Z</time></trkpt><trkpt lat="59.3304749765" lon="34.6230470482"><ele>168.85</ele><time>2026-08-18T05:18:37Z</time></trkpt><trkpt lat="59.3304803409" lon="34.6230249200"><ele>168.85</ele><time>2026-08-18T05:19:04Z</time></trkpt><trkpt lat="59.3304789998" lon="34.6230165381"><ele>169.33</ele><time>2026-08-18T05:19:30Z</time></trkpt><trkpt lat="59.3304809276" lon="34.6230160352"><ele>169.33</ele><time>2026-08-18T05:19:51Z</time></trkpt><trkpt lat="59.3304800894" lon="34.6230281051"><ele>169.33</ele><time>2026-08-18T05:20:16Z</time></trkpt><trkpt lat="59.3304874655" lon="34.6229824238"><ele>169.33</ele><time>2026-08-18T05:20:32Z</time></trkpt><trkpt lat="59.3305060733" lon="34.6228628978"><ele>169.33</ele><time>2026-08-18T05:20:43Z</time></trkpt><trkpt lat="59.3306426983" lon="34.6225222573"><ele>169.81</ele><time>2026-08-18T05:20:59Z</time></trkpt><trkpt lat="59.3307070713" lon="34.6222476661"><ele>169.81</ele><time>2026-08-18T05:21:12Z</time></trkpt><trkpt lat="59.3307173811" lon="34.6221957821"><ele>169.81</ele><time>2026-08-18T05:21:16Z</time></trkpt><trkpt lat="59.3307920638" lon="34.6218931116"><ele>170.29</ele><time>2026-08-18T05:21:30Z</time></trkpt><trkpt lat="59.3308623880" lon="34.6216591727"><ele>170.29</ele><time>2026-08-18T05:21:43Z</time></trkpt><trkpt lat="59.3308965862" lon="34.6215797961"><ele>170.29</ele><time>2026-08-18T05:21:48Z</time></trkpt><trkpt lat="59.3310143519" lon="34.6212763712"><ele>170.77</ele><time>2026-08-18T05:22:03Z</time></trkpt><trkpt lat="59.3310633861" lon="34.6211332083"><ele>170.77</ele><time>2026-08-18T05:22:10Z</time></trkpt><trkpt lat="59.3311384041" lon="34.6209160332"><ele>171.25</ele><time>2026-08-18T05:22:22Z</time></trkpt><trkpt lat="59.3311755359" lon="34.6206863690"><ele>171.25</ele><time>2026-08-18T05:22:34Z</time></trkpt><trkpt lat="59.3312450219" lon="34.6204696968"><ele>171.25</ele><time>2026-08-18T05:22:44Z</time></trkpt><trkpt lat="59.3312931340" lon="34.6202372666"><ele>171.25</ele><time>2026-08-18T05:22:56Z</time></trkpt><trkpt lat="59.3313452695" lon="34.6200630069"><ele>171.25</ele><time>2026-08-18T05:23:07Z</time></trkpt><trkpt lat="59.3313957285" lon="34.6198315825"><ele>171.25</ele><time>2026-08-18T05:23:18Z</time></trkpt><trkpt lat="59.3314485345" lon="34.6197526250"><ele>171.25</ele><time>2026-08-18T05:23:24Z</time></trkpt><trkpt lat="59.3315552361" lon="34.6195805445"><ele>171.25</ele><time>2026-08-18T05:23:36Z</time></trkpt><trkpt lat="59.3316888437" lon="34.6194368787"><ele>171.25</ele><time>2026-08-18T05:23:50Z</time></trkpt><trkpt lat="59.3318253849" lon="34.6193489525"><ele>171.25</ele><time>2026-08-18T05:24:04Z</time></trkpt><trkpt lat="59.3319004029" lon="34.6192355454"><ele>169.81</ele><time>2026-08-18T05:24:17Z</time></trkpt><trkpt lat="59.3320139777" lon="34.6190337092"><ele>169.81</ele><time>2026-08-18T05:24:29Z</time></trkpt><trkpt lat="59.3321490940" lon="34.6188174561"><ele>169.81</ele><time>2026-08-18T05:24:46Z</time></trkpt><trkpt lat="59.3322841264" lon="34.6185204852"><ele>169.81</ele><time>2026-08-18T05:25:01Z</time></trkpt><trkpt lat="59.3324261159" lon="34.6182201616"><ele>169.81</ele><time>2026-08-18T05:25:18Z</time></trkpt><trkpt lat="59.3325028103" lon="34.6179884858"><ele>169.81</ele><time>2026-08-18T05:25:31Z</time></trkpt><trkpt lat="59.3325810134" lon="34.6178557165"><ele>169.33</ele><time>2026-08-18T05:25:38Z</time></trkpt><trkpt lat="59.3326555286" lon="34.6176682133"><ele>169.33</ele><time>2026-08-18T05:25:50Z</time></trkpt><trkpt lat="59.3327116873" lon="34.6175729111"><ele>169.33</ele><time>2026-08-18T05:26:03Z</time></trkpt><trkpt lat="59.3328290340" lon="34.6172203682"><ele>168.85</ele><time>2026-08-18T05:26:20Z</time></trkpt><trkpt lat="59.3329056446" lon="34.6170113236"><ele>168.85</ele><time>2026-08-18T05:26:28Z</time></trkpt><trkpt lat="59.3329912238" lon="34.6166742034"><ele>169.81</ele><time>2026-08-18T05:26:44Z</time></trkpt><trkpt lat="59.3330252543" lon="34.6163816750"><ele>169.81</ele><time>2026-08-18T05:26:55Z</time></trkpt><trkpt lat="59.3330657389" lon="34.6161012165"><ele>169.81</ele><time>2026-08-18T05:27:08Z</time></trkpt><trkpt lat="59.3331199698" lon="34.6158164833"><ele>169.81</ele><time>2026-08-18T05:27:21Z</time></trkpt><trkpt lat="59.3331659026" lon="34.6155242063"><ele>169.81</ele><time>2026-08-18T05:27:35Z</time></trkpt><trkpt lat="59.3331609573" lon="34.6154353581"><ele>168.37</ele><time>2026-08-18T05:27:41Z</time></trkpt><trkpt lat="59.3331917189" lon="34.6153030079"><ele>167.89</ele><time>2026-08-18T05:27:54Z</time></trkpt><trkpt lat="59.3331965804" lon="34.6152264811"><ele>167.89</ele><time>2026-08-18T05:28:04Z</time></trkpt><trkpt lat="59.3332029507" lon="34.6152009163"><ele>167.89</ele><time>2026-08-18T05:28:27Z</time></trkpt><trkpt lat="59.3332130089" lon="34.6151340287"><ele>167.89</ele><time>2026-08-18T05:28:41Z</time></trkpt><trkpt lat="59.3332048785" lon="34.6150881797"><ele>167.89</ele><time>2026-08-18T05:29:12Z</time></trkpt><trkpt lat="59.3332143500" lon="34.6150635369"><ele>167.41</ele><time>2026-08-18T05:29:50Z</time></trkpt><trkpt lat="59.3332137633" lon="34.6150655486"><ele>167.41</ele><time>2026-08-18T05:30:07Z</time></trkpt><trkpt lat="59.3332039565" lon="34.6150443424"><ele>167.41</ele><time>2026-08-18T05:30:31Z</time></trkpt><trkpt lat="59.3332000170" lon="34.6150304284"><ele>167.41</ele><time>2026-08-18T05:31:02Z</time></trkpt><trkpt lat="59.3331983406" lon="34.6150011756"><ele>167.41</ele><time>2026-08-18T05:31:10Z</time></trkpt><trkpt lat="59.3332405016" lon="34.6147309430"><ele>167.41</ele><time>2026-08-18T05:31:25Z</time></trkpt><trkpt lat="59.3332519848" lon="34.6144771390"><ele>167.41</ele><time>2026-08-18T05:31:37Z</time></trkpt><trkpt lat="59.3332691677" lon="34.6142718662"><ele>167.41</ele><time>2026-08-18T05:31:49Z</time></trkpt><trkpt lat="59.3332585227" lon="34.6139234304"><ele>167.41</ele><time>2026-08-18T05:32:03Z</time></trkpt><trkpt lat="59.3332709279" lon="34.6136138029"><ele>167.41</ele><time>2026-08-18T05:32:17Z</time></trkpt><trkpt lat="59.3332416750" lon="34.6132562310"><ele>167.41</ele><time>2026-08-18T05:32:31Z</time></trkpt><trkpt lat="59.3331967480" lon="34.6130137425"><ele>167.41</ele><time>2026-08-18T05:32:42Z</time></trkpt><trkpt lat="59.3331928924" lon="34.6129587572"><ele>167.41</ele><time>2026-08-18T05:32:44Z</time></trkpt><trkpt lat="59.3331862707" lon="34.6126886085"><ele>168.37</ele><time>2026-08-18T05:32:59Z</time></trkpt><trkpt lat="59.3332064711" lon="34.6125071403"><ele>168.37</ele><time>2026-08-18T05:33:12Z</time></trkpt><trkpt lat="59.3332176190" lon="34.6124280989"><ele>168.85</ele><time>2026-08-18T05:33:19Z</time></trkpt><trkpt lat="59.3332363106" lon="34.6123307850"><ele>168.85</ele><time>2026-08-18T05:33:24Z</time></trkpt><trkpt lat="59.3332496379" lon="34.6122985985"><ele>168.85</ele><time>2026-08-18T05:33:26Z</time></trkpt><trkpt lat="59.3332612049" lon="34.6122628916"><ele>168.85</ele><time>2026-08-18T05:33:29Z</time></trkpt><trkpt lat="59.3333107419" lon="34.6120205708"><ele>168.85</ele><time>2026-08-18T05:33:40Z</time></trkpt><trkpt lat="59.3333613686" lon="34.6118170582"><ele>168.85</ele><time>2026-08-18T05:33:51Z</time></trkpt><trkpt lat="59.3334757816" lon="34.6116521861"><ele>167.89</ele><time>2026-08-18T05:34:07Z</time></trkpt><trkpt lat="59.3335088901" lon="34.6115873940"><ele>167.41</ele><time>2026-08-18T05:34:12Z</time></trkpt><trkpt lat="59.3335701618" lon="34.6114683710"><ele>167.41</ele><time>2026-08-18T05:34:22Z</time></trkpt><trkpt lat="59.3336046953" lon="34.6113698836"><ele>167.41</ele><time>2026-08-18T05:34:27Z</time></trkpt><trkpt lat="59.3336226325" lon="34.6112859808"><ele>167.41</ele><time>2026-08-18T05:34:31Z</time></trkpt><trkpt lat="59.3337016739" lon="34.6110302489"><ele>167.41</ele><time>2026-08-18T05:34:44Z</time></trkpt><trkpt lat="59.3337871693" lon="34.6107816417"><ele>168.37</ele><time>2026-08-18T05:34:59Z</time></trkpt><trkpt lat="59.3339261413" lon="34.6105222218"><ele>168.85</ele><time>2026-08-18T05:35:14Z</time></trkpt><trkpt lat="59.3340018298" lon="34.6103503928"><ele>169.33</ele><time>2026-08-18T05:35:25Z</time></trkpt><trkpt lat="59.3340875767" lon="34.6102198865"><ele>169.33</ele><time>2026-08-18T05:35:37Z</time></trkpt><trkpt lat="59.3342049234" lon="34.6100383345"><ele>169.81</ele><time>2026-08-18T05:35:49Z</time></trkpt><trkpt lat="59.3343280535" lon="34.6098493226"><ele>169.81</ele><time>2026-08-18T05:36:03Z</time></trkpt><trkpt lat="59.3343763333" lon="34.6095744800"><ele>169.81</ele><time>2026-08-18T05:36:17Z</time></trkpt><trkpt lat="59.3344327435" lon="34.6093437262"><ele>169.81</ele><time>2026-08-18T05:36:28Z</time></trkpt><trkpt lat="59.3344567996" lon="34.6091738250"><ele>169.81</ele><time>2026-08-18T05:36:39Z</time></trkpt><trkpt lat="59.3344993796" lon="34.6089268103"><ele>170.29</ele><time>2026-08-18T05:36:51Z</time></trkpt><trkpt lat="59.3345242739" lon="34.6086443402"><ele>170.29</ele><time>2026-08-18T05:37:04Z</time></trkpt><trkpt lat="59.3345403671" lon="34.6084306855"><ele>170.77</ele><time>2026-08-18T05:37:14Z</time></trkpt><trkpt lat="59.3345446419" lon="34.6082938928"><ele>170.77</ele><time>2026-08-18T05:37:20Z</time></trkpt><trkpt lat="59.3345505092" lon="34.6080452017"><ele>170.77</ele><time>2026-08-18T05:37:32Z</time></trkpt><trkpt lat="59.3345396128" lon="34.6078183874"><ele>171.25</ele><time>2026-08-18T05:37:43Z</time></trkpt><trkpt lat="59.3345406186" lon="34.6077610552"><ele>171.25</ele><time>2026-08-18T05:37:45Z</time></trkpt><trkpt lat="59.3345629144" lon="34.6076925751"><ele>171.25</ele><time>2026-08-18T05:37:48Z</time></trkpt><trkpt lat="59.3345776666" lon="34.6076197363"><ele>171.25</ele><time>2026-08-18T05:37:51Z</time></trkpt><trkpt lat="59.3346116133" lon="34.6075385157"><ele>171.25</ele><time>2026-08-18T05:37:55Z</time></trkpt><trkpt lat="59.3346919119" lon="34.6073474083"><ele>171.73</ele><time>2026-08-18T05:38:06Z</time></trkpt><trkpt lat="59.3347303011" lon="34.6073046606"><ele>171.73</ele><time>2026-08-18T05:38:10Z</time></trkpt><trkpt lat="59.3348115217" lon="34.6072417963"><ele>172.21</ele><time>2026-08-18T05:38:18Z</time></trkpt><trkpt lat="59.3349240907" lon="34.6070946939"><ele>173.17</ele><time>2026-08-18T05:38:29Z</time></trkpt><trkpt lat="59.3350276072" lon="34.6069532074"><ele>173.17</ele><time>2026-08-18T05:38:42Z</time></trkpt><trkpt lat="59.3350421917" lon="34.6069488488"><ele>173.66</ele><time>2026-08-18T05:38:59Z</time></trkpt><trkpt lat="59.3350416888" lon="34.6069454961"><ele>173.66</ele><time>2026-08-18T05:39:32Z</time></trkpt><trkpt lat="59.3350417726" lon="34.6069450770"><ele>173.66</ele><time>2026-08-18T05:39:53Z</time></trkpt><trkpt lat="59.3350469694" lon="34.6069382038"><ele>173.66</ele><time>2026-08-18T05:40:19Z</time></trkpt><trkpt lat="59.3350667506" lon="34.6069123875"><ele>173.66</ele><time>2026-08-18T05:40:44Z</time></trkpt><trkpt lat="59.3350944109" lon="34.6068516187"><ele>173.66</ele><time>2026-08-18T05:40:48Z</time></trkpt><trkpt lat="59.3351975083" lon="34.6066258103"><ele>173.66</ele><time>2026-08-18T05:41:04Z</time></trkpt><trkpt lat="59.3352812435" lon="34.6064001694"><ele>173.66</ele><time>2026-08-18T05:41:17Z</time></trkpt><trkpt lat="59.3353764620" lon="34.6061697509"><ele>173.17</ele><time>2026-08-18T05:41:30Z</time></trkpt><trkpt lat="59.3354445230" lon="34.6059643105"><ele>172.21</ele><time>2026-08-18T05:41:41Z</time></trkpt><trkpt lat="59.3354611192" lon="34.6058882866"><ele>171.73</ele><time>2026-08-18T05:41:44Z</time></trkpt><trkpt lat="59.3355057109" lon="34.6057331376"><ele>170.77</ele><time>2026-08-18T05:41:54Z</time></trkpt><trkpt lat="59.3355761189" lon="34.6054316405"><ele>170.29</ele><time>2026-08-18T05:42:09Z</time></trkpt><trkpt lat="59.3357113190" lon="34.6051721368"><ele>169.33</ele><time>2026-08-18T05:42:24Z</time></trkpt><trkpt lat="59.3358085491" lon="34.6049557161"><ele>168.85</ele><time>2026-08-18T05:42:40Z</time></trkpt><trkpt lat="59.3358905241" lon="34.6047668718"><ele>168.85</ele><time>2026-08-18T05:42:54Z</time></trkpt><trkpt lat="59.3359979801" lon="34.6044965554"><ele>168.37</ele><time>2026-08-18T05:43:07Z</time></trkpt><trkpt lat="59.3360137381" lon="34.6044675540"><ele>168.37</ele><time>2026-08-18T05:43:09Z</time></trkpt><trkpt lat="59.3361227028" lon="34.6042716689"><ele>167.89</ele><time>2026-08-18T05:43:20Z</time></trkpt><trkpt lat="59.3362066895" lon="34.6039051283"><ele>167.89</ele><time>2026-08-18T05:43:35Z</time></trkpt><trkpt lat="59.3362471741" lon="34.6036838461"><ele>169.33</ele><time>2026-08-18T05:43:45Z</time></trkpt><trkpt lat="59.3362858146" lon="34.6035292000"><ele>169.33</ele><time>2026-08-18T05:44:00Z</time></trkpt><trkpt lat="59.3362888321" lon="34.6035144478"><ele>169.33</ele><time>2026-08-18T05:44:01Z</time></trkpt><trkpt lat="59.3363878224" lon="34.6032361686"><ele>169.33</ele><time>2026-08-18T05:44:15Z</time></trkpt><trkpt lat="59.3364754971" lon="34.6030562092"><ele>168.85</ele><time>2026-08-18T05:44:29Z</time></trkpt><trkpt lat="59.3365464080" lon="34.6029783413"><ele>168.85</ele><time>2026-08-18T05:44:35Z</time></trkpt><trkpt lat="59.3366542831" lon="34.6028713882"><ele>168.85</ele><time>2026-08-18T05:44:48Z</time></trkpt><trkpt lat="59.3366816081" lon="34.6028100327"><ele>168.85</ele><time>2026-08-18T05:44:51Z</time></trkpt><trkpt lat="59.3368180655" lon="34.6027274709"><ele>169.81</ele><time>2026-08-18T05:45:04Z</time></trkpt><trkpt lat="59.3369337358" lon="34.6027410496"><ele>170.29</ele><time>2026-08-18T05:45:18Z</time></trkpt><trkpt lat="59.3371344823" lon="34.6027479228"><ele>170.29</ele><time>2026-08-18T05:45:33Z</time></trkpt><trkpt lat="59.3372179661" lon="34.6026494354"><ele>170.29</ele><time>2026-08-18T05:45:47Z</time></trkpt><trkpt lat="59.3372331373" lon="34.6026507765"><ele>170.29</ele><time>2026-08-18T05:46:07Z</time></trkpt><trkpt lat="59.3372504879" lon="34.6026751678"><ele>170.29</ele><time>2026-08-18T05:46:33Z</time></trkpt><trkpt lat="59.3374397513" lon="34.6026680432"><ele>168.85</ele><time>2026-08-18T05:46:47Z</time></trkpt><trkpt lat="59.3376730196" lon="34.6026278101"><ele>168.85</ele><time>2026-08-18T05:47:02Z</time></trkpt><trkpt lat="59.3377927132" lon="34.6025475115"><ele>168.37</ele><time>2026-08-18T05:47:19Z</time></trkpt><trkpt lat="59.3379382230" lon="34.6024108864"><ele>168.37</ele><time>2026-08-18T05:47:32Z</time></trkpt><trkpt lat="59.3380709086" lon="34.6022223774"><ele>168.37</ele><time>2026-08-18T05:47:45Z</time></trkpt><trkpt lat="59.3381440826" lon="34.6020865068"><ele>168.37</ele><time>2026-08-18T05:47:59Z</time></trkpt><trkpt lat="59.3382233754" lon="34.6019531507"><ele>168.37</ele><time>2026-08-18T05:48:14Z</time></trkpt><trkpt lat="59.3383569829" lon="34.6017928049"><ele>168.37</ele><time>2026-08-18T05:48:28Z</time></trkpt><trkpt lat="59.3385589030" lon="34.6016720217"><ele>167.89</ele><time>2026-08-18T05:48:43Z</time></trkpt><trkpt lat="59.3386686221" lon="34.6015118435"><ele>167.89</ele><time>2026-08-18T05:48:57Z</time></trkpt><trkpt lat="59.3387585599" lon="34.6013994422"><ele>167.89</ele><time>2026-08-18T05:49:12Z</time></trkpt><trkpt lat="59.3388593942" lon="34.6012230031"><ele>169.33</ele><time>2026-08-18T05:49:24Z</time></trkpt><trkpt lat="59.3389350828" lon="34.6011173911"><ele>169.33</ele><time>2026-08-18T05:49:31Z</time></trkpt><trkpt lat="59.3390804250" lon="34.6009398624"><ele>168.85</ele><time>2026-08-18T05:49:45Z</time></trkpt><trkpt lat="59.3391593825" lon="34.6008414589"><ele>168.85</ele><time>2026-08-18T05:49:56Z</time></trkpt><trkpt lat="59.3391771521" lon="34.6008043271"><ele>168.85</ele><time>2026-08-18T05:49:59Z</time></trkpt><trkpt lat="59.3392355740" lon="34.6007284708"><ele>168.85</ele><time>2026-08-18T05:50:04Z</time></trkpt><trkpt lat="59.3393677566" lon="34.6005722322"><ele>168.85</ele><time>2026-08-18T05:50:18Z</time></trkpt><trkpt lat="59.3394933175" lon="34.6003898419"><ele>167.89</ele><time>2026-08-18T05:50:32Z</time></trkpt><trkpt lat="59.3395730294" lon="34.6003144048"><ele>167.41</ele><time>2026-08-18T05:50:44Z</time></trkpt><trkpt lat="59.3395994324" lon="34.6003043465"><ele>167.41</ele><time>2026-08-18T05:50:47Z</time></trkpt><trkpt lat="59.3396741152" lon="34.6002086252"><ele>167.41</ele><time>2026-08-18T05:50:55Z</time></trkpt><trkpt lat="59.3397941440" lon="34.6000521351"><ele>166.93</ele><time>2026-08-18T05:51:09Z</time></trkpt><trkpt lat="59.3398554996" lon="34.5999416616"><ele>166.45</ele><time>2026-08-18T05:51:21Z</time></trkpt><trkpt lat="59.3398877699" lon="34.5999254845"><ele>165.96</ele><time>2026-08-18T05:51:37Z</time></trkpt><trkpt lat="59.3398928829" lon="34.5999347046"><ele>165.96</ele><time>2026-08-18T05:52:04Z</time></trkpt><trkpt lat="59.3399015162" lon="34.5999410748"><ele>165.48</ele><time>2026-08-18T05:52:27Z</time></trkpt><trkpt lat="59.3399006780" lon="34.5999424998"><ele>165.00</ele><time>2026-08-18T05:52:56Z</time></trkpt><trkpt lat="59.3398945592" lon="34.5999339502"><ele>164.52</ele><time>2026-08-18T05:53:25Z</time></trkpt><trkpt lat="59.3398917094" lon="34.5999352075"><ele>164.52</ele><time>2026-08-18T05:53:53Z</time></trkpt><trkpt lat="59.3399071321" lon="34.5999409072"><ele>164.52</ele><time>2026-08-18T05:54:00Z</time></trkpt><trkpt lat="59.3400314357" lon="34.5997796394"><ele>164.52</ele><time>2026-08-18T05:54:12Z</time></trkpt><trkpt lat="59.3400520552" lon="34.5997734368"><ele>164.52</ele><time>2026-08-18T05:54:14Z</time></trkpt><trkpt lat="59.3400974851" lon="34.5997663122"><ele>164.52</ele><time>2026-08-18T05:54:18Z</time></trkpt><trkpt lat="59.3401748501" lon="34.5997110754"><ele>164.52</ele><time>2026-08-18T05:54:35Z</time></trkpt><trkpt lat="59.3401487824" lon="34.5997273363"><ele>164.52</ele><time>2026-08-18T05:54:58Z</time></trkpt><trkpt lat="59.3401258998" lon="34.5997457765"><ele>164.04</ele><time>2026-08-18T05:55:02Z</time></trkpt><trkpt lat="59.3400735129" lon="34.5997212175"><ele>164.04</ele><time>2026-08-18T05:55:14Z</time></trkpt><trkpt lat="59.3400638737" lon="34.5997127518"><ele>164.04</ele><time>2026-08-18T05:55:41Z</time></trkpt><trkpt lat="59.3400595989" lon="34.5997349638"><ele>164.04</ele><time>2026-08-18T05:56:01Z</time></trkpt><trkpt lat="59.3400603533" lon="34.5997760352"><ele>164.04</ele><time>2026-08-18T05:56:31Z</time></trkpt><trkpt lat="59.3401155062" lon="34.5997461118"><ele>163.56</ele><time>2026-08-18T05:56:53Z</time></trkpt><trkpt lat="59.3402347807" lon="34.5996360574"><ele>163.56</ele><time>2026-08-18T05:57:07Z</time></trkpt><trkpt lat="59.3402885925" lon="34.5995888673"><ele>163.56</ele><time>2026-08-18T05:57:13Z</time></trkpt><trkpt lat="59.3404460885" lon="34.5994980074"><ele>163.56</ele><time>2026-08-18T05:57:28Z</time></trkpt><trkpt lat="59.3404812925" lon="34.5994731970"><ele>163.56</ele><time>2026-08-18T05:57:31Z</time></trkpt><trkpt lat="59.3406159058" lon="34.5993789006"><ele>163.56</ele><time>2026-08-18T05:57:46Z</time></trkpt><trkpt lat="59.3407653552" lon="34.5992877055"><ele>163.56</ele><time>2026-08-18T05:58:02Z</time></trkpt><trkpt lat="59.3408830371" lon="34.5991452131"><ele>163.56</ele><time>2026-08-18T05:58:15Z</time></trkpt><trkpt lat="59.3410013057" lon="34.5990054030"><ele>163.56</ele><time>2026-08-18T05:58:29Z</time></trkpt><trkpt lat="59.3411458097" lon="34.5989670139"><ele>163.56</ele><time>2026-08-18T05:58:43Z</time></trkpt><trkpt lat="59.3413072452" lon="34.5989555307"><ele>163.56</ele><time>2026-08-18T05:58:59Z</time></trkpt><trkpt lat="59.3413736299" lon="34.5989368390"><ele>162.60</ele><time>2026-08-18T05:59:12Z</time></trkpt><trkpt lat="59.3414424453" lon="34.5989185665"><ele>162.60</ele><time>2026-08-18T05:59:26Z</time></trkpt><trkpt lat="59.3417318724" lon="34.5987465698"><ele>162.60</ele><time>2026-08-18T05:59:43Z</time></trkpt><trkpt lat="59.3418472074" lon="34.5986391976"><ele>162.60</ele><time>2026-08-18T05:59:58Z</time></trkpt><trkpt lat="59.3419006839" lon="34.5985918399"><ele>162.60</ele><time>2026-08-18T06:00:21Z</time></trkpt><trkpt lat="59.3419165257" lon="34.5985855535"><ele>162.60</ele><time>2026-08-18T06:00:36Z</time></trkpt><trkpt lat="59.3419248238" lon="34.5985860564"><ele>162.60</ele><time>2026-08-18T06:01:06Z</time></trkpt><trkpt lat="59.3419301882" lon="34.5985904988"><ele>162.60</ele><time>2026-08-18T06:01:22Z</time></trkpt><trkpt lat="59.3419367261" lon="34.5985667780"><ele>162.60</ele><time>2026-08-18T06:01:54Z</time></trkpt><trkpt lat="59.3419388216" lon="34.5985501818"><ele>163.08</ele><time>2026-08-18T06:02:21Z</time></trkpt><trkpt lat="59.3420262448" lon="34.5983713958"><ele>163.08</ele><time>2026-08-18T06:02:36Z</time></trkpt><trkpt lat="59.3420368899" lon="34.5983610023"><ele>163.08</ele><time>2026-08-18T06:02:58Z</time></trkpt><trkpt lat="59.3420378119" lon="34.5983712282"><ele>163.08</ele><time>2026-08-18T06:03:26Z</time></trkpt><trkpt lat="59.3420264125" lon="34.5983641036"><ele>163.08</ele><time>2026-08-18T06:03:57Z</time></trkpt><trkpt lat="59.3420517258" lon="34.5983258821"><ele>163.08</ele><time>2026-08-18T06:04:21Z</time></trkpt><trkpt lat="59.3420751952" lon="34.5983097889"><ele>163.08</ele><time>2026-08-18T06:04:45Z</time></trkpt><trkpt lat="59.3420970719" lon="34.5982678793"><ele>163.08</ele><time>2026-08-18T06:05:20Z</time></trkpt><trkpt lat="59.3421292584" lon="34.5982217789"><ele>163.08</ele><time>2026-08-18T06:05:35Z</time></trkpt><trkpt lat="59.3421354610" lon="34.5982048474"><ele>163.08</ele><time>2026-08-18T06:05:56Z</time></trkpt><trkpt lat="59.3421394844" lon="34.5981758460"><ele>163.08</ele><time>2026-08-18T06:06:13Z</time></trkpt><trkpt lat="59.3421985768" lon="34.5980365388"><ele>163.08</ele><time>2026-08-18T06:06:28Z</time></trkpt><trkpt lat="59.3423077092" lon="34.5978522208"><ele>163.08</ele><time>2026-08-18T06:06:41Z</time></trkpt><trkpt lat="59.3423497025" lon="34.5977447648"><ele>163.08</ele><time>2026-08-18T06:06:54Z</time></trkpt><trkpt lat="59.3424752634" lon="34.5975342114"><ele>163.08</ele><time>2026-08-18T06:07:09Z</time></trkpt><trkpt lat="59.3425589148" lon="34.5973887015"><ele>163.08</ele><time>2026-08-18T06:07:22Z</time></trkpt><trkpt lat="59.3426505290" lon="34.5972433593"><ele>163.08</ele><time>2026-08-18T06:07:35Z</time></trkpt><trkpt lat="59.3427660316" lon="34.5971246716"><ele>163.08</ele><time>2026-08-18T06:07:47Z</time></trkpt><trkpt lat="59.3428637646" lon="34.5969418623"><ele>163.08</ele><time>2026-08-18T06:08:02Z</time></trkpt><trkpt lat="59.3429453205" lon="34.5967579633"><ele>163.08</ele><time>2026-08-18T06:08:16Z</time></trkpt><trkpt lat="59.3430323247" lon="34.5965675265"><ele>163.08</ele><time>2026-08-18T06:08:29Z</time></trkpt><trkpt lat="59.3430417124" lon="34.5962692983"><ele>163.08</ele><time>2026-08-18T06:08:42Z</time></trkpt><trkpt lat="59.3430927582" lon="34.5960721560"><ele>163.08</ele><time>2026-08-18T06:08:52Z</time></trkpt><trkpt lat="59.3430894054" lon="34.5959779434"><ele>163.08</ele><time>2026-08-18T06:08:55Z</time></trkpt><trkpt lat="59.3431270402" lon="34.5957870036"><ele>163.08</ele><time>2026-08-18T06:09:07Z</time></trkpt><trkpt lat="59.3431761581" lon="34.5954945590"><ele>164.04</ele><time>2026-08-18T06:09:22Z</time></trkpt><trkpt lat="59.3431820255" lon="34.5952400845"><ele>164.04</ele><time>2026-08-18T06:09:34Z</time></trkpt><trkpt lat="59.3431925029" lon="34.5951737836"><ele>164.04</ele><time>2026-08-18T06:09:38Z</time></trkpt><trkpt lat="59.3432000466" lon="34.5948522538"><ele>165.00</ele><time>2026-08-18T06:09:51Z</time></trkpt><trkpt lat="59.3432366755" lon="34.5945881400"><ele>164.52</ele><time>2026-08-18T06:10:06Z</time></trkpt><trkpt lat="59.3432600610" lon="34.5945129544"><ele>164.52</ele><time>2026-08-18T06:10:10Z</time></trkpt><trkpt lat="59.3432712089" lon="34.5942103676"><ele>164.52</ele><time>2026-08-18T06:10:23Z</time></trkpt><trkpt lat="59.3433114421" lon="34.5939223655"><ele>164.52</ele><time>2026-08-18T06:10:38Z</time></trkpt><trkpt lat="59.3433779106" lon="34.5935922861"><ele>164.52</ele><time>2026-08-18T06:10:54Z</time></trkpt><trkpt lat="59.3434069958" lon="34.5934101474"><ele>163.08</ele><time>2026-08-18T06:11:04Z</time></trkpt><trkpt lat="59.3434280343" lon="34.5932171121"><ele>163.08</ele><time>2026-08-18T06:11:14Z</time></trkpt><trkpt lat="59.3434496596" lon="34.5930059720"><ele>162.60</ele><time>2026-08-18T06:11:27Z</time></trkpt><trkpt lat="59.3434380926" lon="34.5927925687"><ele>162.60</ele><time>2026-08-18T06:11:39Z</time></trkpt><trkpt lat="59.3433836102" lon="34.5924778283"><ele>162.60</ele><time>2026-08-18T06:11:52Z</time></trkpt><trkpt lat="59.3433774076" lon="34.5923852921"><ele>162.60</ele><time>2026-08-18T06:11:57Z</time></trkpt><trkpt lat="59.3433229253" lon="34.5920793526"><ele>162.60</ele><time>2026-08-18T06:12:11Z</time></trkpt><trkpt lat="59.3433174770" lon="34.5920589846"><ele>162.60</ele><time>2026-08-18T06:12:12Z</time></trkpt><trkpt lat="59.3432888109" lon="34.5918419771"><ele>162.60</ele><time>2026-08-18T06:12:24Z</time></trkpt><trkpt lat="59.3432298023" lon="34.5915564056"><ele>162.60</ele><time>2026-08-18T06:12:38Z</time></trkpt><trkpt lat="59.3431670219" lon="34.5913808886"><ele>162.60</ele><time>2026-08-18T06:12:51Z</time></trkpt><trkpt lat="59.3430860527" lon="34.5911670662"><ele>162.60</ele><time>2026-08-18T06:13:04Z</time></trkpt><trkpt lat="59.3429909181" lon="34.5909408387"><ele>162.60</ele><time>2026-08-18T06:13:20Z</time></trkpt><trkpt lat="59.3428914249" lon="34.5907045528"><ele>162.60</ele><time>2026-08-18T06:13:34Z</time></trkpt><trkpt lat="59.3428331707" lon="34.5904870424"><ele>162.60</ele><time>2026-08-18T06:13:48Z</time></trkpt><trkpt lat="59.3427630141" lon="34.5902924147"><ele>162.60</ele><time>2026-08-18T06:14:01Z</time></trkpt><trkpt lat="59.3427485134" lon="34.5902500860"><ele>162.60</ele><time>2026-08-18T06:14:03Z</time></trkpt><trkpt lat="59.3426357768" lon="34.5900163986"><ele>162.60</ele><time>2026-08-18T06:14:15Z</time></trkpt><trkpt lat="59.3425367028" lon="34.5897738263"><ele>162.60</ele><time>2026-08-18T06:14:29Z</time></trkpt><trkpt lat="59.3425313383" lon="34.5897549670"><ele>162.60</ele><time>2026-08-18T06:14:30Z</time></trkpt><trkpt lat="59.3424855731" lon="34.5895460900"><ele>162.60</ele><time>2026-08-18T06:14:42Z</time></trkpt><trkpt lat="59.3424859922" lon="34.5893897675"><ele>162.60</ele><time>2026-08-18T06:14:57Z</time></trkpt><trkpt lat="59.3424905185" lon="34.5894693118"><ele>162.60</ele><time>2026-08-18T06:15:12Z</time></trkpt><trkpt lat="59.3425048515" lon="34.5894622710"><ele>162.60</ele><time>2026-08-18T06:15:37Z</time></trkpt><trkpt lat="59.3425091263" lon="34.5894629415"><ele>162.12</ele><time>2026-08-18T06:16:08Z</time></trkpt><trkpt lat="59.3425074499" lon="34.5894546434"><ele>162.12</ele><time>2026-08-18T06:16:34Z</time></trkpt><trkpt lat="59.3424963858" lon="34.5894550625"><ele>162.12</ele><time>2026-08-18T06:17:03Z</time></trkpt><trkpt lat="59.3424909376" lon="34.5894488599"><ele>162.12</ele><time>2026-08-18T06:17:34Z</time></trkpt><trkpt lat="59.3424687255" lon="34.5893110614"><ele>162.60</ele><time>2026-08-18T06:17:53Z</time></trkpt><trkpt lat="59.3424836453" lon="34.5891979896"><ele>162.60</ele><time>2026-08-18T06:18:00Z</time></trkpt><trkpt lat="59.3424967211" lon="34.5891414117"><ele>162.60</ele><time>2026-08-18T06:18:03Z</time></trkpt><trkpt lat="59.3425382953" lon="34.5889022760"><ele>162.60</ele><time>2026-08-18T06:18:15Z</time></trkpt><trkpt lat="59.3425501138" lon="34.5886441134"><ele>163.56</ele><time>2026-08-18T06:18:28Z</time></trkpt><trkpt lat="59.3425429054" lon="34.5886089094"><ele>163.56</ele><time>2026-08-18T06:18:29Z</time></trkpt><trkpt lat="59.3425473478" lon="34.5883648284"><ele>164.52</ele><time>2026-08-18T06:18:41Z</time></trkpt><trkpt lat="59.3425501138" lon="34.5881630760"><ele>164.52</ele><time>2026-08-18T06:18:50Z</time></trkpt><trkpt lat="59.3425942864" lon="34.5878069289"><ele>164.52</ele><time>2026-08-18T06:19:05Z</time></trkpt><trkpt lat="59.3426509481" lon="34.5876422245"><ele>164.04</ele><time>2026-08-18T06:19:17Z</time></trkpt><trkpt lat="59.3426967133" lon="34.5873865765"><ele>164.04</ele><time>2026-08-18T06:19:28Z</time></trkpt><trkpt lat="59.3427166622" lon="34.5872759353"><ele>164.04</ele><time>2026-08-18T06:19:33Z</time></trkpt><trkpt lat="59.3427407183" lon="34.5870343689"><ele>164.04</ele><time>2026-08-18T06:19:44Z</time></trkpt><trkpt lat="59.3427594937" lon="34.5868934691"><ele>164.52</ele><time>2026-08-18T06:19:51Z</time></trkpt><trkpt lat="59.3428080250" lon="34.5866602007"><ele>164.52</ele><time>2026-08-18T06:20:05Z</time></trkpt><trkpt lat="59.3428449053" lon="34.5864258427"><ele>164.52</ele><time>2026-08-18T06:20:18Z</time></trkpt><trkpt lat="59.3428619206" lon="34.5861340687"><ele>164.52</ele><time>2026-08-18T06:20:32Z</time></trkpt><trkpt lat="59.3428653572" lon="34.5859235991"><ele>163.56</ele><time>2026-08-18T06:20:42Z</time></trkpt><trkpt lat="59.3429089431" lon="34.5856632572"><ele>162.60</ele><time>2026-08-18T06:20:54Z</time></trkpt><trkpt lat="59.3429039139" lon="34.5856185816"><ele>162.60</ele><time>2026-08-18T06:20:56Z</time></trkpt><trkpt lat="59.3429174088" lon="34.5854888298"><ele>162.60</ele><time>2026-08-18T06:21:03Z</time></trkpt><trkpt lat="59.3429194205" lon="34.5853208564"><ele>162.60</ele><time>2026-08-18T06:21:11Z</time></trkpt><trkpt lat="59.3429253716" lon="34.5852228720"><ele>162.60</ele><time>2026-08-18T06:21:18Z</time></trkpt><trkpt lat="59.3429549597" lon="34.5849663019"><ele>162.60</ele><time>2026-08-18T06:21:30Z</time></trkpt><trkpt lat="59.3429739028" lon="34.5846886095"><ele>162.60</ele><time>2026-08-18T06:21:44Z</time></trkpt><trkpt lat="59.3429780100" lon="34.5844539162"><ele>162.60</ele><time>2026-08-18T06:21:59Z</time></trkpt><trkpt lat="59.3429765012" lon="34.5841979329"><ele>164.52</ele><time>2026-08-18T06:22:14Z</time></trkpt><trkpt lat="59.3429851346" lon="34.5839726273"><ele>165.48</ele><time>2026-08-18T06:22:26Z</time></trkpt><trkpt lat="59.3429938518" lon="34.5837769937"><ele>165.96</ele><time>2026-08-18T06:22:38Z</time></trkpt><trkpt lat="59.3430046644" lon="34.5835792646"><ele>166.45</ele><time>2026-08-18T06:22:49Z</time></trkpt><trkpt lat="59.3429972045" lon="34.5834145602"><ele>166.93</ele><time>2026-08-18T06:22:58Z</time></trkpt><trkpt lat="59.3429940194" lon="34.5831957925"><ele>166.93</ele><time>2026-08-18T06:23:12Z</time></trkpt><trkpt lat="59.3429967016" lon="34.5829536393"><ele>166.93</ele><time>2026-08-18T06:23:24Z</time></trkpt><trkpt lat="59.3429804407" lon="34.5827235561"><ele>167.41</ele><time>2026-08-18T06:23:36Z</time></trkpt><trkpt lat="59.3429464940" lon="34.5825110748"><ele>167.89</ele><time>2026-08-18T06:23:48Z</time></trkpt><trkpt lat="59.3429524451" lon="34.5825601090"><ele>167.89</ele><time>2026-08-18T06:24:00Z</time></trkpt><trkpt lat="59.3429473322" lon="34.5825745258"><ele>167.89</ele><time>2026-08-18T06:24:34Z</time></trkpt><trkpt lat="59.3429498468" lon="34.5825980790"><ele>167.89</ele><time>2026-08-18T06:25:02Z</time></trkpt><trkpt lat="59.3429509364" lon="34.5825867634"><ele>167.89</ele><time>2026-08-18T06:25:24Z</time></trkpt><trkpt lat="59.3429609947" lon="34.5825746935"><ele>166.93</ele><time>2026-08-18T06:25:52Z</time></trkpt><trkpt lat="59.3429729808" lon="34.5825700834"><ele>166.93</ele><time>2026-08-18T06:26:16Z</time></trkpt><trkpt lat="59.3429700471" lon="34.5825176965"><ele>167.89</ele><time>2026-08-18T06:26:29Z</time></trkpt><trkpt lat="59.3429239467" lon="34.5821921434"><ele>167.89</ele><time>2026-08-18T06:26:42Z</time></trkpt><trkpt lat="59.3429057579" lon="34.5820591226"><ele>167.89</ele><time>2026-08-18T06:26:46Z</time></trkpt><trkpt lat="59.3428888265" lon="34.5818116888"><ele>166.45</ele><time>2026-08-18T06:26:56Z</time></trkpt><trkpt lat="59.3428868987" lon="34.5816287119"><ele>166.45</ele><time>2026-08-18T06:27:05Z</time></trkpt><trkpt lat="59.3428859767" lon="34.5815861318"><ele>166.45</ele><time>2026-08-18T06:27:07Z</time></trkpt><trkpt lat="59.3428703863" lon="34.5812153164"><ele>166.93</ele><time>2026-08-18T06:27:23Z</time></trkpt><trkpt lat="59.3428623397" lon="34.5811029989"><ele>166.93</ele><time>2026-08-18T06:27:27Z</time></trkpt><trkpt lat="59.3428304885" lon="34.5808460936"><ele>166.45</ele><time>2026-08-18T06:27:38Z</time></trkpt><trkpt lat="59.3428099528" lon="34.5805895235"><ele>165.96</ele><time>2026-08-18T06:27:52Z</time></trkpt><trkpt lat="59.3427739106" lon="34.5803422574"><ele>165.48</ele><time>2026-08-18T06:28:04Z</time></trkpt><trkpt lat="59.3427534588" lon="34.5802297723"><ele>165.48</ele><time>2026-08-18T06:28:17Z</time></trkpt><trkpt lat="59.3427310791" lon="34.5801110845"><ele>165.00</ele><time>2026-08-18T06:28:29Z</time></trkpt><trkpt lat="59.3427214399" lon="34.5800475497"><ele>165.00</ele><time>2026-08-18T06:28:34Z</time></trkpt><trkpt lat="59.3426651135" lon="34.5797154587"><ele>164.52</ele><time>2026-08-18T06:28:49Z</time></trkpt><trkpt lat="59.3426610902" lon="34.5796452183"><ele>164.52</ele><time>2026-08-18T06:28:55Z</time></trkpt><trkpt lat="59.3426476792" lon="34.5794919133"><ele>164.52</ele><time>2026-08-18T06:29:04Z</time></trkpt><trkpt lat="59.3425843120" lon="34.5792480838"><ele>164.52</ele><time>2026-08-18T06:29:19Z</time></trkpt><trkpt lat="59.3424947932" lon="34.5789046772"><ele>164.52</ele><time>2026-08-18T06:29:35Z</time></trkpt><trkpt lat="59.3424291629" lon="34.5787781104"><ele>165.96</ele><time>2026-08-18T06:29:43Z</time></trkpt><trkpt lat="59.3423448410" lon="34.5786772761"><ele>166.45</ele><time>2026-08-18T06:29:57Z</time></trkpt><trkpt lat="59.3422408216" lon="34.5784173533"><ele>166.93</ele><time>2026-08-18T06:30:09Z</time></trkpt><trkpt lat="59.3421741854" lon="34.5783347916"><ele>168.37</ele><time>2026-08-18T06:30:22Z</time></trkpt><trkpt lat="59.3420470320" lon="34.5781933051"><ele>168.85</ele><time>2026-08-18T06:30:37Z</time></trkpt><trkpt lat="59.3419884425" lon="34.5779874455"><ele>169.33</ele><time>2026-08-18T06:30:46Z</time></trkpt><trkpt lat="59.3418953195" lon="34.5778053068"><ele>169.33</ele><time>2026-08-18T06:30:59Z</time></trkpt><trkpt lat="59.3418348860" lon="34.5773085114"><ele>169.33</ele><time>2026-08-18T06:31:17Z</time></trkpt><trkpt lat="59.3417930603" lon="34.5770831220"><ele>169.33</ele><time>2026-08-18T06:31:32Z</time></trkpt><trkpt lat="59.3417599518" lon="34.5768953674"><ele>169.33</ele><time>2026-08-18T06:31:42Z</time></trkpt><trkpt lat="59.3417223170" lon="34.5766889211"><ele>168.37</ele><time>2026-08-18T06:31:55Z</time></trkpt><trkpt lat="59.3416170403" lon="34.5763068739"><ele>167.89</ele><time>2026-08-18T06:32:08Z</time></trkpt><trkpt lat="59.3415777292" lon="34.5761407446"><ele>167.89</ele><time>2026-08-18T06:32:19Z</time></trkpt><trkpt lat="59.3415504880" lon="34.5760088135"><ele>167.89</ele><time>2026-08-18T06:32:32Z</time></trkpt><trkpt lat="59.3414675072" lon="34.5756214857"><ele>167.89</ele><time>2026-08-18T06:32:47Z</time></trkpt><trkpt lat="59.3414069060" lon="34.5753103495"><ele>168.85</ele><time>2026-08-18T06:33:01Z</time></trkpt><trkpt lat="59.3413207401" lon="34.5749704633"><ele>169.81</ele><time>2026-08-18T06:33:14Z</time></trkpt><trkpt lat="59.3412989471" lon="34.5747891627"><ele>170.29</ele><time>2026-08-18T06:33:28Z</time></trkpt><trkpt lat="59.3412939180" lon="34.5747223590"><ele>170.29</ele><time>2026-08-18T06:33:55Z</time></trkpt><trkpt lat="59.3413005397" lon="34.5746832155"><ele>170.29</ele><time>2026-08-18T06:34:25Z</time></trkpt><trkpt lat="59.3413074128" lon="34.5746675413"><ele>170.77</ele><time>2026-08-18T06:34:52Z</time></trkpt><trkpt lat="59.3413077481" lon="34.5746706426"><ele>170.77</ele><time>2026-08-18T06:35:09Z</time></trkpt><trkpt lat="59.3413162138" lon="34.5747016557"><ele>170.77</ele><time>2026-08-18T06:35:33Z</time></trkpt><trkpt lat="59.3413186446" lon="34.5747359376"><ele>170.77</ele><time>2026-08-18T06:35:56Z</time></trkpt><trkpt lat="59.3413194828" lon="34.5747802779"><ele>170.77</ele><time>2026-08-18T06:36:22Z</time></trkpt><trkpt lat="59.3413167167" lon="34.5747824572"><ele>171.25</ele><time>2026-08-18T06:36:45Z</time></trkpt><trkpt lat="59.3413209915" lon="34.5747824572"><ele>171.25</ele><time>2026-08-18T06:37:04Z</time></trkpt><trkpt lat="59.3413213268" lon="34.5747765061"><ele>171.25</ele><time>2026-08-18T06:37:40Z</time></trkpt><trkpt lat="59.3413022161" lon="34.5746799465"><ele>171.25</ele><time>2026-08-18T06:37:53Z</time></trkpt><trkpt lat="59.3412524275" lon="34.5744046010"><ele>171.25</ele><time>2026-08-18T06:38:09Z</time></trkpt><trkpt lat="59.3412362505" lon="34.5742495358"><ele>171.25</ele><time>2026-08-18T06:38:18Z</time></trkpt><trkpt lat="59.3411702849" lon="34.5739483740"><ele>171.25</ele><time>2026-08-18T06:38:29Z</time></trkpt><trkpt lat="59.3411315605" lon="34.5737524051"><ele>170.29</ele><time>2026-08-18T06:38:41Z</time></trkpt><trkpt lat="59.3410673551" lon="34.5735649019"><ele>170.29</ele><time>2026-08-18T06:38:53Z</time></trkpt><trkpt lat="59.3410329893" lon="34.5734658279"><ele>170.29</ele><time>2026-08-18T06:38:58Z</time></trkpt><trkpt lat="59.3409593962" lon="34.5732050668"><ele>169.81</ele><time>2026-08-18T06:39:12Z</time></trkpt><trkpt lat="59.3409266230" lon="34.5731198229"><ele>169.81</ele><time>2026-08-18T06:39:18Z</time></trkpt><trkpt lat="59.3409031536" lon="34.5730557013"><ele>169.81</ele><time>2026-08-18T06:39:21Z</time></trkpt><trkpt lat="59.3408684526" lon="34.5729651768"><ele>169.81</ele><time>2026-08-18T06:39:32Z</time></trkpt><trkpt lat="59.3408413790" lon="34.5728587266"><ele>169.81</ele><time>2026-08-18T06:39:43Z</time></trkpt><trkpt lat="59.3408024032" lon="34.5727121271"><ele>169.81</ele><time>2026-08-18T06:39:51Z</time></trkpt><trkpt lat="59.3408144731" lon="34.5726296492"><ele>170.77</ele><time>2026-08-18T06:39:55Z</time></trkpt><trkpt lat="59.3408073485" lon="34.5723849814"><ele>170.77</ele><time>2026-08-18T06:40:07Z</time></trkpt><trkpt lat="59.3408283871" lon="34.5721589215"><ele>170.77</ele><time>2026-08-18T06:40:18Z</time></trkpt><trkpt lat="59.3408496771" lon="34.5719858352"><ele>170.77</ele><time>2026-08-18T06:40:29Z</time></trkpt><trkpt lat="59.3408750743" lon="34.5718490425"><ele>170.77</ele><time>2026-08-18T06:40:37Z</time></trkpt><trkpt lat="59.3408846296" lon="34.5718097314"><ele>170.77</ele><time>2026-08-18T06:40:39Z</time></trkpt><trkpt lat="59.3408846296" lon="34.5716117509"><ele>170.77</ele><time>2026-08-18T06:40:50Z</time></trkpt><trkpt lat="59.3408842105" lon="34.5716409199"><ele>170.77</ele><time>2026-08-18T06:41:02Z</time></trkpt><trkpt lat="59.3408876471" lon="34.5716494694"><ele>170.77</ele><time>2026-08-18T06:41:16Z</time></trkpt><trkpt lat="59.3408910837" lon="34.5716411714"><ele>170.77</ele><time>2026-08-18T06:41:38Z</time></trkpt><trkpt lat="59.3408953585" lon="34.5716362260"><ele>170.77</ele><time>2026-08-18T06:41:55Z</time></trkpt><trkpt lat="59.3408938497" lon="34.5716355555"><ele>171.25</ele><time>2026-08-18T06:42:28Z</time></trkpt><trkpt lat="59.3409129605" lon="34.5715129282"><ele>171.25</ele><time>2026-08-18T06:42:38Z</time></trkpt><trkpt lat="59.3409366813" lon="34.5712910593"><ele>171.25</ele><time>2026-08-18T06:42:48Z</time></trkpt><trkpt lat="59.3409387767" lon="34.5712422766"><ele>171.25</ele><time>2026-08-18T06:42:50Z</time></trkpt><trkpt lat="59.3409755733" lon="34.5709922444"><ele>171.25</ele><time>2026-08-18T06:43:04Z</time></trkpt><trkpt lat="59.3409972824" lon="34.5707762428"><ele>171.25</ele><time>2026-08-18T06:43:16Z</time></trkpt><trkpt lat="59.3410010543" lon="34.5707382727"><ele>169.81</ele><time>2026-08-18T06:43:18Z</time></trkpt><trkpt lat="59.3410417903" lon="34.5705169905"><ele>169.81</ele><time>2026-08-18T06:43:30Z</time></trkpt><trkpt lat="59.3410451431" lon="34.5703080297"><ele>168.85</ele><time>2026-08-18T06:43:42Z</time></trkpt><trkpt lat="59.3410459813" lon="34.5702263061"><ele>168.85</ele><time>2026-08-18T06:43:46Z</time></trkpt><trkpt lat="59.3410531897" lon="34.5701510366"><ele>168.85</ele><time>2026-08-18T06:43:50Z</time></trkpt><trkpt lat="59.3410666008" lon="34.5700057782"><ele>168.85</ele><time>2026-08-18T06:43:57Z</time></trkpt><trkpt lat="59.3411002122" lon="34.5697979908"><ele>168.85</ele><time>2026-08-18T06:44:10Z</time></trkpt><trkpt lat="59.3410922494" lon="34.5696576778"><ele>167.89</ele><time>2026-08-18T06:44:21Z</time></trkpt><trkpt lat="59.3411138747" lon="34.5694103278"><ele>167.89</ele><time>2026-08-18T06:44:33Z</time></trkpt><trkpt lat="59.3410891481" lon="34.5693538338"><ele>167.41</ele><time>2026-08-18T06:44:47Z</time></trkpt><trkpt lat="59.3410376832" lon="34.5692196395"><ele>167.41</ele><time>2026-08-18T06:44:58Z</time></trkpt><trkpt lat="59.3410459813" lon="34.5692153648"><ele>167.41</ele><time>2026-08-18T06:44:59Z</time></trkpt><trkpt lat="59.3411312252" lon="34.5690998621"><ele>166.93</ele><time>2026-08-18T06:45:11Z</time></trkpt><trkpt lat="59.3411255255" lon="34.5688991155"><ele>166.45</ele><time>2026-08-18T06:45:26Z</time></trkpt><trkpt lat="59.3411509227" lon="34.5687588863"><ele>166.45</ele><time>2026-08-18T06:45:39Z</time></trkpt><trkpt lat="59.3411914911" lon="34.5686047431"><ele>166.45</ele><time>2026-08-18T06:45:53Z</time></trkpt><trkpt lat="59.3412617315" lon="34.5684410445"><ele>166.93</ele><time>2026-08-18T06:46:08Z</time></trkpt><trkpt lat="59.3413662538" lon="34.5682608336"><ele>166.45</ele><time>2026-08-18T06:46:26Z</time></trkpt><trkpt lat="59.3413721211" lon="34.5681954548"><ele>165.00</ele><time>2026-08-18T06:46:51Z</time></trkpt><trkpt lat="59.3413929921" lon="34.5681355242"><ele>165.00</ele><time>2026-08-18T06:47:12Z</time></trkpt><trkpt lat="59.3414302915" lon="34.5680968836"><ele>165.00</ele><time>2026-08-18T06:47:25Z</time></trkpt><trkpt lat="59.3415345624" lon="34.5679690596"><ele>165.00</ele><time>2026-08-18T06:47:41Z</time></trkpt><trkpt lat="59.3416089099" lon="34.5678059477"><ele>165.00</ele><time>2026-08-18T06:47:59Z</time></trkpt><trkpt lat="59.3417306989" lon="34.5676503796"><ele>165.48</ele><time>2026-08-18T06:48:16Z</time></trkpt><trkpt lat="59.3417903781" lon="34.5675597712"><ele>165.48</ele><time>2026-08-18T06:48:34Z</time></trkpt><trkpt lat="59.3418686651" lon="34.5672267582"><ele>165.48</ele><time>2026-08-18T06:48:50Z</time></trkpt><trkpt lat="59.3419378996" lon="34.5669507422"><ele>165.48</ele><time>2026-08-18T06:49:03Z</time></trkpt><trkpt lat="59.3419581000" lon="34.5667937491"><ele>165.00</ele><time>2026-08-18T06:49:17Z</time></trkpt><trkpt lat="59.3419807311" lon="34.5666219201"><ele>165.00</ele><time>2026-08-18T06:49:31Z</time></trkpt><trkpt lat="59.3420256581" lon="34.5664013084"><ele>165.00</ele><time>2026-08-18T06:49:44Z</time></trkpt><trkpt lat="59.3420262448" lon="34.5660481788"><ele>165.00</ele><time>2026-08-18T06:49:58Z</time></trkpt><trkpt lat="59.3420860916" lon="34.5658126473"><ele>165.00</ele><time>2026-08-18T06:50:12Z</time></trkpt><trkpt lat="59.3421166856" lon="34.5655151736"><ele>165.00</ele><time>2026-08-18T06:50:26Z</time></trkpt><trkpt lat="59.3420969881" lon="34.5653587673"><ele>165.48</ele><time>2026-08-18T06:50:37Z</time></trkpt><trkpt lat="59.3421005085" lon="34.5652461145"><ele>165.48</ele><time>2026-08-18T06:50:50Z</time></trkpt><trkpt lat="59.3420868460" lon="34.5651429333"><ele>165.48</ele><time>2026-08-18T06:51:05Z</time></trkpt><trkpt lat="59.3420537375" lon="34.5650261734"><ele>165.48</ele><time>2026-08-18T06:51:20Z</time></trkpt><trkpt lat="59.3419478741" lon="34.5648334734"><ele>165.00</ele><time>2026-08-18T06:51:34Z</time></trkpt><trkpt lat="59.3418794777" lon="34.5647233352"><ele>165.00</ele><time>2026-08-18T06:51:44Z</time></trkpt><trkpt lat="59.3418073934" lon="34.5646347385"><ele>164.52</ele><time>2026-08-18T06:51:56Z</time></trkpt><trkpt lat="59.3417363148" lon="34.5645492431"><ele>164.52</ele><time>2026-08-18T06:52:08Z</time></trkpt><trkpt lat="59.3416882865" lon="34.5645165537"><ele>164.52</ele><time>2026-08-18T06:52:19Z</time></trkpt><trkpt lat="59.3415244203" lon="34.5644344948"><ele>164.04</ele><time>2026-08-18T06:52:32Z</time></trkpt><trkpt lat="59.3414834328" lon="34.5643861312"><ele>164.04</ele><time>2026-08-18T06:52:49Z</time></trkpt><trkpt lat="59.3414852768" lon="34.5643464848"><ele>164.04</ele><time>2026-08-18T06:53:10Z</time></trkpt><trkpt lat="59.3414787389" lon="34.5643583871"><ele>164.04</ele><time>2026-08-18T06:53:27Z</time></trkpt><trkpt lat="59.3414997775" lon="34.5643919986"><ele>163.56</ele><time>2026-08-18T06:54:02Z</time></trkpt><trkpt lat="59.3415087461" lon="34.5643674396"><ele>163.56</ele><time>2026-08-18T06:54:29Z</time></trkpt><trkpt lat="59.3415027112" lon="34.5643837005"><ele>163.56</ele><time>2026-08-18T06:54:55Z</time></trkpt><trkpt lat="59.3414921500" lon="34.5644068345"><ele>163.56</ele><time>2026-08-18T06:55:26Z</time></trkpt><trkpt lat="59.3414614722" lon="34.5643537771"><ele>163.56</ele><time>2026-08-18T06:55:42Z</time></trkpt><trkpt lat="59.3413847778" lon="34.5641202573"><ele>163.56</ele><time>2026-08-18T06:55:55Z</time></trkpt><trkpt lat="59.3413566984" lon="34.5640295651"><ele>163.56</ele><time>2026-08-18T06:56:12Z</time></trkpt><trkpt lat="59.3413488194" lon="34.5639941934"><ele>163.56</ele><time>2026-08-18T06:56:16Z</time></trkpt><trkpt lat="59.3412827700" lon="34.5637900103"><ele>163.56</ele><time>2026-08-18T06:56:28Z</time></trkpt><trkpt lat="59.3412288744" lon="34.5634557400"><ele>163.56</ele><time>2026-08-18T06:56:41Z</time></trkpt><trkpt lat="59.3412315566" lon="34.5634221286"><ele>163.56</ele><time>2026-08-18T06:56:43Z</time></trkpt><trkpt lat="59.3412316404" lon="34.5633925404"><ele>163.56</ele><time>2026-08-18T06:56:44Z</time></trkpt><trkpt lat="59.3412185647" lon="34.5632221363"><ele>163.08</ele><time>2026-08-18T06:56:57Z</time></trkpt><trkpt lat="59.3412235938" lon="34.5631493814"><ele>163.08</ele><time>2026-08-18T06:57:19Z</time></trkpt><trkpt lat="59.3412267789" lon="34.5631473698"><ele>163.08</ele><time>2026-08-18T06:57:37Z</time></trkpt><trkpt lat="59.3412255216" lon="34.5631495491"><ele>163.08</ele><time>2026-08-18T06:57:50Z</time></trkpt><trkpt lat="59.3411854561" lon="34.5631559193"><ele>163.08</ele><time>2026-08-18T06:57:59Z</time></trkpt><trkpt lat="59.3411565386" lon="34.5631431788"><ele>162.60</ele><time>2026-08-18T06:58:12Z</time></trkpt><trkpt lat="59.3411344104" lon="34.5631368086"><ele>162.60</ele><time>2026-08-18T06:58:26Z</time></trkpt><trkpt lat="59.3411024753" lon="34.5631175302"><ele>162.60</ele><time>2026-08-18T06:58:42Z</time></trkpt><trkpt lat="59.3410817720" lon="34.5630943961"><ele>162.60</ele><time>2026-08-18T06:59:05Z</time></trkpt><trkpt lat="59.3410714623" lon="34.5630603656"><ele>162.60</ele><time>2026-08-18T06:59:19Z</time></trkpt><trkpt lat="59.3410658464" lon="34.5630742796"><ele>162.60</ele><time>2026-08-18T06:59:39Z</time></trkpt><trkpt lat="59.3410564587" lon="34.5630886126"><ele>163.08</ele><time>2026-08-18T07:00:02Z</time></trkpt><trkpt lat="59.3411163893" lon="34.5630591083"><ele>163.08</ele><time>2026-08-18T07:00:16Z</time></trkpt><trkpt lat="59.3411054090" lon="34.5629716851"><ele>163.08</ele><time>2026-08-18T07:00:33Z</time></trkpt><trkpt lat="59.3411099352" lon="34.5629514009"><ele>163.08</ele><time>2026-08-18T07:00:51Z</time></trkpt><trkpt lat="59.3411422055" lon="34.5629274286"><ele>163.08</ele><time>2026-08-18T07:01:08Z</time></trkpt><trkpt lat="59.3411494978" lon="34.5628781430"><ele>163.56</ele><time>2026-08-18T07:01:23Z</time></trkpt><trkpt lat="59.3411710393" lon="34.5628506504"><ele>164.52</ele><time>2026-08-18T07:01:44Z</time></trkpt><trkpt lat="59.3411891442" lon="34.5628179610"><ele>164.52</ele><time>2026-08-18T07:02:05Z</time></trkpt><trkpt lat="59.3412606418" lon="34.5626874547"><ele>165.00</ele><time>2026-08-18T07:02:20Z</time></trkpt><trkpt lat="59.3413266074" lon="34.5625056513"><ele>165.00</ele><time>2026-08-18T07:02:36Z</time></trkpt><trkpt lat="59.3413596321" lon="34.5622815192"><ele>165.00</ele><time>2026-08-18T07:02:49Z</time></trkpt><trkpt lat="59.3413564470" lon="34.5622116141"><ele>165.96</ele><time>2026-08-18T07:03:04Z</time></trkpt><trkpt lat="59.3413311336" lon="34.5621050801"><ele>166.45</ele><time>2026-08-18T07:03:18Z</time></trkpt><trkpt lat="59.3413002882" lon="34.5620202553"><ele>166.45</ele><time>2026-08-18T07:03:33Z</time></trkpt><trkpt lat="59.3412353285" lon="34.5617845561"><ele>166.45</ele><time>2026-08-18T07:03:50Z</time></trkpt><trkpt lat="59.3412192352" lon="34.5616836380"><ele>166.45</ele><time>2026-08-18T07:04:10Z</time></trkpt><trkpt lat="59.3412092607" lon="34.5616532955"><ele>166.45</ele><time>2026-08-18T07:04:28Z</time></trkpt><trkpt lat="59.3411979452" lon="34.5616299100"><ele>166.45</ele><time>2026-08-18T07:04:44Z</time></trkpt><trkpt lat="59.3411890604" lon="34.5616150741"><ele>166.45</ele><time>2026-08-18T07:05:09Z</time></trkpt><trkpt lat="59.3411898147" lon="34.5616130624"><ele>166.93</ele><time>2026-08-18T07:05:45Z</time></trkpt><trkpt lat="59.3411798403" lon="34.5616273116"><ele>166.93</ele><time>2026-08-18T07:06:12Z</time></trkpt><trkpt lat="59.3411793374" lon="34.5616190974"><ele>166.93</ele><time>2026-08-18T07:06:35Z</time></trkpt><trkpt lat="59.3411776610" lon="34.5616183430"><ele>166.93</ele><time>2026-08-18T07:06:53Z</time></trkpt><trkpt lat="59.3411775772" lon="34.5616115537"><ele>167.41</ele><time>2026-08-18T07:07:21Z</time></trkpt><trkpt lat="59.3411697820" lon="34.5616092905"><ele>167.41</ele><time>2026-08-18T07:07:45Z</time></trkpt><trkpt lat="59.3411710393" lon="34.5616190135"><ele>167.41</ele><time>2026-08-18T07:08:06Z</time></trkpt><trkpt lat="59.3411658425" lon="34.5616180077"><ele>167.41</ele><time>2026-08-18T07:08:28Z</time></trkpt><trkpt lat="59.3411608133" lon="34.5616082009"><ele>167.89</ele><time>2026-08-18T07:08:52Z</time></trkpt><trkpt lat="59.3411491625" lon="34.5616005734"><ele>167.89</ele><time>2026-08-18T07:09:18Z</time></trkpt><trkpt lat="59.3411451392" lon="34.5615877490"><ele>167.89</ele><time>2026-08-18T07:09:46Z</time></trkpt><trkpt lat="59.3411464803" lon="34.5615786966"><ele>167.89</ele><time>2026-08-18T07:10:11Z</time></trkpt><trkpt lat="59.3411469832" lon="34.5615750924"><ele>168.37</ele><time>2026-08-18T07:10:38Z</time></trkpt><trkpt lat="59.3411445525" lon="34.5615693927"><ele>168.37</ele><time>2026-08-18T07:11:06Z</time></trkpt><trkpt lat="59.3411500845" lon="34.5615499467"><ele>168.37</ele><time>2026-08-18T07:11:38Z</time></trkpt><trkpt lat="59.3411433790" lon="34.5615325961"><ele>169.33</ele><time>2026-08-18T07:12:08Z</time></trkpt><trkpt lat="59.3411389366" lon="34.5615300816"><ele>169.33</ele><time>2026-08-18T07:12:32Z</time></trkpt><trkpt lat="59.3411339074" lon="34.5615221187"><ele>169.33</ele><time>2026-08-18T07:12:58Z</time></trkpt><trkpt lat="59.3411293812" lon="34.5615148265"><ele>169.81</ele><time>2026-08-18T07:13:27Z</time></trkpt><trkpt lat="59.3411163054" lon="34.5615011640"><ele>169.81</ele><time>2026-08-18T07:13:56Z</time></trkpt><trkpt lat="59.3411179818" lon="34.5615403913"><ele>169.81</ele><time>2026-08-18T07:14:13Z</time></trkpt><trkpt lat="59.3410862144" lon="34.5615453366"><ele>170.29</ele><time>2026-08-18T07:14:41Z</time></trkpt><trkpt lat="59.3410393596" lon="34.5614645351"><ele>170.29</ele><time>2026-08-18T07:14:54Z</time></trkpt><trkpt lat="59.3410095200" lon="34.5614280738"><ele>170.29</ele><time>2026-08-18T07:14:58Z</time></trkpt><trkpt lat="59.3409751542" lon="34.5613769442"><ele>170.29</ele><time>2026-08-18T07:15:03Z</time></trkpt><trkpt lat="59.3408467434" lon="34.5611948054"><ele>170.29</ele><time>2026-08-18T07:15:15Z</time></trkpt><trkpt lat="59.3408179935" lon="34.5610804763"><ele>170.29</ele><time>2026-08-18T07:15:30Z</time></trkpt><trkpt lat="59.3407263793" lon="34.5609794743"><ele>170.29</ele><time>2026-08-18T07:15:42Z</time></trkpt><trkpt lat="59.3406682089" lon="34.5609110780"><ele>170.29</ele><time>2026-08-18T07:15:56Z</time></trkpt><trkpt lat="59.3406599108" lon="34.5607907139"><ele>170.29</ele><time>2026-08-18T07:16:13Z</time></trkpt><trkpt lat="59.3406176660" lon="34.5605866145"><ele>170.77</ele><time>2026-08-18T07:16:31Z</time></trkpt><trkpt lat="59.3405675422" lon="34.5603898074"><ele>170.77</ele><time>2026-08-18T07:16:45Z</time></trkpt><trkpt lat="59.3405358586" lon="34.5603199024"><ele>170.77</ele><time>2026-08-18T07:17:03Z</time></trkpt><trkpt lat="59.3405082822" lon="34.5602324791"><ele>170.77</ele><time>2026-08-18T07:17:19Z</time></trkpt><trkpt lat="59.3405113835" lon="34.5601250231"><ele>170.77</ele><time>2026-08-18T07:17:31Z</time></trkpt><trkpt lat="59.3404967152" lon="34.5599293895"><ele>170.77</ele><time>2026-08-18T07:17:42Z</time></trkpt><trkpt lat="59.3404683843" lon="34.5596985519"><ele>170.77</ele><time>2026-08-18T07:17:53Z</time></trkpt><trkpt lat="59.3404488545" lon="34.5595145691"><ele>170.77</ele><time>2026-08-18T07:18:06Z</time></trkpt><trkpt lat="59.3404347729" lon="34.5594667923"><ele>170.77</ele><time>2026-08-18T07:18:23Z</time></trkpt><trkpt lat="59.3404342700" lon="34.5594200213"><ele>170.77</ele><time>2026-08-18T07:18:50Z</time></trkpt><trkpt lat="59.3403874990" lon="34.5592190232"><ele>170.77</ele><time>2026-08-18T07:19:03Z</time></trkpt><trkpt lat="59.3403791171" lon="34.5590767823"><ele>170.77</ele><time>2026-08-18T07:19:15Z</time></trkpt><trkpt lat="59.3403305858" lon="34.5589046180"><ele>170.77</ele><time>2026-08-18T07:19:30Z</time></trkpt><trkpt lat="59.3403220363" lon="34.5587916300"><ele>170.77</ele><time>2026-08-18T07:19:38Z</time></trkpt><trkpt lat="59.3402857427" lon="34.5586130954"><ele>170.77</ele><time>2026-08-18T07:19:50Z</time></trkpt><trkpt lat="59.3402615190" lon="34.5585319586"><ele>170.77</ele><time>2026-08-18T07:20:09Z</time></trkpt><trkpt lat="59.3402413186" lon="34.5583656617"><ele>170.77</ele><time>2026-08-18T07:20:23Z</time></trkpt><trkpt lat="59.3402337749" lon="34.5582459681"><ele>170.77</ele><time>2026-08-18T07:20:35Z</time></trkpt><trkpt lat="59.3402278237" lon="34.5581888035"><ele>170.77</ele><time>2026-08-18T07:20:54Z</time></trkpt><trkpt lat="59.3402136583" lon="34.5581844449"><ele>170.77</ele><time>2026-08-18T07:21:18Z</time></trkpt><trkpt lat="59.3402253930" lon="34.5581491571"><ele>170.77</ele><time>2026-08-18T07:21:47Z</time></trkpt><trkpt lat="59.3402291648" lon="34.5581515040"><ele>170.77</ele><time>2026-08-18T07:22:11Z</time></trkpt><trkpt lat="59.3402316794" lon="34.5581650827"><ele>170.77</ele><time>2026-08-18T07:22:31Z</time></trkpt><trkpt lat="59.3402403127" lon="34.5581593830"><ele>170.77</ele><time>2026-08-18T07:22:57Z</time></trkpt><trkpt lat="59.3402384687" lon="34.5581407752"><ele>170.77</ele><time>2026-08-18T07:23:27Z</time></trkpt><trkpt lat="59.3402341101" lon="34.5581844449"><ele>171.25</ele><time>2026-08-18T07:23:55Z</time></trkpt><trkpt lat="59.3402289134" lon="34.5581954252"><ele>171.25</ele><time>2026-08-18T07:24:24Z</time></trkpt><trkpt lat="59.3402330205" lon="34.5581679326"><ele>171.25</ele><time>2026-08-18T07:24:57Z</time></trkpt><trkpt lat="59.3402321823" lon="34.5581681840"><ele>171.73</ele><time>2026-08-18T07:25:30Z</time></trkpt><trkpt lat="59.3402276561" lon="34.5581605565"><ele>171.73</ele><time>2026-08-18T07:25:59Z</time></trkpt><trkpt lat="59.3402176816" lon="34.5581578743"><ele>171.73</ele><time>2026-08-18T07:26:29Z</time></trkpt><trkpt lat="59.3402319308" lon="34.5581401885"><ele>172.21</ele><time>2026-08-18T07:26:56Z</time></trkpt><trkpt lat="59.3402408157" lon="34.5581080858"><ele>172.21</ele><time>2026-08-18T07:27:23Z</time></trkpt><trkpt lat="59.3402469344" lon="34.5580966026"><ele>172.21</ele><time>2026-08-18T07:27:52Z</time></trkpt><trkpt lat="59.3402537238" lon="34.5580909029"><ele>172.69</ele><time>2026-08-18T07:28:21Z</time></trkpt><trkpt lat="59.3402532209" lon="34.5581020508"><ele>172.69</ele><time>2026-08-18T07:28:48Z</time></trkpt><trkpt lat="59.3402556516" lon="34.5580855384"><ele>172.69</ele><time>2026-08-18T07:29:13Z</time></trkpt><trkpt lat="59.3402526341" lon="34.5580806769"><ele>172.69</ele><time>2026-08-18T07:29:40Z</time></trkpt><trkpt lat="59.3402495328" lon="34.5580821019"><ele>173.17</ele><time>2026-08-18T07:30:04Z</time></trkpt><trkpt lat="59.3402487785" lon="34.5580816828"><ele>173.17</ele><time>2026-08-18T07:30:25Z</time></trkpt><trkpt lat="59.3402472697" lon="34.5580679365"><ele>173.17</ele><time>2026-08-18T07:30:44Z</time></trkpt><trkpt lat="59.3402483594" lon="34.5580618177"><ele>173.17</ele><time>2026-08-18T07:31:18Z</time></trkpt><trkpt lat="59.3402453419" lon="34.5580453891"><ele>173.66</ele><time>2026-08-18T07:31:51Z</time></trkpt><trkpt lat="59.3402459286" lon="34.5580483228"><ele>173.66</ele><time>2026-08-18T07:32:13Z</time></trkpt><trkpt lat="59.3402497005" lon="34.5580589678"><ele>173.66</ele><time>2026-08-18T07:32:51Z</time></trkpt><trkpt lat="59.3402477726" lon="34.5580545254"><ele>174.14</ele><time>2026-08-18T07:33:26Z</time></trkpt><trkpt lat="59.3402471021" lon="34.5580541901"><ele>174.14</ele><time>2026-08-18T07:33:57Z</time></trkpt><trkpt lat="59.3402492814" lon="34.5580384322"><ele>174.62</ele><time>2026-08-18T07:34:25Z</time></trkpt><trkpt lat="59.3402440008" lon="34.5580152981"><ele>174.62</ele><time>2026-08-18T07:34:59Z</time></trkpt><trkpt lat="59.3402440008" lon="34.5580098499"><ele>174.62</ele><time>2026-08-18T07:35:19Z</time></trkpt><trkpt lat="59.3402475212" lon="34.5580204949"><ele>174.62</ele><time>2026-08-18T07:35:43Z</time></trkpt><trkpt lat="59.3402552325" lon="34.5580519270"><ele>175.58</ele><time>2026-08-18T07:36:13Z</time></trkpt><trkpt lat="59.3402689788" lon="34.5580966026"><ele>175.58</ele><time>2026-08-18T07:36:46Z</time></trkpt><trkpt lat="59.3402710743" lon="34.5581237599"><ele>176.06</ele><time>2026-08-18T07:37:20Z</time></trkpt><trkpt lat="59.3402809650" lon="34.5581377577"><ele>176.06</ele><time>2026-08-18T07:37:48Z</time></trkpt><trkpt lat="59.3402877543" lon="34.5581592154"><ele>176.06</ele><time>2026-08-18T07:38:16Z</time></trkpt><trkpt lat="59.3402946275" lon="34.5581932459"><ele>176.06</ele><time>2026-08-18T07:38:39Z</time></trkpt><trkpt lat="59.3402921129" lon="34.5582069922"><ele>176.54</ele><time>2026-08-18T07:39:15Z</time></trkpt><trkpt lat="59.3403003272" lon="34.5582115185"><ele>176.54</ele><time>2026-08-18T07:39:54Z</time></trkpt><trkpt lat="59.3403079547" lon="34.5582018793"><ele>177.02</ele><time>2026-08-18T07:40:27Z</time></trkpt><trkpt lat="59.3403050210" lon="34.5582144521"><ele>177.02</ele><time>2026-08-18T07:40:56Z</time></trkpt><trkpt lat="59.3402957171" lon="34.5582379214"><ele>177.02</ele><time>2026-08-18T07:41:27Z</time></trkpt><trkpt lat="59.3403019197" lon="34.5582387596"><ele>177.50</ele><time>2026-08-18T07:41:52Z</time></trkpt><trkpt lat="59.3403786980" lon="34.5581431221"><ele>177.50</ele><time>2026-08-18T07:42:06Z</time></trkpt><trkpt lat="59.3404140696" lon="34.5580314752"><ele>177.50</ele><time>2026-08-18T07:42:19Z</time></trkpt><trkpt lat="59.3404260557" lon="34.5579577144"><ele>177.50</ele><time>2026-08-18T07:42:35Z</time></trkpt><trkpt lat="59.3404471781" lon="34.5578273758"><ele>177.50</ele><time>2026-08-18T07:42:47Z</time></trkpt><trkpt lat="59.3404690549" lon="34.5575993881"><ele>177.50</ele><time>2026-08-18T07:42:59Z</time></trkpt><trkpt lat="59.3405377865" lon="34.5573920198"><ele>177.50</ele><time>2026-08-18T07:43:13Z</time></trkpt><trkpt lat="59.3405613396" lon="34.5572524611"><ele>177.50</ele><time>2026-08-18T07:43:27Z</time></trkpt><trkpt lat="59.3405697215" lon="34.5570911933"><ele>177.50</ele><time>2026-08-18T07:43:38Z</time></trkpt><trkpt lat="59.3405959569" lon="34.5568972360"><ele>177.50</ele><time>2026-08-18T07:43:51Z</time></trkpt><trkpt lat="59.3406407163" lon="34.5567606110"><ele>177.50</ele><time>2026-08-18T07:44:05Z</time></trkpt><trkpt lat="59.3406673707" lon="34.5567124989"><ele>177.50</ele><time>2026-08-18T07:44:22Z</time></trkpt><trkpt lat="59.3407184165" lon="34.5566112455"><ele>177.50</ele><time>2026-08-18T07:44:36Z</time></trkpt><trkpt lat="59.3407236133" lon="34.5565174520"><ele>177.02</ele><time>2026-08-18T07:44:49Z</time></trkpt><trkpt lat="59.3407803588" lon="34.5563969202"><ele>177.02</ele><time>2026-08-18T07:45:04Z</time></trkpt><trkpt lat="59.3409343343" lon="34.5560358278"><ele>177.02</ele><time>2026-08-18T07:45:20Z</time></trkpt><trkpt lat="59.3409833685" lon="34.5559132844"><ele>177.02</ele><time>2026-08-18T07:45:32Z</time></trkpt><trkpt lat="59.3409901578" lon="34.5559008792"><ele>177.02</ele><time>2026-08-18T07:45:33Z</time></trkpt><trkpt lat="59.3410906568" lon="34.5557358395"><ele>176.06</ele><time>2026-08-18T07:45:48Z</time></trkpt><trkpt lat="59.3411275372" lon="34.5556668565"><ele>175.58</ele><time>2026-08-18T07:46:05Z</time></trkpt><trkpt lat="59.3411607295" lon="34.5556573011"><ele>175.58</ele><time>2026-08-18T07:46:18Z</time></trkpt><trkpt lat="59.3412426207" lon="34.5555081032"><ele>175.58</ele><time>2026-08-18T07:46:34Z</time></trkpt><trkpt lat="59.3412815966" lon="34.5554153994"><ele>175.58</ele><time>2026-08-18T07:46:46Z</time></trkpt><trkpt lat="59.3413166329" lon="34.5553264674"><ele>175.58</ele><time>2026-08-18T07:47:01Z</time></trkpt><trkpt lat="59.3413586263" lon="34.5552096236"><ele>175.58</ele><time>2026-08-18T07:47:13Z</time></trkpt><trkpt lat="59.3414200656" lon="34.5550480206"><ele>176.54</ele><time>2026-08-18T07:47:27Z</time></trkpt><trkpt lat="59.3415382504" lon="34.5548254810"><ele>176.54</ele><time>2026-08-18T07:47:38Z</time></trkpt><trkpt lat="59.3415905535" lon="34.5547329448"><ele>176.54</ele><time>2026-08-18T07:47:53Z</time></trkpt><trkpt lat="59.3416444492" lon="34.5546249021"><ele>176.06</ele><time>2026-08-18T07:48:08Z</time></trkpt><trkpt lat="59.3417518213" lon="34.5544668194"><ele>176.06</ele><time>2026-08-18T07:48:24Z</time></trkpt><trkpt lat="59.3418151047" lon="34.5544238202"><ele>175.58</ele><time>2026-08-18T07:48:43Z</time></trkpt><trkpt lat="59.3418617919" lon="34.5543543343"><ele>175.58</ele><time>2026-08-18T07:48:54Z</time></trkpt><trkpt lat="59.3418726884" lon="34.5543061383"><ele>175.58</ele><time>2026-08-18T07:49:21Z</time></trkpt><trkpt lat="59.3419063836" lon="34.5543018635"><ele>175.10</ele><time>2026-08-18T07:49:52Z</time></trkpt><trkpt lat="59.3419112451" lon="34.5542861056"><ele>175.10</ele><time>2026-08-18T07:50:20Z</time></trkpt><trkpt lat="59.3419596087" lon="34.5542046335"><ele>175.10</ele><time>2026-08-18T07:50:35Z</time></trkpt><trkpt lat="59.3420489598" lon="34.5540538430"><ele>174.62</ele><time>2026-08-18T07:50:47Z</time></trkpt><trkpt lat="59.3421398196" lon="34.5539695211"><ele>174.62</ele><time>2026-08-18T07:51:00Z</time></trkpt><trkpt lat="59.3421870098" lon="34.5538971014"><ele>174.62</ele><time>2026-08-18T07:51:13Z</time></trkpt><trkpt lat="59.3422425818" lon="34.5538691059"><ele>174.62</ele><time>2026-08-18T07:51:28Z</time></trkpt><trkpt lat="59.3423382193" lon="34.5538219996"><ele>174.62</ele><time>2026-08-18T07:51:42Z</time></trkpt><trkpt lat="59.3423760217" lon="34.5538028888"><ele>174.62</ele><time>2026-08-18T07:52:00Z</time></trkpt><trkpt lat="59.3424305040" lon="34.5537994523"><ele>174.14</ele><time>2026-08-18T07:52:14Z</time></trkpt><trkpt lat="59.3425279856" lon="34.5536810160"><ele>174.14</ele><time>2026-08-18T07:52:26Z</time></trkpt><trkpt lat="59.3425439112" lon="34.5536238514"><ele>174.14</ele><time>2026-08-18T07:52:39Z</time></trkpt><trkpt lat="59.3425950408" lon="34.5535879768"><ele>174.14</ele><time>2026-08-18T07:52:53Z</time></trkpt><trkpt lat="59.3426522892" lon="34.5535185747"><ele>174.14</ele><time>2026-08-18T07:53:04Z</time></trkpt><trkpt lat="59.3428409658" lon="34.5533784293"><ele>174.14</ele><time>2026-08-18T07:53:17Z</time></trkpt><trkpt lat="59.3429841287" lon="34.5532773435"><ele>174.14</ele><time>2026-08-18T07:53:31Z</time></trkpt><trkpt lat="59.3431121204" lon="34.5530314185"><ele>174.14</ele><time>2026-08-18T07:53:46Z</time></trkpt><trkpt lat="59.3431593943" lon="34.5528947096"><ele>174.14</ele><time>2026-08-18T07:53:59Z</time></trkpt><trkpt lat="59.3432147987" lon="34.5526704099"><ele>174.14</ele><time>2026-08-18T07:54:11Z</time></trkpt><trkpt lat="59.3432390224" lon="34.5524260774"><ele>174.14</ele><time>2026-08-18T07:54:24Z</time></trkpt><trkpt lat="59.3432357535" lon="34.5522032026"><ele>173.66</ele><time>2026-08-18T07:54:38Z</time></trkpt><trkpt lat="59.3432128709" lon="34.5520097483"><ele>173.66</ele><time>2026-08-18T07:54:50Z</time></trkpt><trkpt lat="59.3432215881" lon="34.5519127697"><ele>173.66</ele><time>2026-08-18T07:55:00Z</time></trkpt><trkpt lat="59.3432234321" lon="34.5517212432"><ele>174.14</ele><time>2026-08-18T07:55:11Z</time></trkpt><trkpt lat="59.3432204984" lon="34.5515962690"><ele>174.14</ele><time>2026-08-18T07:55:21Z</time></trkpt><trkpt lat="59.3432454765" lon="34.5515121985"><ele>174.14</ele><time>2026-08-18T07:55:38Z</time></trkpt><trkpt lat="59.3432121165" lon="34.5514143817"><ele>174.14</ele><time>2026-08-18T07:55:54Z</time></trkpt><trkpt lat="59.3432082608" lon="34.5513147209"><ele>174.14</ele><time>2026-08-18T07:56:04Z</time></trkpt><trkpt lat="59.3431965262" lon="34.5510008186"><ele>174.14</ele><time>2026-08-18T07:56:19Z</time></trkpt><trkpt lat="59.3432083447" lon="34.5508438256"><ele>174.14</ele><time>2026-08-18T07:56:32Z</time></trkpt><trkpt lat="59.3431992084" lon="34.5508284029"><ele>174.14</ele><time>2026-08-18T07:56:46Z</time></trkpt><trkpt lat="59.3431890663" lon="34.5507626049"><ele>174.14</ele><time>2026-08-18T07:57:04Z</time></trkpt><trkpt lat="59.3431917485" lon="34.5506857429"><ele>174.14</ele><time>2026-08-18T07:57:18Z</time></trkpt><trkpt lat="59.3431937601" lon="34.5506337751"><ele>174.14</ele><time>2026-08-18T07:57:39Z</time></trkpt><trkpt lat="59.3431877252" lon="34.5505254809"><ele>174.14</ele><time>2026-08-18T07:57:52Z</time></trkpt><trkpt lat="59.3432018906" lon="34.5502877701"><ele>175.10</ele><time>2026-08-18T07:58:06Z</time></trkpt><trkpt lat="59.3432129547" lon="34.5501120854"><ele>175.10</ele><time>2026-08-18T07:58:26Z</time></trkpt><trkpt lat="59.3432080094" lon="34.5499279350"><ele>175.10</ele><time>2026-08-18T07:58:37Z</time></trkpt><trkpt lat="59.3431881443" lon="34.5499346405"><ele>175.10</ele><time>2026-08-18T07:58:50Z</time></trkpt><trkpt lat="59.3431869708" lon="34.5499403402"><ele>175.10</ele><time>2026-08-18T07:59:11Z</time></trkpt><trkpt lat="59.3431920838" lon="34.5499421842"><ele>175.10</ele><time>2026-08-18T07:59:39Z</time></trkpt><trkpt lat="59.3432083447" lon="34.5499030408"><ele>175.10</ele><time>2026-08-18T08:00:03Z</time></trkpt><trkpt lat="59.3432080932" lon="34.5498650707"><ele>175.58</ele><time>2026-08-18T08:00:32Z</time></trkpt><trkpt lat="59.3432218395" lon="34.5498312078"><ele>175.58</ele><time>2026-08-18T08:01:01Z</time></trkpt><trkpt lat="59.3432183191" lon="34.5497260988"><ele>175.58</ele><time>2026-08-18T08:01:11Z</time></trkpt><trkpt lat="59.3432566244" lon="34.5495283697"><ele>175.58</ele><time>2026-08-18T08:01:23Z</time></trkpt><trkpt lat="59.3432503380" lon="34.5493936725"><ele>175.58</ele><time>2026-08-18T08:01:34Z</time></trkpt><trkpt lat="59.3432543613" lon="34.5493527688"><ele>175.58</ele><time>2026-08-18T08:01:37Z</time></trkpt><trkpt lat="59.3432765733" lon="34.5491666906"><ele>175.58</ele><time>2026-08-18T08:01:49Z</time></trkpt><trkpt lat="59.3433099333" lon="34.5490124635"><ele>175.58</ele><time>2026-08-18T08:01:59Z</time></trkpt><trkpt lat="59.3433064967" lon="34.5488916803"><ele>175.58</ele><time>2026-08-18T08:02:07Z</time></trkpt><trkpt lat="59.3433245178" lon="34.5487246290"><ele>175.58</ele><time>2026-08-18T08:02:19Z</time></trkpt><trkpt lat="59.3433414493" lon="34.5485113934"><ele>175.58</ele><time>2026-08-18T08:02:32Z</time></trkpt><trkpt lat="59.3433912378" lon="34.5483024325"><ele>175.58</ele><time>2026-08-18T08:02:44Z</time></trkpt><trkpt lat="59.3434320576" lon="34.5480979979"><ele>175.58</ele><time>2026-08-18T08:03:00Z</time></trkpt><trkpt lat="59.3434183113" lon="34.5479974151"><ele>175.58</ele><time>2026-08-18T08:03:12Z</time></trkpt><trkpt lat="59.3434116896" lon="34.5480013546"><ele>175.58</ele><time>2026-08-18T08:03:22Z</time></trkpt><trkpt lat="59.3433976080" lon="34.5479561761"><ele>175.58</ele><time>2026-08-18T08:03:25Z</time></trkpt><trkpt lat="59.3434225861" lon="34.5477637276"><ele>175.58</ele><time>2026-08-18T08:03:36Z</time></trkpt><trkpt lat="59.3434394337" lon="34.5475524198"><ele>175.10</ele><time>2026-08-18T08:03:50Z</time></trkpt><trkpt lat="59.3434411101" lon="34.5474292058"><ele>175.10</ele><time>2026-08-18T08:04:00Z</time></trkpt><trkpt lat="59.3434402719" lon="34.5473113563"><ele>175.10</ele><time>2026-08-18T08:04:12Z</time></trkpt><trkpt lat="59.3434612267" lon="34.5471039880"><ele>175.10</ele><time>2026-08-18T08:04:25Z</time></trkpt><trkpt lat="59.3434845284" lon="34.5469028223"><ele>175.10</ele><time>2026-08-18T08:04:37Z</time></trkpt><trkpt lat="59.3434880488" lon="34.5468330011"><ele>175.10</ele><time>2026-08-18T08:04:48Z</time></trkpt><trkpt lat="59.3435007054" lon="34.5468222722"><ele>175.10</ele><time>2026-08-18T08:05:13Z</time></trkpt><trkpt lat="59.3434877973" lon="34.5467884932"><ele>175.10</ele><time>2026-08-18T08:05:41Z</time></trkpt><trkpt lat="59.3434861209" lon="34.5467869006"><ele>174.62</ele><time>2026-08-18T08:06:10Z</time></trkpt><trkpt lat="59.3434850313" lon="34.5467877388"><ele>174.62</ele><time>2026-08-18T08:06:32Z</time></trkpt><trkpt lat="59.3434525933" lon="34.5467508584"><ele>174.62</ele><time>2026-08-18T08:06:55Z</time></trkpt><trkpt lat="59.3434656691" lon="34.5467449911"><ele>174.62</ele><time>2026-08-18T08:07:16Z</time></trkpt><trkpt lat="59.3434980232" lon="34.5465757605"><ele>174.62</ele><time>2026-08-18T08:07:27Z</time></trkpt><trkpt lat="59.3435033876" lon="34.5464776084"><ele>174.62</ele><time>2026-08-18T08:07:39Z</time></trkpt><trkpt lat="59.3434870429" lon="34.5462766103"><ele>174.62</ele><time>2026-08-18T08:07:51Z</time></trkpt><trkpt lat="59.3434810080" lon="34.5461867563"><ele>174.62</ele><time>2026-08-18T08:08:07Z</time></trkpt><trkpt lat="59.3434608914" lon="34.5460833237"><ele>174.62</ele><time>2026-08-18T08:08:16Z</time></trkpt><trkpt lat="59.3434577901" lon="34.5459087286"><ele>174.62</ele><time>2026-08-18T08:08:27Z</time></trkpt><trkpt lat="59.3434562813" lon="34.5458158571"><ele>174.62</ele><time>2026-08-18T08:08:37Z</time></trkpt><trkpt lat="59.3434359971" lon="34.5454862807"><ele>174.62</ele><time>2026-08-18T08:08:51Z</time></trkpt><trkpt lat="59.3434836064" lon="34.5453091711"><ele>174.62</ele><time>2026-08-18T08:09:06Z</time></trkpt><trkpt lat="59.3435017951" lon="34.5451716240"><ele>174.62</ele><time>2026-08-18T08:09:18Z</time></trkpt><trkpt lat="59.3435685150" lon="34.5450919960"><ele>174.62</ele><time>2026-08-18T08:09:31Z</time></trkpt><trkpt lat="59.3436105922" lon="34.5449365117"><ele>174.62</ele><time>2026-08-18T08:09:43Z</time></trkpt><trkpt lat="59.3436429463" lon="34.5448206738"><ele>174.62</ele><time>2026-08-18T08:09:56Z</time></trkpt><trkpt lat="59.3437307049" lon="34.5446107909"><ele>174.62</ele><time>2026-08-18T08:10:10Z</time></trkpt><trkpt lat="59.3438051362" lon="34.5444293227"><ele>174.62</ele><time>2026-08-18T08:10:25Z</time></trkpt><trkpt lat="59.3438603729" lon="34.5442569070"><ele>174.62</ele><time>2026-08-18T08:10:42Z</time></trkpt><trkpt lat="59.3438674975" lon="34.5441720821"><ele>174.62</ele><time>2026-08-18T08:11:00Z</time></trkpt><trkpt lat="59.3439297751" lon="34.5439063758"><ele>174.14</ele><time>2026-08-18T08:11:15Z</time></trkpt><trkpt lat="59.3439424317" lon="34.5438033622"><ele>174.14</ele><time>2026-08-18T08:11:29Z</time></trkpt><trkpt lat="59.3439872749" lon="34.5435337164"><ele>174.62</ele><time>2026-08-18T08:11:41Z</time></trkpt><trkpt lat="59.3440813199" lon="34.5433547627"><ele>174.62</ele><time>2026-08-18T08:11:54Z</time></trkpt><trkpt lat="59.3441264983" lon="34.5432881266"><ele>174.62</ele><time>2026-08-18T08:12:07Z</time></trkpt><trkpt lat="59.3442227226" lon="34.5431489870"><ele>174.62</ele><time>2026-08-18T08:12:20Z</time></trkpt><trkpt lat="59.3442571722" lon="34.5430644974"><ele>174.62</ele><time>2026-08-18T08:12:33Z</time></trkpt><trkpt lat="59.3442808930" lon="34.5429058280"><ele>174.14</ele><time>2026-08-18T08:12:47Z</time></trkpt><trkpt lat="59.3443691544" lon="34.5426595677"><ele>174.14</ele><time>2026-08-18T08:13:03Z</time></trkpt><trkpt lat="59.3444231339" lon="34.5424480084"><ele>173.66</ele><time>2026-08-18T08:13:22Z</time></trkpt><trkpt lat="59.3445182685" lon="34.5422009937"><ele>173.66</ele><time>2026-08-18T08:13:39Z</time></trkpt><trkpt lat="59.3446471822" lon="34.5419774484"><ele>173.66</ele><time>2026-08-18T08:13:54Z</time></trkpt><trkpt lat="59.3447025865" lon="34.5418654662"><ele>173.17</ele><time>2026-08-18T08:14:09Z</time></trkpt><trkpt lat="59.3447484355" lon="34.5417663921"><ele>173.17</ele><time>2026-08-18T08:14:23Z</time></trkpt><trkpt lat="59.3449147325" lon="34.5416286774"><ele>173.17</ele><time>2026-08-18T08:14:36Z</time></trkpt><trkpt lat="59.3451164011" lon="34.5415194612"><ele>171.73</ele><time>2026-08-18T08:14:51Z</time></trkpt><trkpt lat="59.3451338354" lon="34.5415064692"><ele>171.73</ele><time>2026-08-18T08:14:53Z</time></trkpt><trkpt lat="59.3451476656" lon="34.5414977521"><ele>171.73</ele><time>2026-08-18T08:14:55Z</time></trkpt><trkpt lat="59.3452601507" lon="34.5414449461"><ele>171.73</ele><time>2026-08-18T08:15:07Z</time></trkpt><trkpt lat="59.3454701174" lon="34.5414127596"><ele>171.73</ele><time>2026-08-18T08:15:19Z</time></trkpt><trkpt lat="59.3455606420" lon="34.5413575228"><ele>171.73</ele><time>2026-08-18T08:15:33Z</time></trkpt><trkpt lat="59.3456324749" lon="34.5413947385"><ele>171.73</ele><time>2026-08-18T08:15:46Z</time></trkpt><trkpt lat="59.3457120191" lon="34.5413589478"><ele>171.25</ele><time>2026-08-18T08:16:00Z</time></trkpt><trkpt lat="59.3457889650" lon="34.5413449500"><ele>171.73</ele><time>2026-08-18T08:16:13Z</time></trkpt><trkpt lat="59.3458040524" lon="34.5413704310"><ele>171.25</ele><time>2026-08-18T08:16:28Z</time></trkpt><trkpt lat="59.3458550982" lon="34.5413861889"><ele>171.25</ele><time>2026-08-18T08:16:40Z</time></trkpt><trkpt lat="59.3458947446" lon="34.5413961634"><ele>171.25</ele><time>2026-08-18T08:16:56Z</time></trkpt><trkpt lat="59.3459454551" lon="34.5414491370"><ele>171.25</ele><time>2026-08-18T08:17:19Z</time></trkpt><trkpt lat="59.3460464571" lon="34.5414716005"><ele>170.77</ele><time>2026-08-18T08:17:35Z</time></trkpt><trkpt lat="59.3461491354" lon="34.5415494684"><ele>170.77</ele><time>2026-08-18T08:17:47Z</time></trkpt><trkpt lat="59.3461883627" lon="34.5415795594"><ele>170.77</ele><time>2026-08-18T08:18:02Z</time></trkpt><trkpt lat="59.3463316094" lon="34.5416419208"><ele>170.77</ele><time>2026-08-18T08:18:15Z</time></trkpt><trkpt lat="59.3463636283" lon="34.5416781306"><ele>170.77</ele><time>2026-08-18T08:18:33Z</time></trkpt><trkpt lat="59.3464456871" lon="34.5417993329"><ele>170.29</ele><time>2026-08-18T08:18:47Z</time></trkpt><trkpt lat="59.3465746008" lon="34.5418963954"><ele>170.29</ele><time>2026-08-18T08:19:01Z</time></trkpt><trkpt lat="59.3466288317" lon="34.5420348644"><ele>170.29</ele><time>2026-08-18T08:19:13Z</time></trkpt><trkpt lat="59.3467342760" lon="34.5421367045"><ele>170.29</ele><time>2026-08-18T08:19:28Z</time></trkpt><trkpt lat="59.3467941228" lon="34.5422048494"><ele>170.29</ele><time>2026-08-18T08:19:42Z</time></trkpt><trkpt lat="59.3468724098" lon="34.5423211064"><ele>170.29</ele><time>2026-08-18T08:19:58Z</time></trkpt><trkpt lat="59.3470856454" lon="34.5425402094"><ele>170.29</ele><time>2026-08-18T08:20:14Z</time></trkpt><trkpt lat="59.3471669499" lon="34.5426046662"><ele>171.25</ele><time>2026-08-18T08:20:29Z</time></trkpt><trkpt lat="59.3472620845" lon="34.5427080989"><ele>171.25</ele><time>2026-08-18T08:20:44Z</time></trkpt><trkpt lat="59.3473562133" lon="34.5428293850"><ele>171.25</ele><time>2026-08-18T08:20:57Z</time></trkpt><trkpt lat="59.3474668544" lon="34.5429685246"><ele>171.25</ele><time>2026-08-18T08:21:10Z</time></trkpt><trkpt lat="59.3475549482" lon="34.5431193989"><ele>171.25</ele><time>2026-08-18T08:21:23Z</time></trkpt><trkpt lat="59.3476331513" lon="34.5432520006"><ele>171.25</ele><time>2026-08-18T08:21:35Z</time></trkpt><trkpt lat="59.3476422876" lon="34.5432700217"><ele>171.25</ele><time>2026-08-18T08:21:50Z</time></trkpt><trkpt lat="59.3476430420" lon="34.5432846062"><ele>171.25</ele><time>2026-08-18T08:22:09Z</time></trkpt><trkpt lat="59.3476688582" lon="34.5431863703"><ele>171.25</ele><time>2026-08-18T08:22:21Z</time></trkpt><trkpt lat="59.3477948382" lon="34.5430923253"><ele>171.25</ele><time>2026-08-18T08:22:35Z</time></trkpt><trkpt lat="59.3478738796" lon="34.5430229232"><ele>171.25</ele><time>2026-08-18T08:22:49Z</time></trkpt><trkpt lat="59.3479477242" lon="34.5430273656"><ele>171.25</ele><time>2026-08-18T08:22:52Z</time></trkpt><trkpt lat="59.3480137736" lon="34.5430440456"><ele>171.25</ele><time>2026-08-18T08:23:04Z</time></trkpt><trkpt lat="59.3480995204" lon="34.5430174749"><ele>171.25</ele><time>2026-08-18T08:23:14Z</time></trkpt><trkpt lat="59.3481921405" lon="34.5430379268"><ele>171.25</ele><time>2026-08-18T08:23:26Z</time></trkpt><trkpt lat="59.3482719362" lon="34.5430543553"><ele>170.77</ele><time>2026-08-18T08:23:38Z</time></trkpt><trkpt lat="59.3483212218" lon="34.5430634078"><ele>169.81</ele><time>2026-08-18T08:23:52Z</time></trkpt><trkpt lat="59.3483588565" lon="34.5431135315"><ele>169.81</ele><time>2026-08-18T08:24:04Z</time></trkpt><trkpt lat="59.3484723475" lon="34.5431862026"><ele>169.33</ele><time>2026-08-18T08:24:19Z</time></trkpt><trkpt lat="59.3485224713" lon="34.5432132762"><ele>169.33</ele><time>2026-08-18T08:24:34Z</time></trkpt><trkpt lat="59.3485401571" lon="34.5432419423"><ele>169.33</ele><time>2026-08-18T08:24:51Z</time></trkpt><trkpt lat="59.3485567532" lon="34.5432385895"><ele>169.33</ele><time>2026-08-18T08:25:15Z</time></trkpt><trkpt lat="59.3486070447" lon="34.5432205684"><ele>168.85</ele><time>2026-08-18T08:25:35Z</time></trkpt><trkpt lat="59.3486350402" lon="34.5432389248"><ele>168.85</ele><time>2026-08-18T08:25:55Z</time></trkpt><trkpt lat="59.3486313522" lon="34.5432520006"><ele>170.29</ele><time>2026-08-18T08:26:04Z</time></trkpt><trkpt lat="59.3486340344" lon="34.5432733744"><ele>170.29</ele><time>2026-08-18T08:26:38Z</time></trkpt><trkpt lat="59.3486453500" lon="34.5432830974"><ele>170.29</ele><time>2026-08-18T08:27:05Z</time></trkpt><trkpt lat="59.3486520555" lon="34.5432679262"><ele>170.29</ele><time>2026-08-18T08:27:26Z</time></trkpt><trkpt lat="59.3486564141" lon="34.5432672556"><ele>169.81</ele><time>2026-08-18T08:27:50Z</time></trkpt><trkpt lat="59.3486642931" lon="34.5432799123"><ele>169.81</ele><time>2026-08-18T08:28:20Z</time></trkpt><trkpt lat="59.3486953899" lon="34.5432872046"><ele>169.81</ele><time>2026-08-18T08:28:45Z</time></trkpt><trkpt lat="59.3487538956" lon="34.5432975143"><ele>169.81</ele><time>2026-08-18T08:28:57Z</time></trkpt><trkpt lat="59.3487590924" lon="34.5433072373"><ele>169.81</ele><time>2026-08-18T08:29:23Z</time></trkpt><trkpt lat="59.3487584218" lon="34.5433265995"><ele>169.81</ele><time>2026-08-18T08:29:47Z</time></trkpt><trkpt lat="59.3487620261" lon="34.5433625579"><ele>169.81</ele><time>2026-08-18T08:30:13Z</time></trkpt><trkpt lat="59.3487616908" lon="34.5433573611"><ele>169.81</ele><time>2026-08-18T08:30:38Z</time></trkpt><trkpt lat="59.3487682287" lon="34.5433490630"><ele>169.81</ele><time>2026-08-18T08:31:06Z</time></trkpt><trkpt lat="59.3487716652" lon="34.5433373284"><ele>170.29</ele><time>2026-08-18T08:31:37Z</time></trkpt><trkpt lat="59.3487858307" lon="34.5433101710"><ele>170.29</ele><time>2026-08-18T08:32:04Z</time></trkpt><trkpt lat="59.3487853277" lon="34.5432960056"><ele>170.29</ele><time>2026-08-18T08:32:31Z</time></trkpt><trkpt lat="59.3487802986" lon="34.5432786550"><ele>168.85</ele><time>2026-08-18T08:32:53Z</time></trkpt><trkpt lat="59.3487730902" lon="34.5432826784"><ele>168.85</ele><time>2026-08-18T08:33:23Z</time></trkpt><trkpt lat="59.3487682287" lon="34.5433064830"><ele>168.85</ele><time>2026-08-18T08:33:56Z</time></trkpt><trkpt lat="59.3487662170" lon="34.5433006994"><ele>168.85</ele><time>2026-08-18T08:34:22Z</time></trkpt><trkpt lat="59.3487667199" lon="34.5432939101"><ele>168.85</ele><time>2026-08-18T08:34:44Z</time></trkpt><trkpt lat="59.3487802148" lon="34.5432695188"><ele>168.85</ele><time>2026-08-18T08:35:09Z</time></trkpt><trkpt lat="59.3487825617" lon="34.5433109254"><ele>168.85</ele><time>2026-08-18T08:35:37Z</time></trkpt><trkpt lat="59.3487765267" lon="34.5433012862"><ele>168.85</ele><time>2026-08-18T08:36:03Z</time></trkpt><trkpt lat="59.3488360383" lon="34.5432228316"><ele>168.85</ele><time>2026-08-18T08:36:27Z</time></trkpt><trkpt lat="59.3488158379" lon="34.5432287827"><ele>168.85</ele><time>2026-08-18T08:36:55Z</time></trkpt><trkpt lat="59.3487635348" lon="34.5433333889"><ele>168.85</ele><time>2026-08-18T08:37:21Z</time></trkpt><trkpt lat="59.3487856630" lon="34.5433177985"><ele>168.85</ele><time>2026-08-18T08:37:49Z</time></trkpt><trkpt lat="59.3488067016" lon="34.5432928205"><ele>168.85</ele><time>2026-08-18T08:38:19Z</time></trkpt><trkpt lat="59.3488136586" lon="34.5432613045"><ele>168.85</ele><time>2026-08-18T08:38:41Z</time></trkpt><trkpt lat="59.3487994093" lon="34.5432556886"><ele>168.85</ele><time>2026-08-18T08:39:08Z</time></trkpt><trkpt lat="59.3487776164" lon="34.5432360750"><ele>168.85</ele><time>2026-08-18T08:39:27Z</time></trkpt><trkpt lat="59.3487921171" lon="34.5432493184"><ele>168.85</ele><time>2026-08-18T08:39:51Z</time></trkpt><trkpt lat="59.3487941287" lon="34.5432690158"><ele>168.85</ele><time>2026-08-18T08:40:20Z</time></trkpt><trkpt lat="59.3488012534" lon="34.5432600472"><ele>168.85</ele><time>2026-08-18T08:40:46Z</time></trkpt><trkpt lat="59.3487975653" lon="34.5432705246"><ele>168.85</ele><time>2026-08-18T08:41:17Z</time></trkpt><trkpt lat="59.3488169275" lon="34.5431607217"><ele>167.89</ele><time>2026-08-18T08:41:37Z</time></trkpt><trkpt lat="59.3488150835" lon="34.5432017092"><ele>167.89</ele><time>2026-08-18T08:41:52Z</time></trkpt><trkpt lat="59.3487970624" lon="34.5432272740"><ele>168.37</ele><time>2026-08-18T08:42:19Z</time></trkpt><trkpt lat="59.3488026783" lon="34.5432400145"><ele>168.37</ele><time>2026-08-18T08:42:48Z</time></trkpt><trkpt lat="59.3488048576" lon="34.5432381704"><ele>168.37</ele><time>2026-08-18T08:43:15Z</time></trkpt><trkpt lat="59.3487958889" lon="34.5432447921"><ele>168.37</ele><time>2026-08-18T08:43:38Z</time></trkpt><trkpt lat="59.3487864174" lon="34.5432363264"><ele>168.37</ele><time>2026-08-18T08:44:00Z</time></trkpt><trkpt lat="59.3488041032" lon="34.5432121027"><ele>168.37</ele><time>2026-08-18T08:44:17Z</time></trkpt><trkpt lat="59.3487807177" lon="34.5432152040"><ele>169.81</ele><time>2026-08-18T08:44:33Z</time></trkpt><trkpt lat="59.3487770297" lon="34.5432001166"><ele>169.81</ele><time>2026-08-18T08:44:58Z</time></trkpt><trkpt lat="59.3487706594" lon="34.5431961771"><ele>169.81</ele><time>2026-08-18T08:45:22Z</time></trkpt><trkpt lat="59.3487715814" lon="34.5432083309"><ele>169.81</ele><time>2026-08-18T08:45:48Z</time></trkpt><trkpt lat="59.3487709109" lon="34.5432090014"><ele>169.81</ele><time>2026-08-18T08:46:15Z</time></trkpt><trkpt lat="59.3487736769" lon="34.5432176348"><ele>169.81</ele><time>2026-08-18T08:46:41Z</time></trkpt><trkpt lat="59.3487826455" lon="34.5432288665"><ele>169.81</ele><time>2026-08-18T08:47:01Z</time></trkpt><trkpt lat="59.3487747665" lon="34.5432455465"><ele>169.81</ele><time>2026-08-18T08:47:19Z</time></trkpt><trkpt lat="59.3487684801" lon="34.5432430319"><ele>169.81</ele><time>2026-08-18T08:47:39Z</time></trkpt><trkpt lat="59.3487632833" lon="34.5432389248"><ele>169.81</ele><time>2026-08-18T08:47:55Z</time></trkpt><trkpt lat="59.3487597629" lon="34.5432711113"><ele>169.81</ele><time>2026-08-18T08:48:08Z</time></trkpt><trkpt lat="59.3487472739" lon="34.5433229115"><ele>168.85</ele><time>2026-08-18T08:48:24Z</time></trkpt><trkpt lat="59.3487444241" lon="34.5433436148"><ele>168.85</ele><time>2026-08-18T08:48:44Z</time></trkpt><trkpt lat="59.3487378862" lon="34.5433506556"><ele>168.85</ele><time>2026-08-18T08:49:06Z</time></trkpt><trkpt lat="59.3487580866" lon="34.5432828460"><ele>168.85</ele><time>2026-08-18T08:49:19Z</time></trkpt><trkpt lat="59.3487658817" lon="34.5432816725"><ele>168.85</ele><time>2026-08-18T08:49:33Z</time></trkpt><trkpt lat="59.3487687316" lon="34.5432889648"><ele>168.85</ele><time>2026-08-18T08:49:56Z</time></trkpt><trkpt lat="59.3487696536" lon="34.5432870369"><ele>168.85</ele><time>2026-08-18T08:50:16Z</time></trkpt><trkpt lat="59.3487710785" lon="34.5432881266"><ele>168.85</ele><time>2026-08-18T08:50:35Z</time></trkpt><trkpt lat="59.3487758562" lon="34.5432830974"><ele>168.85</ele><time>2026-08-18T08:50:53Z</time></trkpt><trkpt lat="59.3487733416" lon="34.5432887133"><ele>168.85</ele><time>2026-08-18T08:50:58Z</time></trkpt><trkpt lat="59.3487901054" lon="34.5432900544"><ele>168.85</ele><time>2026-08-18T08:51:11Z</time></trkpt><trkpt lat="59.3488599267" lon="34.5433136076"><ele>168.85</ele><time>2026-08-18T08:51:24Z</time></trkpt><trkpt lat="59.3489342742" lon="34.5433694310"><ele>168.85</ele><time>2026-08-18T08:51:36Z</time></trkpt><trkpt lat="59.3489665445" lon="34.5433918107"><ele>168.85</ele><time>2026-08-18T08:51:49Z</time></trkpt><trkpt lat="59.3490039278" lon="34.5433898829"><ele>168.85</ele><time>2026-08-18T08:52:16Z</time></trkpt><trkpt lat="59.3490087055" lon="34.5433892123"><ele>168.85</ele><time>2026-08-18T08:52:37Z</time></trkpt><trkpt lat="59.3490255531" lon="34.5433793217"><ele>168.85</ele><time>2026-08-18T08:53:05Z</time></trkpt><trkpt lat="59.3490969669" lon="34.5433944091"><ele>168.85</ele><time>2026-08-18T08:53:23Z</time></trkpt><trkpt lat="59.3490839750" lon="34.5434254222"><ele>168.85</ele><time>2026-08-18T08:53:44Z</time></trkpt><trkpt lat="59.3490711506" lon="34.5433961693"><ele>168.85</ele><time>2026-08-18T08:54:03Z</time></trkpt><trkpt lat="59.3490702286" lon="34.5433905534"><ele>168.85</ele><time>2026-08-18T08:54:24Z</time></trkpt><trkpt lat="59.3490706477" lon="34.5435071457"><ele>168.85</ele><time>2026-08-18T08:54:50Z</time></trkpt><trkpt lat="59.3490404729" lon="34.5436488837"><ele>168.85</ele><time>2026-08-18T08:55:09Z</time></trkpt><trkpt lat="59.3489768542" lon="34.5435083192"><ele>168.85</ele><time>2026-08-18T08:55:30Z</time></trkpt><trkpt lat="59.3490108009" lon="34.5434605423"><ele>168.85</ele><time>2026-08-18T08:55:45Z</time></trkpt><trkpt lat="59.3490433227" lon="34.5433765557"><ele>168.85</ele><time>2026-08-18T08:56:08Z</time></trkpt><trkpt lat="59.3490504473" lon="34.5434172079"><ele>168.37</ele><time>2026-08-18T08:56:33Z</time></trkpt><trkpt lat="59.3490281515" lon="34.5433561038"><ele>168.37</ele><time>2026-08-18T08:56:55Z</time></trkpt><trkpt lat="59.3491043430" lon="34.5432895515"><ele>168.37</ele><time>2026-08-18T08:57:14Z</time></trkpt><trkpt lat="59.3491172511" lon="34.5431711990"><ele>168.37</ele><time>2026-08-18T08:57:35Z</time></trkpt><trkpt lat="59.3490764312" lon="34.5431586262"><ele>168.37</ele><time>2026-08-18T08:57:59Z</time></trkpt><trkpt lat="59.3490915187" lon="34.5432852767"><ele>168.37</ele><time>2026-08-18T08:58:14Z</time></trkpt><trkpt lat="59.3491439894" lon="34.5433727838"><ele>168.37</ele><time>2026-08-18T08:58:26Z</time></trkpt><trkpt lat="59.3492138106" lon="34.5434816647"><ele>168.37</ele><time>2026-08-18T08:58:37Z</time></trkpt><trkpt lat="59.3492417224" lon="34.5434815809"><ele>168.37</ele><time>2026-08-18T08:58:51Z</time></trkpt><trkpt lat="59.3493058439" lon="34.5435108338"><ele>168.37</ele><time>2026-08-18T08:59:11Z</time></trkpt><trkpt lat="59.3493519444" lon="34.5435213950"><ele>168.37</ele><time>2026-08-18T08:59:18Z</time></trkpt><trkpt lat="59.3494598195" lon="34.5435062237"><ele>168.37</ele><time>2026-08-18T08:59:31Z</time></trkpt><trkpt lat="59.3494966999" lon="34.5434718579"><ele>168.37</ele><time>2026-08-18T08:59:41Z</time></trkpt><trkpt lat="59.3495904934" lon="34.5434574410"><ele>168.37</ele><time>2026-08-18T08:59:52Z</time></trkpt><trkpt lat="59.3496664334" lon="34.5433876198"><ele>168.37</ele><time>2026-08-18T09:00:06Z</time></trkpt><trkpt lat="59.3497986998" lon="34.5432809182"><ele>168.37</ele><time>2026-08-18T09:00:23Z</time></trkpt><trkpt lat="59.3499085866" lon="34.5431373361"><ele>168.37</ele><time>2026-08-18T09:00:35Z</time></trkpt><trkpt lat="59.3499872088" lon="34.5429482404"><ele>168.37</ele><time>2026-08-18T09:00:47Z</time></trkpt><trkpt lat="59.3499973509" lon="34.5428813528"><ele>168.37</ele><time>2026-08-18T09:01:01Z</time></trkpt><trkpt lat="59.3500241730" lon="34.5427897386"><ele>168.37</ele><time>2026-08-18T09:01:14Z</time></trkpt><trkpt lat="59.3500765599" lon="34.5426656865"><ele>168.37</ele><time>2026-08-18T09:01:29Z</time></trkpt><trkpt lat="59.3501057290" lon="34.5425326657"><ele>168.37</ele><time>2026-08-18T09:01:45Z</time></trkpt><trkpt lat="59.3501592055" lon="34.5423636865"><ele>168.37</ele><time>2026-08-18T09:01:59Z</time></trkpt><trkpt lat="59.3501743767" lon="34.5423336793"><ele>168.37</ele><time>2026-08-18T09:02:01Z</time></trkpt><trkpt lat="59.3502190523" lon="34.5421738364"><ele>167.89</ele><time>2026-08-18T09:02:13Z</time></trkpt><trkpt lat="59.3502115086" lon="34.5419721678"><ele>167.89</ele><time>2026-08-18T09:02:29Z</time></trkpt><trkpt lat="59.3502109218" lon="34.5418704953"><ele>167.89</ele><time>2026-08-18T09:02:45Z</time></trkpt><trkpt lat="59.3502006121" lon="34.5418207906"><ele>167.41</ele><time>2026-08-18T09:03:18Z</time></trkpt><trkpt lat="59.3502344750" lon="34.5416297670"><ele>167.41</ele><time>2026-08-18T09:03:33Z</time></trkpt><trkpt lat="59.3502674159" lon="34.5414484665"><ele>167.41</ele><time>2026-08-18T09:03:48Z</time></trkpt><trkpt lat="59.3503189646" lon="34.5412377454"><ele>168.85</ele><time>2026-08-18T09:04:00Z</time></trkpt><trkpt lat="59.3503791466" lon="34.5410587080"><ele>168.37</ele><time>2026-08-18T09:04:13Z</time></trkpt><trkpt lat="59.3504342996" lon="34.5407348312"><ele>168.37</ele><time>2026-08-18T09:04:30Z</time></trkpt><trkpt lat="59.3504831661" lon="34.5405355934"><ele>168.37</ele><time>2026-08-18T09:04:43Z</time></trkpt><trkpt lat="59.3504959904" lon="34.5403543767"><ele>167.89</ele><time>2026-08-18T09:04:58Z</time></trkpt><trkpt lat="59.3505311105" lon="34.5401193481"><ele>167.41</ele><time>2026-08-18T09:05:13Z</time></trkpt><trkpt lat="59.3505451921" lon="34.5399913564"><ele>167.41</ele><time>2026-08-18T09:05:30Z</time></trkpt><trkpt lat="59.3505819887" lon="34.5398012549"><ele>168.37</ele><time>2026-08-18T09:05:42Z</time></trkpt><trkpt lat="59.3506316096" lon="34.5395175274"><ele>169.81</ele><time>2026-08-18T09:05:58Z</time></trkpt><trkpt lat="59.3506238982" lon="34.5394403301"><ele>170.29</ele><time>2026-08-18T09:06:14Z</time></trkpt><trkpt lat="59.3506292626" lon="34.5394037850"><ele>169.81</ele><time>2026-08-18T09:06:51Z</time></trkpt><trkpt lat="59.3506471999" lon="34.5394125860"><ele>170.29</ele><time>2026-08-18T09:07:27Z</time></trkpt><trkpt lat="59.3506528996" lon="34.5394176152"><ele>170.29</ele><time>2026-08-18T09:08:01Z</time></trkpt><trkpt lat="59.3506500497" lon="34.5394220576"><ele>170.29</ele><time>2026-08-18T09:08:27Z</time></trkpt><trkpt lat="59.3506585993" lon="34.5394184534"><ele>170.77</ele><time>2026-08-18T09:09:00Z</time></trkpt><trkpt lat="59.3506911211" lon="34.5393990912"><ele>170.77</ele><time>2026-08-18T09:09:24Z</time></trkpt><trkpt lat="59.3507289235" lon="34.5392932277"><ele>170.77</ele><time>2026-08-18T09:09:38Z</time></trkpt><trkpt lat="59.3508064561" lon="34.5389048941"><ele>170.77</ele><time>2026-08-18T09:09:54Z</time></trkpt><trkpt lat="59.3508481141" lon="34.5387755614"><ele>169.81</ele><time>2026-08-18T09:10:08Z</time></trkpt><trkpt lat="59.3508992437" lon="34.5386090968"><ele>169.33</ele><time>2026-08-18T09:10:21Z</time></trkpt><trkpt lat="59.3509569950" lon="34.5384490024"><ele>169.33</ele><time>2026-08-18T09:10:37Z</time></trkpt><trkpt lat="59.3510602601" lon="34.5382488426"><ele>168.85</ele><time>2026-08-18T09:10:52Z</time></trkpt><trkpt lat="59.3510895129" lon="34.5381630957"><ele>168.85</ele><time>2026-08-18T09:11:05Z</time></trkpt><trkpt lat="59.3511185981" lon="34.5381148998"><ele>168.85</ele><time>2026-08-18T09:11:15Z</time></trkpt><trkpt lat="59.3511468451" lon="34.5380857307"><ele>168.85</ele><time>2026-08-18T09:11:43Z</time></trkpt><trkpt lat="59.3511673808" lon="34.5380762592"><ele>168.85</ele><time>2026-08-18T09:12:07Z</time></trkpt><trkpt lat="59.3511759304" lon="34.5380625129"><ele>168.85</ele><time>2026-08-18T09:12:32Z</time></trkpt><trkpt lat="59.3511825521" lon="34.5380535442"><ele>168.85</ele><time>2026-08-18T09:12:57Z</time></trkpt><trkpt lat="59.3511899281" lon="34.5380459167"><ele>168.85</ele><time>2026-08-18T09:13:22Z</time></trkpt><trkpt lat="59.3511924427" lon="34.5380413905"><ele>168.85</ele><time>2026-08-18T09:13:48Z</time></trkpt><trkpt lat="59.3511993997" lon="34.5380252134"><ele>168.85</ele><time>2026-08-18T09:14:08Z</time></trkpt><trkpt lat="59.3512139004" lon="34.5380138140"><ele>168.85</ele><time>2026-08-18T09:14:31Z</time></trkpt><trkpt lat="59.3512888346" lon="34.5379200205"><ele>168.85</ele><time>2026-08-18T09:14:45Z</time></trkpt><trkpt lat="59.3513611704" lon="34.5378375426"><ele>168.85</ele><time>2026-08-18T09:15:01Z</time></trkpt><trkpt lat="59.3513904233" lon="34.5377973933"><ele>168.85</ele><time>2026-08-18T09:15:38Z</time></trkpt><trkpt lat="59.3514494319" lon="34.5377676375"><ele>168.85</ele><time>2026-08-18T09:15:52Z</time></trkpt><trkpt lat="59.3515190855" lon="34.5377557352"><ele>168.85</ele><time>2026-08-18T09:16:08Z</time></trkpt><trkpt lat="59.3515044171" lon="34.5377266500"><ele>168.85</ele><time>2026-08-18T09:16:41Z</time></trkpt><trkpt lat="59.3515202589" lon="34.5377158374"><ele>168.85</ele><time>2026-08-18T09:17:08Z</time></trkpt><trkpt lat="59.3516214285" lon="34.5376364607"><ele>168.85</ele><time>2026-08-18T09:17:25Z</time></trkpt><trkpt lat="59.3517210055" lon="34.5375614427"><ele>168.85</ele><time>2026-08-18T09:17:40Z</time></trkpt><trkpt lat="59.3519203272" lon="34.5374489576"><ele>168.85</ele><time>2026-08-18T09:17:55Z</time></trkpt><trkpt lat="59.3519827724" lon="34.5373801421"><ele>168.37</ele><time>2026-08-18T09:18:10Z</time></trkpt><trkpt lat="59.3520165514" lon="34.5373661444"><ele>169.81</ele><time>2026-08-18T09:18:20Z</time></trkpt><trkpt lat="59.3520154618" lon="34.5373494644"><ele>169.81</ele><time>2026-08-18T09:18:22Z</time></trkpt><trkpt lat="59.3520205747" lon="34.5373093989"><ele>169.81</ele><time>2026-08-18T09:18:25Z</time></trkpt><trkpt lat="59.3520854507" lon="34.5371603686"><ele>169.33</ele><time>2026-08-18T09:18:37Z</time></trkpt><trkpt lat="59.3521095905" lon="34.5370691735"><ele>169.81</ele><time>2026-08-18T09:18:52Z</time></trkpt><trkpt lat="59.3521229178" lon="34.5370344725"><ele>169.81</ele><time>2026-08-18T09:19:06Z</time></trkpt><trkpt lat="59.3522301223" lon="34.5368717797"><ele>170.29</ele><time>2026-08-18T09:19:18Z</time></trkpt><trkpt lat="59.3523127679" lon="34.5367003698"><ele>170.77</ele><time>2026-08-18T09:19:34Z</time></trkpt><trkpt lat="59.3523475528" lon="34.5365619846"><ele>170.29</ele><time>2026-08-18T09:19:50Z</time></trkpt><trkpt lat="59.3524366524" lon="34.5364447217"><ele>170.29</ele><time>2026-08-18T09:20:08Z</time></trkpt><trkpt lat="59.3526121695" lon="34.5363369305"><ele>170.29</ele><time>2026-08-18T09:20:22Z</time></trkpt><trkpt lat="59.3526516482" lon="34.5363336615"><ele>169.81</ele><time>2026-08-18T09:20:43Z</time></trkpt><trkpt lat="59.3526684120" lon="34.5363359246"><ele>169.81</ele><time>2026-08-18T09:21:16Z</time></trkpt><trkpt lat="59.3527168594" lon="34.5363323204"><ele>169.33</ele><time>2026-08-18T09:21:47Z</time></trkpt><trkpt lat="59.3527267501" lon="34.5363293868"><ele>169.33</ele><time>2026-08-18T09:22:23Z</time></trkpt><trkpt lat="59.3527201284" lon="34.5363358408"><ele>169.33</ele><time>2026-08-18T09:23:00Z</time></trkpt><trkpt lat="59.3527200446" lon="34.5363009721"><ele>169.33</ele><time>2026-08-18T09:23:27Z</time></trkpt><trkpt lat="59.3527479563" lon="34.5363614894"><ele>168.85</ele><time>2026-08-18T09:23:42Z</time></trkpt><trkpt lat="59.3528168555" lon="34.5363820251"><ele>168.85</ele><time>2026-08-18T09:23:58Z</time></trkpt><trkpt lat="59.3528396543" lon="34.5363786723"><ele>168.85</ele><time>2026-08-18T09:24:18Z</time></trkpt><trkpt lat="59.3529055361" lon="34.5364673529"><ele>168.85</ele><time>2026-08-18T09:24:35Z</time></trkpt><trkpt lat="59.3529440928" lon="34.5365166385"><ele>168.85</ele><time>2026-08-18T09:24:47Z</time></trkpt><trkpt lat="59.3529872596" lon="34.5366810076"><ele>169.33</ele><time>2026-08-18T09:25:01Z</time></trkpt><trkpt lat="59.3530238047" lon="34.5367279463"><ele>169.81</ele><time>2026-08-18T09:25:09Z</time></trkpt><trkpt lat="59.3530803826" lon="34.5367411897"><ele>170.29</ele><time>2026-08-18T09:25:23Z</time></trkpt><trkpt lat="59.3531709071" lon="34.5367655810"><ele>170.29</ele><time>2026-08-18T09:25:37Z</time></trkpt><trkpt lat="59.3532397225" lon="34.5368157886"><ele>170.29</ele><time>2026-08-18T09:25:51Z</time></trkpt><trkpt lat="59.3532762676" lon="34.5368690975"><ele>170.77</ele><time>2026-08-18T09:26:09Z</time></trkpt><trkpt lat="59.3533066101" lon="34.5369061455"><ele>170.77</ele><time>2026-08-18T09:26:22Z</time></trkpt><trkpt lat="59.3533816282" lon="34.5368918125"><ele>170.77</ele><time>2026-08-18T09:26:37Z</time></trkpt><trkpt lat="59.3534553889" lon="34.5368791558"><ele>170.77</ele><time>2026-08-18T09:26:48Z</time></trkpt><trkpt lat="59.3535446562" lon="34.5368307084"><ele>170.77</ele><time>2026-08-18T09:27:02Z</time></trkpt><trkpt lat="59.3535792734" lon="34.5368623920"><ele>170.77</ele><time>2026-08-18T09:27:13Z</time></trkpt><trkpt lat="59.3536201771" lon="34.5369811635"><ele>171.25</ele><time>2026-08-18T09:27:26Z</time></trkpt><trkpt lat="59.3536199257" lon="34.5370136853"><ele>171.25</ele><time>2026-08-18T09:27:39Z</time></trkpt><trkpt lat="59.3536279723" lon="34.5370362327"><ele>171.25</ele><time>2026-08-18T09:27:53Z</time></trkpt><trkpt lat="59.3536385335" lon="34.5370716043"><ele>171.25</ele><time>2026-08-18T09:28:07Z</time></trkpt><trkpt lat="59.3537031580" lon="34.5370850153"><ele>171.25</ele><time>2026-08-18T09:28:20Z</time></trkpt><trkpt lat="59.3537502643" lon="34.5371170342"><ele>171.25</ele><time>2026-08-18T09:28:32Z</time></trkpt><trkpt lat="59.3538367655" lon="34.5370899606"><ele>171.25</ele><time>2026-08-18T09:28:45Z</time></trkpt><trkpt lat="59.3539302237" lon="34.5370954089"><ele>171.73</ele><time>2026-08-18T09:28:56Z</time></trkpt><trkpt lat="59.3540196586" lon="34.5371854305"><ele>171.73</ele><time>2026-08-18T09:29:11Z</time></trkpt><trkpt lat="59.3540551141" lon="34.5372624602"><ele>172.69</ele><time>2026-08-18T09:29:23Z</time></trkpt><trkpt lat="59.3540629931" lon="34.5373159368"><ele>172.69</ele><time>2026-08-18T09:29:38Z</time></trkpt><trkpt lat="59.3540853728" lon="34.5373427588"><ele>173.66</ele><time>2026-08-18T09:29:52Z</time></trkpt><trkpt lat="59.3541025557" lon="34.5373578463"><ele>173.66</ele><time>2026-08-18T09:30:13Z</time></trkpt><trkpt lat="59.3541602232" lon="34.5374467783"><ele>173.66</ele><time>2026-08-18T09:30:27Z</time></trkpt><trkpt lat="59.3542595487" lon="34.5374453533"><ele>173.66</ele><time>2026-08-18T09:30:43Z</time></trkpt><trkpt lat="59.3543191440" lon="34.5375059545"><ele>173.66</ele><time>2026-08-18T09:30:56Z</time></trkpt><trkpt lat="59.3543423619" lon="34.5375362132"><ele>173.17</ele><time>2026-08-18T09:31:23Z</time></trkpt><trkpt lat="59.3543741293" lon="34.5375488698"><ele>173.17</ele><time>2026-08-18T09:31:53Z</time></trkpt><trkpt lat="59.3543757219" lon="34.5375675615"><ele>173.17</ele><time>2026-08-18T09:32:15Z</time></trkpt><trkpt lat="59.3544520810" lon="34.5376752689"><ele>173.17</ele><time>2026-08-18T09:32:29Z</time></trkpt><trkpt lat="59.3545058090" lon="34.5378072001"><ele>173.17</ele><time>2026-08-18T09:32:48Z</time></trkpt><trkpt lat="59.3545677513" lon="34.5378619339"><ele>173.17</ele><time>2026-08-18T09:33:04Z</time></trkpt><trkpt lat="59.3546239100" lon="34.5379173383"><ele>173.17</ele><time>2026-08-18T09:33:20Z</time></trkpt><trkpt lat="59.3547135126" lon="34.5379600022"><ele>173.17</ele><time>2026-08-18T09:33:36Z</time></trkpt><trkpt lat="59.3549543247" lon="34.5380114671"><ele>173.17</ele><time>2026-08-18T09:33:51Z</time></trkpt><trkpt lat="59.3550208770" lon="34.5380306616"><ele>173.17</ele><time>2026-08-18T09:34:02Z</time></trkpt><trkpt lat="59.3551057018" lon="34.5379990619"><ele>173.17</ele><time>2026-08-18T09:34:19Z</time></trkpt><trkpt lat="59.3551671412" lon="34.5378803741"><ele>173.17</ele><time>2026-08-18T09:34:35Z</time></trkpt><trkpt lat="59.3551761936" lon="34.5378527138"><ele>173.17</ele><time>2026-08-18T09:34:50Z</time></trkpt><trkpt lat="59.3552809674" lon="34.5378899295"><ele>173.17</ele><time>2026-08-18T09:35:05Z</time></trkpt><trkpt lat="59.3553081248" lon="34.5378754288"><ele>174.62</ele><time>2026-08-18T09:35:24Z</time></trkpt><trkpt lat="59.3553419877" lon="34.5378468465"><ele>174.62</ele><time>2026-08-18T09:35:37Z</time></trkpt><trkpt lat="59.3554061092" lon="34.5377292484"><ele>174.62</ele><time>2026-08-18T09:35:52Z</time></trkpt><trkpt lat="59.3556191772" lon="34.5377682243"><ele>173.17</ele><time>2026-08-18T09:36:09Z</time></trkpt><trkpt lat="59.3557062652" lon="34.5378451701"><ele>171.25</ele><time>2026-08-18T09:36:28Z</time></trkpt><trkpt lat="59.3557725661" lon="34.5378853194"><ele>171.25</ele><time>2026-08-18T09:36:42Z</time></trkpt><trkpt lat="59.3558360171" lon="34.5379233733"><ele>171.25</ele><time>2026-08-18T09:36:55Z</time></trkpt><trkpt lat="59.3559064250" lon="34.5379679650"><ele>171.25</ele><time>2026-08-18T09:37:12Z</time></trkpt><trkpt lat="59.3559755757" lon="34.5379695576"><ele>170.29</ele><time>2026-08-18T09:37:28Z</time></trkpt><trkpt lat="59.3560510967" lon="34.5379601698"><ele>169.81</ele><time>2026-08-18T09:37:44Z</time></trkpt><trkpt lat="59.3561680242" lon="34.5379779395"><ele>169.33</ele><time>2026-08-18T09:38:00Z</time></trkpt><trkpt lat="59.3562467303" lon="34.5380860660"><ele>169.33</ele><time>2026-08-18T09:38:16Z</time></trkpt><trkpt lat="59.3563152105" lon="34.5382422209"><ele>169.33</ele><time>2026-08-18T09:38:29Z</time></trkpt><trkpt lat="59.3563515879" lon="34.5383228548"><ele>169.33</ele><time>2026-08-18T09:38:48Z</time></trkpt><trkpt lat="59.3564013764" lon="34.5383466594"><ele>168.85</ele><time>2026-08-18T09:39:10Z</time></trkpt><trkpt lat="59.3564390950" lon="34.5383725595"><ele>168.85</ele><time>2026-08-18T09:39:41Z</time></trkpt><trkpt lat="59.3564667553" lon="34.5383586455"><ele>168.85</ele><time>2026-08-18T09:40:09Z</time></trkpt><trkpt lat="59.3564917333" lon="34.5383398701"><ele>168.85</ele><time>2026-08-18T09:40:50Z</time></trkpt><trkpt lat="59.3564935774" lon="34.5383542031"><ele>168.85</ele><time>2026-08-18T09:40:54Z</time></trkpt><trkpt lat="59.3565391749" lon="34.5384914987"><ele>168.85</ele><time>2026-08-18T09:41:05Z</time></trkpt><trkpt lat="59.3565556873" lon="34.5385893993"><ele>168.85</ele><time>2026-08-18T09:41:14Z</time></trkpt><trkpt lat="59.3565973453" lon="34.5387276169"><ele>168.85</ele><time>2026-08-18T09:41:27Z</time></trkpt><trkpt lat="59.3566160370" lon="34.5389137790"><ele>168.85</ele><time>2026-08-18T09:41:40Z</time></trkpt><trkpt lat="59.3567200564" lon="34.5389870368"><ele>168.85</ele><time>2026-08-18T09:41:54Z</time></trkpt><trkpt lat="59.3567428552" lon="34.5390011184"><ele>168.85</ele><time>2026-08-18T09:42:06Z</time></trkpt><trkpt lat="59.3567635585" lon="34.5390504878"><ele>168.85</ele><time>2026-08-18T09:42:19Z</time></trkpt><trkpt lat="59.3568566814" lon="34.5391405933"><ele>168.85</ele><time>2026-08-18T09:42:33Z</time></trkpt><trkpt lat="59.3569848407" lon="34.5392496418"><ele>168.85</ele><time>2026-08-18T09:42:44Z</time></trkpt><trkpt lat="59.3570815679" lon="34.5394769590"><ele>170.77</ele><time>2026-08-18T09:42:59Z</time></trkpt><trkpt lat="59.3570944760" lon="34.5395460259"><ele>173.17</ele><time>2026-08-18T09:43:04Z</time></trkpt><trkpt lat="59.3571425043" lon="34.5396238100"><ele>173.66</ele><time>2026-08-18T09:43:21Z</time></trkpt><trkpt lat="59.3572479486" lon="34.5398657117"><ele>173.66</ele><time>2026-08-18T09:43:37Z</time></trkpt><trkpt lat="59.3572585937" lon="34.5399886742"><ele>172.21</ele><time>2026-08-18T09:43:54Z</time></trkpt><trkpt lat="59.3572747707" lon="34.5400783606"><ele>172.21</ele><time>2026-08-18T09:44:11Z</time></trkpt><trkpt lat="59.3573125731" lon="34.5401817933"><ele>171.73</ele><time>2026-08-18T09:44:27Z</time></trkpt><trkpt lat="59.3573299237" lon="34.5403514430"><ele>171.25</ele><time>2026-08-18T09:44:41Z</time></trkpt><trkpt lat="59.3573475257" lon="34.5405427180"><ele>171.25</ele><time>2026-08-18T09:44:54Z</time></trkpt><trkpt lat="59.3573896028" lon="34.5407723822"><ele>170.77</ele><time>2026-08-18T09:45:08Z</time></trkpt><trkpt lat="59.3574342784" lon="34.5409986097"><ele>170.29</ele><time>2026-08-18T09:45:21Z</time></trkpt><trkpt lat="59.3574569095" lon="34.5409784932"><ele>170.29</ele><time>2026-08-18T09:45:42Z</time></trkpt><trkpt lat="59.3574662972" lon="34.5409739669"><ele>170.29</ele><time>2026-08-18T09:46:07Z</time></trkpt><trkpt lat="59.3574424926" lon="34.5409934968"><ele>170.29</ele><time>2026-08-18T09:46:26Z</time></trkpt><trkpt lat="59.3574368767" lon="34.5410660002"><ele>170.29</ele><time>2026-08-18T09:46:44Z</time></trkpt><trkpt lat="59.3574643694" lon="34.5411403477"><ele>170.29</ele><time>2026-08-18T09:47:01Z</time></trkpt><trkpt lat="59.3574707396" lon="34.5413588639"><ele>170.77</ele><time>2026-08-18T09:47:16Z</time></trkpt><trkpt lat="59.3575168401" lon="34.5415623765"><ele>170.29</ele><time>2026-08-18T09:47:32Z</time></trkpt><trkpt lat="59.3575238809" lon="34.5416892786"><ele>170.29</ele><time>2026-08-18T09:47:49Z</time></trkpt><trkpt lat="59.3575440813" lon="34.5419244748"><ele>170.29</ele><time>2026-08-18T09:48:09Z</time></trkpt><trkpt lat="59.3575513735" lon="34.5419648755"><ele>170.29</ele><time>2026-08-18T09:48:36Z</time></trkpt><trkpt lat="59.3575560674" lon="34.5419972297"><ele>170.29</ele><time>2026-08-18T09:49:00Z</time></trkpt><trkpt lat="59.3575584143" lon="34.5419978164"><ele>170.77</ele><time>2026-08-18T09:49:24Z</time></trkpt><trkpt lat="59.3575626053" lon="34.5421015006"><ele>170.77</ele><time>2026-08-18T09:49:36Z</time></trkpt><trkpt lat="59.3576398864" lon="34.5420753490"><ele>170.29</ele><time>2026-08-18T09:49:53Z</time></trkpt><trkpt lat="59.3577073608" lon="34.5421245508"><ele>169.81</ele><time>2026-08-18T09:50:07Z</time></trkpt><trkpt lat="59.3577530421" lon="34.5421969704"><ele>169.81</ele><time>2026-08-18T09:50:24Z</time></trkpt><trkpt lat="59.3578345142" lon="34.5423277281"><ele>169.81</ele><time>2026-08-18T09:50:38Z</time></trkpt><trkpt lat="59.3579652719" lon="34.5423925202"><ele>169.81</ele><time>2026-08-18T09:50:51Z</time></trkpt><trkpt lat="59.3580701295" lon="34.5423975494"><ele>170.29</ele><time>2026-08-18T09:51:03Z</time></trkpt><trkpt lat="59.3581013940" lon="34.5424047578"><ele>170.29</ele><time>2026-08-18T09:51:17Z</time></trkpt><trkpt lat="59.3581453152" lon="34.5424480923"><ele>170.29</ele><time>2026-08-18T09:51:30Z</time></trkpt><trkpt lat="59.3581781723" lon="34.5425366051"><ele>170.29</ele><time>2026-08-18T09:51:45Z</time></trkpt><trkpt lat="59.3582057487" lon="34.5426857192"><ele>170.29</ele><time>2026-08-18T09:51:59Z</time></trkpt><trkpt lat="59.3582176510" lon="34.5428402815"><ele>170.29</ele><time>2026-08-18T09:52:12Z</time></trkpt><trkpt lat="59.3581738137" lon="34.5429542754"><ele>170.29</ele><time>2026-08-18T09:52:24Z</time></trkpt><trkpt lat="59.3581240252" lon="34.5429862104"><ele>170.29</ele><time>2026-08-18T09:52:36Z</time></trkpt><trkpt lat="59.3580880668" lon="34.5430416148"><ele>170.29</ele><time>2026-08-18T09:52:49Z</time></trkpt><trkpt lat="59.3580821995" lon="34.5431301277"><ele>170.77</ele><time>2026-08-18T09:52:58Z</time></trkpt><trkpt lat="59.3580832891" lon="34.5432770625"><ele>170.77</ele><time>2026-08-18T09:53:09Z</time></trkpt><trkpt lat="59.3580867257" lon="34.5433497336"><ele>170.77</ele><time>2026-08-18T09:53:20Z</time></trkpt><trkpt lat="59.3580972869" lon="34.5433571097"><ele>170.77</ele><time>2026-08-18T09:53:34Z</time></trkpt><trkpt lat="59.3581246957" lon="34.5433699340"><ele>170.77</ele><time>2026-08-18T09:53:54Z</time></trkpt><trkpt lat="59.3581391126" lon="34.5434329659"><ele>170.77</ele><time>2026-08-18T09:54:06Z</time></trkpt><trkpt lat="59.3581598159" lon="34.5435350575"><ele>170.77</ele><time>2026-08-18T09:54:18Z</time></trkpt><trkpt lat="59.3581857160" lon="34.5436061360"><ele>170.77</ele><time>2026-08-18T09:54:31Z</time></trkpt><trkpt lat="59.3581429683" lon="34.5437619556"><ele>170.77</ele><time>2026-08-18T09:54:47Z</time></trkpt><trkpt lat="59.3581480812" lon="34.5438653044"><ele>170.77</ele><time>2026-08-18T09:54:58Z</time></trkpt><trkpt lat="59.3581427168" lon="34.5440720022"><ele>170.77</ele><time>2026-08-18T09:55:08Z</time></trkpt><trkpt lat="59.3581329938" lon="34.5442677196"><ele>170.77</ele><time>2026-08-18T09:55:21Z</time></trkpt><trkpt lat="59.3581365142" lon="34.5444873255"><ele>170.77</ele><time>2026-08-18T09:55:32Z</time></trkpt><trkpt lat="59.3580747396" lon="34.5445764251"><ele>170.77</ele><time>2026-08-18T09:55:47Z</time></trkpt><trkpt lat="59.3580452353" lon="34.5447322447"><ele>170.77</ele><time>2026-08-18T09:55:58Z</time></trkpt><trkpt lat="59.3580510188" lon="34.5448786765"><ele>170.77</ele><time>2026-08-18T09:56:09Z</time></trkpt><trkpt lat="59.3580412120" lon="34.5450123679"><ele>170.77</ele><time>2026-08-18T09:56:23Z</time></trkpt><trkpt lat="59.3580181617" lon="34.5451763179"><ele>170.77</ele><time>2026-08-18T09:56:35Z</time></trkpt><trkpt lat="59.3580044154" lon="34.5452025533"><ele>170.77</ele><time>2026-08-18T09:56:56Z</time></trkpt><trkpt lat="59.3580065109" lon="34.5451822691"><ele>170.77</ele><time>2026-08-18T09:57:15Z</time></trkpt><trkpt lat="59.3580058403" lon="34.5451761503"><ele>170.77</ele><time>2026-08-18T09:57:38Z</time></trkpt><trkpt lat="59.3580082711" lon="34.5451745577"><ele>170.77</ele><time>2026-08-18T09:58:07Z</time></trkpt><trkpt lat="59.3580147251" lon="34.5451839454"><ele>170.77</ele><time>2026-08-18T09:58:33Z</time></trkpt><trkpt lat="59.3580126297" lon="34.5451811794"><ele>170.77</ele><time>2026-08-18T09:58:56Z</time></trkpt><trkpt lat="59.3580133002" lon="34.5451705344"><ele>170.77</ele><time>2026-08-18T09:59:15Z</time></trkpt><trkpt lat="59.3580122944" lon="34.5451673493"><ele>170.77</ele><time>2026-08-18T09:59:36Z</time></trkpt><trkpt lat="59.3580065947" lon="34.5451817662"><ele>170.77</ele><time>2026-08-18T10:00:04Z</time></trkpt><trkpt lat="59.3579952791" lon="34.5451827720"><ele>170.77</ele><time>2026-08-18T10:00:32Z</time></trkpt><trkpt lat="59.3580012303" lon="34.5451480709"><ele>171.25</ele><time>2026-08-18T10:01:16Z</time></trkpt><trkpt lat="59.3579988834" lon="34.5451474003"><ele>171.25</ele><time>2026-08-18T10:01:54Z</time></trkpt><trkpt lat="59.3580027390" lon="34.5451459754"><ele>171.25</ele><time>2026-08-18T10:02:29Z</time></trkpt><trkpt lat="59.3580215145" lon="34.5451644994"><ele>171.25</ele><time>2026-08-18T10:02:53Z</time></trkpt><trkpt lat="59.3580206763" lon="34.5451685227"><ele>171.25</ele><time>2026-08-18T10:03:26Z</time></trkpt><trkpt lat="59.3580250349" lon="34.5451754797"><ele>171.25</ele><time>2026-08-18T10:03:53Z</time></trkpt><trkpt lat="59.3580303993" lon="34.5451964345"><ele>171.25</ele><time>2026-08-18T10:04:21Z</time></trkpt><trkpt lat="59.3580312375" lon="34.5452231728"><ele>171.25</ele><time>2026-08-18T10:04:50Z</time></trkpt><trkpt lat="59.3580316566" lon="34.5452162996"><ele>171.73</ele><time>2026-08-18T10:05:18Z</time></trkpt><trkpt lat="59.3580329977" lon="34.5452515036"><ele>171.73</ele><time>2026-08-18T10:05:44Z</time></trkpt><trkpt lat="59.3580318242" lon="34.5452406071"><ele>171.73</ele><time>2026-08-18T10:06:15Z</time></trkpt><trkpt lat="59.3580360152" lon="34.5452369191"><ele>171.73</ele><time>2026-08-18T10:06:47Z</time></trkpt><trkpt lat="59.3580391165" lon="34.5452324767"><ele>171.73</ele><time>2026-08-18T10:07:18Z</time></trkpt><trkpt lat="59.3580324110" lon="34.5452368353"><ele>171.73</ele><time>2026-08-18T10:07:37Z</time></trkpt><trkpt lat="59.3580353446" lon="34.5452362485"><ele>171.73</ele><time>2026-08-18T10:08:05Z</time></trkpt><trkpt lat="59.3580379430" lon="34.5452187303"><ele>172.21</ele><time>2026-08-18T10:08:23Z</time></trkpt><trkpt lat="59.3580415472" lon="34.5452049840"><ele>172.21</ele><time>2026-08-18T10:08:46Z</time></trkpt><trkpt lat="59.3580469955" lon="34.5451983623"><ele>172.21</ele><time>2026-08-18T10:09:13Z</time></trkpt><trkpt lat="59.3580433074" lon="34.5451964345"><ele>172.21</ele><time>2026-08-18T10:09:47Z</time></trkpt><trkpt lat="59.3580388650" lon="34.5451868791"><ele>172.21</ele><time>2026-08-18T10:10:17Z</time></trkpt><trkpt lat="59.3580423854" lon="34.5451758150"><ele>172.69</ele><time>2026-08-18T10:10:47Z</time></trkpt><trkpt lat="59.3580434751" lon="34.5451877173"><ele>172.69</ele><time>2026-08-18T10:11:16Z</time></trkpt><trkpt lat="59.3580379430" lon="34.5451955963"><ele>172.69</ele><time>2026-08-18T10:11:45Z</time></trkpt><trkpt lat="59.3580393679" lon="34.5451924950"><ele>172.69</ele><time>2026-08-18T10:12:10Z</time></trkpt><trkpt lat="59.3580390327" lon="34.5452068280"><ele>172.69</ele><time>2026-08-18T10:12:37Z</time></trkpt><trkpt lat="59.3580380268" lon="34.5452151261"><ele>172.69</ele><time>2026-08-18T10:13:03Z</time></trkpt><trkpt lat="59.3580429722" lon="34.5451996196"><ele>172.69</ele><time>2026-08-18T10:13:24Z</time></trkpt><trkpt lat="59.3580496777" lon="34.5451992005"><ele>173.17</ele><time>2026-08-18T10:13:52Z</time></trkpt><trkpt lat="59.3580479175" lon="34.5451995358"><ele>173.17</ele><time>2026-08-18T10:14:20Z</time></trkpt><trkpt lat="59.3580360152" lon="34.5451845322"><ele>173.17</ele><time>2026-08-18T10:14:47Z</time></trkpt><trkpt lat="59.3580360990" lon="34.5451917406"><ele>173.17</ele><time>2026-08-18T10:15:14Z</time></trkpt><trkpt lat="59.3580238614" lon="34.5452185627"><ele>173.17</ele><time>2026-08-18T10:15:41Z</time></trkpt><trkpt lat="59.3580189161" lon="34.5452414453"><ele>173.17</ele><time>2026-08-18T10:16:18Z</time></trkpt><trkpt lat="59.3580198381" lon="34.5452301297"><ele>173.17</ele><time>2026-08-18T10:16:53Z</time></trkpt><trkpt lat="59.3580187485" lon="34.5452269446"><ele>173.17</ele><time>2026-08-18T10:17:23Z</time></trkpt><trkpt lat="59.3580185808" lon="34.5452120248"><ele>173.66</ele><time>2026-08-18T10:17:53Z</time></trkpt><trkpt lat="59.3580231909" lon="34.5452214126"><ele>173.66</ele><time>2026-08-18T10:18:14Z</time></trkpt><trkpt lat="59.3580288906" lon="34.5452274475"><ele>173.66</ele><time>2026-08-18T10:18:50Z</time></trkpt><trkpt lat="59.3580298964" lon="34.5452185627"><ele>173.66</ele><time>2026-08-18T10:19:26Z</time></trkpt><trkpt lat="59.3580298964" lon="34.5452121086"><ele>173.66</ele><time>2026-08-18T10:19:57Z</time></trkpt><trkpt lat="59.3580391165" lon="34.5452176407"><ele>173.66</ele><time>2026-08-18T10:20:31Z</time></trkpt><trkpt lat="59.3580515217" lon="34.5452199876"><ele>173.66</ele><time>2026-08-18T10:21:07Z</time></trkpt><trkpt lat="59.3580570538" lon="34.5452001225"><ele>174.14</ele><time>2026-08-18T10:21:46Z</time></trkpt><trkpt lat="59.3580495100" lon="34.5452349912"><ele>174.14</ele><time>2026-08-18T10:22:24Z</time></trkpt><trkpt lat="59.3580512702" lon="34.5452344045"><ele>174.14</ele><time>2026-08-18T10:22:54Z</time></trkpt><trkpt lat="59.3580618314" lon="34.5452320576"><ele>174.14</ele><time>2026-08-18T10:23:29Z</time></trkpt><trkpt lat="59.3580567185" lon="34.5452393498"><ele>174.14</ele><time>2026-08-18T10:24:03Z</time></trkpt><trkpt lat="59.3580690399" lon="34.5452187303"><ele>174.62</ele><time>2026-08-18T10:24:37Z</time></trkpt><trkpt lat="59.3580486719" lon="34.5452153776"><ele>174.62</ele><time>2026-08-18T10:25:07Z</time></trkpt><trkpt lat="59.3580536172" lon="34.5452189818"><ele>174.62</ele><time>2026-08-18T10:25:42Z</time></trkpt><trkpt lat="59.3580522761" lon="34.5452231728"><ele>174.62</ele><time>2026-08-18T10:26:20Z</time></trkpt><trkpt lat="59.3580593169" lon="34.5451977756"><ele>174.62</ele><time>2026-08-18T10:26:57Z</time></trkpt><trkpt lat="59.3580551259" lon="34.5451850351"><ele>175.10</ele><time>2026-08-18T10:27:28Z</time></trkpt><trkpt lat="59.3580523599" lon="34.5452104323"><ele>174.62</ele><time>2026-08-18T10:28:00Z</time></trkpt><trkpt lat="59.3580460735" lon="34.5452119410"><ele>174.62</ele><time>2026-08-18T10:28:26Z</time></trkpt><trkpt lat="59.3580431398" lon="34.5451981947"><ele>176.06</ele><time>2026-08-18T10:28:51Z</time></trkpt><trkpt lat="59.3580513541" lon="34.5451981109"><ele>176.06</ele><time>2026-08-18T10:29:18Z</time></trkpt><trkpt lat="59.3580625858" lon="34.5451964345"><ele>176.06</ele><time>2026-08-18T10:29:42Z</time></trkpt><trkpt lat="59.3580699619" lon="34.5452109352"><ele>176.06</ele><time>2026-08-18T10:30:09Z</time></trkpt><trkpt lat="59.3580650166" lon="34.5452145394"><ele>176.06</ele><time>2026-08-18T10:30:38Z</time></trkpt><trkpt lat="59.3580588978" lon="34.5452054031"><ele>176.06</ele><time>2026-08-18T10:31:05Z</time></trkpt><trkpt lat="59.3580551259" lon="34.5452014636"><ele>176.06</ele><time>2026-08-18T10:31:33Z</time></trkpt><trkpt lat="59.3580463249" lon="34.5451933332"><ele>176.06</ele><time>2026-08-18T10:31:58Z</time></trkpt><trkpt lat="59.3580456544" lon="34.5451996196"><ele>176.06</ele><time>2026-08-18T10:32:22Z</time></trkpt><trkpt lat="59.3580515217" lon="34.5451801736"><ele>176.06</ele><time>2026-08-18T10:32:50Z</time></trkpt><trkpt lat="59.3580524437" lon="34.5451757312"><ele>176.06</ele><time>2026-08-18T10:33:18Z</time></trkpt><trkpt lat="59.3580555450" lon="34.5451830234"><ele>176.06</ele><time>2026-08-18T10:33:52Z</time></trkpt><trkpt lat="59.3580588978" lon="34.5451859571"><ele>176.06</ele><time>2026-08-18T10:34:30Z</time></trkpt><trkpt lat="59.3580529466" lon="34.5451813471"><ele>176.06</ele><time>2026-08-18T10:35:02Z</time></trkpt><trkpt lat="59.3580623344" lon="34.5451748930"><ele>176.06</ele><time>2026-08-18T10:35:33Z</time></trkpt><trkpt lat="59.3580661900" lon="34.5451542735"><ele>176.06</ele><time>2026-08-18T10:36:05Z</time></trkpt><trkpt lat="59.3580652680" lon="34.5451710373"><ele>176.06</ele><time>2026-08-18T10:36:36Z</time></trkpt><trkpt lat="59.3580583949" lon="34.5451661758"><ele>176.06</ele><time>2026-08-18T10:37:00Z</time></trkpt><trkpt lat="59.3580478337" lon="34.5451647509"><ele>176.06</ele><time>2026-08-18T10:37:35Z</time></trkpt><trkpt lat="59.3580473308" lon="34.5451667625"><ele>176.06</ele><time>2026-08-18T10:38:05Z</time></trkpt><trkpt lat="59.3580505159" lon="34.5451603085"><ele>176.06</ele><time>2026-08-18T10:38:34Z</time></trkpt><trkpt lat="59.3580477498" lon="34.5451576263"><ele>176.06</ele><time>2026-08-18T10:39:01Z</time></trkpt><trkpt lat="59.3580473308" lon="34.5451593865"><ele>175.10</ele><time>2026-08-18T10:39:18Z</time></trkpt><trkpt lat="59.3580561318" lon="34.5451621525"><ele>175.10</ele><time>2026-08-18T10:39:32Z</time></trkpt><trkpt lat="59.3580559641" lon="34.5451676007"><ele>175.10</ele><time>2026-08-18T10:39:48Z</time></trkpt><trkpt lat="59.3580520246" lon="34.5451565366"><ele>175.10</ele><time>2026-08-18T10:40:08Z</time></trkpt><trkpt lat="59.3580299802" lon="34.5451692771"><ele>175.10</ele><time>2026-08-18T10:40:27Z</time></trkpt><trkpt lat="59.3580214307" lon="34.5451732166"><ele>175.10</ele><time>2026-08-18T10:40:50Z</time></trkpt><trkpt lat="59.3580405414" lon="34.5451566204"><ele>175.10</ele><time>2026-08-18T10:41:12Z</time></trkpt><trkpt lat="59.3580392003" lon="34.5451318100"><ele>175.10</ele><time>2026-08-18T10:41:37Z</time></trkpt><trkpt lat="59.3580197543" lon="34.5451315586"><ele>175.10</ele><time>2026-08-18T10:42:04Z</time></trkpt><trkpt lat="59.3579985481" lon="34.5451639965"><ele>183.27</ele><time>2026-08-18T10:43:08Z</time></trkpt><trkpt lat="59.3580149766" lon="34.5451292116"><ele>183.27</ele><time>2026-08-18T10:43:10Z</time></trkpt><trkpt lat="59.3580058403" lon="34.5450838655"><ele>182.31</ele><time>2026-08-18T10:43:36Z</time></trkpt><trkpt lat="59.3580112886" lon="34.5451101009"><ele>182.31</ele><time>2026-08-18T10:44:04Z</time></trkpt><trkpt lat="59.3580046669" lon="34.5451024733"><ele>182.31</ele><time>2026-08-18T10:44:23Z</time></trkpt><trkpt lat="59.3580055889" lon="34.5451155491"><ele>181.83</ele><time>2026-08-18T10:44:51Z</time></trkpt><trkpt lat="59.3580148928" lon="34.5451302174"><ele>181.83</ele><time>2026-08-18T10:45:12Z</time></trkpt><trkpt lat="59.3580164015" lon="34.5451309718"><ele>181.83</ele><time>2026-08-18T10:45:42Z</time></trkpt><trkpt lat="59.3580114562" lon="34.5451102685"><ele>181.83</ele><time>2026-08-18T10:46:04Z</time></trkpt><trkpt lat="59.3580039963" lon="34.5450914092"><ele>181.83</ele><time>2026-08-18T10:46:31Z</time></trkpt><trkpt lat="59.3580091093" lon="34.5451052394"><ele>181.83</ele><time>2026-08-18T10:46:53Z</time></trkpt><trkpt lat="59.3580086064" lon="34.5451082569"><ele>181.83</ele><time>2026-08-18T10:47:15Z</time></trkpt><trkpt lat="59.3580102827" lon="34.5451038983"><ele>182.31</ele><time>2026-08-18T10:47:42Z</time></trkpt><trkpt lat="59.3580368534" lon="34.5451144595"><ele>182.31</ele><time>2026-08-18T10:47:54Z</time></trkpt><trkpt lat="59.3580519408" lon="34.5451264456"><ele>182.31</ele><time>2026-08-18T10:48:05Z</time></trkpt><trkpt lat="59.3580784276" lon="34.5451427903"><ele>182.31</ele><time>2026-08-18T10:48:15Z</time></trkpt><trkpt lat="59.3580918387" lon="34.5451371744"><ele>182.31</ele><time>2026-08-18T10:48:28Z</time></trkpt><trkpt lat="59.3580931798" lon="34.5451362524"><ele>182.31</ele><time>2026-08-18T10:48:29Z</time></trkpt><trkpt lat="59.3581790943" lon="34.5451313071"><ele>182.31</ele><time>2026-08-18T10:48:40Z</time></trkpt><trkpt lat="59.3583352491" lon="34.5450787526"><ele>181.83</ele><time>2026-08-18T10:48:53Z</time></trkpt><trkpt lat="59.3584023044" lon="34.5450799260"><ele>181.83</ele><time>2026-08-18T10:49:01Z</time></trkpt><trkpt lat="59.3584939186" lon="34.5451650862"><ele>181.83</ele><time>2026-08-18T10:49:12Z</time></trkpt><trkpt lat="59.3585717026" lon="34.5451176446"><ele>181.83</ele><time>2026-08-18T10:49:24Z</time></trkpt><trkpt lat="59.3586128578" lon="34.5451142080"><ele>181.83</ele><time>2026-08-18T10:49:32Z</time></trkpt><trkpt lat="59.3586348183" lon="34.5451664273"><ele>181.83</ele><time>2026-08-18T10:49:40Z</time></trkpt><trkpt lat="59.3586763088" lon="34.5451097656"><ele>181.83</ele><time>2026-08-18T10:49:45Z</time></trkpt><trkpt lat="59.3587302044" lon="34.5450158045"><ele>181.83</ele><time>2026-08-18T10:49:54Z</time></trkpt><trkpt lat="59.3587695993" lon="34.5449117012"><ele>181.83</ele><time>2026-08-18T10:50:05Z</time></trkpt><trkpt lat="59.3587579485" lon="34.5449072588"><ele>181.83</ele><time>2026-08-18T10:50:23Z</time></trkpt><trkpt lat="59.3587606307" lon="34.5448785927"><ele>181.83</ele><time>2026-08-18T10:50:37Z</time></trkpt><trkpt lat="59.3587847706" lon="34.5448199194"><ele>181.35</ele><time>2026-08-18T10:50:50Z</time></trkpt><trkpt lat="59.3587908894" lon="34.5448159799"><ele>181.35</ele><time>2026-08-18T10:51:01Z</time></trkpt><trkpt lat="59.3587850221" lon="34.5447920077"><ele>181.35</ele><time>2026-08-18T10:51:03Z</time></trkpt><trkpt lat="59.3588074017" lon="34.5446676202"><ele>181.35</ele><time>2026-08-18T10:51:10Z</time></trkpt><trkpt lat="59.3588695116" lon="34.5446272194"><ele>181.35</ele><time>2026-08-18T10:51:20Z</time></trkpt><trkpt lat="59.3589298613" lon="34.5444944501"><ele>181.35</ele><time>2026-08-18T10:51:31Z</time></trkpt><trkpt lat="59.3589531630" lon="34.5443513710"><ele>181.35</ele><time>2026-08-18T10:51:41Z</time></trkpt><trkpt lat="59.3589793984" lon="34.5442577451"><ele>181.35</ele><time>2026-08-18T10:51:55Z</time></trkpt><trkpt lat="59.3590162788" lon="34.5441276580"><ele>181.35</ele><time>2026-08-18T10:52:05Z</time></trkpt><trkpt lat="59.3590658996" lon="34.5440046955"><ele>181.35</ele><time>2026-08-18T10:52:17Z</time></trkpt><trkpt lat="59.3591120839" lon="34.5439254027"><ele>181.35</ele><time>2026-08-18T10:52:30Z</time></trkpt><trkpt lat="59.3591189571" lon="34.5438781288"><ele>181.35</ele><time>2026-08-18T10:52:42Z</time></trkpt><trkpt lat="59.3591399956" lon="34.5438181143"><ele>180.87</ele><time>2026-08-18T10:52:47Z</time></trkpt><trkpt lat="59.3592288438" lon="34.5436783042"><ele>180.87</ele><time>2026-08-18T10:53:01Z</time></trkpt><trkpt lat="59.3592331186" lon="34.5436741132"><ele>180.87</ele><time>2026-08-18T10:53:19Z</time></trkpt><trkpt lat="59.3592385668" lon="34.5436750352"><ele>180.87</ele><time>2026-08-18T10:53:43Z</time></trkpt><trkpt lat="59.3592444342" lon="34.5436634682"><ele>180.87</ele><time>2026-08-18T10:54:15Z</time></trkpt><trkpt lat="59.3592460267" lon="34.5436555892"><ele>180.87</ele><time>2026-08-18T10:54:37Z</time></trkpt><trkpt lat="59.3592733517" lon="34.5436327904"><ele>180.87</ele><time>2026-08-18T10:54:42Z</time></trkpt><trkpt lat="59.3593316898" lon="34.5435502287"><ele>180.87</ele><time>2026-08-18T10:54:53Z</time></trkpt><trkpt lat="59.3593494594" lon="34.5434309542"><ele>180.87</ele><time>2026-08-18T10:55:05Z</time></trkpt><trkpt lat="59.3594360445" lon="34.5432700217"><ele>180.87</ele><time>2026-08-18T10:55:16Z</time></trkpt><trkpt lat="59.3594969809" lon="34.5432042237"><ele>180.87</ele><time>2026-08-18T10:55:28Z</time></trkpt><trkpt lat="59.3595406506" lon="34.5431630686"><ele>180.38</ele><time>2026-08-18T10:55:41Z</time></trkpt><trkpt lat="59.3596263137" lon="34.5431202371"><ele>180.38</ele><time>2026-08-18T10:55:53Z</time></trkpt><trkpt lat="59.3596414849" lon="34.5430845302"><ele>180.38</ele><time>2026-08-18T10:56:12Z</time></trkpt><trkpt lat="59.3596632779" lon="34.5430515893"><ele>180.38</ele><time>2026-08-18T10:56:26Z</time></trkpt><trkpt lat="59.3596702348" lon="34.5430154633"><ele>180.38</ele><time>2026-08-18T10:56:41Z</time></trkpt><trkpt lat="59.3596753478" lon="34.5429614838"><ele>180.38</ele><time>2026-08-18T10:56:59Z</time></trkpt><trkpt lat="59.3596754316" lon="34.5427453145"><ele>180.38</ele><time>2026-08-18T10:57:13Z</time></trkpt><trkpt lat="59.3597097974" lon="34.5423262194"><ele>180.38</ele><time>2026-08-18T10:57:26Z</time></trkpt><trkpt lat="59.3597385474" lon="34.5421253890"><ele>180.38</ele><time>2026-08-18T10:57:39Z</time></trkpt><trkpt lat="59.3597367872" lon="34.5419352036"><ele>179.90</ele><time>2026-08-18T10:57:54Z</time></trkpt><trkpt lat="59.3597605079" lon="34.5418874267"><ele>179.90</ele><time>2026-08-18T10:58:07Z</time></trkpt><trkpt lat="59.3598501105" lon="34.5418099780"><ele>179.90</ele><time>2026-08-18T10:58:21Z</time></trkpt><trkpt lat="59.3599498551" lon="34.5417358819"><ele>179.90</ele><time>2026-08-18T10:58:32Z</time></trkpt><trkpt lat="59.3600670341" lon="34.5416803099"><ele>179.42</ele><time>2026-08-18T10:58:45Z</time></trkpt><trkpt lat="59.3601522781" lon="34.5415878575"><ele>179.42</ele><time>2026-08-18T10:59:01Z</time></trkpt><trkpt lat="59.3602113705" lon="34.5414882805"><ele>179.42</ele><time>2026-08-18T10:59:15Z</time></trkpt><trkpt lat="59.3602798507" lon="34.5414299425"><ele>178.94</ele><time>2026-08-18T10:59:32Z</time></trkpt><trkpt lat="59.3603117019" lon="34.5413996000"><ele>178.94</ele><time>2026-08-18T10:59:45Z</time></trkpt><trkpt lat="59.3603318185" lon="34.5413797349"><ele>178.94</ele><time>2026-08-18T11:00:01Z</time></trkpt><trkpt lat="59.3603682797" lon="34.5413333829"><ele>178.94</ele><time>2026-08-18T11:00:14Z</time></trkpt><trkpt lat="59.3604638334" lon="34.5412586164"><ele>178.46</ele><time>2026-08-18T11:00:26Z</time></trkpt><trkpt lat="59.3605608959" lon="34.5412528329"><ele>178.46</ele><time>2026-08-18T11:00:41Z</time></trkpt><trkpt lat="59.3606913183" lon="34.5411618054"><ele>178.46</ele><time>2026-08-18T11:00:53Z</time></trkpt><trkpt lat="59.3608031329" lon="34.5411081612"><ele>177.98</ele><time>2026-08-18T11:01:06Z</time></trkpt><trkpt lat="59.3608411029" lon="34.5410804171"><ele>177.98</ele><time>2026-08-18T11:01:11Z</time></trkpt><trkpt lat="59.3609244190" lon="34.5410786569"><ele>177.02</ele><time>2026-08-18T11:01:24Z</time></trkpt><trkpt lat="59.3609400094" lon="34.5410957560"><ele>177.02</ele><time>2026-08-18T11:01:36Z</time></trkpt><trkpt lat="59.3609581143" lon="34.5410834346"><ele>176.54</ele><time>2026-08-18T11:01:52Z</time></trkpt><trkpt lat="59.3611726910" lon="34.5411428623"><ele>176.54</ele><time>2026-08-18T11:02:06Z</time></trkpt><trkpt lat="59.3611964118" lon="34.5411671698"><ele>176.54</ele><time>2026-08-18T11:02:08Z</time></trkpt><trkpt lat="59.3613280077" lon="34.5413163677"><ele>176.54</ele><time>2026-08-18T11:02:25Z</time></trkpt><trkpt lat="59.3614052050" lon="34.5414012764"><ele>176.54</ele><time>2026-08-18T11:02:39Z</time></trkpt><trkpt lat="59.3614253215" lon="34.5413119253"><ele>177.50</ele><time>2026-08-18T11:02:49Z</time></trkpt><trkpt lat="59.3614492100" lon="34.5412460435"><ele>177.50</ele><time>2026-08-18T11:03:03Z</time></trkpt><trkpt lat="59.3614624534" lon="34.5412195567"><ele>177.50</ele><time>2026-08-18T11:03:35Z</time></trkpt><trkpt lat="59.3614540715" lon="34.5412320457"><ele>177.50</ele><time>2026-08-18T11:03:58Z</time></trkpt><trkpt lat="59.3614629563" lon="34.5412395056"><ele>177.50</ele><time>2026-08-18T11:04:24Z</time></trkpt><trkpt lat="59.3614617828" lon="34.5412338059"><ele>177.50</ele><time>2026-08-18T11:04:49Z</time></trkpt><trkpt lat="59.3614770379" lon="34.5412378293"><ele>177.50</ele><time>2026-08-18T11:05:18Z</time></trkpt><trkpt lat="59.3614844140" lon="34.5412188023"><ele>177.50</ele><time>2026-08-18T11:05:36Z</time></trkpt><trkpt lat="59.3615239765" lon="34.5410970133"><ele>177.50</ele><time>2026-08-18T11:05:49Z</time></trkpt><trkpt lat="59.3615250662" lon="34.5409878809"><ele>177.50</ele><time>2026-08-18T11:06:05Z</time></trkpt><trkpt lat="59.3615948875" lon="34.5406785049"><ele>177.50</ele><time>2026-08-18T11:06:19Z</time></trkpt><trkpt lat="59.3615757767" lon="34.5404364355"><ele>177.50</ele><time>2026-08-18T11:06:28Z</time></trkpt><trkpt lat="59.3615699094" lon="34.5402110461"><ele>177.50</ele><time>2026-08-18T11:06:42Z</time></trkpt><trkpt lat="59.3615994137" lon="34.5400675479"><ele>177.50</ele><time>2026-08-18T11:06:53Z</time></trkpt><trkpt lat="59.3615933787" lon="34.5399301685"><ele>177.50</ele><time>2026-08-18T11:07:03Z</time></trkpt><trkpt lat="59.3615935463" lon="34.5397641230"><ele>177.98</ele><time>2026-08-18T11:07:16Z</time></trkpt><trkpt lat="59.3615913671" lon="34.5395806432"><ele>178.46</ele><time>2026-08-18T11:07:29Z</time></trkpt><trkpt lat="59.3615373038" lon="34.5392975863"><ele>178.46</ele><time>2026-08-18T11:07:42Z</time></trkpt><trkpt lat="59.3615336157" lon="34.5392618794"><ele>178.46</ele><time>2026-08-18T11:07:44Z</time></trkpt><trkpt lat="59.3615361303" lon="34.5390358195"><ele>178.46</ele><time>2026-08-18T11:07:56Z</time></trkpt><trkpt lat="59.3615544867" lon="34.5388704445"><ele>178.94</ele><time>2026-08-18T11:08:08Z</time></trkpt><trkpt lat="59.3615398183" lon="34.5387288742"><ele>178.94</ele><time>2026-08-18T11:08:22Z</time></trkpt><trkpt lat="59.3615953904" lon="34.5384691190"><ele>178.94</ele><time>2026-08-18T11:08:35Z</time></trkpt><trkpt lat="59.3616345339" lon="34.5383886527"><ele>178.46</ele><time>2026-08-18T11:08:51Z</time></trkpt><trkpt lat="59.3616640382" lon="34.5382138062"><ele>178.46</ele><time>2026-08-18T11:09:05Z</time></trkpt><trkpt lat="59.3616851605" lon="34.5380891673"><ele>178.46</ele><time>2026-08-18T11:09:17Z</time></trkpt><trkpt lat="59.3616954703" lon="34.5379901771"><ele>178.46</ele><time>2026-08-18T11:09:27Z</time></trkpt><trkpt lat="59.3617362902" lon="34.5378775243"><ele>178.46</ele><time>2026-08-18T11:09:34Z</time></trkpt><trkpt lat="59.3617852405" lon="34.5377482753"><ele>178.46</ele><time>2026-08-18T11:09:46Z</time></trkpt><trkpt lat="59.3617840670" lon="34.5375665557"><ele>177.98</ele><time>2026-08-18T11:10:02Z</time></trkpt><trkpt lat="59.3617853243" lon="34.5374193694"><ele>177.98</ele><time>2026-08-18T11:10:14Z</time></trkpt><trkpt lat="59.3619195186" lon="34.5370423514"><ele>177.98</ele><time>2026-08-18T11:10:27Z</time></trkpt><trkpt lat="59.3619472627" lon="34.5368593745"><ele>177.98</ele><time>2026-08-18T11:10:41Z</time></trkpt><trkpt lat="59.3619474303" lon="34.5366908982"><ele>177.50</ele><time>2026-08-18T11:10:52Z</time></trkpt><trkpt lat="59.3620155752" lon="34.5364423748"><ele>177.50</ele><time>2026-08-18T11:11:03Z</time></trkpt><trkpt lat="59.3620189279" lon="34.5363863837"><ele>177.50</ele><time>2026-08-18T11:11:18Z</time></trkpt><trkpt lat="59.3620335124" lon="34.5363630820"><ele>177.50</ele><time>2026-08-18T11:11:38Z</time></trkpt><trkpt lat="59.3620732427" lon="34.5363272075"><ele>176.06</ele><time>2026-08-18T11:12:11Z</time></trkpt><trkpt lat="59.3620819598" lon="34.5362889022"><ele>176.06</ele><time>2026-08-18T11:12:46Z</time></trkpt><trkpt lat="59.3620822951" lon="34.5362787601"><ele>176.06</ele><time>2026-08-18T11:13:17Z</time></trkpt><trkpt lat="59.3620817084" lon="34.5362780895"><ele>176.06</ele><time>2026-08-18T11:13:44Z</time></trkpt><trkpt lat="59.3620877434" lon="34.5362624153"><ele>175.58</ele><time>2026-08-18T11:14:09Z</time></trkpt><trkpt lat="59.3621026631" lon="34.5362301450"><ele>175.58</ele><time>2026-08-18T11:14:40Z</time></trkpt><trkpt lat="59.3621205166" lon="34.5360530354"><ele>175.58</ele><time>2026-08-18T11:14:54Z</time></trkpt><trkpt lat="59.3620632682" lon="34.5358113851"><ele>175.58</ele><time>2026-08-18T11:15:09Z</time></trkpt><trkpt lat="59.3620022479" lon="34.5356667135"><ele>175.58</ele><time>2026-08-18T11:15:25Z</time></trkpt><trkpt lat="59.3619476818" lon="34.5355452597"><ele>175.58</ele><time>2026-08-18T11:15:40Z</time></trkpt><trkpt lat="59.3618964683" lon="34.5355079602"><ele>175.58</ele><time>2026-08-18T11:15:53Z</time></trkpt><trkpt lat="59.3618668802" lon="34.5354459342"><ele>175.58</ele><time>2026-08-18T11:16:12Z</time></trkpt><trkpt lat="59.3618465122" lon="34.5354225487"><ele>174.62</ele><time>2026-08-18T11:16:24Z</time></trkpt><trkpt lat="59.3617778644" lon="34.5355284121"><ele>174.62</ele><time>2026-08-18T11:16:41Z</time></trkpt><trkpt lat="59.3615728430" lon="34.5356812980"><ele>174.62</ele><time>2026-08-18T11:16:56Z</time></trkpt><trkpt lat="59.3615313526" lon="34.5357466768"><ele>174.62</ele><time>2026-08-18T11:17:12Z</time></trkpt><trkpt lat="59.3615376391" lon="34.5357139874"><ele>174.62</ele><time>2026-08-18T11:17:30Z</time></trkpt><trkpt lat="59.3615746032" lon="34.5356541406"><ele>174.62</ele><time>2026-08-18T11:17:48Z</time></trkpt><trkpt lat="59.3615912832" lon="34.5356368739"><ele>174.62</ele><time>2026-08-18T11:17:55Z</time></trkpt><trkpt lat="59.3617232982" lon="34.5354248118"><ele>174.62</ele><time>2026-08-18T11:18:11Z</time></trkpt><trkpt lat="59.3618025072" lon="34.5352460258"><ele>174.62</ele><time>2026-08-18T11:18:24Z</time></trkpt><trkpt lat="59.3617959693" lon="34.5350601990"><ele>174.14</ele><time>2026-08-18T11:18:36Z</time></trkpt><trkpt lat="59.3618224561" lon="34.5350030344"><ele>173.66</ele><time>2026-08-18T11:18:51Z</time></trkpt><trkpt lat="59.3618186843" lon="34.5349617954"><ele>173.66</ele><time>2026-08-18T11:19:10Z</time></trkpt><trkpt lat="59.3618127331" lon="34.5349260047"><ele>173.66</ele><time>2026-08-18T11:19:33Z</time></trkpt><trkpt lat="59.3618029263" lon="34.5349074807"><ele>173.66</ele><time>2026-08-18T11:19:56Z</time></trkpt><trkpt lat="59.3618041836" lon="34.5349156111"><ele>173.66</ele><time>2026-08-18T11:20:20Z</time></trkpt><trkpt lat="59.3618101347" lon="34.5349202212"><ele>173.66</ele><time>2026-08-18T11:20:44Z</time></trkpt><trkpt lat="59.3618147448" lon="34.5349395834"><ele>173.66</ele><time>2026-08-18T11:21:02Z</time></trkpt><trkpt lat="59.3618170917" lon="34.5349374041"><ele>173.66</ele><time>2026-08-18T11:21:23Z</time></trkpt><trkpt lat="59.3618380465" lon="34.5349415112"><ele>173.66</ele><time>2026-08-18T11:21:52Z</time></trkpt><trkpt lat="59.3618305866" lon="34.5349299442"><ele>173.66</ele><time>2026-08-18T11:22:24Z</time></trkpt><trkpt lat="59.3618319277" lon="34.5349213947"><ele>173.66</ele><time>2026-08-18T11:22:52Z</time></trkpt><trkpt lat="59.3618339393" lon="34.5349493902"><ele>174.14</ele><time>2026-08-18T11:23:12Z</time></trkpt><trkpt lat="59.3618266471" lon="34.5349416789"><ele>174.14</ele><time>2026-08-18T11:23:34Z</time></trkpt><trkpt lat="59.3618289940" lon="34.5349281840"><ele>174.14</ele><time>2026-08-18T11:23:55Z</time></trkpt><trkpt lat="59.3618354481" lon="34.5349705126"><ele>174.14</ele><time>2026-08-18T11:24:19Z</time></trkpt><trkpt lat="59.3618263118" lon="34.5349753741"><ele>174.14</ele><time>2026-08-18T11:24:42Z</time></trkpt><trkpt lat="59.3618368730" lon="34.5349784754"><ele>174.14</ele><time>2026-08-18T11:25:15Z</time></trkpt><trkpt lat="59.3618256412" lon="34.5349866897"><ele>174.14</ele><time>2026-08-18T11:25:35Z</time></trkpt><trkpt lat="59.3618032616" lon="34.5349658187"><ele>174.14</ele><time>2026-08-18T11:25:51Z</time></trkpt><trkpt lat="59.3617170956" lon="34.5348865259"><ele>174.62</ele><time>2026-08-18T11:26:02Z</time></trkpt><trkpt lat="59.3616810534" lon="34.5348199736"><ele>174.62</ele><time>2026-08-18T11:26:15Z</time></trkpt><trkpt lat="59.3616160098" lon="34.5348203089"><ele>174.62</ele><time>2026-08-18T11:26:26Z</time></trkpt><trkpt lat="59.3615797162" lon="34.5347960852"><ele>174.62</ele><time>2026-08-18T11:26:36Z</time></trkpt><trkpt lat="59.3615473621" lon="34.5347467158"><ele>174.62</ele><time>2026-08-18T11:26:50Z</time></trkpt><trkpt lat="59.3615022674" lon="34.5347179659"><ele>174.62</ele><time>2026-08-18T11:26:56Z</time></trkpt><trkpt lat="59.3614114914" lon="34.5346543472"><ele>174.62</ele><time>2026-08-18T11:27:05Z</time></trkpt><trkpt lat="59.3613800593" lon="34.5345808379"><ele>174.14</ele><time>2026-08-18T11:27:18Z</time></trkpt><trkpt lat="59.3613790534" lon="34.5345156267"><ele>174.14</ele><time>2026-08-18T11:27:30Z</time></trkpt><trkpt lat="59.3613869324" lon="34.5345060714"><ele>174.14</ele><time>2026-08-18T11:27:31Z</time></trkpt><trkpt lat="59.3613396585" lon="34.5342002157"><ele>174.14</ele><time>2026-08-18T11:27:40Z</time></trkpt><trkpt lat="59.3613593560" lon="34.5340618305"><ele>174.14</ele><time>2026-08-18T11:27:51Z</time></trkpt><trkpt lat="59.3613608647" lon="34.5340484194"><ele>174.14</ele><time>2026-08-18T11:27:52Z</time></trkpt><trkpt lat="59.3613822386" lon="34.5339402929"><ele>174.14</ele><time>2026-08-18T11:28:04Z</time></trkpt><trkpt lat="59.3613696657" lon="34.5338911749"><ele>174.14</ele><time>2026-08-18T11:28:12Z</time></trkpt><trkpt lat="59.3613492977" lon="34.5336667076"><ele>174.14</ele><time>2026-08-18T11:28:25Z</time></trkpt><trkpt lat="59.3613522314" lon="34.5336115547"><ele>174.14</ele><time>2026-08-18T11:28:39Z</time></trkpt><trkpt lat="59.3613231461" lon="34.5335684717"><ele>174.14</ele><time>2026-08-18T11:28:51Z</time></trkpt><trkpt lat="59.3612656463" lon="34.5334179327"><ele>174.14</ele><time>2026-08-18T11:29:01Z</time></trkpt><trkpt lat="59.3612524029" lon="34.5332720876"><ele>174.14</ele><time>2026-08-18T11:29:12Z</time></trkpt><trkpt lat="59.3612605333" lon="34.5332362968"><ele>174.14</ele><time>2026-08-18T11:29:16Z</time></trkpt><trkpt lat="59.3612980004" lon="34.5331449341"><ele>174.14</ele><time>2026-08-18T11:29:29Z</time></trkpt><trkpt lat="59.3613297679" lon="34.5330644678"><ele>174.14</ele><time>2026-08-18T11:29:35Z</time></trkpt><trkpt lat="59.3613378145" lon="34.5329639688"><ele>174.14</ele><time>2026-08-18T11:29:47Z</time></trkpt><trkpt lat="59.3613486271" lon="34.5328524895"><ele>174.14</ele><time>2026-08-18T11:30:05Z</time></trkpt><trkpt lat="59.3613450229" lon="34.5327693410"><ele>173.66</ele><time>2026-08-18T11:30:09Z</time></trkpt><trkpt lat="59.3613545783" lon="34.5326272678"><ele>173.66</ele><time>2026-08-18T11:30:15Z</time></trkpt><trkpt lat="59.3613634631" lon="34.5324787404"><ele>173.66</ele><time>2026-08-18T11:30:26Z</time></trkpt><trkpt lat="59.3613905367" lon="34.5323828515"><ele>173.66</ele><time>2026-08-18T11:30:32Z</time></trkpt><trkpt lat="59.3614166882" lon="34.5322114415"><ele>173.66</ele><time>2026-08-18T11:30:43Z</time></trkpt><trkpt lat="59.3614042830" lon="34.5321351662"><ele>173.66</ele><time>2026-08-18T11:30:48Z</time></trkpt><trkpt lat="59.3613819033" lon="34.5319729764"><ele>173.66</ele><time>2026-08-18T11:30:59Z</time></trkpt><trkpt lat="59.3614138383" lon="34.5318749081"><ele>173.66</ele><time>2026-08-18T11:31:06Z</time></trkpt><trkpt lat="59.3614694942" lon="34.5317847189"><ele>173.66</ele><time>2026-08-18T11:31:17Z</time></trkpt><trkpt lat="59.3614761159" lon="34.5317390375"><ele>173.66</ele><time>2026-08-18T11:31:20Z</time></trkpt><trkpt lat="59.3615317717" lon="34.5315224491"><ele>173.66</ele><time>2026-08-18T11:31:33Z</time></trkpt><trkpt lat="59.3615549058" lon="34.5313994028"><ele>173.66</ele><time>2026-08-18T11:31:48Z</time></trkpt><trkpt lat="59.3615541514" lon="34.5312832296"><ele>173.66</ele><time>2026-08-18T11:31:58Z</time></trkpt><trkpt lat="59.3615752738" lon="34.5310152601"><ele>173.17</ele><time>2026-08-18T11:32:15Z</time></trkpt><trkpt lat="59.3616075441" lon="34.5308741927"><ele>173.17</ele><time>2026-08-18T11:32:29Z</time></trkpt><trkpt lat="59.3616032694" lon="34.5308740251"><ele>173.17</ele><time>2026-08-18T11:32:50Z</time></trkpt><trkpt lat="59.3616777845" lon="34.5308688283"><ele>173.17</ele><time>2026-08-18T11:33:04Z</time></trkpt><trkpt lat="59.3617124856" lon="34.5308854245"><ele>173.17</ele><time>2026-08-18T11:33:22Z</time></trkpt><trkpt lat="59.3617388885" lon="34.5308853406"><ele>174.14</ele><time>2026-08-18T11:33:46Z</time></trkpt><trkpt lat="59.3617653754" lon="34.5308756176"><ele>174.14</ele><time>2026-08-18T11:34:19Z</time></trkpt><trkpt lat="59.3617757689" lon="34.5308802277"><ele>174.14</ele><time>2026-08-18T11:34:43Z</time></trkpt><trkpt lat="59.3617764395" lon="34.5308819041"><ele>174.14</ele><time>2026-08-18T11:35:05Z</time></trkpt><trkpt lat="59.3617807142" lon="34.5308801439"><ele>174.14</ele><time>2026-08-18T11:35:34Z</time></trkpt><trkpt lat="59.3617987353" lon="34.5308956504"><ele>174.14</ele><time>2026-08-18T11:35:50Z</time></trkpt><trkpt lat="59.3618294131" lon="34.5308886934"><ele>173.66</ele><time>2026-08-18T11:36:03Z</time></trkpt><trkpt lat="59.3618302513" lon="34.5309059601"><ele>172.21</ele><time>2026-08-18T11:36:18Z</time></trkpt><trkpt lat="59.3618289940" lon="34.5309085585"><ele>172.21</ele><time>2026-08-18T11:36:19Z</time></trkpt><trkpt lat="59.3619276490" lon="34.5308664814"><ele>172.21</ele><time>2026-08-18T11:36:33Z</time></trkpt><trkpt lat="59.3619959615" lon="34.5308631286"><ele>172.21</ele><time>2026-08-18T11:36:46Z</time></trkpt><trkpt lat="59.3620188441" lon="34.5308577642"><ele>172.21</ele><time>2026-08-18T11:36:52Z</time></trkpt><trkpt lat="59.3620793615" lon="34.5308855921"><ele>173.17</ele><time>2026-08-18T11:37:03Z</time></trkpt><trkpt lat="59.3621841352" lon="34.5308958180"><ele>172.69</ele><time>2026-08-18T11:37:17Z</time></trkpt><trkpt lat="59.3622855563" lon="34.5309047028"><ele>173.17</ele><time>2026-08-18T11:37:29Z</time></trkpt><trkpt lat="59.3624003045" lon="34.5309155155"><ele>173.17</ele><time>2026-08-18T11:37:42Z</time></trkpt><trkpt lat="59.3624661025" lon="34.5308419224"><ele>173.17</ele><time>2026-08-18T11:37:54Z</time></trkpt><trkpt lat="59.3625043239" lon="34.5307536609"><ele>173.17</ele><time>2026-08-18T11:38:09Z</time></trkpt><trkpt lat="59.3625401985" lon="34.5307172835"><ele>173.66</ele><time>2026-08-18T11:38:21Z</time></trkpt><trkpt lat="59.3625804316" lon="34.5306751225"><ele>173.66</ele><time>2026-08-18T11:38:37Z</time></trkpt><trkpt lat="59.3626228441" lon="34.5306280162"><ele>173.17</ele><time>2026-08-18T11:38:49Z</time></trkpt><trkpt lat="59.3627123628" lon="34.5305433590"><ele>173.17</ele><time>2026-08-18T11:39:03Z</time></trkpt><trkpt lat="59.3628623150" lon="34.5303946640"><ele>173.17</ele><time>2026-08-18T11:39:20Z</time></trkpt><trkpt lat="59.3629504088" lon="34.5301938336"><ele>173.66</ele><time>2026-08-18T11:39:35Z</time></trkpt><trkpt lat="59.3630534224" lon="34.5300613157"><ele>173.66</ele><time>2026-08-18T11:39:51Z</time></trkpt><trkpt lat="59.3631390017" lon="34.5298786741"><ele>173.66</ele><time>2026-08-18T11:40:07Z</time></trkpt><trkpt lat="59.3632288557" lon="34.5298200008"><ele>173.66</ele><time>2026-08-18T11:40:20Z</time></trkpt><trkpt lat="59.3632690888" lon="34.5298557915"><ele>173.66</ele><time>2026-08-18T11:40:37Z</time></trkpt><trkpt lat="59.3633063044" lon="34.5299856272"><ele>173.17</ele><time>2026-08-18T11:40:51Z</time></trkpt><trkpt lat="59.3633581884" lon="34.5300578792"><ele>173.17</ele><time>2026-08-18T11:41:08Z</time></trkpt><trkpt lat="59.3634280097" lon="34.5301180612"><ele>173.17</ele><time>2026-08-18T11:41:21Z</time></trkpt><trkpt lat="59.3635497987" lon="34.5302234218"><ele>173.17</ele><time>2026-08-18T11:41:34Z</time></trkpt><trkpt lat="59.3635554146" lon="34.5302406047"><ele>173.17</ele><time>2026-08-18T11:41:36Z</time></trkpt><trkpt lat="59.3637637049" lon="34.5303690154"><ele>173.17</ele><time>2026-08-18T11:41:50Z</time></trkpt><trkpt lat="59.3638362922" lon="34.5303794090"><ele>173.17</ele><time>2026-08-18T11:42:03Z</time></trkpt><trkpt lat="59.3639064487" lon="34.5304556005"><ele>173.17</ele><time>2026-08-18T11:42:17Z</time></trkpt><trkpt lat="59.3639861606" lon="34.5305432752"><ele>173.17</ele><time>2026-08-18T11:42:34Z</time></trkpt><trkpt lat="59.3640123960" lon="34.5305635594"><ele>172.69</ele><time>2026-08-18T11:42:51Z</time></trkpt><trkpt lat="59.3640312552" lon="34.5306192152"><ele>172.69</ele><time>2026-08-18T11:43:15Z</time></trkpt><trkpt lat="59.3640243821" lon="34.5306326263"><ele>172.69</ele><time>2026-08-18T11:43:37Z</time></trkpt><trkpt lat="59.3640466779" lon="34.5306578558"><ele>172.69</ele><time>2026-08-18T11:44:02Z</time></trkpt><trkpt lat="59.3640438281" lon="34.5306665730"><ele>172.69</ele><time>2026-08-18T11:44:24Z</time></trkpt><trkpt lat="59.3640352786" lon="34.5306343026"><ele>172.21</ele><time>2026-08-18T11:44:52Z</time></trkpt><trkpt lat="59.3640417326" lon="34.5306216460"><ele>172.21</ele><time>2026-08-18T11:45:15Z</time></trkpt><trkpt lat="59.3641450815" lon="34.5305164531"><ele>172.21</ele><time>2026-08-18T11:45:32Z</time></trkpt><trkpt lat="59.3642497715" lon="34.5303842705"><ele>172.21</ele><time>2026-08-18T11:45:49Z</time></trkpt><trkpt lat="59.3642766774" lon="34.5303512458"><ele>172.21</ele><time>2026-08-18T11:46:08Z</time></trkpt><trkpt lat="59.3642948661" lon="34.5303451270"><ele>172.21</ele><time>2026-08-18T11:46:27Z</time></trkpt><trkpt lat="59.3644069321" lon="34.5303038880"><ele>172.21</ele><time>2026-08-18T11:46:45Z</time></trkpt><trkpt lat="59.3644178286" lon="34.5302911475"><ele>171.73</ele><time>2026-08-18T11:47:05Z</time></trkpt><trkpt lat="59.3645162322" lon="34.5302269422"><ele>171.73</ele><time>2026-08-18T11:47:22Z</time></trkpt><trkpt lat="59.3645959441" lon="34.5301515050"><ele>171.73</ele><time>2026-08-18T11:47:41Z</time></trkpt><trkpt lat="59.3646435533" lon="34.5301176421"><ele>171.73</ele><time>2026-08-18T11:48:02Z</time></trkpt><trkpt lat="59.3647460639" lon="34.5300287940"><ele>171.73</ele><time>2026-08-18T11:48:19Z</time></trkpt><trkpt lat="59.3647909071" lon="34.5299790893"><ele>171.73</ele><time>2026-08-18T11:48:35Z</time></trkpt><trkpt lat="59.3648395222" lon="34.5299391914"><ele>171.25</ele><time>2026-08-18T11:48:56Z</time></trkpt><trkpt lat="59.3648993690" lon="34.5299084298"><ele>171.25</ele><time>2026-08-18T11:49:16Z</time></trkpt><trkpt lat="59.3650019635" lon="34.5298133790"><ele>171.25</ele><time>2026-08-18T11:49:31Z</time></trkpt><trkpt lat="59.3651401810" lon="34.5297397859"><ele>171.73</ele><time>2026-08-18T11:49:46Z</time></trkpt><trkpt lat="59.3652378302" lon="34.5297264587"><ele>171.73</ele><time>2026-08-18T11:50:02Z</time></trkpt><trkpt lat="59.3653509021" lon="34.5297042467"><ele>171.73</ele><time>2026-08-18T11:50:16Z</time></trkpt><trkpt lat="59.3655025307" lon="34.5295721479"><ele>171.73</ele><time>2026-08-18T11:50:31Z</time></trkpt><trkpt lat="59.3655694183" lon="34.5295244548"><ele>172.21</ele><time>2026-08-18T11:50:47Z</time></trkpt><trkpt lat="59.3656597752" lon="34.5295793563"><ele>172.21</ele><time>2026-08-18T11:51:03Z</time></trkpt><trkpt lat="59.3657749426" lon="34.5296055079"><ele>172.21</ele><time>2026-08-18T11:51:17Z</time></trkpt><trkpt lat="59.3658037763" lon="34.5295884088"><ele>172.21</ele><time>2026-08-18T11:51:32Z</time></trkpt><trkpt lat="59.3658371363" lon="34.5295253769"><ele>172.21</ele><time>2026-08-18T11:51:50Z</time></trkpt><trkpt lat="59.3659523036" lon="34.5295285620"><ele>172.21</ele><time>2026-08-18T11:52:07Z</time></trkpt><trkpt lat="59.3660342786" lon="34.5294993091"><ele>172.21</ele><time>2026-08-18T11:52:23Z</time></trkpt><trkpt lat="59.3661299162" lon="34.5294137299"><ele>171.73</ele><time>2026-08-18T11:52:37Z</time></trkpt><trkpt lat="59.3662180938" lon="34.5293268934"><ele>171.73</ele><time>2026-08-18T11:52:55Z</time></trkpt><trkpt lat="59.3664068542" lon="34.5292911865"><ele>171.73</ele><time>2026-08-18T11:53:11Z</time></trkpt><trkpt lat="59.3666236941" lon="34.5293911826"><ele>171.25</ele><time>2026-08-18T11:53:30Z</time></trkpt><trkpt lat="59.3666956946" lon="34.5294851437"><ele>171.25</ele><time>2026-08-18T11:53:49Z</time></trkpt><trkpt lat="59.3667386100" lon="34.5295216050"><ele>171.25</ele><time>2026-08-18T11:54:05Z</time></trkpt><trkpt lat="59.3667255342" lon="34.5295937732"><ele>171.25</ele><time>2026-08-18T11:54:23Z</time></trkpt><trkpt lat="59.3667146377" lon="34.5296211820"><ele>171.25</ele><time>2026-08-18T11:54:41Z</time></trkpt><trkpt lat="59.3667069264" lon="34.5296543743"><ele>171.25</ele><time>2026-08-18T11:55:10Z</time></trkpt><trkpt lat="59.3666988797" lon="34.5296708867"><ele>171.25</ele><time>2026-08-18T11:55:41Z</time></trkpt><trkpt lat="59.3666695431" lon="34.5297771692"><ele>171.25</ele><time>2026-08-18T11:56:05Z</time></trkpt><trkpt lat="59.3667161465" lon="34.5298505109"><ele>171.73</ele><time>2026-08-18T11:56:28Z</time></trkpt><trkpt lat="59.3667451479" lon="34.5298985392"><ele>171.73</ele><time>2026-08-18T11:56:51Z</time></trkpt><trkpt lat="59.3667718023" lon="34.5299085137"><ele>171.73</ele><time>2026-08-18T11:57:12Z</time></trkpt><trkpt lat="59.3668310624" lon="34.5299629122"><ele>171.73</ele><time>2026-08-18T11:57:29Z</time></trkpt><trkpt lat="59.3668361753" lon="34.5300506707"><ele>171.73</ele><time>2026-08-18T11:57:44Z</time></trkpt><trkpt lat="59.3669329863" lon="34.5304307900"><ele>172.21</ele><time>2026-08-18T11:58:03Z</time></trkpt><trkpt lat="59.3669787515" lon="34.5305958297"><ele>172.21</ele><time>2026-08-18T11:58:21Z</time></trkpt><trkpt lat="59.3670032267" lon="34.5308627095"><ele>172.21</ele><time>2026-08-18T11:58:35Z</time></trkpt><trkpt lat="59.3669890612" lon="34.5310701616"><ele>172.21</ele><time>2026-08-18T11:58:48Z</time></trkpt><trkpt lat="59.3670562003" lon="34.5312397275"><ele>172.21</ele><time>2026-08-18T11:59:01Z</time></trkpt><trkpt lat="59.3671388458" lon="34.5312978141"><ele>172.21</ele><time>2026-08-18T11:59:14Z</time></trkpt><trkpt lat="59.3672193121" lon="34.5314103831"><ele>173.17</ele><time>2026-08-18T11:59:28Z</time></trkpt><trkpt lat="59.3672869541" lon="34.5315279812"><ele>173.17</ele><time>2026-08-18T11:59:42Z</time></trkpt><trkpt lat="59.3673598766" lon="34.5316241216"><ele>173.17</ele><time>2026-08-18T11:59:56Z</time></trkpt><trkpt lat="59.3673506565" lon="34.5316867344"><ele>173.17</ele><time>2026-08-18T12:00:08Z</time></trkpt><trkpt lat="59.3673752155" lon="34.5317371935"><ele>173.17</ele><time>2026-08-18T12:00:21Z</time></trkpt><trkpt lat="59.3674033787" lon="34.5317770913"><ele>172.69</ele><time>2026-08-18T12:00:36Z</time></trkpt><trkpt lat="59.3674746249" lon="34.5318096969"><ele>172.69</ele><time>2026-08-18T12:00:49Z</time></trkpt><trkpt lat="59.3675437756" lon="34.5317839645"><ele>172.69</ele><time>2026-08-18T12:00:57Z</time></trkpt><trkpt lat="59.3677016068" lon="34.5316823758"><ele>172.69</ele><time>2026-08-18T12:01:13Z</time></trkpt><trkpt lat="59.3677733559" lon="34.5314688887"><ele>172.69</ele><time>2026-08-18T12:01:26Z</time></trkpt><trkpt lat="59.3677824922" lon="34.5314397197"><ele>172.69</ele><time>2026-08-18T12:01:39Z</time></trkpt><trkpt lat="59.3677985016" lon="34.5313763525"><ele>172.69</ele><time>2026-08-18T12:01:51Z</time></trkpt><trkpt lat="59.3678246532" lon="34.5312809665"><ele>172.69</ele><time>2026-08-18T12:02:05Z</time></trkpt><trkpt lat="59.3679159321" lon="34.5309796371"><ele>172.21</ele><time>2026-08-18T12:02:21Z</time></trkpt><trkpt lat="59.3679667264" lon="34.5308479574"><ele>172.69</ele><time>2026-08-18T12:02:36Z</time></trkpt><trkpt lat="59.3680276629" lon="34.5308452751"><ele>172.69</ele><time>2026-08-18T12:02:56Z</time></trkpt><trkpt lat="59.3680595979" lon="34.5308284275"><ele>174.14</ele><time>2026-08-18T12:03:17Z</time></trkpt><trkpt lat="59.3680689018" lon="34.5308243204"><ele>173.66</ele><time>2026-08-18T12:03:41Z</time></trkpt><trkpt lat="59.3680860009" lon="34.5308178663"><ele>173.66</ele><time>2026-08-18T12:04:10Z</time></trkpt><trkpt lat="59.3680860847" lon="34.5308193751"><ele>173.66</ele><time>2026-08-18T12:04:39Z</time></trkpt><trkpt lat="59.3680958077" lon="34.5308072213"><ele>173.17</ele><time>2026-08-18T12:05:08Z</time></trkpt><trkpt lat="59.3681046925" lon="34.5308338758"><ele>172.69</ele><time>2026-08-18T12:05:37Z</time></trkpt><trkpt lat="59.3680887669" lon="34.5308715943"><ele>172.69</ele><time>2026-08-18T12:05:58Z</time></trkpt><trkpt lat="59.3680927064" lon="34.5308578480"><ele>172.69</ele><time>2026-08-18T12:06:26Z</time></trkpt><trkpt lat="59.3681015912" lon="34.5307782199"><ele>172.21</ele><time>2026-08-18T12:06:48Z</time></trkpt><trkpt lat="59.3680999149" lon="34.5308917947"><ele>172.21</ele><time>2026-08-18T12:07:11Z</time></trkpt><trkpt lat="59.3681251444" lon="34.5310012624"><ele>172.21</ele><time>2026-08-18T12:07:29Z</time></trkpt><trkpt lat="59.3681015074" lon="34.5310662221"><ele>172.21</ele><time>2026-08-18T12:07:50Z</time></trkpt><trkpt lat="59.3681074586" lon="34.5309594367"><ele>172.21</ele><time>2026-08-18T12:08:10Z</time></trkpt><trkpt lat="59.3681238033" lon="34.5309709199"><ele>172.69</ele><time>2026-08-18T12:08:33Z</time></trkpt><trkpt lat="59.3681353703" lon="34.5309665613"><ele>172.69</ele><time>2026-08-18T12:09:05Z</time></trkpt><trkpt lat="59.3681331910" lon="34.5309486240"><ele>173.17</ele><time>2026-08-18T12:09:33Z</time></trkpt><trkpt lat="59.3681058660" lon="34.5309458580"><ele>173.17</ele><time>2026-08-18T12:09:50Z</time></trkpt><trkpt lat="59.3681306764" lon="34.5309517253"><ele>173.17</ele><time>2026-08-18T12:10:11Z</time></trkpt><trkpt lat="59.3680604361" lon="34.5309228916"><ele>173.17</ele><time>2026-08-18T12:10:16Z</time></trkpt><trkpt lat="59.3680104800" lon="34.5309425052"><ele>174.62</ele><time>2026-08-18T12:10:36Z</time></trkpt><trkpt lat="59.3680274952" lon="34.5308985841"><ele>174.62</ele><time>2026-08-18T12:10:55Z</time></trkpt><trkpt lat="59.3680724222" lon="34.5308784675"><ele>174.62</ele><time>2026-08-18T12:11:12Z</time></trkpt><trkpt lat="59.3680810556" lon="34.5308731869"><ele>174.62</ele><time>2026-08-18T12:11:27Z</time></trkpt><trkpt lat="59.3680878449" lon="34.5308700018"><ele>175.10</ele><time>2026-08-18T12:11:52Z</time></trkpt><trkpt lat="59.3681263179" lon="34.5308946446"><ele>175.10</ele><time>2026-08-18T12:12:15Z</time></trkpt><trkpt lat="59.3681525532" lon="34.5309112407"><ele>175.10</ele><time>2026-08-18T12:12:32Z</time></trkpt><trkpt lat="59.3681657966" lon="34.5309143420"><ele>175.10</ele><time>2026-08-18T12:12:53Z</time></trkpt><trkpt lat="59.3681828957" lon="34.5309080556"><ele>175.58</ele><time>2026-08-18T12:13:24Z</time></trkpt><trkpt lat="59.3681792915" lon="34.5308568422"><ele>175.58</ele><time>2026-08-18T12:13:53Z</time></trkpt><trkpt lat="59.3681999948" lon="34.5308726002"><ele>176.06</ele><time>2026-08-18T12:14:11Z</time></trkpt><trkpt lat="59.3682908546" lon="34.5309061278"><ele>176.06</ele><time>2026-08-18T12:14:34Z</time></trkpt><trkpt lat="59.3682653736" lon="34.5308681577"><ele>176.06</ele><time>2026-08-18T12:15:00Z</time></trkpt><trkpt lat="59.3682201114" lon="34.5308801439"><ele>176.54</ele><time>2026-08-18T12:15:28Z</time></trkpt><trkpt lat="59.3682196084" lon="34.5308580156"><ele>176.54</ele><time>2026-08-18T12:15:51Z</time></trkpt><trkpt lat="59.3681325205" lon="34.5309767872"><ele>176.54</ele><time>2026-08-18T12:16:12Z</time></trkpt><trkpt lat="59.3681017589" lon="34.5310138352"><ele>177.02</ele><time>2026-08-18T12:16:34Z</time></trkpt><trkpt lat="59.3680612743" lon="34.5311129093"><ele>177.02</ele><time>2026-08-18T12:17:02Z</time></trkpt><trkpt lat="59.3680721708" lon="34.5311073773"><ele>177.02</ele><time>2026-08-18T12:17:34Z</time></trkpt><trkpt lat="59.3681269884" lon="34.5310248993"><ele>177.02</ele><time>2026-08-18T12:17:57Z</time></trkpt><trkpt lat="59.3681117333" lon="34.5310178585"><ele>177.02</ele><time>2026-08-18T12:18:21Z</time></trkpt><trkpt lat="59.3680676445" lon="34.5309222210"><ele>177.50</ele><time>2026-08-18T12:18:46Z</time></trkpt><trkpt lat="59.3681005016" lon="34.5309058763"><ele>177.50</ele><time>2026-08-18T12:19:14Z</time></trkpt><trkpt lat="59.3681160919" lon="34.5309462771"><ele>177.50</ele><time>2026-08-18T12:19:41Z</time></trkpt><trkpt lat="59.3681183551" lon="34.5309682377"><ele>177.50</ele><time>2026-08-18T12:20:17Z</time></trkpt><trkpt lat="59.3681369629" lon="34.5309626218"><ele>177.50</ele><time>2026-08-18T12:20:51Z</time></trkpt><trkpt lat="59.3681521341" lon="34.5309688244"><ele>177.50</ele><time>2026-08-18T12:21:22Z</time></trkpt><trkpt lat="59.3681688979" lon="34.5309647173"><ele>177.50</ele><time>2026-08-18T12:21:50Z</time></trkpt><trkpt lat="59.3681706581" lon="34.5309785474"><ele>177.98</ele><time>2026-08-18T12:22:18Z</time></trkpt><trkpt lat="59.3681291677" lon="34.5309695788"><ele>177.98</ele><time>2026-08-18T12:22:41Z</time></trkpt><trkpt lat="59.3680786248" lon="34.5309628733"><ele>177.98</ele><time>2026-08-18T12:23:15Z</time></trkpt><trkpt lat="59.3680804688" lon="34.5309497975"><ele>177.98</ele><time>2026-08-18T12:23:47Z</time></trkpt><trkpt lat="59.3680844083" lon="34.5309509709"><ele>177.98</ele><time>2026-08-18T12:24:15Z</time></trkpt><trkpt lat="59.3680937123" lon="34.5309446007"><ele>177.98</ele><time>2026-08-18T12:24:48Z</time></trkpt><trkpt lat="59.3680932093" lon="34.5309416670"><ele>177.98</ele><time>2026-08-18T12:25:14Z</time></trkpt><trkpt lat="59.3680864200" lon="34.5309300162"><ele>178.46</ele><time>2026-08-18T12:25:45Z</time></trkpt><trkpt lat="59.3680770323" lon="34.5309378114"><ele>178.46</ele><time>2026-08-18T12:26:14Z</time></trkpt><trkpt lat="59.3680877611" lon="34.5309286751"><ele>178.46</ele><time>2026-08-18T12:26:33Z</time></trkpt><trkpt lat="59.3681032676" lon="34.5309368055"><ele>178.46</ele><time>2026-08-18T12:26:56Z</time></trkpt><trkpt lat="59.3681092188" lon="34.5309392363"><ele>175.10</ele><time>2026-08-18T12:26:59Z</time></trkpt><trkpt lat="59.3681375496" lon="34.5309114084"><ele>179.90</ele><time>2026-08-18T12:27:13Z</time></trkpt><trkpt lat="59.3681743462" lon="34.5308801439"><ele>182.31</ele><time>2026-08-18T12:27:17Z</time></trkpt><trkpt lat="59.3682316784" lon="34.5308088139"><ele>178.94</ele><time>2026-08-18T12:27:25Z</time></trkpt><trkpt lat="59.3683217000" lon="34.5307148527"><ele>179.90</ele><time>2026-08-18T12:27:38Z</time></trkpt><trkpt lat="59.3683942873" lon="34.5304864459"><ele>180.38</ele><time>2026-08-18T12:27:51Z</time></trkpt><trkpt lat="59.3684445787" lon="34.5303413551"><ele>180.38</ele><time>2026-08-18T12:28:07Z</time></trkpt><trkpt lat="59.3684940320" lon="34.5302237570"><ele>180.38</ele><time>2026-08-18T12:28:21Z</time></trkpt><trkpt lat="59.3685236201" lon="34.5301661734"><ele>180.38</ele><time>2026-08-18T12:28:37Z</time></trkpt><trkpt lat="59.3685815390" lon="34.5300687756"><ele>180.87</ele><time>2026-08-18T12:28:50Z</time></trkpt><trkpt lat="59.3686580658" lon="34.5298011415"><ele>181.35</ele><time>2026-08-18T12:29:05Z</time></trkpt><trkpt lat="59.3687606603" lon="34.5296197571"><ele>181.35</ele><time>2026-08-18T12:29:21Z</time></trkpt><trkpt lat="59.3688314036" lon="34.5295230299"><ele>181.35</ele><time>2026-08-18T12:29:34Z</time></trkpt><trkpt lat="59.3688736483" lon="34.5294696372"><ele>181.83</ele><time>2026-08-18T12:29:49Z</time></trkpt><trkpt lat="59.3689536117" lon="34.5294320863"><ele>181.83</ele><time>2026-08-18T12:30:03Z</time></trkpt><trkpt lat="59.3690650072" lon="34.5294383727"><ele>181.35</ele><time>2026-08-18T12:30:19Z</time></trkpt><trkpt lat="59.3691598903" lon="34.5293853153"><ele>179.90</ele><time>2026-08-18T12:30:35Z</time></trkpt><trkpt lat="59.3692689389" lon="34.5293581579"><ele>179.90</ele><time>2026-08-18T12:30:53Z</time></trkpt><trkpt lat="59.3693048134" lon="34.5293079503"><ele>179.90</ele><time>2026-08-18T12:31:05Z</time></trkpt><trkpt lat="59.3694002833" lon="34.5291960519"><ele>179.90</ele><time>2026-08-18T12:31:19Z</time></trkpt><trkpt lat="59.3695195578" lon="34.5291338582"><ele>178.46</ele><time>2026-08-18T12:31:33Z</time></trkpt><trkpt lat="59.3696112558" lon="34.5291606802"><ele>178.46</ele><time>2026-08-18T12:31:47Z</time></trkpt><trkpt lat="59.3697345536" lon="34.5292816311"><ele>178.46</ele><time>2026-08-18T12:31:57Z</time></trkpt><trkpt lat="59.3698353879" lon="34.5292699803"><ele>177.98</ele><time>2026-08-18T12:32:11Z</time></trkpt><trkpt lat="59.3699289300" lon="34.5292501990"><ele>177.98</ele><time>2026-08-18T12:32:24Z</time></trkpt><trkpt lat="59.3700513057" lon="34.5293785259"><ele>177.98</ele><time>2026-08-18T12:32:35Z</time></trkpt><trkpt lat="59.3701192830" lon="34.5294445753"><ele>177.98</ele><time>2026-08-18T12:32:48Z</time></trkpt><trkpt lat="59.3701824825" lon="34.5295013208"><ele>177.98</ele><time>2026-08-18T12:32:59Z</time></trkpt><trkpt lat="59.3701877631" lon="34.5295082778"><ele>177.98</ele><time>2026-08-18T12:33:19Z</time></trkpt><trkpt lat="59.3701976538" lon="34.5295417216"><ele>177.50</ele><time>2026-08-18T12:33:37Z</time></trkpt><trkpt lat="59.3702168483" lon="34.5295599941"><ele>177.02</ele><time>2026-08-18T12:34:00Z</time></trkpt><trkpt lat="59.3702325225" lon="34.5295918453"><ele>177.02</ele><time>2026-08-18T12:34:33Z</time></trkpt><trkpt lat="59.3702290021" lon="34.5296221040"><ele>176.54</ele><time>2026-08-18T12:34:56Z</time></trkpt><trkpt lat="59.3702357914" lon="34.5296621695"><ele>176.06</ele><time>2026-08-18T12:35:26Z</time></trkpt><trkpt lat="59.3703375477" lon="34.5297018159"><ele>176.06</ele><time>2026-08-18T12:35:42Z</time></trkpt><trkpt lat="59.3703649566" lon="34.5297255367"><ele>176.06</ele><time>2026-08-18T12:35:52Z</time></trkpt><trkpt lat="59.3704882544" lon="34.5297503471"><ele>176.06</ele><time>2026-08-18T12:36:04Z</time></trkpt><trkpt lat="59.3705900945" lon="34.5297997165"><ele>176.06</ele><time>2026-08-18T12:36:20Z</time></trkpt><trkpt lat="59.3706284836" lon="34.5298452303"><ele>176.06</ele><time>2026-08-18T12:36:31Z</time></trkpt><trkpt lat="59.3707440700" lon="34.5299396943"><ele>177.02</ele><time>2026-08-18T12:36:44Z</time></trkpt><trkpt lat="59.3708199263" lon="34.5300281234"><ele>176.54</ele><time>2026-08-18T12:36:59Z</time></trkpt><trkpt lat="59.3709069304" lon="34.5302205719"><ele>176.54</ele><time>2026-08-18T12:37:11Z</time></trkpt><trkpt lat="59.3709837086" lon="34.5302747190"><ele>176.54</ele><time>2026-08-18T12:37:24Z</time></trkpt><trkpt lat="59.3710560445" lon="34.5303255972"><ele>176.54</ele><time>2026-08-18T12:37:37Z</time></trkpt><trkpt lat="59.3711689487" lon="34.5304018725"><ele>176.54</ele><time>2026-08-18T12:37:49Z</time></trkpt><trkpt lat="59.3711911608" lon="34.5304654073"><ele>176.06</ele><time>2026-08-18T12:38:02Z</time></trkpt><trkpt lat="59.3712585513" lon="34.5305526629"><ele>176.54</ele><time>2026-08-18T12:38:15Z</time></trkpt><trkpt lat="59.3714225851" lon="34.5306536648"><ele>176.06</ele><time>2026-08-18T12:38:30Z</time></trkpt><trkpt lat="59.3715377524" lon="34.5308090653"><ele>176.06</ele><time>2026-08-18T12:38:44Z</time></trkpt><trkpt lat="59.3716351502" lon="34.5310222171"><ele>176.06</ele><time>2026-08-18T12:38:59Z</time></trkpt><trkpt lat="59.3716394249" lon="34.5310502965"><ele>176.06</ele><time>2026-08-18T12:39:01Z</time></trkpt><trkpt lat="59.3716828432" lon="34.5311750192"><ele>176.06</ele><time>2026-08-18T12:39:07Z</time></trkpt><trkpt lat="59.3717675004" lon="34.5312667172"><ele>176.06</ele><time>2026-08-18T12:39:17Z</time></trkpt><trkpt lat="59.3718405068" lon="34.5313762687"><ele>176.06</ele><time>2026-08-18T12:39:28Z</time></trkpt><trkpt lat="59.3718724418" lon="34.5314007439"><ele>176.06</ele><time>2026-08-18T12:39:31Z</time></trkpt><trkpt lat="59.3719162792" lon="34.5314444974"><ele>176.06</ele><time>2026-08-18T12:39:47Z</time></trkpt><trkpt lat="59.3719089031" lon="34.5314444974"><ele>176.06</ele><time>2026-08-18T12:40:11Z</time></trkpt><trkpt lat="59.3719111662" lon="34.5314521249"><ele>176.06</ele><time>2026-08-18T12:40:32Z</time></trkpt><trkpt lat="59.3719186261" lon="34.5314519573"><ele>176.06</ele><time>2026-08-18T12:41:01Z</time></trkpt><trkpt lat="59.3719250802" lon="34.5314530469"><ele>176.54</ele><time>2026-08-18T12:41:27Z</time></trkpt><trkpt lat="59.3719254993" lon="34.5314678829"><ele>176.54</ele><time>2026-08-18T12:41:56Z</time></trkpt><trkpt lat="59.3719604518" lon="34.5315281488"><ele>176.54</ele><time>2026-08-18T12:42:09Z</time></trkpt><trkpt lat="59.3720278423" lon="34.5315822959"><ele>176.54</ele><time>2026-08-18T12:42:22Z</time></trkpt><trkpt lat="59.3720403314" lon="34.5315874927"><ele>176.54</ele><time>2026-08-18T12:42:25Z</time></trkpt><trkpt lat="59.3721558340" lon="34.5316527039"><ele>176.54</ele><time>2026-08-18T12:42:37Z</time></trkpt><trkpt lat="59.3721820693" lon="34.5316889975"><ele>176.54</ele><time>2026-08-18T12:42:41Z</time></trkpt><trkpt lat="59.3722428381" lon="34.5317994710"><ele>176.54</ele><time>2026-08-18T12:42:52Z</time></trkpt><trkpt lat="59.3722882681" lon="34.5319236908"><ele>176.54</ele><time>2026-08-18T12:43:02Z</time></trkpt><trkpt lat="59.3723185267" lon="34.5319935959"><ele>176.54</ele><time>2026-08-18T12:43:11Z</time></trkpt><trkpt lat="59.3723300938" lon="34.5320047438"><ele>176.54</ele><time>2026-08-18T12:43:24Z</time></trkpt><trkpt lat="59.3723300099" lon="34.5320251118"><ele>176.54</ele><time>2026-08-18T12:43:41Z</time></trkpt><trkpt lat="59.3723476119" lon="34.5320561249"><ele>176.54</ele><time>2026-08-18T12:43:54Z</time></trkpt><trkpt lat="59.3723899405" lon="34.5321292989"><ele>176.06</ele><time>2026-08-18T12:44:11Z</time></trkpt><trkpt lat="59.3724823929" lon="34.5321906544"><ele>176.06</ele><time>2026-08-18T12:44:22Z</time></trkpt><trkpt lat="59.3725285772" lon="34.5322225057"><ele>176.06</ele><time>2026-08-18T12:44:27Z</time></trkpt><trkpt lat="59.3725611828" lon="34.5322637446"><ele>176.06</ele><time>2026-08-18T12:44:36Z</time></trkpt><trkpt lat="59.3726015836" lon="34.5323392656"><ele>176.06</ele><time>2026-08-18T12:44:47Z</time></trkpt><trkpt lat="59.3726147432" lon="34.5324269403"><ele>176.06</ele><time>2026-08-18T12:45:02Z</time></trkpt><trkpt lat="59.3726225384" lon="34.5324491523"><ele>176.06</ele><time>2026-08-18T12:45:14Z</time></trkpt><trkpt lat="59.3726573233" lon="34.5325098373"><ele>176.06</ele><time>2026-08-18T12:45:31Z</time></trkpt><trkpt lat="59.3727952894" lon="34.5327300299"><ele>176.06</ele><time>2026-08-18T12:45:44Z</time></trkpt><trkpt lat="59.3728132267" lon="34.5328689180"><ele>176.54</ele><time>2026-08-18T12:45:59Z</time></trkpt><trkpt lat="59.3728146516" lon="34.5329993404"><ele>176.54</ele><time>2026-08-18T12:46:10Z</time></trkpt><trkpt lat="59.3728036713" lon="34.5331079699"><ele>176.54</ele><time>2026-08-18T12:46:22Z</time></trkpt><trkpt lat="59.3728025816" lon="34.5332342014"><ele>176.54</ele><time>2026-08-18T12:46:33Z</time></trkpt><trkpt lat="59.3728385400" lon="34.5334361214"><ele>176.06</ele><time>2026-08-18T12:46:45Z</time></trkpt><trkpt lat="59.3728464190" lon="34.5334466826"><ele>176.06</ele><time>2026-08-18T12:46:46Z</time></trkpt><trkpt lat="59.3728436530" lon="34.5335569046"><ele>176.06</ele><time>2026-08-18T12:47:00Z</time></trkpt><trkpt lat="59.3728601653" lon="34.5335693099"><ele>176.06</ele><time>2026-08-18T12:47:19Z</time></trkpt><trkpt lat="59.3728719000" lon="34.5335888397"><ele>176.06</ele><time>2026-08-18T12:47:50Z</time></trkpt><trkpt lat="59.3728756718" lon="34.5335961320"><ele>176.06</ele><time>2026-08-18T12:48:14Z</time></trkpt><trkpt lat="59.3728724867" lon="34.5336647797"><ele>176.06</ele><time>2026-08-18T12:48:24Z</time></trkpt><trkpt lat="59.3728675414" lon="34.5336841419"><ele>176.06</ele><time>2026-08-18T12:48:36Z</time></trkpt><trkpt lat="59.3729184195" lon="34.5337786898"><ele>176.06</ele><time>2026-08-18T12:48:49Z</time></trkpt><trkpt lat="59.3729514442" lon="34.5338825416"><ele>176.06</ele><time>2026-08-18T12:49:00Z</time></trkpt><trkpt lat="59.3730432261" lon="34.5339941047"><ele>176.06</ele><time>2026-08-18T12:49:10Z</time></trkpt><trkpt lat="59.3731002230" lon="34.5341013093"><ele>176.06</ele><time>2026-08-18T12:49:25Z</time></trkpt><trkpt lat="59.3731144723" lon="34.5341935102"><ele>176.06</ele><time>2026-08-18T12:49:44Z</time></trkpt><trkpt lat="59.3731007259" lon="34.5342750661"><ele>176.06</ele><time>2026-08-18T12:49:54Z</time></trkpt><trkpt lat="59.3731333315" lon="34.5343050733"><ele>176.06</ele><time>2026-08-18T12:50:05Z</time></trkpt><trkpt lat="59.3731553759" lon="34.5342992060"><ele>176.06</ele><time>2026-08-18T12:50:19Z</time></trkpt><trkpt lat="59.3732023984" lon="34.5343003795"><ele>176.06</ele><time>2026-08-18T12:50:34Z</time></trkpt><trkpt lat="59.3732525222" lon="34.5343816001"><ele>176.06</ele><time>2026-08-18T12:50:50Z</time></trkpt><trkpt lat="59.3732474931" lon="34.5344236773"><ele>175.58</ele><time>2026-08-18T12:51:05Z</time></trkpt><trkpt lat="59.3732778355" lon="34.5345904771"><ele>176.06</ele><time>2026-08-18T12:51:22Z</time></trkpt><trkpt lat="59.3733181525" lon="34.5347820036"><ele>176.06</ele><time>2026-08-18T12:51:36Z</time></trkpt><trkpt lat="59.3733870517" lon="34.5350130927"><ele>176.54</ele><time>2026-08-18T12:51:48Z</time></trkpt><trkpt lat="59.3734656740" lon="34.5351434313"><ele>176.54</ele><time>2026-08-18T12:52:01Z</time></trkpt><trkpt lat="59.3735596351" lon="34.5351522323"><ele>177.02</ele><time>2026-08-18T12:52:16Z</time></trkpt><trkpt lat="59.3736208230" lon="34.5351402462"><ele>177.02</ele><time>2026-08-18T12:52:30Z</time></trkpt><trkpt lat="59.3736791611" lon="34.5351373125"><ele>176.54</ele><time>2026-08-18T12:52:43Z</time></trkpt><trkpt lat="59.3736248463" lon="34.5351364743"><ele>176.54</ele><time>2026-08-18T12:52:56Z</time></trkpt><trkpt lat="59.3736414425" lon="34.5351481251"><ele>176.54</ele><time>2026-08-18T12:53:10Z</time></trkpt><trkpt lat="59.3737257645" lon="34.5351021923"><ele>176.54</ele><time>2026-08-18T12:53:26Z</time></trkpt><trkpt lat="59.3737734575" lon="34.5351094007"><ele>176.54</ele><time>2026-08-18T12:53:39Z</time></trkpt><trkpt lat="59.3738124333" lon="34.5351556689"><ele>175.58</ele><time>2026-08-18T12:53:54Z</time></trkpt><trkpt lat="59.3738745432" lon="34.5352667291"><ele>175.58</ele><time>2026-08-18T12:54:05Z</time></trkpt><trkpt lat="59.3739122618" lon="34.5353932120"><ele>175.58</ele><time>2026-08-18T12:54:20Z</time></trkpt><trkpt lat="59.3739445321" lon="34.5354409888"><ele>176.54</ele><time>2026-08-18T12:54:29Z</time></trkpt><trkpt lat="59.3739649840" lon="34.5354665536"><ele>176.54</ele><time>2026-08-18T12:54:52Z</time></trkpt><trkpt lat="59.3740213104" lon="34.5355529711"><ele>176.54</ele><time>2026-08-18T12:55:14Z</time></trkpt><trkpt lat="59.3740100786" lon="34.5355482772"><ele>176.54</ele><time>2026-08-18T12:55:40Z</time></trkpt><trkpt lat="59.3740645610" lon="34.5355752669"><ele>176.54</ele><time>2026-08-18T12:56:06Z</time></trkpt><trkpt lat="59.3740573525" lon="34.5356278215"><ele>176.54</ele><time>2026-08-18T12:56:33Z</time></trkpt><trkpt lat="59.3739933986" lon="34.5356551465"><ele>176.54</ele><time>2026-08-18T12:57:02Z</time></trkpt><trkpt lat="59.3740369845" lon="34.5356625225"><ele>176.54</ele><time>2026-08-18T12:57:17Z</time></trkpt><trkpt lat="59.3740879465" lon="34.5356532186"><ele>176.54</ele><time>2026-08-18T12:57:30Z</time></trkpt><trkpt lat="59.3741726875" lon="34.5357494429"><ele>177.50</ele><time>2026-08-18T12:57:43Z</time></trkpt><trkpt lat="59.3742904533" lon="34.5358996466"><ele>177.50</ele><time>2026-08-18T12:58:00Z</time></trkpt><trkpt lat="59.3744100630" lon="34.5359281451"><ele>176.54</ele><time>2026-08-18T12:58:15Z</time></trkpt><trkpt lat="59.3745232187" lon="34.5360783488"><ele>176.54</ele><time>2026-08-18T12:58:29Z</time></trkpt><trkpt lat="59.3745988235" lon="34.5361219347"><ele>175.58</ele><time>2026-08-18T12:58:43Z</time></trkpt><trkpt lat="59.3747186009" lon="34.5363256987"><ele>175.10</ele><time>2026-08-18T12:58:56Z</time></trkpt><trkpt lat="59.3747517932" lon="34.5365234278"><ele>175.58</ele><time>2026-08-18T12:59:11Z</time></trkpt><trkpt lat="59.3747888412" lon="34.5366818458"><ele>175.58</ele><time>2026-08-18T12:59:24Z</time></trkpt><trkpt lat="59.3748416472" lon="34.5369011164"><ele>175.58</ele><time>2026-08-18T12:59:40Z</time></trkpt><trkpt lat="59.3748304155" lon="34.5370408427"><ele>175.58</ele><time>2026-08-18T12:59:55Z</time></trkpt><trkpt lat="59.3747877516" lon="34.5373304375"><ele>175.58</ele><time>2026-08-18T13:00:09Z</time></trkpt><trkpt lat="59.3747629412" lon="34.5374961477"><ele>175.58</ele><time>2026-08-18T13:00:25Z</time></trkpt><trkpt lat="59.3747657910" lon="34.5376347005"><ele>175.58</ele><time>2026-08-18T13:00:40Z</time></trkpt><trkpt lat="59.3747447524" lon="34.5378592517"><ele>175.58</ele><time>2026-08-18T13:00:52Z</time></trkpt><trkpt lat="59.3747180980" lon="34.5380978845"><ele>175.58</ele><time>2026-08-18T13:01:07Z</time></trkpt><trkpt lat="59.3746667169" lon="34.5382506866"><ele>175.58</ele><time>2026-08-18T13:01:21Z</time></trkpt><trkpt lat="59.3746674713" lon="34.5383973699"><ele>175.58</ele><time>2026-08-18T13:01:34Z</time></trkpt><trkpt lat="59.3747325148" lon="34.5387001242"><ele>175.58</ele><time>2026-08-18T13:01:50Z</time></trkpt><trkpt lat="59.3748056050" lon="34.5388710313"><ele>175.58</ele><time>2026-08-18T13:01:59Z</time></trkpt><trkpt lat="59.3748476822" lon="34.5392356440"><ele>175.58</ele><time>2026-08-18T13:02:13Z</time></trkpt><trkpt lat="59.3748272303" lon="34.5393791422"><ele>175.58</ele><time>2026-08-18T13:02:25Z</time></trkpt><trkpt lat="59.3748404738" lon="34.5394249912"><ele>175.58</ele><time>2026-08-18T13:02:47Z</time></trkpt><trkpt lat="59.3748376239" lon="34.5394670684"><ele>175.58</ele><time>2026-08-18T13:03:07Z</time></trkpt><trkpt lat="59.3748473469" lon="34.5394744445"><ele>175.58</ele><time>2026-08-18T13:03:39Z</time></trkpt><trkpt lat="59.3748564832" lon="34.5394847542"><ele>176.06</ele><time>2026-08-18T13:04:06Z</time></trkpt><trkpt lat="59.3748657033" lon="34.5394739415"><ele>176.06</ele><time>2026-08-18T13:04:33Z</time></trkpt><trkpt lat="59.3748652004" lon="34.5394642185"><ele>176.06</ele><time>2026-08-18T13:04:59Z</time></trkpt><trkpt lat="59.3748631887" lon="34.5394678228"><ele>176.06</ele><time>2026-08-18T13:05:23Z</time></trkpt><trkpt lat="59.3748657033" lon="34.5394803118"><ele>176.06</ele><time>2026-08-18T13:05:47Z</time></trkpt><trkpt lat="59.3748731632" lon="34.5394901186"><ele>176.06</ele><time>2026-08-18T13:06:20Z</time></trkpt><trkpt lat="59.3748826347" lon="34.5394913759"><ele>176.06</ele><time>2026-08-18T13:06:48Z</time></trkpt><trkpt lat="59.3748787791" lon="34.5394846704"><ele>176.06</ele><time>2026-08-18T13:07:16Z</time></trkpt><trkpt lat="59.3748817127" lon="34.5394923817"><ele>176.06</ele><time>2026-08-18T13:07:38Z</time></trkpt><trkpt lat="59.3749149889" lon="34.5395781286"><ele>176.06</ele><time>2026-08-18T13:07:52Z</time></trkpt><trkpt lat="59.3749979697" lon="34.5396381430"><ele>176.06</ele><time>2026-08-18T13:08:05Z</time></trkpt><trkpt lat="59.3750970438" lon="34.5396927930"><ele>176.06</ele><time>2026-08-18T13:08:19Z</time></trkpt><trkpt lat="59.3751449045" lon="34.5397368819"><ele>176.06</ele><time>2026-08-18T13:08:28Z</time></trkpt><trkpt lat="59.3751645181" lon="34.5397589263"><ele>176.06</ele><time>2026-08-18T13:08:30Z</time></trkpt><trkpt lat="59.3752059247" lon="34.5398243889"><ele>176.06</ele><time>2026-08-18T13:08:37Z</time></trkpt><trkpt lat="59.3752298970" lon="34.5399079565"><ele>175.58</ele><time>2026-08-18T13:08:44Z</time></trkpt><trkpt lat="59.3752312381" lon="34.5400440786"><ele>175.58</ele><time>2026-08-18T13:08:57Z</time></trkpt><trkpt lat="59.3752795178" lon="34.5400931966"><ele>175.58</ele><time>2026-08-18T13:09:08Z</time></trkpt><trkpt lat="59.3753153086" lon="34.5400927775"><ele>175.58</ele><time>2026-08-18T13:09:20Z</time></trkpt><trkpt lat="59.3753197510" lon="34.5402352698"><ele>175.58</ele><time>2026-08-18T13:09:32Z</time></trkpt><trkpt lat="59.3752882350" lon="34.5403556339"><ele>175.58</ele><time>2026-08-18T13:09:42Z</time></trkpt><trkpt lat="59.3752633408" lon="34.5404184144"><ele>175.58</ele><time>2026-08-18T13:09:47Z</time></trkpt><trkpt lat="59.3752129655" lon="34.5405507647"><ele>175.58</ele><time>2026-08-18T13:09:59Z</time></trkpt><trkpt lat="59.3752224371" lon="34.5406169817"><ele>175.58</ele><time>2026-08-18T13:10:09Z</time></trkpt><trkpt lat="59.3752082717" lon="34.5406238548"><ele>175.58</ele><time>2026-08-18T13:10:22Z</time></trkpt><trkpt lat="59.3752023205" lon="34.5406196639"><ele>175.10</ele><time>2026-08-18T13:10:42Z</time></trkpt><trkpt lat="59.3751919270" lon="34.5406417921"><ele>175.10</ele><time>2026-08-18T13:10:59Z</time></trkpt><trkpt lat="59.3751883227" lon="34.5406402834"><ele>175.10</ele><time>2026-08-18T13:11:11Z</time></trkpt><trkpt lat="59.3752303999" lon="34.5407019742"><ele>175.10</ele><time>2026-08-18T13:11:26Z</time></trkpt><trkpt lat="59.3752257060" lon="34.5407219231"><ele>175.10</ele><time>2026-08-18T13:11:39Z</time></trkpt><trkpt lat="59.3752336688" lon="34.5407610666"><ele>175.10</ele><time>2026-08-18T13:11:55Z</time></trkpt><trkpt lat="59.3752445653" lon="34.5407760702"><ele>175.10</ele><time>2026-08-18T13:12:08Z</time></trkpt><trkpt lat="59.3752494268" lon="34.5407858770"><ele>175.10</ele><time>2026-08-18T13:12:25Z</time></trkpt><trkpt lat="59.3752541207" lon="34.5408233441"><ele>175.10</ele><time>2026-08-18T13:12:41Z</time></trkpt><trkpt lat="59.3752624188" lon="34.5409599692"><ele>175.10</ele><time>2026-08-18T13:12:55Z</time></trkpt><trkpt lat="59.3753057532" lon="34.5412250049"><ele>175.58</ele><time>2026-08-18T13:13:11Z</time></trkpt><trkpt lat="59.3753065076" lon="34.5414279308"><ele>176.54</ele><time>2026-08-18T13:13:24Z</time></trkpt><trkpt lat="59.3753745686" lon="34.5416762028"><ele>176.54</ele><time>2026-08-18T13:13:43Z</time></trkpt><trkpt lat="59.3754415400" lon="34.5419217926"><ele>176.54</ele><time>2026-08-18T13:13:57Z</time></trkpt><trkpt lat="59.3754951842" lon="34.5420718286"><ele>176.54</ele><time>2026-08-18T13:14:10Z</time></trkpt><trkpt lat="59.3755424581" lon="34.5422538836"><ele>176.54</ele><time>2026-08-18T13:14:27Z</time></trkpt><trkpt lat="59.3755569588" lon="34.5423348527"><ele>176.54</ele><time>2026-08-18T13:14:41Z</time></trkpt><trkpt lat="59.3756177276" lon="34.5426377747"><ele>176.54</ele><time>2026-08-18T13:14:56Z</time></trkpt><trkpt lat="59.3756317254" lon="34.5427470747"><ele>176.54</ele><time>2026-08-18T13:15:08Z</time></trkpt><trkpt lat="59.3756237626" lon="34.5429336559"><ele>176.06</ele><time>2026-08-18T13:15:22Z</time></trkpt><trkpt lat="59.3756009638" lon="34.5431494061"><ele>176.06</ele><time>2026-08-18T13:15:36Z</time></trkpt><trkpt lat="59.3756249361" lon="34.5433852728"><ele>176.06</ele><time>2026-08-18T13:15:50Z</time></trkpt><trkpt lat="59.3756750599" lon="34.5436475426"><ele>176.06</ele><time>2026-08-18T13:16:06Z</time></trkpt><trkpt lat="59.3756777421" lon="34.5438143425"><ele>176.06</ele><time>2026-08-18T13:16:20Z</time></trkpt><trkpt lat="59.3756809272" lon="34.5438378956"><ele>176.54</ele><time>2026-08-18T13:16:38Z</time></trkpt><trkpt lat="59.3757064920" lon="34.5441593416"><ele>176.54</ele><time>2026-08-18T13:16:54Z</time></trkpt><trkpt lat="59.3756322283" lon="34.5443323441"><ele>176.54</ele><time>2026-08-18T13:17:05Z</time></trkpt><trkpt lat="59.3756276183" lon="34.5444907621"><ele>175.58</ele><time>2026-08-18T13:17:18Z</time></trkpt><trkpt lat="59.3756339885" lon="34.5445337612"><ele>175.10</ele><time>2026-08-18T13:17:29Z</time></trkpt><trkpt lat="59.3756738026" lon="34.5447769202"><ele>175.10</ele><time>2026-08-18T13:17:44Z</time></trkpt><trkpt lat="59.3756784964" lon="34.5448574703"><ele>175.10</ele><time>2026-08-18T13:18:00Z</time></trkpt><trkpt lat="59.3755779136" lon="34.5449446421"><ele>175.10</ele><time>2026-08-18T13:18:17Z</time></trkpt><trkpt lat="59.3755054101" lon="34.5450632460"><ele>175.10</ele><time>2026-08-18T13:18:29Z</time></trkpt><trkpt lat="59.3754841201" lon="34.5451223385"><ele>175.10</ele><time>2026-08-18T13:18:42Z</time></trkpt><trkpt lat="59.3754777499" lon="34.5450902358"><ele>175.10</ele><time>2026-08-18T13:18:55Z</time></trkpt><trkpt lat="59.3754629977" lon="34.5450890623"><ele>175.58</ele><time>2026-08-18T13:19:15Z</time></trkpt><trkpt lat="59.3754222617" lon="34.5452523418"><ele>175.58</ele><time>2026-08-18T13:19:27Z</time></trkpt><trkpt lat="59.3753642589" lon="34.5453466382"><ele>175.58</ele><time>2026-08-18T13:19:38Z</time></trkpt><trkpt lat="59.3753683660" lon="34.5453672577"><ele>175.58</ele><time>2026-08-18T13:19:59Z</time></trkpt><trkpt lat="59.3753545359" lon="34.5454335585"><ele>175.10</ele><time>2026-08-18T13:20:23Z</time></trkpt><trkpt lat="59.3753573857" lon="34.5454540942"><ele>174.62</ele><time>2026-08-18T13:20:52Z</time></trkpt><trkpt lat="59.3753502611" lon="34.5454529207"><ele>174.62</ele><time>2026-08-18T13:21:17Z</time></trkpt><trkpt lat="59.3753551226" lon="34.5454638172"><ele>174.62</ele><time>2026-08-18T13:21:43Z</time></trkpt><trkpt lat="59.3753615767" lon="34.5454487298"><ele>175.10</ele><time>2026-08-18T13:22:08Z</time></trkpt><trkpt lat="59.3753675278" lon="34.5454948302"><ele>175.10</ele><time>2026-08-18T13:22:29Z</time></trkpt><trkpt lat="59.3752884027" lon="34.5455509052"><ele>175.10</ele><time>2026-08-18T13:22:41Z</time></trkpt><trkpt lat="59.3752557971" lon="34.5455560181"><ele>175.10</ele><time>2026-08-18T13:22:43Z</time></trkpt><trkpt lat="59.3751570582" lon="34.5455918089"><ele>175.10</ele><time>2026-08-18T13:22:56Z</time></trkpt><trkpt lat="59.3750958703" lon="34.5456888713"><ele>175.10</ele><time>2026-08-18T13:23:10Z</time></trkpt><trkpt lat="59.3750174996" lon="34.5457007736"><ele>175.10</ele><time>2026-08-18T13:23:23Z</time></trkpt><trkpt lat="59.3749866541" lon="34.5457673259"><ele>175.10</ele><time>2026-08-18T13:23:35Z</time></trkpt><trkpt lat="59.3749743327" lon="34.5457993448"><ele>175.10</ele><time>2026-08-18T13:23:48Z</time></trkpt><trkpt lat="59.3748815451" lon="34.5458947308"><ele>175.10</ele><time>2026-08-18T13:23:58Z</time></trkpt><trkpt lat="59.3748185970" lon="34.5459940564"><ele>175.10</ele><time>2026-08-18T13:24:12Z</time></trkpt><trkpt lat="59.3747448362" lon="34.5460703317"><ele>175.10</ele><time>2026-08-18T13:24:22Z</time></trkpt><trkpt lat="59.3746889289" lon="34.5461338665"><ele>175.10</ele><time>2026-08-18T13:24:33Z</time></trkpt><trkpt lat="59.3746577483" lon="34.5461825654"><ele>175.10</ele><time>2026-08-18T13:24:41Z</time></trkpt><trkpt lat="59.3745415751" lon="34.5462559070"><ele>175.10</ele><time>2026-08-18T13:24:54Z</time></trkpt><trkpt lat="59.3745259009" lon="34.5462542307"><ele>175.10</ele><time>2026-08-18T13:25:08Z</time></trkpt><trkpt lat="59.3744382262" lon="34.5463396423"><ele>175.10</ele><time>2026-08-18T13:25:27Z</time></trkpt><trkpt lat="59.3743484560" lon="34.5464916062"><ele>175.10</ele><time>2026-08-18T13:25:41Z</time></trkpt><trkpt lat="59.3742228951" lon="34.5465381257"><ele>175.10</ele><time>2026-08-18T13:25:54Z</time></trkpt><trkpt lat="59.3741508108" lon="34.5465376228"><ele>175.10</ele><time>2026-08-18T13:26:05Z</time></trkpt><trkpt lat="59.3741210550" lon="34.5464878343"><ele>175.10</ele><time>2026-08-18T13:26:14Z</time></trkpt><trkpt lat="59.3740651477" lon="34.5464641973"><ele>175.10</ele><time>2026-08-18T13:26:26Z</time></trkpt><trkpt lat="59.3739853520" lon="34.5465135667"><ele>175.10</ele><time>2026-08-18T13:26:36Z</time></trkpt><trkpt lat="59.3739268463" lon="34.5465171710"><ele>175.10</ele><time>2026-08-18T13:26:48Z</time></trkpt><trkpt lat="59.3738367409" lon="34.5465319231"><ele>175.10</ele><time>2026-08-18T13:27:00Z</time></trkpt><trkpt lat="59.3737944122" lon="34.5465415623"><ele>174.62</ele><time>2026-08-18T13:27:07Z</time></trkpt><trkpt lat="59.3737167120" lon="34.5465725753"><ele>174.62</ele><time>2026-08-18T13:27:20Z</time></trkpt><trkpt lat="59.3736368325" lon="34.5466647763"><ele>174.62</ele><time>2026-08-18T13:27:35Z</time></trkpt><trkpt lat="59.3735725433" lon="34.5467986353"><ele>174.62</ele><time>2026-08-18T13:27:52Z</time></trkpt><trkpt lat="59.3735198211" lon="34.5468378626"><ele>174.62</ele><time>2026-08-18T13:28:03Z</time></trkpt><trkpt lat="59.3734650034" lon="34.5469210949"><ele>174.62</ele><time>2026-08-18T13:28:16Z</time></trkpt><trkpt lat="59.3733867165" lon="34.5468894951"><ele>174.62</ele><time>2026-08-18T13:28:26Z</time></trkpt><trkpt lat="59.3733101897" lon="34.5469149761"><ele>174.62</ele><time>2026-08-18T13:28:39Z</time></trkpt><trkpt lat="59.3732444756" lon="34.5469472464"><ele>174.62</ele><time>2026-08-18T13:28:52Z</time></trkpt><trkpt lat="59.3732048292" lon="34.5470171515"><ele>174.62</ele><time>2026-08-18T13:29:00Z</time></trkpt><trkpt lat="59.3731052522" lon="34.5471091848"><ele>174.62</ele><time>2026-08-18T13:29:12Z</time></trkpt><trkpt lat="59.3730658572" lon="34.5471400302"><ele>174.62</ele><time>2026-08-18T13:29:17Z</time></trkpt><trkpt lat="59.3729948625" lon="34.5472848695"><ele>174.62</ele><time>2026-08-18T13:29:29Z</time></trkpt><trkpt lat="59.3730201758" lon="34.5472230949"><ele>174.62</ele><time>2026-08-18T13:29:48Z</time></trkpt><trkpt lat="59.3730092794" lon="34.5472027268"><ele>174.14</ele><time>2026-08-18T13:30:05Z</time></trkpt><trkpt lat="59.3729949463" lon="34.5472797565"><ele>174.14</ele><time>2026-08-18T13:30:21Z</time></trkpt><trkpt lat="59.3729957845" lon="34.5472854562"><ele>174.14</ele><time>2026-08-18T13:30:42Z</time></trkpt><trkpt lat="59.3729817029" lon="34.5472810976"><ele>174.14</ele><time>2026-08-18T13:31:01Z</time></trkpt><trkpt lat="59.3729136419" lon="34.5473037288"><ele>174.14</ele><time>2026-08-18T13:31:11Z</time></trkpt><trkpt lat="59.3728631828" lon="34.5474197343"><ele>174.14</ele><time>2026-08-18T13:31:26Z</time></trkpt><trkpt lat="59.3727837224" lon="34.5474986918"><ele>174.14</ele><time>2026-08-18T13:31:39Z</time></trkpt><trkpt lat="59.3727194332" lon="34.5475424454"><ele>174.14</ele><time>2026-08-18T13:31:49Z</time></trkpt><trkpt lat="59.3726709019" lon="34.5476048067"><ele>174.14</ele><time>2026-08-18T13:32:00Z</time></trkpt><trkpt lat="59.3726685550" lon="34.5476022922"><ele>174.14</ele><time>2026-08-18T13:32:01Z</time></trkpt><trkpt lat="59.3726621009" lon="34.5476260968"><ele>174.14</ele><time>2026-08-18T13:32:06Z</time></trkpt><trkpt lat="59.3725868315" lon="34.5476157032"><ele>174.14</ele><time>2026-08-18T13:32:16Z</time></trkpt><trkpt lat="59.3725215364" lon="34.5475655794"><ele>174.14</ele><time>2026-08-18T13:32:30Z</time></trkpt><trkpt lat="59.3725122325" lon="34.5475158747"><ele>174.14</ele><time>2026-08-18T13:32:47Z</time></trkpt><trkpt lat="59.3725134060" lon="34.5475334767"><ele>173.66</ele><time>2026-08-18T13:33:05Z</time></trkpt><trkpt lat="59.3725015875" lon="34.5475024637"><ele>173.66</ele><time>2026-08-18T13:33:27Z</time></trkpt><trkpt lat="59.3725073710" lon="34.5475055650"><ele>173.66</ele><time>2026-08-18T13:33:44Z</time></trkpt><trkpt lat="59.3724961393" lon="34.5474897232"><ele>173.66</ele><time>2026-08-18T13:34:08Z</time></trkpt><trkpt lat="59.3725082930" lon="34.5475147851"><ele>173.66</ele><time>2026-08-18T13:34:28Z</time></trkpt><trkpt lat="59.3725168426" lon="34.5475390926"><ele>173.66</ele><time>2026-08-18T13:34:55Z</time></trkpt><trkpt lat="59.3725237157" lon="34.5475499891"><ele>174.14</ele><time>2026-08-18T13:35:20Z</time></trkpt><trkpt lat="59.3725254759" lon="34.5475559402"><ele>174.14</ele><time>2026-08-18T13:35:48Z</time></trkpt><trkpt lat="59.3725326844" lon="34.5475638192"><ele>174.14</ele><time>2026-08-18T13:36:18Z</time></trkpt><trkpt lat="59.3725357857" lon="34.5475750510"><ele>174.14</ele><time>2026-08-18T13:36:52Z</time></trkpt><trkpt lat="59.3725214526" lon="34.5475641545"><ele>174.14</ele><time>2026-08-18T13:37:22Z</time></trkpt><trkpt lat="59.3725113105" lon="34.5475500729"><ele>174.14</ele><time>2026-08-18T13:37:55Z</time></trkpt><trkpt lat="59.3725204468" lon="34.5475461334"><ele>174.62</ele><time>2026-08-18T13:38:23Z</time></trkpt><trkpt lat="59.3725292478" lon="34.5475425292"><ele>174.62</ele><time>2026-08-18T13:38:56Z</time></trkpt><trkpt lat="59.3725289125" lon="34.5475342311"><ele>174.62</ele><time>2026-08-18T13:39:25Z</time></trkpt><trkpt lat="59.3725245539" lon="34.5475309622"><ele>174.62</ele><time>2026-08-18T13:39:52Z</time></trkpt><trkpt lat="59.3725237157" lon="34.5475211553"><ele>174.62</ele><time>2026-08-18T13:40:20Z</time></trkpt><trkpt lat="59.3725248054" lon="34.5475249272"><ele>175.10</ele><time>2026-08-18T13:40:56Z</time></trkpt><trkpt lat="59.3725213688" lon="34.5475341473"><ele>175.10</ele><time>2026-08-18T13:41:29Z</time></trkpt><trkpt lat="59.3725137413" lon="34.5475426130"><ele>175.10</ele><time>2026-08-18T13:42:00Z</time></trkpt><trkpt lat="59.3725103047" lon="34.5475416910"><ele>175.10</ele><time>2026-08-18T13:42:34Z</time></trkpt><trkpt lat="59.3725078739" lon="34.5475513302"><ele>175.58</ele><time>2026-08-18T13:43:08Z</time></trkpt><trkpt lat="59.3725084607" lon="34.5475494023"><ele>175.58</ele><time>2026-08-18T13:43:40Z</time></trkpt><trkpt lat="59.3725103047" lon="34.5475378353"><ele>175.58</ele><time>2026-08-18T13:44:08Z</time></trkpt><trkpt lat="59.3725124840" lon="34.5475309622"><ele>175.58</ele><time>2026-08-18T13:44:39Z</time></trkpt><trkpt lat="59.3725223746" lon="34.5475282799"><ele>176.06</ele><time>2026-08-18T13:45:13Z</time></trkpt><trkpt lat="59.3725219555" lon="34.5475330576"><ele>176.06</ele><time>2026-08-18T13:45:50Z</time></trkpt><trkpt lat="59.3725065328" lon="34.5475532580"><ele>176.06</ele><time>2026-08-18T13:46:25Z</time></trkpt><trkpt lat="59.3725005817" lon="34.5475446247"><ele>176.06</ele><time>2026-08-18T13:47:01Z</time></trkpt><trkpt lat="59.3725017551" lon="34.5475415234"><ele>176.54</ele><time>2026-08-18T13:47:35Z</time></trkpt><trkpt lat="59.3725013360" lon="34.5475434512"><ele>176.54</ele><time>2026-08-18T13:48:01Z</time></trkpt><trkpt lat="59.3725009169" lon="34.5475491509"><ele>176.54</ele><time>2026-08-18T13:48:30Z</time></trkpt><trkpt lat="59.3725080416" lon="34.5475682616"><ele>176.54</ele><time>2026-08-18T13:48:58Z</time></trkpt><trkpt lat="59.3725086283" lon="34.5475734584"><ele>176.54</ele><time>2026-08-18T13:49:27Z</time></trkpt><trkpt lat="59.3725094665" lon="34.5475752186"><ele>177.02</ele><time>2026-08-18T13:49:51Z</time></trkpt><trkpt lat="59.3725108076" lon="34.5475787390"><ele>177.02</ele><time>2026-08-18T13:50:19Z</time></trkpt><trkpt lat="59.3725120649" lon="34.5475701895"><ele>177.02</ele><time>2026-08-18T13:50:38Z</time></trkpt><trkpt lat="59.3725124002" lon="34.5475661661"><ele>177.02</ele><time>2026-08-18T13:51:08Z</time></trkpt><trkpt lat="59.3725109752" lon="34.5475562755"><ele>177.02</ele><time>2026-08-18T13:51:27Z</time></trkpt><trkpt lat="59.3725161720" lon="34.5475478936"><ele>177.02</ele><time>2026-08-18T13:51:49Z</time></trkpt><trkpt lat="59.3725139927" lon="34.5475471392"><ele>177.50</ele><time>2026-08-18T13:52:05Z</time></trkpt><trkpt lat="59.3725022580" lon="34.5475766435"><ele>177.50</ele><time>2026-08-18T13:52:22Z</time></trkpt><trkpt lat="59.3724611029" lon="34.5476108417"><ele>177.50</ele><time>2026-08-18T13:52:37Z</time></trkpt><trkpt lat="59.3723882642" lon="34.5477098320"><ele>177.50</ele><time>2026-08-18T13:52:50Z</time></trkpt><trkpt lat="59.3723608553" lon="34.5478509832"><ele>177.50</ele><time>2026-08-18T13:53:04Z</time></trkpt><trkpt lat="59.3721388187" lon="34.5479451958"><ele>177.50</ele><time>2026-08-18T13:53:20Z</time></trkpt><trkpt lat="59.3720420916" lon="34.5480210520"><ele>177.50</ele><time>2026-08-18T13:53:33Z</time></trkpt><trkpt lat="59.3719591107" lon="34.5480907056"><ele>177.50</ele><time>2026-08-18T13:53:47Z</time></trkpt><trkpt lat="59.3717415165" lon="34.5480971597"><ele>177.50</ele><time>2026-08-18T13:53:58Z</time></trkpt><trkpt lat="59.3716844358" lon="34.5482041128"><ele>177.50</ele><time>2026-08-18T13:54:11Z</time></trkpt><trkpt lat="59.3715961743" lon="34.5483530592"><ele>177.50</ele><time>2026-08-18T13:54:23Z</time></trkpt><trkpt lat="59.3715460505" lon="34.5485091303"><ele>177.50</ele><time>2026-08-18T13:54:38Z</time></trkpt><trkpt lat="59.3713867106" lon="34.5486811269"><ele>177.50</ele><time>2026-08-18T13:54:53Z</time></trkpt><trkpt lat="59.3712697830" lon="34.5488577336"><ele>177.50</ele><time>2026-08-18T13:55:09Z</time></trkpt><trkpt lat="59.3712132052" lon="34.5491104480"><ele>177.50</ele><time>2026-08-18T13:55:25Z</time></trkpt><trkpt lat="59.3711857963" lon="34.5492166467"><ele>177.02</ele><time>2026-08-18T13:55:39Z</time></trkpt><trkpt lat="59.3711676914" lon="34.5493482426"><ele>177.02</ele><time>2026-08-18T13:55:52Z</time></trkpt><trkpt lat="59.3711474910" lon="34.5495223347"><ele>177.02</ele><time>2026-08-18T13:56:06Z</time></trkpt><trkpt lat="59.3711051624" lon="34.5497091673"><ele>177.02</ele><time>2026-08-18T13:56:20Z</time></trkpt><trkpt lat="59.3709731475" lon="34.5498655736"><ele>177.02</ele><time>2026-08-18T13:56:31Z</time></trkpt><trkpt lat="59.3708972912" lon="34.5500307810"><ele>177.02</ele><time>2026-08-18T13:56:43Z</time></trkpt><trkpt lat="59.3708035816" lon="34.5500838384"><ele>176.54</ele><time>2026-08-18T13:56:54Z</time></trkpt><trkpt lat="59.3707226124" lon="34.5502302703"><ele>176.54</ele><time>2026-08-18T13:57:09Z</time></trkpt><trkpt lat="59.3706739135" lon="34.5503379777"><ele>176.54</ele><time>2026-08-18T13:57:21Z</time></trkpt><trkpt lat="59.3706252985" lon="34.5504371356"><ele>176.54</ele><time>2026-08-18T13:57:34Z</time></trkpt><trkpt lat="59.3706142344" lon="34.5505524706"><ele>176.06</ele><time>2026-08-18T13:57:48Z</time></trkpt><trkpt lat="59.3704443332" lon="34.5505906921"><ele>176.06</ele><time>2026-08-18T13:58:02Z</time></trkpt><trkpt lat="59.3703927845" lon="34.5506268181"><ele>176.06</ele><time>2026-08-18T13:58:12Z</time></trkpt><trkpt lat="59.3703844864" lon="34.5506259799"><ele>176.06</ele><time>2026-08-18T13:58:13Z</time></trkpt><trkpt lat="59.3702954706" lon="34.5506210346"><ele>175.58</ele><time>2026-08-18T13:58:28Z</time></trkpt><trkpt lat="59.3702993263" lon="34.5506309252"><ele>175.58</ele><time>2026-08-18T13:58:44Z</time></trkpt><trkpt lat="59.3702701572" lon="34.5505787060"><ele>175.58</ele><time>2026-08-18T13:59:05Z</time></trkpt><trkpt lat="59.3702879269" lon="34.5505938772"><ele>174.62</ele><time>2026-08-18T13:59:32Z</time></trkpt><trkpt lat="59.3702922016" lon="34.5506158378"><ele>174.62</ele><time>2026-08-18T13:59:58Z</time></trkpt><trkpt lat="59.3702875916" lon="34.5506081264"><ele>174.62</ele><time>2026-08-18T14:00:29Z</time></trkpt><trkpt lat="59.3702928722" lon="34.5506044384"><ele>174.62</ele><time>2026-08-18T14:00:57Z</time></trkpt><trkpt lat="59.3702977337" lon="34.5506237168"><ele>174.62</ele><time>2026-08-18T14:01:15Z</time></trkpt><trkpt lat="59.3703020085" lon="34.5508040953"><ele>174.62</ele><time>2026-08-18T14:01:28Z</time></trkpt><trkpt lat="59.3702912796" lon="34.5510386210"><ele>174.62</ele><time>2026-08-18T14:01:44Z</time></trkpt><trkpt lat="59.3703268189" lon="34.5512702130"><ele>174.62</ele><time>2026-08-18T14:01:57Z</time></trkpt><trkpt lat="59.3703006674" lon="34.5514227636"><ele>174.62</ele><time>2026-08-18T14:02:10Z</time></trkpt><trkpt lat="59.3702681456" lon="34.5515411999"><ele>174.62</ele><time>2026-08-18T14:02:19Z</time></trkpt><trkpt lat="59.3702151719" lon="34.5517764799"><ele>174.62</ele><time>2026-08-18T14:02:34Z</time></trkpt><trkpt lat="59.3701782078" lon="34.5518467203"><ele>174.62</ele><time>2026-08-18T14:02:46Z</time></trkpt><trkpt lat="59.3701792136" lon="34.5519778971"><ele>174.62</ele><time>2026-08-18T14:02:58Z</time></trkpt><trkpt lat="59.3701463565" lon="34.5521156956"><ele>174.62</ele><time>2026-08-18T14:03:09Z</time></trkpt><trkpt lat="59.3701274972" lon="34.5523033664"><ele>174.62</ele><time>2026-08-18T14:03:21Z</time></trkpt><trkpt lat="59.3700922932" lon="34.5524135046"><ele>174.62</ele><time>2026-08-18T14:03:33Z</time></trkpt><trkpt lat="59.3700758647" lon="34.5524205454"><ele>174.62</ele><time>2026-08-18T14:03:37Z</time></trkpt><trkpt lat="59.3700329494" lon="34.5525766164"><ele>174.62</ele><time>2026-08-18T14:03:49Z</time></trkpt><trkpt lat="59.3700228911" lon="34.5526167657"><ele>174.62</ele><time>2026-08-18T14:03:51Z</time></trkpt><trkpt lat="59.3699902017" lon="34.5527882595"><ele>174.62</ele><time>2026-08-18T14:04:00Z</time></trkpt><trkpt lat="59.3699984159" lon="34.5530775189"><ele>174.62</ele><time>2026-08-18T14:04:15Z</time></trkpt><trkpt lat="59.3699923810" lon="34.5531221107"><ele>174.62</ele><time>2026-08-18T14:04:17Z</time></trkpt><trkpt lat="59.3699810654" lon="34.5531682950"><ele>174.62</ele><time>2026-08-18T14:04:20Z</time></trkpt><trkpt lat="59.3700182810" lon="34.5533633418"><ele>174.62</ele><time>2026-08-18T14:04:34Z</time></trkpt><trkpt lat="59.3700253218" lon="34.5534421317"><ele>174.62</ele><time>2026-08-18T14:04:43Z</time></trkpt><trkpt lat="59.3700261600" lon="34.5534463227"><ele>174.62</ele><time>2026-08-18T14:04:44Z</time></trkpt><trkpt lat="59.3700046185" lon="34.5536282938"><ele>174.62</ele><time>2026-08-18T14:04:53Z</time></trkpt><trkpt lat="59.3699731026" lon="34.5538552757"><ele>174.62</ele><time>2026-08-18T14:05:06Z</time></trkpt><trkpt lat="59.3699397426" lon="34.5539852791"><ele>174.62</ele><time>2026-08-18T14:05:20Z</time></trkpt><trkpt lat="59.3698963244" lon="34.5540296193"><ele>174.62</ele><time>2026-08-18T14:05:33Z</time></trkpt><trkpt lat="59.3698295206" lon="34.5541921444"><ele>174.62</ele><time>2026-08-18T14:05:48Z</time></trkpt><trkpt lat="59.3697868567" lon="34.5543542504"><ele>174.62</ele><time>2026-08-18T14:06:01Z</time></trkpt><trkpt lat="59.3697851803" lon="34.5545489620"><ele>174.14</ele><time>2026-08-18T14:06:13Z</time></trkpt><trkpt lat="59.3697791453" lon="34.5547325257"><ele>174.14</ele><time>2026-08-18T14:06:27Z</time></trkpt><trkpt lat="59.3697769661" lon="34.5548121538"><ele>174.14</ele><time>2026-08-18T14:06:45Z</time></trkpt><trkpt lat="59.3697842583" lon="34.5548819751"><ele>174.14</ele><time>2026-08-18T14:07:04Z</time></trkpt><trkpt lat="59.3697779719" lon="34.5549238008"><ele>175.10</ele><time>2026-08-18T14:07:30Z</time></trkpt><trkpt lat="59.3697787262" lon="34.5549399778"><ele>175.10</ele><time>2026-08-18T14:07:53Z</time></trkpt><trkpt lat="59.3697664887" lon="34.5549445879"><ele>175.10</ele><time>2026-08-18T14:08:15Z</time></trkpt><trkpt lat="59.3697758764" lon="34.5550108049"><ele>175.10</ele><time>2026-08-18T14:08:37Z</time></trkpt><trkpt lat="59.3698329572" lon="34.5553530380"><ele>175.10</ele><time>2026-08-18T14:08:52Z</time></trkpt><trkpt lat="59.3698670715" lon="34.5555084385"><ele>175.10</ele><time>2026-08-18T14:09:07Z</time></trkpt><trkpt lat="59.3698317837" lon="34.5556192473"><ele>175.10</ele><time>2026-08-18T14:09:15Z</time></trkpt><trkpt lat="59.3698043749" lon="34.5557352528"><ele>175.10</ele><time>2026-08-18T14:09:28Z</time></trkpt><trkpt lat="59.3697984237" lon="34.5558604784"><ele>175.10</ele><time>2026-08-18T14:09:40Z</time></trkpt><trkpt lat="59.3697979208" lon="34.5558580477"><ele>175.10</ele><time>2026-08-18T14:09:48Z</time></trkpt><trkpt lat="59.3697999325" lon="34.5558754820"><ele>175.10</ele><time>2026-08-18T14:09:50Z</time></trkpt><trkpt lat="59.3698855117" lon="34.5560344867"><ele>175.10</ele><time>2026-08-18T14:10:03Z</time></trkpt><trkpt lat="59.3698858470" lon="34.5560364984"><ele>175.10</ele><time>2026-08-18T14:10:23Z</time></trkpt><trkpt lat="59.3698922172" lon="34.5560425334"><ele>175.10</ele><time>2026-08-18T14:10:50Z</time></trkpt><trkpt lat="59.3698950671" lon="34.5560455509"><ele>175.10</ele><time>2026-08-18T14:10:58Z</time></trkpt><trkpt lat="59.3699099030" lon="34.5560779050"><ele>175.10</ele><time>2026-08-18T14:11:00Z</time></trkpt><trkpt lat="59.3699284270" lon="34.5561342314"><ele>175.10</ele><time>2026-08-18T14:11:04Z</time></trkpt><trkpt lat="59.3699931353" lon="34.5562509075"><ele>175.10</ele><time>2026-08-18T14:11:12Z</time></trkpt><trkpt lat="59.3700606097" lon="34.5563388336"><ele>175.10</ele><time>2026-08-18T14:11:20Z</time></trkpt><trkpt lat="59.3700839113" lon="34.5563680027"><ele>175.10</ele><time>2026-08-18T14:11:23Z</time></trkpt><trkpt lat="59.3701445963" lon="34.5565477107"><ele>175.10</ele><time>2026-08-18T14:11:36Z</time></trkpt><trkpt lat="59.3701942172" lon="34.5566329546"><ele>175.10</ele><time>2026-08-18T14:11:47Z</time></trkpt><trkpt lat="59.3702094723" lon="34.5568779577"><ele>175.10</ele><time>2026-08-18T14:12:00Z</time></trkpt><trkpt lat="59.3702309299" lon="34.5569362119"><ele>175.10</ele><time>2026-08-18T14:12:04Z</time></trkpt><trkpt lat="59.3702827301" lon="34.5571332704"><ele>175.10</ele><time>2026-08-18T14:12:19Z</time></trkpt><trkpt lat="59.3703170121" lon="34.5573361963"><ele>175.10</ele><time>2026-08-18T14:12:33Z</time></trkpt><trkpt lat="59.3703695666" lon="34.5574243739"><ele>175.10</ele><time>2026-08-18T14:12:47Z</time></trkpt><trkpt lat="59.3704188522" lon="34.5575742424"><ele>175.10</ele><time>2026-08-18T14:12:59Z</time></trkpt><trkpt lat="59.3704963010" lon="34.5577402879"><ele>175.10</ele><time>2026-08-18T14:13:11Z</time></trkpt><trkpt lat="59.3705810420" lon="34.5578945149"><ele>175.10</ele><time>2026-08-18T14:13:24Z</time></trkpt><trkpt lat="59.3706429005" lon="34.5580283739"><ele>175.10</ele><time>2026-08-18T14:13:39Z</time></trkpt><trkpt lat="59.3707071058" lon="34.5581225026"><ele>175.10</ele><time>2026-08-18T14:13:54Z</time></trkpt><trkpt lat="59.3707297370" lon="34.5581039786"><ele>175.10</ele><time>2026-08-18T14:13:59Z</time></trkpt><trkpt lat="59.3708150648" lon="34.5580496639"><ele>175.10</ele><time>2026-08-18T14:14:11Z</time></trkpt><trkpt lat="59.3708546273" lon="34.5582912304"><ele>175.10</ele><time>2026-08-18T14:14:27Z</time></trkpt><trkpt lat="59.3708433956" lon="34.5582877100"><ele>175.10</ele><time>2026-08-18T14:14:48Z</time></trkpt><trkpt lat="59.3708501011" lon="34.5582756400"><ele>175.10</ele><time>2026-08-18T14:15:07Z</time></trkpt><trkpt lat="59.3708336726" lon="34.5583877061"><ele>175.10</ele><time>2026-08-18T14:15:22Z</time></trkpt><trkpt lat="59.3708252907" lon="34.5584349800"><ele>175.10</ele><time>2026-08-18T14:15:41Z</time></trkpt><trkpt lat="59.3708183337" lon="34.5584442839"><ele>175.10</ele><time>2026-08-18T14:16:04Z</time></trkpt><trkpt lat="59.3708135560" lon="34.5584298670"><ele>175.10</ele><time>2026-08-18T14:16:24Z</time></trkpt><trkpt lat="59.3708079401" lon="34.5584548451"><ele>175.10</ele><time>2026-08-18T14:16:47Z</time></trkpt><trkpt lat="59.3708088621" lon="34.5584549289"><ele>175.10</ele><time>2026-08-18T14:17:10Z</time></trkpt><trkpt lat="59.3708112929" lon="34.5584680885"><ele>175.10</ele><time>2026-08-18T14:17:31Z</time></trkpt><trkpt lat="59.3707474228" lon="34.5585764665"><ele>175.10</ele><time>2026-08-18T14:17:47Z</time></trkpt><trkpt lat="59.3706786912" lon="34.5586555079"><ele>175.10</ele><time>2026-08-18T14:18:01Z</time></trkpt><trkpt lat="59.3706162460" lon="34.5587604493"><ele>175.10</ele><time>2026-08-18T14:18:14Z</time></trkpt><trkpt lat="59.3705701455" lon="34.5589100663"><ele>175.10</ele><time>2026-08-18T14:18:27Z</time></trkpt><trkpt lat="59.3704685569" lon="34.5590333641"><ele>175.10</ele><time>2026-08-18T14:18:39Z</time></trkpt><trkpt lat="59.3704038486" lon="34.5591516327"><ele>175.10</ele><time>2026-08-18T14:18:53Z</time></trkpt><trkpt lat="59.3703248911" lon="34.5592517965"><ele>174.62</ele><time>2026-08-18T14:19:08Z</time></trkpt><trkpt lat="59.3702779524" lon="34.5593471825"><ele>174.62</ele><time>2026-08-18T14:19:24Z</time></trkpt><trkpt lat="59.3702578358" lon="34.5593990665"><ele>174.62</ele><time>2026-08-18T14:19:26Z</time></trkpt><trkpt lat="59.3701564986" lon="34.5596141461"><ele>174.62</ele><time>2026-08-18T14:19:41Z</time></trkpt><trkpt lat="59.3700511381" lon="34.5598205924"><ele>174.62</ele><time>2026-08-18T14:19:56Z</time></trkpt><trkpt lat="59.3699967396" lon="34.5599697065"><ele>174.62</ele><time>2026-08-18T14:20:09Z</time></trkpt><trkpt lat="59.3699609488" lon="34.5600919146"><ele>174.62</ele><time>2026-08-18T14:20:21Z</time></trkpt><trkpt lat="59.3699645530" lon="34.5601185691"><ele>174.62</ele><time>2026-08-18T14:20:47Z</time></trkpt><trkpt lat="59.3699705880" lon="34.5601501688"><ele>174.14</ele><time>2026-08-18T14:21:20Z</time></trkpt><trkpt lat="59.3699715100" lon="34.5601567905"><ele>174.14</ele><time>2026-08-18T14:21:52Z</time></trkpt><trkpt lat="59.3699334562" lon="34.5602497458"><ele>174.14</ele><time>2026-08-18T14:22:08Z</time></trkpt><trkpt lat="59.3698410876" lon="34.5604207367"><ele>174.14</ele><time>2026-08-18T14:22:21Z</time></trkpt><trkpt lat="59.3698317837" lon="34.5604960900"><ele>174.14</ele><time>2026-08-18T14:22:30Z</time></trkpt><trkpt lat="59.3697710149" lon="34.5607616287"><ele>174.14</ele><time>2026-08-18T14:22:44Z</time></trkpt><trkpt lat="59.3697478808" lon="34.5608529914"><ele>174.14</ele><time>2026-08-18T14:22:49Z</time></trkpt><trkpt lat="59.3696887884" lon="34.5610653050"><ele>174.14</ele><time>2026-08-18T14:23:02Z</time></trkpt><trkpt lat="59.3695997726" lon="34.5612224657"><ele>174.14</ele><time>2026-08-18T14:23:15Z</time></trkpt><trkpt lat="59.3695424404" lon="34.5612674765"><ele>174.14</ele><time>2026-08-18T14:23:29Z</time></trkpt><trkpt lat="59.3694648240" lon="34.5613182709"><ele>174.14</ele><time>2026-08-18T14:23:43Z</time></trkpt><trkpt lat="59.3694090843" lon="34.5614273194"><ele>174.14</ele><time>2026-08-18T14:23:55Z</time></trkpt><trkpt lat="59.3693199009" lon="34.5617071074"><ele>174.14</ele><time>2026-08-18T14:24:08Z</time></trkpt><trkpt lat="59.3692706991" lon="34.5618840493"><ele>174.14</ele><time>2026-08-18T14:24:24Z</time></trkpt><trkpt lat="59.3691872153" lon="34.5620074309"><ele>174.14</ele><time>2026-08-18T14:24:42Z</time></trkpt><trkpt lat="59.3691188190" lon="34.5621459838"><ele>174.14</ele><time>2026-08-18T14:24:57Z</time></trkpt><trkpt lat="59.3691009656" lon="34.5621740632"><ele>174.14</ele><time>2026-08-18T14:25:14Z</time></trkpt><trkpt lat="59.3690609001" lon="34.5621065889"><ele>174.14</ele><time>2026-08-18T14:25:23Z</time></trkpt><trkpt lat="59.3689081818" lon="34.5617475081"><ele>174.14</ele><time>2026-08-18T14:25:38Z</time></trkpt><trkpt lat="59.3688097782" lon="34.5617196802"><ele>174.14</ele><time>2026-08-18T14:25:51Z</time></trkpt><trkpt lat="59.3687173259" lon="34.5616494399"><ele>174.14</ele><time>2026-08-18T14:26:02Z</time></trkpt><trkpt lat="59.3686789367" lon="34.5617099572"><ele>174.14</ele><time>2026-08-18T14:26:17Z</time></trkpt><trkpt lat="59.3686776794" lon="34.5617424790"><ele>174.14</ele><time>2026-08-18T14:26:20Z</time></trkpt><trkpt lat="59.3686485942" lon="34.5619532000"><ele>174.14</ele><time>2026-08-18T14:26:31Z</time></trkpt><trkpt lat="59.3686700519" lon="34.5621654298"><ele>174.14</ele><time>2026-08-18T14:26:48Z</time></trkpt><trkpt lat="59.3687137216" lon="34.5622593071"><ele>174.14</ele><time>2026-08-18T14:27:01Z</time></trkpt><trkpt lat="59.3687343411" lon="34.5622795913"><ele>174.14</ele><time>2026-08-18T14:27:24Z</time></trkpt><trkpt lat="59.3687499315" lon="34.5622917451"><ele>174.14</ele><time>2026-08-18T14:27:52Z</time></trkpt><trkpt lat="59.3687672820" lon="34.5623318106"><ele>174.14</ele><time>2026-08-18T14:28:15Z</time></trkpt><trkpt lat="59.3687443156" lon="34.5624997001"><ele>174.14</ele><time>2026-08-18T14:28:30Z</time></trkpt><trkpt lat="59.3687035795" lon="34.5626773126"><ele>174.14</ele><time>2026-08-18T14:28:44Z</time></trkpt><trkpt lat="59.3687024899" lon="34.5626872033"><ele>174.14</ele><time>2026-08-18T14:28:46Z</time></trkpt><trkpt lat="59.3687017355" lon="34.5628504828"><ele>174.14</ele><time>2026-08-18T14:29:01Z</time></trkpt><trkpt lat="59.3686906714" lon="34.5629294403"><ele>174.14</ele><time>2026-08-18T14:29:17Z</time></trkpt><trkpt lat="59.3686837144" lon="34.5632254891"><ele>174.14</ele><time>2026-08-18T14:29:34Z</time></trkpt><trkpt lat="59.3686882406" lon="34.5634203684"><ele>174.14</ele><time>2026-08-18T14:29:52Z</time></trkpt><trkpt lat="59.3686826248" lon="34.5634669717"><ele>174.14</ele><time>2026-08-18T14:30:14Z</time></trkpt><trkpt lat="59.3686874863" lon="34.5635141619"><ele>174.14</ele><time>2026-08-18T14:30:33Z</time></trkpt><trkpt lat="59.3687028252" lon="34.5635320153"><ele>174.14</ele><time>2026-08-18T14:31:04Z</time></trkpt><trkpt lat="59.3686957844" lon="34.5635587536"><ele>174.14</ele><time>2026-08-18T14:31:20Z</time></trkpt><trkpt lat="59.3686915934" lon="34.5635579154"><ele>174.14</ele><time>2026-08-18T14:31:43Z</time></trkpt><trkpt lat="59.3686852232" lon="34.5635548141"><ele>174.14</ele><time>2026-08-18T14:32:10Z</time></trkpt><trkpt lat="59.3686796073" lon="34.5635514613"><ele>174.14</ele><time>2026-08-18T14:32:32Z</time></trkpt><trkpt lat="59.3686988018" lon="34.5636319276"><ele>174.14</ele><time>2026-08-18T14:32:51Z</time></trkpt><trkpt lat="59.3686891627" lon="34.5636741724"><ele>174.14</ele><time>2026-08-18T14:33:13Z</time></trkpt><trkpt lat="59.3686807808" lon="34.5636291616"><ele>174.14</ele><time>2026-08-18T14:33:33Z</time></trkpt><trkpt lat="59.3686999753" lon="34.5635603461"><ele>174.14</ele><time>2026-08-18T14:34:03Z</time></trkpt><trkpt lat="59.3686946109" lon="34.5635645371"><ele>174.14</ele><time>2026-08-18T14:34:31Z</time></trkpt><trkpt lat="59.3686957844" lon="34.5635656267"><ele>172.69</ele><time>2026-08-18T14:34:33Z</time></trkpt><trkpt lat="59.3687046692" lon="34.5635574963"><ele>172.69</ele><time>2026-08-18T14:35:01Z</time></trkpt><trkpt lat="59.3687475007" lon="34.5635194425"><ele>172.69</ele><time>2026-08-18T14:35:29Z</time></trkpt><trkpt lat="59.3687494285" lon="34.5635191910"><ele>172.69</ele><time>2026-08-18T14:36:04Z</time></trkpt><trkpt lat="59.3687451538" lon="34.5635209512"><ele>173.17</ele><time>2026-08-18T14:36:32Z</time></trkpt><trkpt lat="59.3687360175" lon="34.5635435823"><ele>172.69</ele><time>2026-08-18T14:37:05Z</time></trkpt><trkpt lat="59.3687258754" lon="34.5635450073"><ele>173.17</ele><time>2026-08-18T14:37:33Z</time></trkpt><trkpt lat="59.3687113747" lon="34.5635341108"><ele>173.17</ele><time>2026-08-18T14:37:56Z</time></trkpt><trkpt lat="59.3687043339" lon="34.5635253098"><ele>173.17</ele><time>2026-08-18T14:38:19Z</time></trkpt><trkpt lat="59.3686877377" lon="34.5635373797"><ele>173.17</ele><time>2026-08-18T14:38:52Z</time></trkpt><trkpt lat="59.3686767574" lon="34.5635372121"><ele>173.17</ele><time>2026-08-18T14:39:18Z</time></trkpt><trkpt lat="59.3686585687" lon="34.5635644533"><ele>173.17</ele><time>2026-08-18T14:39:39Z</time></trkpt><trkpt lat="59.3686421402" lon="34.5635813847"><ele>173.17</ele><time>2026-08-18T14:39:59Z</time></trkpt><trkpt lat="59.3686359376" lon="34.5635957178"><ele>173.17</ele><time>2026-08-18T14:40:21Z</time></trkpt><trkpt lat="59.3686317466" lon="34.5636054408"><ele>173.17</ele><time>2026-08-18T14:40:44Z</time></trkpt><trkpt lat="59.3686413020" lon="34.5636823867"><ele>173.17</ele><time>2026-08-18T14:40:50Z</time></trkpt><trkpt lat="59.3686550483" lon="34.5637341868"><ele>173.17</ele><time>2026-08-18T14:40:54Z</time></trkpt><trkpt lat="59.3686882406" lon="34.5639799442"><ele>174.14</ele><time>2026-08-18T14:41:06Z</time></trkpt><trkpt lat="59.3687459081" lon="34.5641530305"><ele>174.14</ele><time>2026-08-18T14:41:18Z</time></trkpt><trkpt lat="59.3687781785" lon="34.5642626658"><ele>174.14</ele><time>2026-08-18T14:41:27Z</time></trkpt><trkpt lat="59.3687958643" lon="34.5643129572"><ele>174.14</ele><time>2026-08-18T14:41:37Z</time></trkpt><trkpt lat="59.3688008934" lon="34.5643205009"><ele>174.14</ele><time>2026-08-18T14:42:02Z</time></trkpt><trkpt lat="59.3688065931" lon="34.5643289667"><ele>174.62</ele><time>2026-08-18T14:42:33Z</time></trkpt><trkpt lat="59.3688067608" lon="34.5643266197"><ele>174.62</ele><time>2026-08-18T14:42:56Z</time></trkpt><trkpt lat="59.3688077666" lon="34.5643275417"><ele>174.62</ele><time>2026-08-18T14:43:27Z</time></trkpt><trkpt lat="59.3688084371" lon="34.5643291343"><ele>174.62</ele><time>2026-08-18T14:43:58Z</time></trkpt><trkpt lat="59.3688052520" lon="34.5643376000"><ele>174.62</ele><time>2026-08-18T14:44:16Z</time></trkpt><trkpt lat="59.3688180763" lon="34.5643606503"><ele>174.62</ele><time>2026-08-18T14:44:35Z</time></trkpt><trkpt lat="59.3688096106" lon="34.5643816888"><ele>174.62</ele><time>2026-08-18T14:44:48Z</time></trkpt><trkpt lat="59.3688112870" lon="34.5645124465"><ele>174.62</ele><time>2026-08-18T14:45:00Z</time></trkpt><trkpt lat="59.3688241951" lon="34.5644286275"><ele>174.62</ele><time>2026-08-18T14:45:13Z</time></trkpt><trkpt lat="59.3688256200" lon="34.5644419547"><ele>174.62</ele><time>2026-08-18T14:45:27Z</time></trkpt><trkpt lat="59.3688271288" lon="34.5644659270"><ele>174.62</ele><time>2026-08-18T14:45:51Z</time></trkpt><trkpt lat="59.3688444793" lon="34.5645706169"><ele>174.62</ele><time>2026-08-18T14:46:02Z</time></trkpt><trkpt lat="59.3688425515" lon="34.5645740535"><ele>174.62</ele><time>2026-08-18T14:46:13Z</time></trkpt><trkpt lat="59.3688429706" lon="34.5645738859"><ele>174.62</ele><time>2026-08-18T14:46:14Z</time></trkpt><trkpt lat="59.3688462395" lon="34.5645457227"><ele>174.62</ele><time>2026-08-18T14:46:19Z</time></trkpt><trkpt lat="59.3688515201" lon="34.5645953435"><ele>174.62</ele><time>2026-08-18T14:46:32Z</time></trkpt><trkpt lat="59.3688460719" lon="34.5645913202"><ele>174.62</ele><time>2026-08-18T14:46:50Z</time></trkpt><trkpt lat="59.3688496761" lon="34.5645979419"><ele>174.62</ele><time>2026-08-18T14:47:06Z</time></trkpt><trkpt lat="59.3688497599" lon="34.5645999536"><ele>174.62</ele><time>2026-08-18T14:47:26Z</time></trkpt><trkpt lat="59.3688575551" lon="34.5646128617"><ele>175.10</ele><time>2026-08-18T14:47:50Z</time></trkpt><trkpt lat="59.3688577227" lon="34.5646136161"><ele>175.10</ele><time>2026-08-18T14:48:21Z</time></trkpt><trkpt lat="59.3688537832" lon="34.5646162983"><ele>175.10</ele><time>2026-08-18T14:48:52Z</time></trkpt><trkpt lat="59.3688487541" lon="34.5646088384"><ele>175.10</ele><time>2026-08-18T14:49:25Z</time></trkpt><trkpt lat="59.3688448984" lon="34.5646058209"><ele>175.10</ele><time>2026-08-18T14:49:56Z</time></trkpt><trkpt lat="59.3688402046" lon="34.5645968523"><ele>175.10</ele><time>2026-08-18T14:50:12Z</time></trkpt><trkpt lat="59.3688373547" lon="34.5645998698"><ele>175.10</ele><time>2026-08-18T14:50:31Z</time></trkpt><trkpt lat="59.3688415457" lon="34.5645957626"><ele>175.10</ele><time>2026-08-18T14:50:57Z</time></trkpt><trkpt lat="59.3688364327" lon="34.5645963494"><ele>175.10</ele><time>2026-08-18T14:51:00Z</time></trkpt><trkpt lat="59.3688182440" lon="34.5646121074"><ele>175.10</ele><time>2026-08-18T14:51:02Z</time></trkpt><trkpt lat="59.3687673658" lon="34.5647468045"><ele>175.10</ele><time>2026-08-18T14:51:12Z</time></trkpt><trkpt lat="59.3686925154" lon="34.5648492314"><ele>175.10</ele><time>2026-08-18T14:51:21Z</time></trkpt><trkpt lat="59.3686873186" lon="34.5648514107"><ele>175.10</ele><time>2026-08-18T14:51:23Z</time></trkpt><trkpt lat="59.3686615862" lon="34.5648823399"><ele>175.10</ele><time>2026-08-18T14:51:26Z</time></trkpt><trkpt lat="59.3686385360" lon="34.5649115089"><ele>175.10</ele><time>2026-08-18T14:51:29Z</time></trkpt><trkpt lat="59.3686176650" lon="34.5649233274"><ele>175.10</ele><time>2026-08-18T14:51:31Z</time></trkpt><trkpt lat="59.3685494363" lon="34.5650581922"><ele>175.10</ele><time>2026-08-18T14:51:42Z</time></trkpt><trkpt lat="59.3685100414" lon="34.5651081484"><ele>175.10</ele><time>2026-08-18T14:51:47Z</time></trkpt><trkpt lat="59.3684891704" lon="34.5651638880"><ele>175.10</ele><time>2026-08-18T14:51:51Z</time></trkpt><trkpt lat="59.3684641924" lon="34.5651894528"><ele>175.10</ele><time>2026-08-18T14:51:54Z</time></trkpt><trkpt lat="59.3683748413" lon="34.5653370582"><ele>175.10</ele><time>2026-08-18T14:52:06Z</time></trkpt><trkpt lat="59.3683566526" lon="34.5653756987"><ele>175.10</ele><time>2026-08-18T14:52:09Z</time></trkpt><trkpt lat="59.3683239631" lon="34.5654031076"><ele>175.10</ele><time>2026-08-18T14:52:18Z</time></trkpt><trkpt lat="59.3683287408" lon="34.5654051192"><ele>175.10</ele><time>2026-08-18T14:52:28Z</time></trkpt><trkpt lat="59.3683212809" lon="34.5654227212"><ele>175.10</ele><time>2026-08-18T14:52:30Z</time></trkpt><trkpt lat="59.3682500347" lon="34.5655221306"><ele>175.10</ele><time>2026-08-18T14:52:37Z</time></trkpt><trkpt lat="59.3681988213" lon="34.5655725896"><ele>175.10</ele><time>2026-08-18T14:52:43Z</time></trkpt><trkpt lat="59.3681621086" lon="34.5656067878"><ele>175.58</ele><time>2026-08-18T14:52:47Z</time></trkpt><trkpt lat="59.3680725060" lon="34.5656559058"><ele>175.58</ele><time>2026-08-18T14:53:00Z</time></trkpt><trkpt lat="59.3680637050" lon="34.5656664670"><ele>175.58</ele><time>2026-08-18T14:53:02Z</time></trkpt><trkpt lat="59.3679778744" lon="34.5657424070"><ele>175.58</ele><time>2026-08-18T14:53:12Z</time></trkpt><trkpt lat="59.3679109868" lon="34.5657528844"><ele>175.58</ele><time>2026-08-18T14:53:23Z</time></trkpt><trkpt lat="59.3679220509" lon="34.5657544769"><ele>175.58</ele><time>2026-08-18T14:53:52Z</time></trkpt><trkpt lat="59.3679314386" lon="34.5657568239"><ele>175.58</ele><time>2026-08-18T14:54:25Z</time></trkpt><trkpt lat="59.3679238949" lon="34.5657659601"><ele>175.58</ele><time>2026-08-18T14:54:51Z</time></trkpt><trkpt lat="59.3679238111" lon="34.5657653734"><ele>175.10</ele><time>2026-08-18T14:55:26Z</time></trkpt><trkpt lat="59.3679260742" lon="34.5657662116"><ele>175.10</ele><time>2026-08-18T14:55:58Z</time></trkpt><trkpt lat="59.3679258227" lon="34.5657693129"><ele>175.10</ele><time>2026-08-18T14:56:33Z</time></trkpt><trkpt lat="59.3679238949" lon="34.5657628588"><ele>175.10</ele><time>2026-08-18T14:56:55Z</time></trkpt><trkpt lat="59.3679131661" lon="34.5657689776"><ele>175.10</ele><time>2026-08-18T14:57:25Z</time></trkpt><trkpt lat="59.3678396568" lon="34.5658204425"><ele>175.10</ele><time>2026-08-18T14:57:33Z</time></trkpt><trkpt lat="59.3678205460" lon="34.5658418164"><ele>175.10</ele><time>2026-08-18T14:57:35Z</time></trkpt><trkpt lat="59.3677805644" lon="34.5659043454"><ele>175.10</ele><time>2026-08-18T14:57:41Z</time></trkpt><trkpt lat="59.3677646387" lon="34.5659098774"><ele>175.10</ele><time>2026-08-18T14:57:43Z</time></trkpt><trkpt lat="59.3677489646" lon="34.5659272280"><ele>175.10</ele><time>2026-08-18T14:57:45Z</time></trkpt><trkpt lat="59.3676696718" lon="34.5659858175"><ele>175.10</ele><time>2026-08-18T14:57:54Z</time></trkpt><trkpt lat="59.3676153570" lon="34.5660522021"><ele>175.10</ele><time>2026-08-18T14:58:01Z</time></trkpt><trkpt lat="59.3675896246" lon="34.5660602488"><ele>175.10</ele><time>2026-08-18T14:58:04Z</time></trkpt><trkpt lat="59.3674982619" lon="34.5661160722"><ele>175.10</ele><time>2026-08-18T14:58:15Z</time></trkpt><trkpt lat="59.3674027920" lon="34.5661983825"><ele>175.10</ele><time>2026-08-18T14:58:25Z</time></trkpt><trkpt lat="59.3673499022" lon="34.5662302338"><ele>175.10</ele><time>2026-08-18T14:58:31Z</time></trkpt><trkpt lat="59.3673358206" lon="34.5662466623"><ele>175.10</ele><time>2026-08-18T14:58:47Z</time></trkpt><trkpt lat="59.3673294503" lon="34.5662491769"><ele>175.10</ele><time>2026-08-18T14:58:49Z</time></trkpt><trkpt lat="59.3672712799" lon="34.5662173256"><ele>175.10</ele><time>2026-08-18T14:58:56Z</time></trkpt><trkpt lat="59.3672545161" lon="34.5661652740"><ele>175.10</ele><time>2026-08-18T14:59:00Z</time></trkpt><trkpt lat="59.3672271911" lon="34.5661724824"><ele>175.10</ele><time>2026-08-18T14:59:05Z</time></trkpt><trkpt lat="59.3672109302" lon="34.5661847200"><ele>175.10</ele><time>2026-08-18T14:59:07Z</time></trkpt><trkpt lat="59.3671855330" lon="34.5662446506"><ele>175.10</ele><time>2026-08-18T14:59:17Z</time></trkpt><trkpt lat="59.3671906460" lon="34.5662588160"><ele>175.10</ele><time>2026-08-18T14:59:30Z</time></trkpt><trkpt lat="59.3671841081" lon="34.5662861411"><ele>175.10</ele><time>2026-08-18T14:59:50Z</time></trkpt><trkpt lat="59.3671809230" lon="34.5662950259"><ele>175.10</ele><time>2026-08-18T15:00:08Z</time></trkpt><trkpt lat="59.3671770673" lon="34.5662935171"><ele>175.10</ele><time>2026-08-18T15:00:09Z</time></trkpt><trkpt lat="59.3671471439" lon="34.5663345885"><ele>175.10</ele><time>2026-08-18T15:00:20Z</time></trkpt><trkpt lat="59.3671426177" lon="34.5663467422"><ele>175.10</ele><time>2026-08-18T15:00:35Z</time></trkpt><trkpt lat="59.3671540171" lon="34.5663457364"><ele>175.10</ele><time>2026-08-18T15:01:10Z</time></trkpt><trkpt lat="59.3671524245" lon="34.5663317386"><ele>174.62</ele><time>2026-08-18T15:01:41Z</time></trkpt><trkpt lat="59.3671562802" lon="34.5663272124"><ele>174.62</ele><time>2026-08-18T15:02:08Z</time></trkpt><trkpt lat="59.3671566993" lon="34.5663231052"><ele>174.62</ele><time>2026-08-18T15:02:44Z</time></trkpt><trkpt lat="59.3671487365" lon="34.5663119573"><ele>174.62</ele><time>2026-08-18T15:03:20Z</time></trkpt><trkpt lat="59.3671590462" lon="34.5663065091"><ele>174.62</ele><time>2026-08-18T15:03:55Z</time></trkpt><trkpt lat="59.3671614770" lon="34.5662946068"><ele>174.62</ele><time>2026-08-18T15:04:28Z</time></trkpt><trkpt lat="59.3671625666" lon="34.5663026534"><ele>174.62</ele><time>2026-08-18T15:04:57Z</time></trkpt><trkpt lat="59.3671623152" lon="34.5663056709"><ele>174.62</ele><time>2026-08-18T15:05:18Z</time></trkpt><trkpt lat="59.3671588786" lon="34.5662987139"><ele>174.62</ele><time>2026-08-18T15:05:41Z</time></trkpt><trkpt lat="59.3671330623" lon="34.5663527772"><ele>174.62</ele><time>2026-08-18T15:05:57Z</time></trkpt><trkpt lat="59.3671331462" lon="34.5663573872"><ele>174.62</ele><time>2026-08-18T15:06:15Z</time></trkpt><trkpt lat="59.3670756463" lon="34.5663992967"><ele>174.62</ele><time>2026-08-18T15:06:23Z</time></trkpt><trkpt lat="59.3670082558" lon="34.5664241072"><ele>174.62</ele><time>2026-08-18T15:06:29Z</time></trkpt><trkpt lat="59.3669654243" lon="34.5664426312"><ele>174.62</ele><time>2026-08-18T15:06:33Z</time></trkpt><trkpt lat="59.3669018894" lon="34.5664403681"><ele>174.62</ele><time>2026-08-18T15:06:47Z</time></trkpt><trkpt lat="59.3668579683" lon="34.5664309803"><ele>174.62</ele><time>2026-08-18T15:06:52Z</time></trkpt><trkpt lat="59.3668158073" lon="34.5664536953"><ele>174.62</ele><time>2026-08-18T15:07:02Z</time></trkpt><trkpt lat="59.3668277934" lon="34.5664370153"><ele>174.62</ele><time>2026-08-18T15:07:29Z</time></trkpt><trkpt lat="59.3668293022" lon="34.5664292201"><ele>174.62</ele><time>2026-08-18T15:07:59Z</time></trkpt><trkpt lat="59.3667674437" lon="34.5665187389"><ele>174.62</ele><time>2026-08-18T15:08:12Z</time></trkpt><trkpt lat="59.3666900788" lon="34.5665639173"><ele>174.62</ele><time>2026-08-18T15:08:21Z</time></trkpt><trkpt lat="59.3666091096" lon="34.5666033123"><ele>174.62</ele><time>2026-08-18T15:08:32Z</time></trkpt><trkpt lat="59.3665739894" lon="34.5666152984"><ele>174.62</ele><time>2026-08-18T15:08:45Z</time></trkpt><trkpt lat="59.3665768392" lon="34.5666087605"><ele>174.62</ele><time>2026-08-18T15:09:22Z</time></trkpt><trkpt lat="59.3665230274" lon="34.5666229259"><ele>174.62</ele><time>2026-08-18T15:09:33Z</time></trkpt><trkpt lat="59.3664183374" lon="34.5666773245"><ele>174.62</ele><time>2026-08-18T15:09:43Z</time></trkpt><trkpt lat="59.3663716502" lon="34.5666952617"><ele>174.62</ele><time>2026-08-18T15:09:50Z</time></trkpt><trkpt lat="59.3663240410" lon="34.5667085052"><ele>174.62</ele><time>2026-08-18T15:09:55Z</time></trkpt><trkpt lat="59.3662361987" lon="34.5667718723"><ele>174.62</ele><time>2026-08-18T15:10:06Z</time></trkpt><trkpt lat="59.3662166689" lon="34.5667805057"><ele>174.62</ele><time>2026-08-18T15:10:09Z</time></trkpt><trkpt lat="59.3661058601" lon="34.5667616464"><ele>174.62</ele><time>2026-08-18T15:10:20Z</time></trkpt><trkpt lat="59.3660688959" lon="34.5668090880"><ele>174.62</ele><time>2026-08-18T15:10:31Z</time></trkpt><trkpt lat="59.3660213705" lon="34.5668967627"><ele>174.14</ele><time>2026-08-18T15:10:41Z</time></trkpt><trkpt lat="59.3660072051" lon="34.5669094194"><ele>174.14</ele><time>2026-08-18T15:10:48Z</time></trkpt><trkpt lat="59.3659730908" lon="34.5669880416"><ele>174.14</ele><time>2026-08-18T15:10:59Z</time></trkpt><trkpt lat="59.3659790419" lon="34.5669876225"><ele>174.14</ele><time>2026-08-18T15:11:30Z</time></trkpt><trkpt lat="59.3660191912" lon="34.5670675021"><ele>174.14</ele><time>2026-08-18T15:11:36Z</time></trkpt><trkpt lat="59.3660274893" lon="34.5670944080"><ele>174.14</ele><time>2026-08-18T15:11:48Z</time></trkpt><trkpt lat="59.3660297524" lon="34.5670878701"><ele>174.14</ele><time>2026-08-18T15:12:19Z</time></trkpt><trkpt lat="59.3660317641" lon="34.5670816675"><ele>174.14</ele><time>2026-08-18T15:12:50Z</time></trkpt><trkpt lat="59.3660320994" lon="34.5670825057"><ele>174.14</ele><time>2026-08-18T15:13:15Z</time></trkpt><trkpt lat="59.3660326023" lon="34.5670827571"><ele>174.14</ele><time>2026-08-18T15:13:48Z</time></trkpt><trkpt lat="59.3660322670" lon="34.5671075676"><ele>174.14</ele><time>2026-08-18T15:14:00Z</time></trkpt><trkpt lat="59.3660300039" lon="34.5670928154"><ele>174.14</ele><time>2026-08-18T15:14:35Z</time></trkpt><trkpt lat="59.3660311773" lon="34.5671285223"><ele>174.14</ele><time>2026-08-18T15:15:04Z</time></trkpt><trkpt lat="59.3660294171" lon="34.5671364851"><ele>174.14</ele><time>2026-08-18T15:15:05Z</time></trkpt><trkpt lat="59.3659385573" lon="34.5671942364"><ele>174.14</ele><time>2026-08-18T15:15:14Z</time></trkpt><trkpt lat="59.3658848293" lon="34.5672126766"><ele>174.14</ele><time>2026-08-18T15:15:23Z</time></trkpt><trkpt lat="59.3658133317" lon="34.5673165284"><ele>174.14</ele><time>2026-08-18T15:15:31Z</time></trkpt><trkpt lat="59.3657130841" lon="34.5673998445"><ele>174.14</ele><time>2026-08-18T15:15:40Z</time></trkpt><trkpt lat="59.3656091485" lon="34.5674776286"><ele>174.14</ele><time>2026-08-18T15:15:51Z</time></trkpt><trkpt lat="59.3655444402" lon="34.5675283391"><ele>174.14</ele><time>2026-08-18T15:15:58Z</time></trkpt><trkpt lat="59.3654646445" lon="34.5676656347"><ele>174.14</ele><time>2026-08-18T15:16:09Z</time></trkpt><trkpt lat="59.3654012773" lon="34.5677374676"><ele>174.14</ele><time>2026-08-18T15:16:19Z</time></trkpt><trkpt lat="59.3653571047" lon="34.5677894354"><ele>174.14</ele><time>2026-08-18T15:16:27Z</time></trkpt><trkpt lat="59.3652595393" lon="34.5677934587"><ele>174.14</ele><time>2026-08-18T15:16:35Z</time></trkpt><trkpt lat="59.3651583698" lon="34.5678165928"><ele>174.14</ele><time>2026-08-18T15:16:45Z</time></trkpt><trkpt lat="59.3651230820" lon="34.5678879227"><ele>174.14</ele><time>2026-08-18T15:16:50Z</time></trkpt><trkpt lat="59.3651079107" lon="34.5679025911"><ele>174.14</ele><time>2026-08-18T15:16:53Z</time></trkpt><trkpt lat="59.3650337309" lon="34.5679719094"><ele>174.14</ele><time>2026-08-18T15:17:03Z</time></trkpt><trkpt lat="59.3649774045" lon="34.5680742525"><ele>174.14</ele><time>2026-08-18T15:17:12Z</time></trkpt><trkpt lat="59.3649069127" lon="34.5681361109"><ele>174.14</ele><time>2026-08-18T15:17:23Z</time></trkpt><trkpt lat="59.3648571242" lon="34.5681611728"><ele>174.14</ele><time>2026-08-18T15:17:32Z</time></trkpt><trkpt lat="59.3648354989" lon="34.5681745000"><ele>174.14</ele><time>2026-08-18T15:17:44Z</time></trkpt><trkpt lat="59.3648361694" lon="34.5681593288"><ele>174.14</ele><time>2026-08-18T15:17:50Z</time></trkpt><trkpt lat="59.3647466507" lon="34.5681424811"><ele>174.14</ele><time>2026-08-18T15:17:59Z</time></trkpt><trkpt lat="59.3646662682" lon="34.5681543835"><ele>174.14</ele><time>2026-08-18T15:18:09Z</time></trkpt><trkpt lat="59.3646568805" lon="34.5681481808"><ele>174.14</ele><time>2026-08-18T15:18:18Z</time></trkpt><trkpt lat="59.3646628316" lon="34.5681572333"><ele>174.14</ele><time>2026-08-18T15:18:43Z</time></trkpt><trkpt lat="59.3646649271" lon="34.5681631006"><ele>173.66</ele><time>2026-08-18T15:19:03Z</time></trkpt><trkpt lat="59.3646632507" lon="34.5681571495"><ele>173.66</ele><time>2026-08-18T15:19:36Z</time></trkpt><trkpt lat="59.3646426313" lon="34.5681676269"><ele>173.66</ele><time>2026-08-18T15:19:57Z</time></trkpt><trkpt lat="59.3645697925" lon="34.5682301559"><ele>173.66</ele><time>2026-08-18T15:20:05Z</time></trkpt><trkpt lat="59.3644870631" lon="34.5682574809"><ele>173.66</ele><time>2026-08-18T15:20:12Z</time></trkpt><trkpt lat="59.3643748295" lon="34.5682848059"><ele>173.66</ele><time>2026-08-18T15:20:24Z</time></trkpt><trkpt lat="59.3643329199" lon="34.5682888292"><ele>173.66</ele><time>2026-08-18T15:20:36Z</time></trkpt><trkpt lat="59.3643401284" lon="34.5682862308"><ele>173.66</ele><time>2026-08-18T15:20:58Z</time></trkpt><trkpt lat="59.3642986380" lon="34.5682985522"><ele>173.66</ele><time>2026-08-18T15:21:10Z</time></trkpt><trkpt lat="59.3641579896" lon="34.5682904217"><ele>173.66</ele><time>2026-08-18T15:21:23Z</time></trkpt><trkpt lat="59.3640740868" lon="34.5682854764"><ele>173.66</ele><time>2026-08-18T15:21:32Z</time></trkpt><trkpt lat="59.3640403077" lon="34.5682866499"><ele>173.66</ele><time>2026-08-18T15:21:36Z</time></trkpt><trkpt lat="59.3639787845" lon="34.5682623424"><ele>173.66</ele><time>2026-08-18T15:21:41Z</time></trkpt><trkpt lat="59.3639569916" lon="34.5682546310"><ele>173.66</ele><time>2026-08-18T15:21:43Z</time></trkpt><trkpt lat="59.3639377132" lon="34.5682568941"><ele>173.66</ele><time>2026-08-18T15:21:45Z</time></trkpt><trkpt lat="59.3638896011" lon="34.5683049224"><ele>173.66</ele><time>2026-08-18T15:21:50Z</time></trkpt><trkpt lat="59.3638126552" lon="34.5683104545"><ele>173.66</ele><time>2026-08-18T15:22:00Z</time></trkpt><trkpt lat="59.3638111465" lon="34.5683124661"><ele>173.17</ele><time>2026-08-18T15:22:01Z</time></trkpt><trkpt lat="59.3637655489" lon="34.5683615841"><ele>173.17</ele><time>2026-08-18T15:22:12Z</time></trkpt><trkpt lat="59.3637487013" lon="34.5683671162"><ele>173.17</ele><time>2026-08-18T15:22:41Z</time></trkpt><trkpt lat="59.3637466896" lon="34.5683722291"><ele>173.17</ele><time>2026-08-18T15:23:10Z</time></trkpt><trkpt lat="59.3637096416" lon="34.5683823712"><ele>173.17</ele><time>2026-08-18T15:23:18Z</time></trkpt><trkpt lat="59.3636884354" lon="34.5683753304"><ele>173.17</ele><time>2026-08-18T15:23:20Z</time></trkpt><trkpt lat="59.3636767007" lon="34.5683685411"><ele>173.17</ele><time>2026-08-18T15:23:22Z</time></trkpt><trkpt lat="59.3635721784" lon="34.5684117917"><ele>173.17</ele><time>2026-08-18T15:23:34Z</time></trkpt><trkpt lat="59.3635345437" lon="34.5684480015"><ele>173.17</ele><time>2026-08-18T15:23:39Z</time></trkpt><trkpt lat="59.3634368107" lon="34.5685459021"><ele>173.17</ele><time>2026-08-18T15:23:51Z</time></trkpt><trkpt lat="59.3634112459" lon="34.5686127897"><ele>173.17</ele><time>2026-08-18T15:23:55Z</time></trkpt><trkpt lat="59.3633743655" lon="34.5686624106"><ele>173.17</ele><time>2026-08-18T15:24:01Z</time></trkpt><trkpt lat="59.3633513153" lon="34.5687273704"><ele>173.17</ele><time>2026-08-18T15:24:05Z</time></trkpt><trkpt lat="59.3632883672" lon="34.5688688569"><ele>173.17</ele><time>2026-08-18T15:24:15Z</time></trkpt><trkpt lat="59.3632408418" lon="34.5690376684"><ele>173.17</ele><time>2026-08-18T15:24:25Z</time></trkpt><trkpt lat="59.3631985132" lon="34.5691437833"><ele>173.17</ele><time>2026-08-18T15:24:32Z</time></trkpt><trkpt lat="59.3631666619" lon="34.5692197233"><ele>173.17</ele><time>2026-08-18T15:24:37Z</time></trkpt><trkpt lat="59.3631317932" lon="34.5692820847"><ele>173.17</ele><time>2026-08-18T15:24:45Z</time></trkpt><trkpt lat="59.3631159514" lon="34.5693147741"><ele>173.17</ele><time>2026-08-18T15:24:48Z</time></trkpt><trkpt lat="59.3630942423" lon="34.5693631377"><ele>172.69</ele><time>2026-08-18T15:24:58Z</time></trkpt><trkpt lat="59.3630975951" lon="34.5694562607"><ele>172.69</ele><time>2026-08-18T15:25:10Z</time></trkpt><trkpt lat="59.3630986847" lon="34.5694566797"><ele>172.69</ele><time>2026-08-18T15:25:38Z</time></trkpt><trkpt lat="59.3631002773" lon="34.5694548357"><ele>172.69</ele><time>2026-08-18T15:26:06Z</time></trkpt><trkpt lat="59.3631013669" lon="34.5694396645"><ele>172.69</ele><time>2026-08-18T15:26:26Z</time></trkpt><trkpt lat="59.3630944937" lon="34.5694420952"><ele>172.69</ele><time>2026-08-18T15:26:53Z</time></trkpt><trkpt lat="59.3630929850" lon="34.5694374014"><ele>172.69</ele><time>2026-08-18T15:27:27Z</time></trkpt><trkpt lat="59.3630967569" lon="34.5694279298"><ele>172.21</ele><time>2026-08-18T15:28:01Z</time></trkpt><trkpt lat="59.3630927335" lon="34.5694353059"><ele>172.21</ele><time>2026-08-18T15:28:16Z</time></trkpt><trkpt lat="59.3630358204" lon="34.5694889501"><ele>172.21</ele><time>2026-08-18T15:28:22Z</time></trkpt><trkpt lat="59.3630113453" lon="34.5694976673"><ele>172.21</ele><time>2026-08-18T15:28:24Z</time></trkpt><trkpt lat="59.3629019614" lon="34.5695571788"><ele>172.21</ele><time>2026-08-18T15:28:35Z</time></trkpt><trkpt lat="59.3628103472" lon="34.5696515590"><ele>172.21</ele><time>2026-08-18T15:28:45Z</time></trkpt><trkpt lat="59.3627877999" lon="34.5696783811"><ele>172.21</ele><time>2026-08-18T15:28:48Z</time></trkpt><trkpt lat="59.3627049029" lon="34.5697981585"><ele>172.21</ele><time>2026-08-18T15:28:58Z</time></trkpt><trkpt lat="59.3626562040" lon="34.5698434208"><ele>172.21</ele><time>2026-08-18T15:29:05Z</time></trkpt><trkpt lat="59.3625535257" lon="34.5699283294"><ele>172.21</ele><time>2026-08-18T15:29:15Z</time></trkpt><trkpt lat="59.3625184055" lon="34.5699816383"><ele>172.21</ele><time>2026-08-18T15:29:20Z</time></trkpt><trkpt lat="59.3624758255" lon="34.5699983183"><ele>172.21</ele><time>2026-08-18T15:29:25Z</time></trkpt><trkpt lat="59.3623924255" lon="34.5700525492"><ele>172.21</ele><time>2026-08-18T15:29:34Z</time></trkpt><trkpt lat="59.3623578921" lon="34.5700430777"><ele>172.21</ele><time>2026-08-18T15:29:37Z</time></trkpt><trkpt lat="59.3623319082" lon="34.5700652897"><ele>172.21</ele><time>2026-08-18T15:29:40Z</time></trkpt><trkpt lat="59.3622523639" lon="34.5701351948"><ele>172.21</ele><time>2026-08-18T15:29:49Z</time></trkpt><trkpt lat="59.3621958699" lon="34.5701419003"><ele>172.21</ele><time>2026-08-18T15:29:55Z</time></trkpt><trkpt lat="59.3621068541" lon="34.5700626913"><ele>172.21</ele><time>2026-08-18T15:30:05Z</time></trkpt><trkpt lat="59.3621073570" lon="34.5700597577"><ele>172.21</ele><time>2026-08-18T15:30:07Z</time></trkpt><trkpt lat="59.3620921019" lon="34.5700289961"><ele>172.21</ele><time>2026-08-18T15:30:09Z</time></trkpt><trkpt lat="59.3620683812" lon="34.5700142439"><ele>172.21</ele><time>2026-08-18T15:30:11Z</time></trkpt><trkpt lat="59.3620444927" lon="34.5699823927"><ele>172.21</ele><time>2026-08-18T15:30:14Z</time></trkpt><trkpt lat="59.3620285671" lon="34.5699668862"><ele>172.21</ele><time>2026-08-18T15:30:16Z</time></trkpt><trkpt lat="59.3619828019" lon="34.5700907707"><ele>172.21</ele><time>2026-08-18T15:30:27Z</time></trkpt><trkpt lat="59.3619731627" lon="34.5701405592"><ele>172.21</ele><time>2026-08-18T15:30:35Z</time></trkpt><trkpt lat="59.3619856518" lon="34.5701435767"><ele>172.21</ele><time>2026-08-18T15:31:01Z</time></trkpt><trkpt lat="59.3619833048" lon="34.5701447502"><ele>172.21</ele><time>2026-08-18T15:31:27Z</time></trkpt><trkpt lat="59.3619758449" lon="34.5701584965"><ele>172.21</ele><time>2026-08-18T15:32:01Z</time></trkpt><trkpt lat="59.3619733304" lon="34.5701555628"><ele>171.73</ele><time>2026-08-18T15:32:32Z</time></trkpt><trkpt lat="59.3619720731" lon="34.5701568201"><ele>171.73</ele><time>2026-08-18T15:32:56Z</time></trkpt><trkpt lat="59.3619667087" lon="34.5701511204"><ele>171.73</ele><time>2026-08-18T15:33:22Z</time></trkpt><trkpt lat="59.3619616795" lon="34.5701363683"><ele>171.73</ele><time>2026-08-18T15:33:41Z</time></trkpt><trkpt lat="59.3619527947" lon="34.5701554790"><ele>171.73</ele><time>2026-08-18T15:33:51Z</time></trkpt><trkpt lat="59.3619509507" lon="34.5701655373"><ele>171.73</ele><time>2026-08-18T15:34:02Z</time></trkpt><trkpt lat="59.3619456701" lon="34.5701513719"><ele>171.73</ele><time>2026-08-18T15:34:13Z</time></trkpt><trkpt lat="59.3619154114" lon="34.5700972248"><ele>171.73</ele><time>2026-08-18T15:34:27Z</time></trkpt><trkpt lat="59.3619076163" lon="34.5700900164"><ele>171.73</ele><time>2026-08-18T15:34:28Z</time></trkpt><trkpt lat="59.3618252221" lon="34.5699489489"><ele>171.73</ele><time>2026-08-18T15:34:39Z</time></trkpt><trkpt lat="59.3618252221" lon="34.5699554030"><ele>171.73</ele><time>2026-08-18T15:34:57Z</time></trkpt><trkpt lat="59.3618290778" lon="34.5700015873"><ele>171.73</ele><time>2026-08-18T15:35:12Z</time></trkpt><trkpt lat="59.3618211150" lon="34.5700068679"><ele>171.73</ele><time>2026-08-18T15:35:27Z</time></trkpt><trkpt lat="59.3618247192" lon="34.5700178482"><ele>171.73</ele><time>2026-08-18T15:35:55Z</time></trkpt><trkpt lat="59.3618299160" lon="34.5701337699"><ele>171.73</ele><time>2026-08-18T15:36:05Z</time></trkpt><trkpt lat="59.3618322629" lon="34.5699937083"><ele>171.73</ele><time>2026-08-18T15:36:21Z</time></trkpt><trkpt lat="59.3618639465" lon="34.5702019148"><ele>171.73</ele><time>2026-08-18T15:38:44Z</time></trkpt><trkpt lat="59.3619180098" lon="34.5701878332"><ele>171.73</ele><time>2026-08-18T15:39:12Z</time></trkpt><trkpt lat="59.3618781120" lon="34.5701442473"><ele>171.73</ele><time>2026-08-18T15:39:39Z</time></trkpt><trkpt lat="59.3618575763" lon="34.5701299980"><ele>171.73</ele><time>2026-08-18T15:40:06Z</time></trkpt><trkpt lat="59.3618508708" lon="34.5701193530"><ele>171.73</ele><time>2026-08-18T15:40:30Z</time></trkpt><trkpt lat="59.3618425727" lon="34.5701481029"><ele>171.73</ele><time>2026-08-18T15:40:55Z</time></trkpt><trkpt lat="59.3618707359" lon="34.5701807085"><ele>171.73</ele><time>2026-08-18T15:41:20Z</time></trkpt><trkpt lat="59.3618670478" lon="34.5701290760"><ele>171.73</ele><time>2026-08-18T15:41:44Z</time></trkpt><trkpt lat="59.3618403096" lon="34.5701084565"><ele>171.73</ele><time>2026-08-18T15:42:18Z</time></trkpt><trkpt lat="59.3618419860" lon="34.5701113064"><ele>171.73</ele><time>2026-08-18T15:42:52Z</time></trkpt><trkpt lat="59.3618431594" lon="34.5701148268"><ele>171.73</ele><time>2026-08-18T15:43:30Z</time></trkpt><trkpt lat="59.3618478533" lon="34.5701242145"><ele>171.73</ele><time>2026-08-18T15:44:02Z</time></trkpt><trkpt lat="59.3618468475" lon="34.5701294951"><ele>171.73</ele><time>2026-08-18T15:44:33Z</time></trkpt><trkpt lat="59.3618428241" lon="34.5701447502"><ele>171.25</ele><time>2026-08-18T15:44:56Z</time></trkpt><trkpt lat="59.3618412316" lon="34.5701547246"><ele>171.25</ele><time>2026-08-18T15:45:23Z</time></trkpt><trkpt lat="59.3618398067" lon="34.5701505337"><ele>171.25</ele><time>2026-08-18T15:45:47Z</time></trkpt><trkpt lat="59.3618467636" lon="34.5701270644"><ele>171.25</ele><time>2026-08-18T15:46:18Z</time></trkpt><trkpt lat="59.3618448358" lon="34.5701077860"><ele>171.25</ele><time>2026-08-18T15:46:45Z</time></trkpt><trkpt lat="59.3618422374" lon="34.5701129828"><ele>171.25</ele><time>2026-08-18T15:46:57Z</time></trkpt><trkpt lat="59.3618285749" lon="34.5700629428"><ele>171.25</ele><time>2026-08-18T15:47:09Z</time></trkpt><trkpt lat="59.3618054409" lon="34.5700414851"><ele>171.25</ele><time>2026-08-18T15:47:17Z</time></trkpt><trkpt lat="59.3618165888" lon="34.5701134857"><ele>171.25</ele><time>2026-08-18T15:47:30Z</time></trkpt><trkpt lat="59.3618273176" lon="34.5701249689"><ele>171.25</ele><time>2026-08-18T15:48:05Z</time></trkpt><trkpt lat="59.3618267309" lon="34.5701045170"><ele>171.25</ele><time>2026-08-18T15:48:42Z</time></trkpt><trkpt lat="59.3618241325" lon="34.5701040141"><ele>171.25</ele><time>2026-08-18T15:49:07Z</time></trkpt><trkpt lat="59.3618303351" lon="34.5700974762"><ele>171.25</ele><time>2026-08-18T15:49:33Z</time></trkpt><trkpt lat="59.3618324306" lon="34.5701061934"><ele>171.25</ele><time>2026-08-18T15:50:06Z</time></trkpt><trkpt lat="59.3618341908" lon="34.5701065287"><ele>171.73</ele><time>2026-08-18T15:50:33Z</time></trkpt><trkpt lat="59.3618383817" lon="34.5701022539"><ele>171.73</ele><time>2026-08-18T15:51:05Z</time></trkpt><trkpt lat="59.3618354481" lon="34.5700981468"><ele>171.73</ele><time>2026-08-18T15:51:34Z</time></trkpt><trkpt lat="59.3618315086" lon="34.5700984821"><ele>171.73</ele><time>2026-08-18T15:52:06Z</time></trkpt><trkpt lat="59.3618350290" lon="34.5700967219"><ele>171.73</ele><time>2026-08-18T15:52:41Z</time></trkpt><trkpt lat="59.3618348613" lon="34.5700926147"><ele>171.73</ele><time>2026-08-18T15:53:10Z</time></trkpt><trkpt lat="59.3618354481" lon="34.5700946264"><ele>171.73</ele><time>2026-08-18T15:53:38Z</time></trkpt><trkpt lat="59.3618368730" lon="34.5701035950"><ele>171.25</ele><time>2026-08-18T15:54:04Z</time></trkpt><trkpt lat="59.3618374597" lon="34.5701056067"><ele>171.25</ele><time>2026-08-18T15:54:35Z</time></trkpt><trkpt lat="59.3618350290" lon="34.5701040979"><ele>171.25</ele><time>2026-08-18T15:54:58Z</time></trkpt><trkpt lat="59.3618339393" lon="34.5701182634"><ele>171.25</ele><time>2026-08-18T15:55:25Z</time></trkpt><trkpt lat="59.3618331850" lon="34.5701086242"><ele>171.25</ele><time>2026-08-18T15:55:38Z</time></trkpt><trkpt lat="59.3618324306" lon="34.5701066125"><ele>171.25</ele><time>2026-08-18T15:56:00Z</time></trkpt><trkpt lat="59.3618324306" lon="34.5701000746"><ele>171.25</ele><time>2026-08-18T15:56:28Z</time></trkpt><trkpt lat="59.3618309218" lon="34.5700933691"><ele>171.25</ele><time>2026-08-18T15:56:50Z</time></trkpt><trkpt lat="59.3618314248" lon="34.5700904354"><ele>171.25</ele><time>2026-08-18T15:57:11Z</time></trkpt><trkpt lat="59.3618299160" lon="34.5700893458"><ele>171.25</ele><time>2026-08-18T15:57:42Z</time></trkpt><trkpt lat="59.3618077878" lon="34.5700222068"><ele>171.25</ele><time>2026-08-18T15:58:00Z</time></trkpt><trkpt lat="59.3618066143" lon="34.5700132381"><ele>171.25</ele><time>2026-08-18T15:58:19Z</time></trkpt><trkpt lat="59.3618054409" lon="34.5699929539"><ele>171.25</ele><time>2026-08-18T15:58:40Z</time></trkpt><trkpt lat="59.3618019205" lon="34.5699847396"><ele>171.25</ele><time>2026-08-18T15:59:02Z</time></trkpt><trkpt lat="59.3618009984" lon="34.5699856617"><ele>171.25</ele><time>2026-08-18T15:59:33Z</time></trkpt><trkpt lat="59.3618030101" lon="34.5699819736"><ele>171.25</ele><time>2026-08-18T15:59:53Z</time></trkpt><trkpt lat="59.3618132360" lon="34.5699574985"><ele>171.25</ele><time>2026-08-18T16:00:20Z</time></trkpt><trkpt lat="59.3618058600" lon="34.5699435845"><ele>171.73</ele><time>2026-08-18T16:00:31Z</time></trkpt><trkpt lat="59.3618046865" lon="34.5699436683"><ele>171.73</ele><time>2026-08-18T16:00:48Z</time></trkpt><trkpt lat="59.3618025910" lon="34.5699429139"><ele>171.73</ele><time>2026-08-18T16:01:10Z</time></trkpt><trkpt lat="59.3618010823" lon="34.5699356217"><ele>171.73</ele><time>2026-08-18T16:01:38Z</time></trkpt><trkpt lat="59.3617971428" lon="34.5699407347"><ele>171.73</ele><time>2026-08-18T16:02:05Z</time></trkpt><trkpt lat="59.3617922813" lon="34.5699442551"><ele>171.73</ele><time>2026-08-18T16:02:22Z</time></trkpt><trkpt lat="59.3617911916" lon="34.5699489489"><ele>171.73</ele><time>2026-08-18T16:02:50Z</time></trkpt><trkpt lat="59.3617937062" lon="34.5699359570"><ele>171.73</ele><time>2026-08-18T16:03:10Z</time></trkpt><trkpt lat="59.3617998250" lon="34.5699364599"><ele>172.21</ele><time>2026-08-18T16:03:33Z</time></trkpt><trkpt lat="59.3617989030" lon="34.5699414052"><ele>172.21</ele><time>2026-08-18T16:03:51Z</time></trkpt><trkpt lat="59.3617981486" lon="34.5699583367"><ele>172.21</ele><time>2026-08-18T16:04:21Z</time></trkpt><trkpt lat="59.3617982324" lon="34.5699622761"><ele>172.21</ele><time>2026-08-18T16:04:55Z</time></trkpt><trkpt lat="59.3618011661" lon="34.5699398965"><ele>172.21</ele><time>2026-08-18T16:05:31Z</time></trkpt><trkpt lat="59.3617981486" lon="34.5699448418"><ele>172.21</ele><time>2026-08-18T16:06:04Z</time></trkpt><trkpt lat="59.3617854081" lon="34.5699059498"><ele>172.21</ele><time>2026-08-18T16:06:15Z</time></trkpt><trkpt lat="59.3617683090" lon="34.5698877610"><ele>172.21</ele><time>2026-08-18T16:06:33Z</time></trkpt><trkpt lat="59.3617734220" lon="34.5698885154"><ele>172.69</ele><time>2026-08-18T16:06:58Z</time></trkpt><trkpt lat="59.3617697340" lon="34.5698824804"><ele>172.69</ele><time>2026-08-18T16:07:13Z</time></trkpt><trkpt lat="59.3617793731" lon="34.5698911138"><ele>172.69</ele><time>2026-08-18T16:07:29Z</time></trkpt><trkpt lat="59.3617864978" lon="34.5698959753"><ele>172.69</ele><time>2026-08-18T16:07:53Z</time></trkpt><trkpt lat="59.3617874198" lon="34.5699045248"><ele>173.17</ele><time>2026-08-18T16:08:20Z</time></trkpt><trkpt lat="59.3617883418" lon="34.5699024294"><ele>173.17</ele><time>2026-08-18T16:08:30Z</time></trkpt><trkpt lat="59.3618180975" lon="34.5699269883"><ele>173.17</ele><time>2026-08-18T16:08:40Z</time></trkpt><trkpt lat="59.3618215341" lon="34.5699309278"><ele>173.17</ele><time>2026-08-18T16:09:12Z</time></trkpt><trkpt lat="59.3618238810" lon="34.5699328557"><ele>173.17</ele><time>2026-08-18T16:09:48Z</time></trkpt><trkpt lat="59.3618279882" lon="34.5699481107"><ele>173.17</ele><time>2026-08-18T16:10:20Z</time></trkpt><trkpt lat="59.3618256412" lon="34.5699554030"><ele>173.17</ele><time>2026-08-18T16:11:02Z</time></trkpt><trkpt lat="59.3618295807" lon="34.5699578337"><ele>172.69</ele><time>2026-08-18T16:11:34Z</time></trkpt><trkpt lat="59.3618305866" lon="34.5699604321"><ele>172.69</ele><time>2026-08-18T16:12:10Z</time></trkpt><trkpt lat="59.3618166726" lon="34.5699596778"><ele>172.69</ele><time>2026-08-18T16:12:28Z</time></trkpt><trkpt lat="59.3618170079" lon="34.5699591748"><ele>172.69</ele><time>2026-08-18T16:12:32Z</time></trkpt><trkpt lat="59.3617837317" lon="34.5699226297"><ele>172.69</ele><time>2026-08-18T16:12:37Z</time></trkpt><trkpt lat="59.3617350329" lon="34.5698575862"><ele>173.17</ele><time>2026-08-18T16:12:49Z</time></trkpt><trkpt lat="59.3617042713" lon="34.5698139165"><ele>173.17</ele><time>2026-08-18T16:12:58Z</time></trkpt><trkpt lat="59.3616455980" lon="34.5697852504"><ele>173.17</ele><time>2026-08-18T16:13:04Z</time></trkpt><trkpt lat="59.3616103102" lon="34.5697903633"><ele>172.69</ele><time>2026-08-18T16:13:09Z</time></trkpt><trkpt lat="59.3615657184" lon="34.5697808918"><ele>172.69</ele><time>2026-08-18T16:13:14Z</time></trkpt><trkpt lat="59.3614844978" lon="34.5698452648"><ele>172.69</ele><time>2026-08-18T16:13:22Z</time></trkpt><trkpt lat="59.3614445999" lon="34.5698442589"><ele>172.69</ele><time>2026-08-18T16:13:28Z</time></trkpt><trkpt lat="59.3613871839" lon="34.5697824843"><ele>172.69</ele><time>2026-08-18T16:13:39Z</time></trkpt><trkpt lat="59.3613311928" lon="34.5697148424"><ele>172.69</ele><time>2026-08-18T16:13:54Z</time></trkpt><trkpt lat="59.3613166083" lon="34.5696390700"><ele>172.69</ele><time>2026-08-18T16:14:02Z</time></trkpt><trkpt lat="59.3612795603" lon="34.5696074702"><ele>172.69</ele><time>2026-08-18T16:14:08Z</time></trkpt><trkpt lat="59.3612086494" lon="34.5694312826"><ele>172.69</ele><time>2026-08-18T16:14:19Z</time></trkpt><trkpt lat="59.3611716013" lon="34.5693444461"><ele>172.69</ele><time>2026-08-18T16:14:31Z</time></trkpt><trkpt lat="59.3611674942" lon="34.5693192165"><ele>172.69</ele><time>2026-08-18T16:14:33Z</time></trkpt><trkpt lat="59.3611412589" lon="34.5692333020"><ele>172.69</ele><time>2026-08-18T16:14:40Z</time></trkpt><trkpt lat="59.3610790651" lon="34.5690934081"><ele>172.69</ele><time>2026-08-18T16:14:50Z</time></trkpt><trkpt lat="59.3610260915" lon="34.5690151211"><ele>172.69</ele><time>2026-08-18T16:14:57Z</time></trkpt><trkpt lat="59.3609755486" lon="34.5689411927"><ele>172.69</ele><time>2026-08-18T16:15:07Z</time></trkpt><trkpt lat="59.3609359860" lon="34.5688994508"><ele>172.69</ele><time>2026-08-18T16:15:12Z</time></trkpt><trkpt lat="59.3608724512" lon="34.5687343273"><ele>172.69</ele><time>2026-08-18T16:15:23Z</time></trkpt><trkpt lat="59.3608193938" lon="34.5686173998"><ele>172.69</ele><time>2026-08-18T16:15:33Z</time></trkpt><trkpt lat="59.3607691023" lon="34.5685021486"><ele>172.69</ele><time>2026-08-18T16:15:45Z</time></trkpt><trkpt lat="59.3607603852" lon="34.5684755780"><ele>172.69</ele><time>2026-08-18T16:15:47Z</time></trkpt><trkpt lat="59.3607432023" lon="34.5683982130"><ele>172.69</ele><time>2026-08-18T16:15:56Z</time></trkpt><trkpt lat="59.3607111834" lon="34.5682801120"><ele>172.69</ele><time>2026-08-18T16:16:06Z</time></trkpt><trkpt lat="59.3606778234" lon="34.5681583229"><ele>172.69</ele><time>2026-08-18T16:16:15Z</time></trkpt><trkpt lat="59.3606600538" lon="34.5680285711"><ele>172.69</ele><time>2026-08-18T16:16:21Z</time></trkpt><trkpt lat="59.3606479000" lon="34.5678414032"><ele>172.69</ele><time>2026-08-18T16:16:31Z</time></trkpt><trkpt lat="59.3606245145" lon="34.5677776169"><ele>172.69</ele><time>2026-08-18T16:16:36Z</time></trkpt><trkpt lat="59.3606313877" lon="34.5677154232"><ele>172.69</ele><time>2026-08-18T16:16:39Z</time></trkpt><trkpt lat="59.3606016319" lon="34.5676207915"><ele>172.69</ele><time>2026-08-18T16:16:50Z</time></trkpt><trkpt lat="59.3605237640" lon="34.5675594360"><ele>172.69</ele><time>2026-08-18T16:17:03Z</time></trkpt><trkpt lat="59.3604961876" lon="34.5675286744"><ele>172.69</ele><time>2026-08-18T16:17:13Z</time></trkpt><trkpt lat="59.3604218401" lon="34.5675321110"><ele>172.69</ele><time>2026-08-18T16:17:25Z</time></trkpt><trkpt lat="59.3603749853" lon="34.5674816519"><ele>172.69</ele><time>2026-08-18T16:17:37Z</time></trkpt><trkpt lat="59.3603103608" lon="34.5674494654"><ele>172.69</ele><time>2026-08-18T16:17:49Z</time></trkpt><trkpt lat="59.3602598179" lon="34.5674122497"><ele>172.69</ele><time>2026-08-18T16:18:02Z</time></trkpt><trkpt lat="59.3601604085" lon="34.5672851801"><ele>172.69</ele><time>2026-08-18T16:18:14Z</time></trkpt><trkpt lat="59.3600875698" lon="34.5672474615"><ele>172.69</ele><time>2026-08-18T16:18:28Z</time></trkpt><trkpt lat="59.3600037508" lon="34.5672754571"><ele>172.69</ele><time>2026-08-18T16:18:39Z</time></trkpt><trkpt lat="59.3599203508" lon="34.5673208870"><ele>172.69</ele><time>2026-08-18T16:18:52Z</time></trkpt><trkpt lat="59.3598318379" lon="34.5673011057"><ele>172.69</ele><time>2026-08-18T16:19:03Z</time></trkpt><trkpt lat="59.3597574905" lon="34.5672752894"><ele>172.69</ele><time>2026-08-18T16:19:15Z</time></trkpt><trkpt lat="59.3597519584" lon="34.5672717690"><ele>172.69</ele><time>2026-08-18T16:19:21Z</time></trkpt><trkpt lat="59.3596689776" lon="34.5672741160"><ele>172.69</ele><time>2026-08-18T16:19:33Z</time></trkpt><trkpt lat="59.3595968094" lon="34.5673021115"><ele>172.69</ele><time>2026-08-18T16:19:45Z</time></trkpt><trkpt lat="59.3595903553" lon="34.5674071368"><ele>172.69</ele><time>2026-08-18T16:20:00Z</time></trkpt><trkpt lat="59.3595388904" lon="34.5675824862"><ele>172.69</ele><time>2026-08-18T16:20:15Z</time></trkpt><trkpt lat="59.3594773673" lon="34.5676261559"><ele>172.69</ele><time>2026-08-18T16:20:25Z</time></trkpt><trkpt lat="59.3594450969" lon="34.5676464401"><ele>172.69</ele><time>2026-08-18T16:20:27Z</time></trkpt><trkpt lat="59.3593402393" lon="34.5676209591"><ele>172.69</ele><time>2026-08-18T16:20:39Z</time></trkpt><trkpt lat="59.3592794705" lon="34.5674773771"><ele>172.69</ele><time>2026-08-18T16:20:52Z</time></trkpt><trkpt lat="59.3592189532" lon="34.5674548298"><ele>172.69</ele><time>2026-08-18T16:21:05Z</time></trkpt><trkpt lat="59.3591565918" lon="34.5675578434"><ele>172.69</ele><time>2026-08-18T16:21:17Z</time></trkpt><trkpt lat="59.3591334578" lon="34.5675487071"><ele>172.69</ele><time>2026-08-18T16:21:22Z</time></trkpt><trkpt lat="59.3590472080" lon="34.5674990863"><ele>172.69</ele><time>2026-08-18T16:21:31Z</time></trkpt><trkpt lat="59.3589771353" lon="34.5674684085"><ele>172.69</ele><time>2026-08-18T16:21:38Z</time></trkpt><trkpt lat="59.3589302804" lon="34.5673974976"><ele>172.69</ele><time>2026-08-18T16:21:45Z</time></trkpt><trkpt lat="59.3589203060" lon="34.5673660655"><ele>172.69</ele><time>2026-08-18T16:21:55Z</time></trkpt><trkpt lat="59.3589324597" lon="34.5673674066"><ele>172.69</ele><time>2026-08-18T16:22:19Z</time></trkpt><trkpt lat="59.3589382432" lon="34.5673866011"><ele>172.69</ele><time>2026-08-18T16:22:51Z</time></trkpt><trkpt lat="59.3589391652" lon="34.5673880260"><ele>172.69</ele><time>2026-08-18T16:23:24Z</time></trkpt><trkpt lat="59.3589391652" lon="34.5673865173"><ele>172.69</ele><time>2026-08-18T16:23:27Z</time></trkpt><trkpt lat="59.3588613812" lon="34.5672135148"><ele>172.69</ele><time>2026-08-18T16:23:40Z</time></trkpt><trkpt lat="59.3588362355" lon="34.5671146922"><ele>172.69</ele><time>2026-08-18T16:23:47Z</time></trkpt><trkpt lat="59.3588146940" lon="34.5670626406"><ele>172.69</ele><time>2026-08-18T16:24:03Z</time></trkpt><trkpt lat="59.3588127661" lon="34.5670699328"><ele>172.69</ele><time>2026-08-18T16:24:19Z</time></trkpt><trkpt lat="59.3588131852" lon="34.5670727827"><ele>172.69</ele><time>2026-08-18T16:24:34Z</time></trkpt><trkpt lat="59.3587901350" lon="34.5670052245"><ele>172.69</ele><time>2026-08-18T16:24:48Z</time></trkpt><trkpt lat="59.3587368261" lon="34.5668152068"><ele>172.69</ele><time>2026-08-18T16:25:02Z</time></trkpt><trkpt lat="59.3586647417" lon="34.5666760672"><ele>172.69</ele><time>2026-08-18T16:25:15Z</time></trkpt><trkpt lat="59.3586139474" lon="34.5665961038"><ele>172.69</ele><time>2026-08-18T16:25:24Z</time></trkpt><trkpt lat="59.3586003687" lon="34.5665755682"><ele>172.69</ele><time>2026-08-18T16:25:26Z</time></trkpt><trkpt lat="59.3585204892" lon="34.5664278790"><ele>172.69</ele><time>2026-08-18T16:25:39Z</time></trkpt><trkpt lat="59.3584618997" lon="34.5662908349"><ele>172.69</ele><time>2026-08-18T16:25:50Z</time></trkpt><trkpt lat="59.3583936710" lon="34.5661329199"><ele>172.69</ele><time>2026-08-18T16:26:02Z</time></trkpt><trkpt lat="59.3583019730" lon="34.5659755915"><ele>172.69</ele><time>2026-08-18T16:26:16Z</time></trkpt><trkpt lat="59.3582417071" lon="34.5658300817"><ele>172.69</ele><time>2026-08-18T16:26:27Z</time></trkpt><trkpt lat="59.3581835367" lon="34.5656678919"><ele>172.69</ele><time>2026-08-18T16:26:38Z</time></trkpt><trkpt lat="59.3581501767" lon="34.5656298380"><ele>172.69</ele><time>2026-08-18T16:26:43Z</time></trkpt><trkpt lat="59.3581131287" lon="34.5655647106"><ele>173.17</ele><time>2026-08-18T16:26:50Z</time></trkpt><trkpt lat="59.3580691237" lon="34.5654518064"><ele>173.17</ele><time>2026-08-18T16:27:01Z</time></trkpt><trkpt lat="59.3580053374" lon="34.5653368905"><ele>173.17</ele><time>2026-08-18T16:27:10Z</time></trkpt><trkpt lat="59.3579929322" lon="34.5653130859"><ele>173.17</ele><time>2026-08-18T16:27:12Z</time></trkpt><trkpt lat="59.3579810299" lon="34.5652871858"><ele>173.17</ele><time>2026-08-18T16:27:14Z</time></trkpt><trkpt lat="59.3579548784" lon="34.5652212203"><ele>173.17</ele><time>2026-08-18T16:27:27Z</time></trkpt><trkpt lat="59.3578861468" lon="34.5651600324"><ele>173.17</ele><time>2026-08-18T16:27:42Z</time></trkpt><trkpt lat="59.3578745797" lon="34.5651383232"><ele>173.17</ele><time>2026-08-18T16:27:44Z</time></trkpt><trkpt lat="59.3578594923" lon="34.5651239064"><ele>173.17</ele><time>2026-08-18T16:27:46Z</time></trkpt><trkpt lat="59.3578170799" lon="34.5650073979"><ele>173.17</ele><time>2026-08-18T16:27:56Z</time></trkpt><trkpt lat="59.3578041717" lon="34.5649807435"><ele>173.17</ele><time>2026-08-18T16:27:59Z</time></trkpt><trkpt lat="59.3577638548" lon="34.5649439469"><ele>173.17</ele><time>2026-08-18T16:28:04Z</time></trkpt><trkpt lat="59.3576979730" lon="34.5648473036"><ele>173.17</ele><time>2026-08-18T16:28:14Z</time></trkpt><trkpt lat="59.3576555606" lon="34.5648231637"><ele>173.17</ele><time>2026-08-18T16:28:22Z</time></trkpt><trkpt lat="59.3576196022" lon="34.5648221578"><ele>173.17</ele><time>2026-08-18T16:28:28Z</time></trkpt><trkpt lat="59.3575678021" lon="34.5647680946"><ele>173.17</ele><time>2026-08-18T16:28:37Z</time></trkpt><trkpt lat="59.3575145770" lon="34.5646898914"><ele>172.21</ele><time>2026-08-18T16:28:45Z</time></trkpt><trkpt lat="59.3574559037" lon="34.5646324754"><ele>172.21</ele><time>2026-08-18T16:28:56Z</time></trkpt><trkpt lat="59.3574370444" lon="34.5646302961"><ele>172.21</ele><time>2026-08-18T16:28:58Z</time></trkpt><trkpt lat="59.3573533930" lon="34.5645771548"><ele>172.21</ele><time>2026-08-18T16:29:07Z</time></trkpt><trkpt lat="59.3573222961" lon="34.5645546075"><ele>172.21</ele><time>2026-08-18T16:29:13Z</time></trkpt><trkpt lat="59.3573108129" lon="34.5645354129"><ele>172.21</ele><time>2026-08-18T16:29:15Z</time></trkpt><trkpt lat="59.3572299276" lon="34.5644996222"><ele>172.21</ele><time>2026-08-18T16:29:25Z</time></trkpt><trkpt lat="59.3571969029" lon="34.5644668490"><ele>172.21</ele><time>2026-08-18T16:29:29Z</time></trkpt><trkpt lat="59.3570821546" lon="34.5643899869"><ele>172.21</ele><time>2026-08-18T16:29:42Z</time></trkpt><trkpt lat="59.3570279237" lon="34.5643202495"><ele>172.21</ele><time>2026-08-18T16:29:52Z</time></trkpt><trkpt lat="59.3569997605" lon="34.5643053297"><ele>172.21</ele><time>2026-08-18T16:29:57Z</time></trkpt><trkpt lat="59.3569457810" lon="34.5642748196"><ele>172.21</ele><time>2026-08-18T16:30:05Z</time></trkpt><trkpt lat="59.3568705115" lon="34.5642601512"><ele>172.21</ele><time>2026-08-18T16:30:15Z</time></trkpt><trkpt lat="59.3568473775" lon="34.5642452314"><ele>172.21</ele><time>2026-08-18T16:30:20Z</time></trkpt><trkpt lat="59.3566557672" lon="34.5641472470"><ele>172.21</ele><time>2026-08-18T16:30:36Z</time></trkpt><trkpt lat="59.3565878738" lon="34.5640822873"><ele>172.21</ele><time>2026-08-18T16:30:55Z</time></trkpt><trkpt lat="59.3565086648" lon="34.5639640186"><ele>172.21</ele><time>2026-08-18T16:31:07Z</time></trkpt><trkpt lat="59.3564299587" lon="34.5639126375"><ele>172.21</ele><time>2026-08-18T16:31:22Z</time></trkpt><trkpt lat="59.3563646637" lon="34.5639263839"><ele>172.21</ele><time>2026-08-18T16:31:36Z</time></trkpt><trkpt lat="59.3563576229" lon="34.5639137272"><ele>172.21</ele><time>2026-08-18T16:31:39Z</time></trkpt><trkpt lat="59.3563176412" lon="34.5638782717"><ele>172.21</ele><time>2026-08-18T16:31:53Z</time></trkpt><trkpt lat="59.3562450539" lon="34.5638407208"><ele>172.21</ele><time>2026-08-18T16:32:07Z</time></trkpt><trkpt lat="59.3561757356" lon="34.5637496933"><ele>172.21</ele><time>2026-08-18T16:32:11Z</time></trkpt><trkpt lat="59.3561206665" lon="34.5636614319"><ele>172.21</ele><time>2026-08-18T16:32:25Z</time></trkpt><trkpt lat="59.3560757395" lon="34.5636285748"><ele>172.21</ele><time>2026-08-18T16:32:39Z</time></trkpt><trkpt lat="59.3560069241" lon="34.5635522157"><ele>172.21</ele><time>2026-08-18T16:32:51Z</time></trkpt><trkpt lat="59.3559784256" lon="34.5635205321"><ele>173.17</ele><time>2026-08-18T16:33:00Z</time></trkpt><trkpt lat="59.3558728974" lon="34.5633694064"><ele>173.17</ele><time>2026-08-18T16:33:12Z</time></trkpt><trkpt lat="59.3557523657" lon="34.5632613637"><ele>173.66</ele><time>2026-08-18T16:33:27Z</time></trkpt><trkpt lat="59.3556857295" lon="34.5631742757"><ele>173.66</ele><time>2026-08-18T16:33:40Z</time></trkpt><trkpt lat="59.3556257151" lon="34.5631082263"><ele>173.66</ele><time>2026-08-18T16:33:52Z</time></trkpt><trkpt lat="59.3555274792" lon="34.5629860181"><ele>172.69</ele><time>2026-08-18T16:34:06Z</time></trkpt><trkpt lat="59.3554186821" lon="34.5628529135"><ele>172.69</ele><time>2026-08-18T16:34:21Z</time></trkpt><trkpt lat="59.3553427421" lon="34.5627954975"><ele>172.69</ele><time>2026-08-18T16:34:31Z</time></trkpt><trkpt lat="59.3552398123" lon="34.5627686754"><ele>172.69</ele><time>2026-08-18T16:34:44Z</time></trkpt><trkpt lat="59.3552281614" lon="34.5627731178"><ele>172.69</ele><time>2026-08-18T16:34:56Z</time></trkpt><trkpt lat="59.3552202825" lon="34.5627624728"><ele>172.69</ele><time>2026-08-18T16:35:10Z</time></trkpt><trkpt lat="59.3552602641" lon="34.5627771411"><ele>172.69</ele><time>2026-08-18T16:35:32Z</time></trkpt><trkpt lat="59.3552394770" lon="34.5627535880"><ele>172.21</ele><time>2026-08-18T16:36:01Z</time></trkpt><trkpt lat="59.3552212883" lon="34.5627288613"><ele>172.21</ele><time>2026-08-18T16:36:28Z</time></trkpt><trkpt lat="59.3552063685" lon="34.5627497323"><ele>172.21</ele><time>2026-08-18T16:36:47Z</time></trkpt><trkpt lat="59.3552030995" lon="34.5627524983"><ele>172.21</ele><time>2026-08-18T16:37:00Z</time></trkpt><trkpt lat="59.3551406544" lon="34.5627927314"><ele>172.21</ele><time>2026-08-18T16:37:08Z</time></trkpt><trkpt lat="59.3550950568" lon="34.5627793204"><ele>172.21</ele><time>2026-08-18T16:37:14Z</time></trkpt><trkpt lat="59.3550125789" lon="34.5628338028"><ele>172.21</ele><time>2026-08-18T16:37:27Z</time></trkpt><trkpt lat="59.3549387343" lon="34.5628193021"><ele>172.21</ele><time>2026-08-18T16:37:39Z</time></trkpt><trkpt lat="59.3549025245" lon="34.5628258400"><ele>172.21</ele><time>2026-08-18T16:37:51Z</time></trkpt><trkpt lat="59.3548734393" lon="34.5628342219"><ele>172.21</ele><time>2026-08-18T16:38:03Z</time></trkpt><trkpt lat="59.3547532428" lon="34.5628720243"><ele>172.21</ele><time>2026-08-18T16:38:16Z</time></trkpt><trkpt lat="59.3546785600" lon="34.5629181247"><ele>172.21</ele><time>2026-08-18T16:38:29Z</time></trkpt><trkpt lat="59.3545752112" lon="34.5629274286"><ele>172.69</ele><time>2026-08-18T16:38:40Z</time></trkpt><trkpt lat="59.3545044679" lon="34.5629548375"><ele>172.69</ele><time>2026-08-18T16:38:50Z</time></trkpt><trkpt lat="59.3543509953" lon="34.5629773010"><ele>172.69</ele><time>2026-08-18T16:39:02Z</time></trkpt><trkpt lat="59.3543246761" lon="34.5630088169"><ele>172.69</ele><time>2026-08-18T16:39:13Z</time></trkpt><trkpt lat="59.3542681821" lon="34.5630980842"><ele>172.69</ele><time>2026-08-18T16:39:29Z</time></trkpt><trkpt lat="59.3540933356" lon="34.5630907919"><ele>172.69</ele><time>2026-08-18T16:39:43Z</time></trkpt><trkpt lat="59.3540184014" lon="34.5630442724"><ele>172.69</ele><time>2026-08-18T16:39:48Z</time></trkpt><trkpt lat="59.3539196625" lon="34.5629737806"><ele>172.69</ele><time>2026-08-18T16:40:02Z</time></trkpt><trkpt lat="59.3538475782" lon="34.5629449468"><ele>172.69</ele><time>2026-08-18T16:40:20Z</time></trkpt><trkpt lat="59.3537946884" lon="34.5629006065"><ele>172.69</ele><time>2026-08-18T16:40:50Z</time></trkpt><trkpt lat="59.3537596520" lon="34.5628098305"><ele>172.69</ele><time>2026-08-18T16:41:01Z</time></trkpt><trkpt lat="59.3536694627" lon="34.5627343096"><ele>172.69</ele><time>2026-08-18T16:41:16Z</time></trkpt><trkpt lat="59.3535912596" lon="34.5626282785"><ele>171.73</ele><time>2026-08-18T16:41:31Z</time></trkpt><trkpt lat="59.3535402976" lon="34.5625603013"><ele>171.73</ele><time>2026-08-18T16:41:42Z</time></trkpt><trkpt lat="59.3535371963" lon="34.5625902247"><ele>171.73</ele><time>2026-08-18T16:42:10Z</time></trkpt><trkpt lat="59.3535112124" lon="34.5625836868"><ele>171.73</ele><time>2026-08-18T16:42:31Z</time></trkpt><trkpt lat="59.3535161577" lon="34.5625673421"><ele>171.73</ele><time>2026-08-18T16:42:55Z</time></trkpt><trkpt lat="59.3535157386" lon="34.5625479799"><ele>172.21</ele><time>2026-08-18T16:43:33Z</time></trkpt><trkpt lat="59.3534784392" lon="34.5625090878"><ele>172.21</ele><time>2026-08-18T16:44:00Z</time></trkpt><trkpt lat="59.3534705602" lon="34.5625011250"><ele>172.21</ele><time>2026-08-18T16:44:29Z</time></trkpt><trkpt lat="59.3534684647" lon="34.5625066571"><ele>172.21</ele><time>2026-08-18T16:44:49Z</time></trkpt><trkpt lat="59.3537228554" lon="34.5626765583"><ele>172.21</ele><time>2026-08-18T16:45:55Z</time></trkpt><trkpt lat="59.3535016570" lon="34.5627829246"><ele>172.69</ele><time>2026-08-18T16:46:26Z</time></trkpt><trkpt lat="59.3534845579" lon="34.5627712738"><ele>172.69</ele><time>2026-08-18T16:46:55Z</time></trkpt><trkpt lat="59.3534304947" lon="34.5627321303"><ele>173.17</ele><time>2026-08-18T16:47:21Z</time></trkpt><trkpt lat="59.3534364458" lon="34.5627300348"><ele>173.66</ele><time>2026-08-18T16:47:49Z</time></trkpt><trkpt lat="59.3534736615" lon="34.5627071522"><ele>172.69</ele><time>2026-08-18T16:48:10Z</time></trkpt><trkpt lat="59.3534810375" lon="34.5627138577"><ele>174.14</ele><time>2026-08-18T16:48:39Z</time></trkpt><trkpt lat="59.3534673750" lon="34.5626937412"><ele>174.62</ele><time>2026-08-18T16:48:57Z</time></trkpt><trkpt lat="59.3534387089" lon="34.5627006143"><ele>175.10</ele><time>2026-08-18T16:49:21Z</time></trkpt><trkpt lat="59.3534397148" lon="34.5626707748"><ele>175.58</ele><time>2026-08-18T16:49:41Z</time></trkpt><trkpt lat="59.3534639385" lon="34.5626427792"><ele>175.58</ele><time>2026-08-18T16:50:07Z</time></trkpt><trkpt lat="59.3534636032" lon="34.5626440365"><ele>176.06</ele><time>2026-08-18T16:50:33Z</time></trkpt><trkpt lat="59.3534629326" lon="34.5626380853"><ele>174.62</ele><time>2026-08-18T16:50:54Z</time></trkpt><trkpt lat="59.3534711469" lon="34.5626223274"><ele>175.10</ele><time>2026-08-18T16:51:19Z</time></trkpt><trkpt lat="59.3534707278" lon="34.5626178849"><ele>175.10</ele><time>2026-08-18T16:51:44Z</time></trkpt><trkpt lat="59.3534705602" lon="34.5626064017"><ele>175.10</ele><time>2026-08-18T16:52:17Z</time></trkpt><trkpt lat="59.3534693867" lon="34.5625838544"><ele>175.58</ele><time>2026-08-18T16:52:43Z</time></trkpt><trkpt lat="59.3534552213" lon="34.5625473093"><ele>175.58</ele><time>2026-08-18T16:52:58Z</time></trkpt><trkpt lat="59.3534305785" lon="34.5625340659"><ele>175.58</ele><time>2026-08-18T16:53:12Z</time></trkpt><trkpt lat="59.3534234539" lon="34.5625332277"><ele>175.58</ele><time>2026-08-18T16:53:15Z</time></trkpt><trkpt lat="59.3533311691" lon="34.5625758916"><ele>175.58</ele><time>2026-08-18T16:53:27Z</time></trkpt><trkpt lat="59.3532790337" lon="34.5625939965"><ele>175.58</ele><time>2026-08-18T16:53:37Z</time></trkpt><trkpt lat="59.3532475177" lon="34.5625880454"><ele>176.06</ele><time>2026-08-18T16:53:44Z</time></trkpt><trkpt lat="59.3531835638" lon="34.5625475608"><ele>176.06</ele><time>2026-08-18T16:53:57Z</time></trkpt><trkpt lat="59.3530775327" lon="34.5625211578"><ele>177.02</ele><time>2026-08-18T16:54:09Z</time></trkpt><trkpt lat="59.3529787101" lon="34.5625666715"><ele>177.02</ele><time>2026-08-18T16:54:18Z</time></trkpt><trkpt lat="59.3528715894" lon="34.5626471378"><ele>177.02</ele><time>2026-08-18T16:54:31Z</time></trkpt><trkpt lat="59.3528233096" lon="34.5627032965"><ele>177.02</ele><time>2026-08-18T16:54:43Z</time></trkpt><trkpt lat="59.3527994212" lon="34.5627726987"><ele>177.50</ele><time>2026-08-18T16:54:59Z</time></trkpt><trkpt lat="59.3527677376" lon="34.5628052205"><ele>177.50</ele><time>2026-08-18T16:55:23Z</time></trkpt><trkpt lat="59.3526923005" lon="34.5628243312"><ele>177.50</ele><time>2026-08-18T16:55:35Z</time></trkpt><trkpt lat="59.3526195455" lon="34.5627469663"><ele>177.50</ele><time>2026-08-18T16:55:45Z</time></trkpt><trkpt lat="59.3524821661" lon="34.5627644844"><ele>177.50</ele><time>2026-08-18T16:55:59Z</time></trkpt><trkpt lat="59.3524477165" lon="34.5628695935"><ele>177.50</ele><time>2026-08-18T16:56:12Z</time></trkpt><trkpt lat="59.3524410948" lon="34.5629798155"><ele>177.50</ele><time>2026-08-18T16:56:29Z</time></trkpt><trkpt lat="59.3524072319" lon="34.5631462801"><ele>177.50</ele><time>2026-08-18T16:56:50Z</time></trkpt><trkpt lat="59.3523517437" lon="34.5633151755"><ele>177.50</ele><time>2026-08-18T16:57:04Z</time></trkpt><trkpt lat="59.3522818387" lon="34.5633381419"><ele>177.50</ele><time>2026-08-18T16:57:20Z</time></trkpt><trkpt lat="59.3521688506" lon="34.5633461047"><ele>177.50</ele><time>2026-08-18T16:57:35Z</time></trkpt><trkpt lat="59.3520670105" lon="34.5633621141"><ele>176.06</ele><time>2026-08-18T16:57:46Z</time></trkpt><trkpt lat="59.3519605603" lon="34.5633667242"><ele>176.06</ele><time>2026-08-18T16:57:56Z</time></trkpt><trkpt lat="59.3519460596" lon="34.5633377228"><ele>176.06</ele><time>2026-08-18T16:58:03Z</time></trkpt><trkpt lat="59.3519183993" lon="34.5633151755"><ele>176.06</ele><time>2026-08-18T16:58:06Z</time></trkpt><trkpt lat="59.3518794235" lon="34.5632430073"><ele>175.58</ele><time>2026-08-18T16:58:16Z</time></trkpt><trkpt lat="59.3518643361" lon="34.5632212143"><ele>175.58</ele><time>2026-08-18T16:58:19Z</time></trkpt><trkpt lat="59.3517831992" lon="34.5631675702"><ele>175.58</ele><time>2026-08-18T16:58:30Z</time></trkpt><trkpt lat="59.3517590594" lon="34.5631346293"><ele>175.10</ele><time>2026-08-18T16:58:34Z</time></trkpt><trkpt lat="59.3516271282" lon="34.5629929751"><ele>175.10</ele><time>2026-08-18T16:58:47Z</time></trkpt><trkpt lat="59.3516162317" lon="34.5629674103"><ele>175.10</ele><time>2026-08-18T16:58:49Z</time></trkpt><trkpt lat="59.3515655212" lon="34.5629003551"><ele>175.10</ele><time>2026-08-18T16:59:00Z</time></trkpt><trkpt lat="59.3515636772" lon="34.5629011933"><ele>175.10</ele><time>2026-08-18T16:59:21Z</time></trkpt><trkpt lat="59.3515659403" lon="34.5628923085"><ele>175.10</ele><time>2026-08-18T16:59:53Z</time></trkpt><trkpt lat="59.3515734840" lon="34.5628855191"><ele>175.10</ele><time>2026-08-18T17:00:14Z</time></trkpt><trkpt lat="59.3515666109" lon="34.5628787298"><ele>175.10</ele><time>2026-08-18T17:00:41Z</time></trkpt><trkpt lat="59.3515660241" lon="34.5628597029"><ele>175.10</ele><time>2026-08-18T17:01:09Z</time></trkpt><trkpt lat="59.3515623361" lon="34.5628433581"><ele>175.10</ele><time>2026-08-18T17:01:41Z</time></trkpt><trkpt lat="59.3515633419" lon="34.5628466271"><ele>175.10</ele><time>2026-08-18T17:02:07Z</time></trkpt><trkpt lat="59.3515628390" lon="34.5628477167"><ele>175.10</ele><time>2026-08-18T17:02:41Z</time></trkpt><trkpt lat="59.3515586480" lon="34.5628488902"><ele>175.10</ele><time>2026-08-18T17:03:04Z</time></trkpt><trkpt lat="59.3515506852" lon="34.5628400054"><ele>175.10</ele><time>2026-08-18T17:03:21Z</time></trkpt><trkpt lat="59.3514890783" lon="34.5628048014"><ele>175.10</ele><time>2026-08-18T17:03:34Z</time></trkpt><trkpt lat="59.3514283933" lon="34.5627655741"><ele>175.10</ele><time>2026-08-18T17:03:47Z</time></trkpt><trkpt lat="59.3513832986" lon="34.5627281908"><ele>175.10</ele><time>2026-08-18T17:04:00Z</time></trkpt><trkpt lat="59.3512040935" lon="34.5626048930"><ele>175.10</ele><time>2026-08-18T17:04:15Z</time></trkpt><trkpt lat="59.3511289079" lon="34.5624936651"><ele>176.06</ele><time>2026-08-18T17:04:27Z</time></trkpt><trkpt lat="59.3510211166" lon="34.5624252688"><ele>176.54</ele><time>2026-08-18T17:04:41Z</time></trkpt><trkpt lat="59.3509729207" lon="34.5623705350"><ele>176.54</ele><time>2026-08-18T17:04:55Z</time></trkpt><trkpt lat="59.3508633692" lon="34.5623046532"><ele>176.54</ele><time>2026-08-18T17:05:06Z</time></trkpt><trkpt lat="59.3507674802" lon="34.5622122008"><ele>176.06</ele><time>2026-08-18T17:05:17Z</time></trkpt><trkpt lat="59.3507558294" lon="34.5621881448"><ele>176.06</ele><time>2026-08-18T17:05:19Z</time></trkpt><trkpt lat="59.3507425021" lon="34.5621510129"><ele>176.06</ele><time>2026-08-18T17:05:21Z</time></trkpt><trkpt lat="59.3506920431" lon="34.5621023141"><ele>176.06</ele><time>2026-08-18T17:05:33Z</time></trkpt><trkpt lat="59.3506337050" lon="34.5620446466"><ele>176.06</ele><time>2026-08-18T17:05:46Z</time></trkpt><trkpt lat="59.3505736068" lon="34.5619690418"><ele>176.06</ele><time>2026-08-18T17:05:55Z</time></trkpt><trkpt lat="59.3505215552" lon="34.5619169902"><ele>176.06</ele><time>2026-08-18T17:06:03Z</time></trkpt><trkpt lat="59.3504909612" lon="34.5618723985"><ele>176.06</ele><time>2026-08-18T17:06:10Z</time></trkpt><trkpt lat="59.3504683301" lon="34.5618348476"><ele>176.06</ele><time>2026-08-18T17:06:14Z</time></trkpt><trkpt lat="59.3503927253" lon="34.5617423113"><ele>176.06</ele><time>2026-08-18T17:06:24Z</time></trkpt><trkpt lat="59.3503569346" lon="34.5616836380"><ele>176.06</ele><time>2026-08-18T17:06:32Z</time></trkpt><trkpt lat="59.3502811622" lon="34.5616008248"><ele>176.06</ele><time>2026-08-18T17:06:41Z</time></trkpt><trkpt lat="59.3502788991" lon="34.5615884196"><ele>176.06</ele><time>2026-08-18T17:06:57Z</time></trkpt><trkpt lat="59.3502781447" lon="34.5616009925"><ele>176.06</ele><time>2026-08-18T17:07:24Z</time></trkpt><trkpt lat="59.3502686732" lon="34.5616006572"><ele>175.58</ele><time>2026-08-18T17:07:49Z</time></trkpt><trkpt lat="59.3502707686" lon="34.5615942869"><ele>175.58</ele><time>2026-08-18T17:08:06Z</time></trkpt><trkpt lat="59.3502737023" lon="34.5615973882"><ele>175.58</ele><time>2026-08-18T17:08:30Z</time></trkpt><trkpt lat="59.3502726965" lon="34.5615906827"><ele>175.58</ele><time>2026-08-18T17:08:59Z</time></trkpt><trkpt lat="59.3502726126" lon="34.5615943708"><ele>175.58</ele><time>2026-08-18T17:09:26Z</time></trkpt><trkpt lat="59.3502657395" lon="34.5615782775"><ele>175.58</ele><time>2026-08-18T17:09:52Z</time></trkpt><trkpt lat="59.3501908053" lon="34.5615440793"><ele>175.58</ele><time>2026-08-18T17:10:02Z</time></trkpt><trkpt lat="59.3500992749" lon="34.5615006611"><ele>175.58</ele><time>2026-08-18T17:10:12Z</time></trkpt><trkpt lat="59.3500546832" lon="34.5614604279"><ele>175.58</ele><time>2026-08-18T17:10:20Z</time></trkpt><trkpt lat="59.3499752227" lon="34.5614061132"><ele>175.58</ele><time>2026-08-18T17:10:28Z</time></trkpt><trkpt lat="59.3499002885" lon="34.5613404829"><ele>175.10</ele><time>2026-08-18T17:10:37Z</time></trkpt><trkpt lat="59.3498080038" lon="34.5612723380"><ele>175.10</ele><time>2026-08-18T17:10:47Z</time></trkpt><trkpt lat="59.3497839477" lon="34.5612566639"><ele>175.10</ele><time>2026-08-18T17:10:50Z</time></trkpt><trkpt lat="59.3496652599" lon="34.5611969847"><ele>175.10</ele><time>2026-08-18T17:11:04Z</time></trkpt><trkpt lat="59.3495692033" lon="34.5611935481"><ele>175.10</ele><time>2026-08-18T17:11:16Z</time></trkpt><trkpt lat="59.3495376874" lon="34.5611694921"><ele>175.10</ele><time>2026-08-18T17:11:20Z</time></trkpt><trkpt lat="59.3494943529" lon="34.5611757785"><ele>175.10</ele><time>2026-08-18T17:11:25Z</time></trkpt><trkpt lat="59.3494491745" lon="34.5611280855"><ele>175.10</ele><time>2026-08-18T17:11:32Z</time></trkpt><trkpt lat="59.3494308181" lon="34.5611238107"><ele>175.10</ele><time>2026-08-18T17:11:34Z</time></trkpt><trkpt lat="59.3494165689" lon="34.5610959828"><ele>175.10</ele><time>2026-08-18T17:11:37Z</time></trkpt><trkpt lat="59.3493488431" lon="34.5610214677"><ele>175.10</ele><time>2026-08-18T17:11:46Z</time></trkpt><trkpt lat="59.3492937740" lon="34.5609337930"><ele>175.10</ele><time>2026-08-18T17:11:55Z</time></trkpt><trkpt lat="59.3492085300" lon="34.5609479584"><ele>175.10</ele><time>2026-08-18T17:12:08Z</time></trkpt><trkpt lat="59.3491606694" lon="34.5609046239"><ele>174.62</ele><time>2026-08-18T17:12:21Z</time></trkpt><trkpt lat="59.3491218612" lon="34.5608090702"><ele>174.62</ele><time>2026-08-18T17:12:37Z</time></trkpt><trkpt lat="59.3490501121" lon="34.5606597885"><ele>174.62</ele><time>2026-08-18T17:12:49Z</time></trkpt><trkpt lat="59.3489861581" lon="34.5604939107"><ele>174.62</ele><time>2026-08-18T17:13:02Z</time></trkpt><trkpt lat="59.3488911074" lon="34.5603176393"><ele>174.62</ele><time>2026-08-18T17:13:14Z</time></trkpt><trkpt lat="59.3488619383" lon="34.5602786634"><ele>174.62</ele><time>2026-08-18T17:13:28Z</time></trkpt><trkpt lat="59.3487580866" lon="34.5601476543"><ele>174.62</ele><time>2026-08-18T17:13:42Z</time></trkpt><trkpt lat="59.3486867566" lon="34.5600666851"><ele>174.62</ele><time>2026-08-18T17:13:56Z</time></trkpt><trkpt lat="59.3486458529" lon="34.5600574650"><ele>174.62</ele><time>2026-08-18T17:14:19Z</time></trkpt><trkpt lat="59.3486005906" lon="34.5599905774"><ele>174.62</ele><time>2026-08-18T17:14:31Z</time></trkpt><trkpt lat="59.3485476170" lon="34.5598764159"><ele>174.62</ele><time>2026-08-18T17:14:43Z</time></trkpt><trkpt lat="59.3484539911" lon="34.5597093645"><ele>174.62</ele><time>2026-08-18T17:14:54Z</time></trkpt><trkpt lat="59.3483980838" lon="34.5596185047"><ele>174.14</ele><time>2026-08-18T17:15:08Z</time></trkpt><trkpt lat="59.3482889514" lon="34.5595063549"><ele>173.66</ele><time>2026-08-18T17:15:24Z</time></trkpt><trkpt lat="59.3481949903" lon="34.5594504476"><ele>173.17</ele><time>2026-08-18T17:15:35Z</time></trkpt><trkpt lat="59.3481204752" lon="34.5593402255"><ele>172.69</ele><time>2026-08-18T17:15:48Z</time></trkpt><trkpt lat="59.3480795715" lon="34.5593133196"><ele>172.69</ele><time>2026-08-18T17:16:02Z</time></trkpt><trkpt lat="59.3480314594" lon="34.5593053568"><ele>172.69</ele><time>2026-08-18T17:16:12Z</time></trkpt><trkpt lat="59.3479386717" lon="34.5593336876"><ele>172.69</ele><time>2026-08-18T17:16:24Z</time></trkpt><trkpt lat="59.3478550203" lon="34.5593662094"><ele>172.69</ele><time>2026-08-18T17:16:35Z</time></trkpt><trkpt lat="59.3477298785" lon="34.5593305863"><ele>172.69</ele><time>2026-08-18T17:16:48Z</time></trkpt><trkpt lat="59.3475960195" lon="34.5592971426"><ele>172.69</ele><time>2026-08-18T17:17:00Z</time></trkpt><trkpt lat="59.3475593068" lon="34.5592792891"><ele>173.66</ele><time>2026-08-18T17:17:16Z</time></trkpt><trkpt lat="59.3475494161" lon="34.5592631958"><ele>174.14</ele><time>2026-08-18T17:17:43Z</time></trkpt><trkpt lat="59.3475454766" lon="34.5592548139"><ele>174.14</ele><time>2026-08-18T17:18:03Z</time></trkpt><trkpt lat="59.3475480750" lon="34.5592465159"><ele>174.14</ele><time>2026-08-18T17:18:31Z</time></trkpt><trkpt lat="59.3475464825" lon="34.5592762716"><ele>174.14</ele><time>2026-08-18T17:18:59Z</time></trkpt><trkpt lat="59.3475484941" lon="34.5592766069"><ele>174.14</ele><time>2026-08-18T17:19:19Z</time></trkpt><trkpt lat="59.3475453928" lon="34.5592838991"><ele>174.14</ele><time>2026-08-18T17:19:45Z</time></trkpt><trkpt lat="59.3475313950" lon="34.5593450870"><ele>174.14</ele><time>2026-08-18T17:20:02Z</time></trkpt><trkpt lat="59.3474667706" lon="34.5593827218"><ele>174.14</ele><time>2026-08-18T17:20:13Z</time></trkpt><trkpt lat="59.3474847078" lon="34.5595163293"><ele>174.14</ele><time>2026-08-18T17:20:25Z</time></trkpt><trkpt lat="59.3474886473" lon="34.5596977137"><ele>174.14</ele><time>2026-08-18T17:20:39Z</time></trkpt><trkpt lat="59.3474754877" lon="34.5597594883"><ele>174.14</ele><time>2026-08-18T17:21:03Z</time></trkpt><trkpt lat="59.3473570514" lon="34.5600242727"><ele>174.14</ele><time>2026-08-18T17:21:14Z</time></trkpt><trkpt lat="59.3473008927" lon="34.5601122826"><ele>174.14</ele><time>2026-08-18T17:21:31Z</time></trkpt><trkpt lat="59.3472914211" lon="34.5601226762"><ele>174.14</ele><time>2026-08-18T17:21:34Z</time></trkpt><trkpt lat="59.3471877370" lon="34.5602168050"><ele>174.14</ele><time>2026-08-18T17:21:45Z</time></trkpt><trkpt lat="59.3470428139" lon="34.5602973551"><ele>174.14</ele><time>2026-08-18T17:21:58Z</time></trkpt><trkpt lat="59.3469645269" lon="34.5603643265"><ele>174.14</ele><time>2026-08-18T17:22:11Z</time></trkpt><trkpt lat="59.3469263054" lon="34.5603573695"><ele>174.14</ele><time>2026-08-18T17:22:41Z</time></trkpt><trkpt lat="59.3469033390" lon="34.5603693556"><ele>174.14</ele><time>2026-08-18T17:23:08Z</time></trkpt><trkpt lat="59.3468839768" lon="34.5603663381"><ele>174.14</ele><time>2026-08-18T17:23:39Z</time></trkpt><trkpt lat="59.3468594179" lon="34.5603925735"><ele>174.14</ele><time>2026-08-18T17:24:07Z</time></trkpt><trkpt lat="59.3467748445" lon="34.5604675915"><ele>174.14</ele><time>2026-08-18T17:24:19Z</time></trkpt><trkpt lat="59.3466735911" lon="34.5604683459"><ele>174.14</ele><time>2026-08-18T17:24:33Z</time></trkpt><trkpt lat="59.3465389777" lon="34.5604899712"><ele>174.14</ele><time>2026-08-18T17:24:45Z</time></trkpt><trkpt lat="59.3464226369" lon="34.5605239179"><ele>174.62</ele><time>2026-08-18T17:24:56Z</time></trkpt><trkpt lat="59.3463115767" lon="34.5605558529"><ele>174.62</ele><time>2026-08-18T17:25:07Z</time></trkpt><trkpt lat="59.3463012669" lon="34.5605594572"><ele>174.62</ele><time>2026-08-18T17:25:32Z</time></trkpt><trkpt lat="59.3462958187" lon="34.5605423581"><ele>174.62</ele><time>2026-08-18T17:26:08Z</time></trkpt><trkpt lat="59.3463161029" lon="34.5605398435"><ele>175.10</ele><time>2026-08-18T17:26:35Z</time></trkpt><trkpt lat="59.3463158514" lon="34.5605427772"><ele>175.10</ele><time>2026-08-18T17:26:59Z</time></trkpt><trkpt lat="59.3463047035" lon="34.5605395921"><ele>175.10</ele><time>2026-08-18T17:27:29Z</time></trkpt><trkpt lat="59.3463000935" lon="34.5605139434"><ele>175.10</ele><time>2026-08-18T17:27:55Z</time></trkpt><trkpt lat="59.3462789711" lon="34.5604981855"><ele>175.10</ele><time>2026-08-18T17:28:33Z</time></trkpt><trkpt lat="59.3461804837" lon="34.5605129376"><ele>175.10</ele><time>2026-08-18T17:28:47Z</time></trkpt><trkpt lat="59.3459750433" lon="34.5605337247"><ele>175.10</ele><time>2026-08-18T17:29:04Z</time></trkpt><trkpt lat="59.3458542600" lon="34.5605672523"><ele>173.66</ele><time>2026-08-18T17:29:16Z</time></trkpt><trkpt lat="59.3458095007" lon="34.5605963375"><ele>173.66</ele><time>2026-08-18T17:29:20Z</time></trkpt><trkpt lat="59.3457386736" lon="34.5607228205"><ele>173.66</ele><time>2026-08-18T17:29:31Z</time></trkpt><trkpt lat="59.3457131926" lon="34.5608017780"><ele>173.17</ele><time>2026-08-18T17:29:46Z</time></trkpt><trkpt lat="59.3456779048" lon="34.5609047916"><ele>172.69</ele><time>2026-08-18T17:29:55Z</time></trkpt><trkpt lat="59.3455785792" lon="34.5609797258"><ele>172.69</ele><time>2026-08-18T17:30:07Z</time></trkpt><trkpt lat="59.3455493264" lon="34.5610395726"><ele>172.69</ele><time>2026-08-18T17:30:23Z</time></trkpt><trkpt lat="59.3455393519" lon="34.5610484574"><ele>172.69</ele><time>2026-08-18T17:30:36Z</time></trkpt><trkpt lat="59.3454419542" lon="34.5610503852"><ele>172.69</ele><time>2026-08-18T17:30:47Z</time></trkpt><trkpt lat="59.3453840353" lon="34.5610503852"><ele>172.69</ele><time>2026-08-18T17:30:59Z</time></trkpt><trkpt lat="59.3452795967" lon="34.5610429253"><ele>172.69</ele><time>2026-08-18T17:31:10Z</time></trkpt><trkpt lat="59.3451841269" lon="34.5609508082"><ele>172.69</ele><time>2026-08-18T17:31:20Z</time></trkpt><trkpt lat="59.3450660259" lon="34.5608774666"><ele>172.69</ele><time>2026-08-18T17:31:30Z</time></trkpt><trkpt lat="59.3450251222" lon="34.5608747005"><ele>172.69</ele><time>2026-08-18T17:31:35Z</time></trkpt><trkpt lat="59.3448946998" lon="34.5609052107"><ele>172.69</ele><time>2026-08-18T17:31:48Z</time></trkpt><trkpt lat="59.3447739165" lon="34.5609353017"><ele>172.69</ele><time>2026-08-18T17:32:02Z</time></trkpt><trkpt lat="59.3446481042" lon="34.5609291829"><ele>172.21</ele><time>2026-08-18T17:32:17Z</time></trkpt><trkpt lat="59.3444882613" lon="34.5609748643"><ele>172.21</ele><time>2026-08-18T17:32:31Z</time></trkpt><trkpt lat="59.3443372194" lon="34.5610661432"><ele>173.17</ele><time>2026-08-18T17:32:46Z</time></trkpt><trkpt lat="59.3441912904" lon="34.5611375570"><ele>173.17</ele><time>2026-08-18T17:33:00Z</time></trkpt><trkpt lat="59.3441753648" lon="34.5612840727"><ele>173.17</ele><time>2026-08-18T17:33:13Z</time></trkpt><trkpt lat="59.3441775441" lon="34.5614005812"><ele>173.17</ele><time>2026-08-18T17:33:24Z</time></trkpt><trkpt lat="59.3441607803" lon="34.5614801254"><ele>173.17</ele><time>2026-08-18T17:33:46Z</time></trkpt><trkpt lat="59.3441570085" lon="34.5614884235"><ele>173.17</ele><time>2026-08-18T17:34:05Z</time></trkpt><trkpt lat="59.3440931384" lon="34.5615143236"><ele>173.17</ele><time>2026-08-18T17:34:21Z</time></trkpt><trkpt lat="59.3440459482" lon="34.5614995714"><ele>173.17</ele><time>2026-08-18T17:34:33Z</time></trkpt><trkpt lat="59.3440018594" lon="34.5614749286"><ele>172.69</ele><time>2026-08-18T17:34:44Z</time></trkpt><trkpt lat="59.3439239077" lon="34.5615857374"><ele>172.69</ele><time>2026-08-18T17:35:00Z</time></trkpt><trkpt lat="59.3438015319" lon="34.5616938639"><ele>172.69</ele><time>2026-08-18T17:35:15Z</time></trkpt><trkpt lat="59.3436428625" lon="34.5618508570"><ele>172.69</ele><time>2026-08-18T17:35:33Z</time></trkpt><trkpt lat="59.3435442913" lon="34.5618559700"><ele>173.17</ele><time>2026-08-18T17:35:44Z</time></trkpt><trkpt lat="59.3434615619" lon="34.5619498473"><ele>173.17</ele><time>2026-08-18T17:35:59Z</time></trkpt><trkpt lat="59.3433302175" lon="34.5620391145"><ele>173.17</ele><time>2026-08-18T17:36:15Z</time></trkpt><trkpt lat="59.3432360888" lon="34.5621342491"><ele>173.17</ele><time>2026-08-18T17:36:28Z</time></trkpt><trkpt lat="59.3431282975" lon="34.5621983707"><ele>173.17</ele><time>2026-08-18T17:36:46Z</time></trkpt><trkpt lat="59.3430433888" lon="34.5622572117"><ele>173.17</ele><time>2026-08-18T17:37:03Z</time></trkpt><trkpt lat="59.3429341726" lon="34.5622650068"><ele>173.17</ele><time>2026-08-18T17:37:20Z</time></trkpt><trkpt lat="59.3428705540" lon="34.5622816030"><ele>171.73</ele><time>2026-08-18T17:37:37Z</time></trkpt><trkpt lat="59.3428192567" lon="34.5622824412"><ele>171.73</ele><time>2026-08-18T17:37:59Z</time></trkpt><trkpt lat="59.3427864835" lon="34.5622854587"><ele>173.17</ele><time>2026-08-18T17:38:25Z</time></trkpt><trkpt lat="59.3426650297" lon="34.5622479077"><ele>173.17</ele><time>2026-08-18T17:38:40Z</time></trkpt><trkpt lat="59.3424828909" lon="34.5620728098"><ele>173.17</ele><time>2026-08-18T17:38:55Z</time></trkpt><trkpt lat="59.3423399795" lon="34.5619821176"><ele>173.17</ele><time>2026-08-18T17:39:10Z</time></trkpt><trkpt lat="59.3422212917" lon="34.5618719794"><ele>173.17</ele><time>2026-08-18T17:39:24Z</time></trkpt><trkpt lat="59.3422039412" lon="34.5618577302"><ele>173.17</ele><time>2026-08-18T17:39:26Z</time></trkpt><trkpt lat="59.3420839962" lon="34.5617844723"><ele>173.17</ele><time>2026-08-18T17:39:39Z</time></trkpt><trkpt lat="59.3420000933" lon="34.5616871584"><ele>173.17</ele><time>2026-08-18T17:39:52Z</time></trkpt><trkpt lat="59.3418957386" lon="34.5616139006"><ele>173.66</ele><time>2026-08-18T17:40:05Z</time></trkpt><trkpt lat="59.3418070581" lon="34.5616776031"><ele>173.66</ele><time>2026-08-18T17:40:18Z</time></trkpt><trkpt lat="59.3417151086" lon="34.5617320854"><ele>173.66</ele><time>2026-08-18T17:40:32Z</time></trkpt><trkpt lat="59.3416399229" lon="34.5617643557"><ele>173.66</ele><time>2026-08-18T17:40:48Z</time></trkpt><trkpt lat="59.3415916432" lon="34.5617951173"><ele>174.14</ele><time>2026-08-18T17:41:04Z</time></trkpt><trkpt lat="59.3415721972" lon="34.5618238673"><ele>174.14</ele><time>2026-08-18T17:41:16Z</time></trkpt><trkpt lat="59.3415320478" lon="34.5618726499"><ele>174.14</ele><time>2026-08-18T17:41:28Z</time></trkpt><trkpt lat="59.3415171281" lon="34.5619537029"><ele>174.14</ele><time>2026-08-18T17:41:45Z</time></trkpt><trkpt lat="59.3415111769" lon="34.5619830396"><ele>174.62</ele><time>2026-08-18T17:42:17Z</time></trkpt><trkpt lat="59.3414921500" lon="34.5619825367"><ele>174.62</ele><time>2026-08-18T17:42:39Z</time></trkpt><trkpt lat="59.3414830137" lon="34.5619770046"><ele>174.62</ele><time>2026-08-18T17:42:42Z</time></trkpt><trkpt lat="59.3414626457" lon="34.5620150585"><ele>174.62</ele><time>2026-08-18T17:42:45Z</time></trkpt><trkpt lat="59.3414418586" lon="34.5620518550"><ele>174.62</ele><time>2026-08-18T17:42:48Z</time></trkpt><trkpt lat="59.3413913157" lon="34.5621984545"><ele>174.62</ele><time>2026-08-18T17:43:00Z</time></trkpt><trkpt lat="59.3413489871" lon="34.5622941758"><ele>173.66</ele><time>2026-08-18T17:43:12Z</time></trkpt><trkpt lat="59.3412737176" lon="34.5625552721"><ele>173.17</ele><time>2026-08-18T17:43:25Z</time></trkpt><trkpt lat="59.3412230071" lon="34.5627610479"><ele>172.69</ele><time>2026-08-18T17:43:37Z</time></trkpt><trkpt lat="59.3412106019" lon="34.5628509857"><ele>172.21</ele><time>2026-08-18T17:43:49Z</time></trkpt><trkpt lat="59.3412172236" lon="34.5628857706"><ele>171.73</ele><time>2026-08-18T17:44:04Z</time></trkpt><trkpt lat="59.3412065785" lon="34.5629220642"><ele>171.25</ele><time>2026-08-18T17:44:22Z</time></trkpt><trkpt lat="59.3411955144" lon="34.5629243273"><ele>171.25</ele><time>2026-08-18T17:44:35Z</time></trkpt><trkpt lat="59.3411806785" lon="34.5629193820"><ele>171.25</ele><time>2026-08-18T17:44:47Z</time></trkpt><trkpt lat="59.3411639985" lon="34.5629305299"><ele>171.25</ele><time>2026-08-18T17:44:57Z</time></trkpt><trkpt lat="59.3411513418" lon="34.5629340503"><ele>171.25</ele><time>2026-08-18T17:45:08Z</time></trkpt><trkpt lat="59.3411327340" lon="34.5629420131"><ele>171.25</ele><time>2026-08-18T17:45:26Z</time></trkpt><trkpt lat="59.3411032297" lon="34.5629841741"><ele>171.25</ele><time>2026-08-18T17:45:43Z</time></trkpt><trkpt lat="59.3411140423" lon="34.5630040392"><ele>171.25</ele><time>2026-08-18T17:45:57Z</time></trkpt><trkpt lat="59.3411121983" lon="34.5630525704"><ele>171.25</ele><time>2026-08-18T17:46:13Z</time></trkpt><trkpt lat="59.3411078397" lon="34.5631031971"><ele>171.25</ele><time>2026-08-18T17:46:28Z</time></trkpt><trkpt lat="59.3411194067" lon="34.5631447714"><ele>171.25</ele><time>2026-08-18T17:46:40Z</time></trkpt><trkpt lat="59.3411215860" lon="34.5631969068"><ele>170.77</ele><time>2026-08-18T17:47:13Z</time></trkpt><trkpt lat="59.3411481567" lon="34.5632819831"><ele>170.77</ele><time>2026-08-18T17:47:24Z</time></trkpt><trkpt lat="59.3412054051" lon="34.5635780320"><ele>170.77</ele><time>2026-08-18T17:47:38Z</time></trkpt><trkpt lat="59.3412471469" lon="34.5636970550"><ele>171.73</ele><time>2026-08-18T17:47:52Z</time></trkpt><trkpt lat="59.3413109332" lon="34.5639070217"><ele>171.73</ele><time>2026-08-18T17:48:06Z</time></trkpt><trkpt lat="59.3413259368" lon="34.5640560519"><ele>171.73</ele><time>2026-08-18T17:48:11Z</time></trkpt><trkpt lat="59.3413628172" lon="34.5641922578"><ele>171.73</ele><time>2026-08-18T17:48:16Z</time></trkpt><trkpt lat="59.3414807506" lon="34.5643392764"><ele>171.73</ele><time>2026-08-18T17:48:29Z</time></trkpt><trkpt lat="59.3416060600" lon="34.5644994546"><ele>171.73</ele><time>2026-08-18T17:48:43Z</time></trkpt><trkpt lat="59.3417379912" lon="34.5646052342"><ele>171.25</ele><time>2026-08-18T17:48:57Z</time></trkpt><trkpt lat="59.3418411724" lon="34.5648418553"><ele>171.73</ele><time>2026-08-18T17:49:11Z</time></trkpt><trkpt lat="59.3419092335" lon="34.5649170410"><ele>172.21</ele><time>2026-08-18T17:49:25Z</time></trkpt><trkpt lat="59.3419829104" lon="34.5651563443"><ele>171.73</ele><time>2026-08-18T17:49:39Z</time></trkpt><trkpt lat="59.3420083076" lon="34.5652013551"><ele>172.21</ele><time>2026-08-18T17:49:48Z</time></trkpt><trkpt lat="59.3420580961" lon="34.5653924625"><ele>172.21</ele><time>2026-08-18T17:49:58Z</time></trkpt><trkpt lat="59.3420629576" lon="34.5656517148"><ele>172.21</ele><time>2026-08-18T17:50:11Z</time></trkpt><trkpt lat="59.3420638796" lon="34.5657402277"><ele>172.21</ele><time>2026-08-18T17:50:24Z</time></trkpt><trkpt lat="59.3420674838" lon="34.5658850670"><ele>172.21</ele><time>2026-08-18T17:50:37Z</time></trkpt><trkpt lat="59.3420595210" lon="34.5659057703"><ele>171.73</ele><time>2026-08-18T17:50:56Z</time></trkpt><trkpt lat="59.3420352973" lon="34.5659388788"><ele>171.73</ele><time>2026-08-18T17:51:15Z</time></trkpt><trkpt lat="59.3420371413" lon="34.5659718197"><ele>171.73</ele><time>2026-08-18T17:51:39Z</time></trkpt><trkpt lat="59.3420964852" lon="34.5659308322"><ele>171.73</ele><time>2026-08-18T17:52:02Z</time></trkpt><trkpt lat="59.3420143425" lon="34.5658507850"><ele>171.73</ele><time>2026-08-18T17:52:23Z</time></trkpt><trkpt lat="59.3419699185" lon="34.5658899285"><ele>171.73</ele><time>2026-08-18T17:52:44Z</time></trkpt><trkpt lat="59.3420140911" lon="34.5658834744"><ele>171.73</ele><time>2026-08-18T17:53:00Z</time></trkpt><trkpt lat="59.3420212995" lon="34.5658528805"><ele>171.73</ele><time>2026-08-18T17:53:24Z</time></trkpt><trkpt lat="59.3420207966" lon="34.5658366196"><ele>171.73</ele><time>2026-08-18T17:53:51Z</time></trkpt><trkpt lat="59.3420197070" lon="34.5658273157"><ele>172.21</ele><time>2026-08-18T17:54:21Z</time></trkpt><trkpt lat="59.3420389015" lon="34.5658276509"><ele>172.21</ele><time>2026-08-18T17:54:57Z</time></trkpt><trkpt lat="59.3420368060" lon="34.5658506174"><ele>172.21</ele><time>2026-08-18T17:55:25Z</time></trkpt><trkpt lat="59.3420363870" lon="34.5658673812"><ele>172.21</ele><time>2026-08-18T17:55:50Z</time></trkpt><trkpt lat="59.3420368899" lon="34.5658557303"><ele>172.69</ele><time>2026-08-18T17:56:17Z</time></trkpt><trkpt lat="59.3420366384" lon="34.5658548921"><ele>172.69</ele><time>2026-08-18T17:56:44Z</time></trkpt><trkpt lat="59.3420335371" lon="34.5658546407"><ele>172.69</ele><time>2026-08-18T17:57:14Z</time></trkpt><trkpt lat="59.3420405779" lon="34.5658582449"><ele>172.69</ele><time>2026-08-18T17:57:28Z</time></trkpt><trkpt lat="59.3420377281" lon="34.5658600051"><ele>173.17</ele><time>2026-08-18T17:57:53Z</time></trkpt><trkpt lat="59.3420329504" lon="34.5658735838"><ele>173.17</ele><time>2026-08-18T17:58:31Z</time></trkpt><trkpt lat="59.3420311902" lon="34.5658819657"><ele>173.17</ele><time>2026-08-18T17:58:58Z</time></trkpt><trkpt lat="59.3420338724" lon="34.5658856537"><ele>173.66</ele><time>2026-08-18T17:59:21Z</time></trkpt><trkpt lat="59.3420399912" lon="34.5659243781"><ele>173.66</ele><time>2026-08-18T17:59:57Z</time></trkpt><trkpt lat="59.3420458585" lon="34.5659080334"><ele>173.66</ele><time>2026-08-18T18:00:27Z</time></trkpt><trkpt lat="59.3420426734" lon="34.5659073628"><ele>173.66</ele><time>2026-08-18T18:00:40Z</time></trkpt><trkpt lat="59.3420391530" lon="34.5658991486"><ele>173.66</ele><time>2026-08-18T18:01:03Z</time></trkpt><trkpt lat="59.3420351297" lon="34.5658860728"><ele>173.66</ele><time>2026-08-18T18:01:24Z</time></trkpt><trkpt lat="59.3420297652" lon="34.5658957120"><ele>174.14</ele><time>2026-08-18T18:01:50Z</time></trkpt><trkpt lat="59.3420270830" lon="34.5658893418"><ele>174.14</ele><time>2026-08-18T18:02:13Z</time></trkpt><trkpt lat="59.3420368060" lon="34.5659050997"><ele>174.14</ele><time>2026-08-18T18:02:37Z</time></trkpt><trkpt lat="59.3420461100" lon="34.5660355221"><ele>174.14</ele><time>2026-08-18T18:02:53Z</time></trkpt><trkpt lat="59.3420275021" lon="34.5663231052"><ele>174.14</ele><time>2026-08-18T18:03:06Z</time></trkpt><trkpt lat="59.3420056254" lon="34.5665100217"><ele>174.14</ele><time>2026-08-18T18:03:17Z</time></trkpt><trkpt lat="59.3420047034" lon="34.5665902365"><ele>174.14</ele><time>2026-08-18T18:03:28Z</time></trkpt><trkpt lat="59.3419884425" lon="34.5667570364"><ele>174.14</ele><time>2026-08-18T18:03:41Z</time></trkpt><trkpt lat="59.3419597764" lon="34.5668491535"><ele>174.14</ele><time>2026-08-18T18:03:52Z</time></trkpt><trkpt lat="59.3419307750" lon="34.5669980161"><ele>174.62</ele><time>2026-08-18T18:04:07Z</time></trkpt><trkpt lat="59.3418389931" lon="34.5672015287"><ele>174.62</ele><time>2026-08-18T18:04:19Z</time></trkpt><trkpt lat="59.3417428527" lon="34.5674387366"><ele>174.62</ele><time>2026-08-18T18:04:32Z</time></trkpt><trkpt lat="59.3416402582" lon="34.5676539838"><ele>174.62</ele><time>2026-08-18T18:04:50Z</time></trkpt><trkpt lat="59.3415672518" lon="34.5677999128"><ele>175.10</ele><time>2026-08-18T18:05:04Z</time></trkpt><trkpt lat="59.3414499890" lon="34.5680874120"><ele>175.10</ele><time>2026-08-18T18:05:19Z</time></trkpt><trkpt lat="59.3413861189" lon="34.5682122186"><ele>175.58</ele><time>2026-08-18T18:05:30Z</time></trkpt><trkpt lat="59.3413579557" lon="34.5682553854"><ele>175.58</ele><time>2026-08-18T18:05:32Z</time></trkpt><trkpt lat="59.3412866257" lon="34.5683926810"><ele>176.06</ele><time>2026-08-18T18:05:42Z</time></trkpt><trkpt lat="59.3412615638" lon="34.5684530307"><ele>176.06</ele><time>2026-08-18T18:05:47Z</time></trkpt><trkpt lat="59.3411726318" lon="34.5686337445"><ele>176.06</ele><time>2026-08-18T18:05:57Z</time></trkpt><trkpt lat="59.3411664292" lon="34.5688659232"><ele>176.06</ele><time>2026-08-18T18:06:08Z</time></trkpt><trkpt lat="59.3411771581" lon="34.5689914841"><ele>175.58</ele><time>2026-08-18T18:06:15Z</time></trkpt><trkpt lat="59.3411956821" lon="34.5690991916"><ele>176.54</ele><time>2026-08-18T18:06:21Z</time></trkpt><trkpt lat="59.3411826901" lon="34.5691932365"><ele>176.54</ele><time>2026-08-18T18:06:24Z</time></trkpt><trkpt lat="59.3411368411" lon="34.5694705099"><ele>176.54</ele><time>2026-08-18T18:06:38Z</time></trkpt><trkpt lat="59.3411299679" lon="34.5696605276"><ele>176.54</ele><time>2026-08-18T18:06:48Z</time></trkpt><trkpt lat="59.3410880584" lon="34.5699446741"><ele>177.02</ele><time>2026-08-18T18:07:02Z</time></trkpt><trkpt lat="59.3410829455" lon="34.5699976478"><ele>177.02</ele><time>2026-08-18T18:07:05Z</time></trkpt><trkpt lat="59.3410775810" lon="34.5700794552"><ele>177.02</ele><time>2026-08-18T18:07:09Z</time></trkpt><trkpt lat="59.3410584703" lon="34.5702772681"><ele>177.50</ele><time>2026-08-18T18:07:21Z</time></trkpt><trkpt lat="59.3410564587" lon="34.5703645237"><ele>177.50</ele><time>2026-08-18T18:07:26Z</time></trkpt><trkpt lat="59.3410288822" lon="34.5706298109"><ele>177.98</ele><time>2026-08-18T18:07:41Z</time></trkpt><trkpt lat="59.3410149682" lon="34.5707224309"><ele>178.46</ele><time>2026-08-18T18:07:46Z</time></trkpt><trkpt lat="59.3409906607" lon="34.5709089283"><ele>178.46</ele><time>2026-08-18T18:07:55Z</time></trkpt><trkpt lat="59.3409557082" lon="34.5711603016"><ele>178.94</ele><time>2026-08-18T18:08:08Z</time></trkpt><trkpt lat="59.3409234378" lon="34.5713709388"><ele>179.42</ele><time>2026-08-18T18:08:19Z</time></trkpt><trkpt lat="59.3409260362" lon="34.5714076515"><ele>179.42</ele><time>2026-08-18T18:08:21Z</time></trkpt><trkpt lat="59.3409023993" lon="34.5716398302"><ele>179.42</ele><time>2026-08-18T18:08:33Z</time></trkpt><trkpt lat="59.3408860546" lon="34.5718364697"><ele>179.42</ele><time>2026-08-18T18:08:45Z</time></trkpt><trkpt lat="59.3408659380" lon="34.5719507150"><ele>179.42</ele><time>2026-08-18T18:08:51Z</time></trkpt><trkpt lat="59.3408308178" lon="34.5722250547"><ele>179.90</ele><time>2026-08-18T18:09:05Z</time></trkpt><trkpt lat="59.3408126291" lon="34.5724204369"><ele>179.90</ele><time>2026-08-18T18:09:16Z</time></trkpt><trkpt lat="59.3408248667" lon="34.5727426372"><ele>180.38</ele><time>2026-08-18T18:09:30Z</time></trkpt><trkpt lat="59.3408816122" lon="34.5729715470"><ele>180.38</ele><time>2026-08-18T18:09:43Z</time></trkpt><trkpt lat="59.3409544509" lon="34.5731539372"><ele>180.38</ele><time>2026-08-18T18:09:56Z</time></trkpt><trkpt lat="59.3410279602" lon="34.5733612217"><ele>179.90</ele><time>2026-08-18T18:10:10Z</time></trkpt><trkpt lat="59.3410534412" lon="34.5734500699"><ele>178.94</ele><time>2026-08-18T18:10:20Z</time></trkpt><trkpt lat="59.3411059957" lon="34.5736558456"><ele>178.94</ele><time>2026-08-18T18:10:34Z</time></trkpt><trkpt lat="59.3411794212" lon="34.5739471167"><ele>178.94</ele><time>2026-08-18T18:10:48Z</time></trkpt><trkpt lat="59.3412436265" lon="34.5741169341"><ele>178.94</ele><time>2026-08-18T18:10:59Z</time></trkpt><trkpt lat="59.3412689399" lon="34.5744014997"><ele>178.46</ele><time>2026-08-18T18:11:12Z</time></trkpt><trkpt lat="59.3412900623" lon="34.5745341852"><ele>179.90</ele><time>2026-08-18T18:11:20Z</time></trkpt><trkpt lat="59.3413315527" lon="34.5748349279"><ele>179.90</ele><time>2026-08-18T18:11:31Z</time></trkpt><trkpt lat="59.3413800839" lon="34.5749831200"><ele>179.90</ele><time>2026-08-18T18:11:43Z</time></trkpt><trkpt lat="59.3414577842" lon="34.5752602257"><ele>179.90</ele><time>2026-08-18T18:11:58Z</time></trkpt><trkpt lat="59.3414605502" lon="34.5756048895"><ele>179.90</ele><time>2026-08-18T18:12:10Z</time></trkpt><trkpt lat="59.3414758053" lon="34.5757898781"><ele>178.46</ele><time>2026-08-18T18:12:21Z</time></trkpt><trkpt lat="59.3414874561" lon="34.5759111643"><ele>178.46</ele><time>2026-08-18T18:12:28Z</time></trkpt><trkpt lat="59.3415027950" lon="34.5760091487"><ele>177.98</ele><time>2026-08-18T18:12:39Z</time></trkpt><trkpt lat="59.3415151164" lon="34.5760653075"><ele>177.50</ele><time>2026-08-18T18:12:50Z</time></trkpt><trkpt lat="59.3415309582" lon="34.5760962367"><ele>177.50</ele><time>2026-08-18T18:12:52Z</time></trkpt><trkpt lat="59.3415816687" lon="34.5762722567"><ele>177.50</ele><time>2026-08-18T18:13:04Z</time></trkpt><trkpt lat="59.3416672479" lon="34.5766428206"><ele>177.02</ele><time>2026-08-18T18:13:18Z</time></trkpt><trkpt lat="59.3417249154" lon="34.5768363588"><ele>177.02</ele><time>2026-08-18T18:13:30Z</time></trkpt><trkpt lat="59.3417632207" lon="34.5769731514"><ele>177.02</ele><time>2026-08-18T18:13:37Z</time></trkpt><trkpt lat="59.3417868577" lon="34.5772190765"><ele>177.02</ele><time>2026-08-18T18:13:49Z</time></trkpt><trkpt lat="59.3418364786" lon="34.5774284564"><ele>177.98</ele><time>2026-08-18T18:14:02Z</time></trkpt><trkpt lat="59.3418877758" lon="34.5777125191"><ele>177.98</ele><time>2026-08-18T18:14:13Z</time></trkpt><trkpt lat="59.3419217225" lon="34.5778502338"><ele>177.98</ele><time>2026-08-18T18:14:30Z</time></trkpt><trkpt lat="59.3419702537" lon="34.5779555105"><ele>177.98</ele><time>2026-08-18T18:14:54Z</time></trkpt><trkpt lat="59.3420093134" lon="34.5780570991"><ele>177.98</ele><time>2026-08-18T18:14:57Z</time></trkpt><trkpt lat="59.3421269953" lon="34.5782264136"><ele>177.98</ele><time>2026-08-18T18:15:12Z</time></trkpt><trkpt lat="59.3422020972" lon="34.5783866756"><ele>177.98</ele><time>2026-08-18T18:15:27Z</time></trkpt><trkpt lat="59.3422196992" lon="34.5784380566"><ele>177.98</ele><time>2026-08-18T18:16:02Z</time></trkpt><trkpt lat="59.3422208726" lon="34.5784378890"><ele>177.02</ele><time>2026-08-18T18:16:25Z</time></trkpt><trkpt lat="59.3421874288" lon="34.5783582609"><ele>177.02</ele><time>2026-08-18T18:16:33Z</time></trkpt><trkpt lat="59.3421093933" lon="34.5781325363"><ele>177.02</ele><time>2026-08-18T18:16:47Z</time></trkpt><trkpt lat="59.3421162665" lon="34.5781264175"><ele>177.02</ele><time>2026-08-18T18:17:02Z</time></trkpt><trkpt lat="59.3421212118" lon="34.5781362243"><ele>177.02</ele><time>2026-08-18T18:17:22Z</time></trkpt><trkpt lat="59.3421203736" lon="34.5781430136"><ele>176.54</ele><time>2026-08-18T18:17:48Z</time></trkpt><trkpt lat="59.3421174400" lon="34.5781548321"><ele>176.54</ele><time>2026-08-18T18:18:18Z</time></trkpt><trkpt lat="59.3421188649" lon="34.5781527366"><ele>176.54</ele><time>2026-08-18T18:18:40Z</time></trkpt><trkpt lat="59.3421232235" lon="34.5781441871"><ele>176.54</ele><time>2026-08-18T18:19:03Z</time></trkpt><trkpt lat="59.3421179429" lon="34.5781649742"><ele>176.54</ele><time>2026-08-18T18:19:15Z</time></trkpt><trkpt lat="59.3421147577" lon="34.5782014355"><ele>176.54</ele><time>2026-08-18T18:19:34Z</time></trkpt><trkpt lat="59.3421181943" lon="34.5782052912"><ele>176.54</ele><time>2026-08-18T18:19:50Z</time></trkpt><trkpt lat="59.3421164341" lon="34.5781938080"><ele>176.54</ele><time>2026-08-18T18:20:07Z</time></trkpt><trkpt lat="59.3421130814" lon="34.5781905390"><ele>176.54</ele><time>2026-08-18T18:20:26Z</time></trkpt><trkpt lat="59.3421136681" lon="34.5781843364"><ele>176.54</ele><time>2026-08-18T18:20:50Z</time></trkpt><trkpt lat="59.3420622032" lon="34.5781661477"><ele>177.98</ele><time>2026-08-18T18:21:22Z</time></trkpt><trkpt lat="59.3427295703" lon="34.5797041431"><ele>173.17</ele><time>2026-08-18T18:23:21Z</time></trkpt><trkpt lat="59.3428190053" lon="34.5804694947"><ele>173.17</ele><time>2026-08-18T18:23:46Z</time></trkpt><trkpt lat="59.3428552151" lon="34.5810354408"><ele>175.10</ele><time>2026-08-18T18:24:05Z</time></trkpt><trkpt lat="59.3429345079" lon="34.5817862917"><ele>175.58</ele><time>2026-08-18T18:24:23Z</time></trkpt><trkpt lat="59.3430491723" lon="34.5829194412"><ele>176.54</ele><time>2026-08-18T18:24:44Z</time></trkpt><trkpt lat="59.3430297263" lon="34.5841157064"><ele>176.54</ele><time>2026-08-18T18:25:06Z</time></trkpt><trkpt lat="59.3429721426" lon="34.5851168409"><ele>174.14</ele><time>2026-08-18T18:25:28Z</time></trkpt><trkpt lat="59.3428305723" lon="34.5861126948"><ele>173.17</ele><time>2026-08-18T18:25:50Z</time></trkpt><trkpt lat="59.3428351823" lon="34.5869325288"><ele>174.62</ele><time>2026-08-18T18:26:10Z</time></trkpt><trkpt lat="59.3425950408" lon="34.5878364332"><ele>174.62</ele><time>2026-08-18T18:26:30Z</time></trkpt><trkpt lat="59.3424670491" lon="34.5887102466"><ele>174.62</ele><time>2026-08-18T18:26:51Z</time></trkpt><trkpt lat="59.3424119800" lon="34.5895617642"><ele>172.69</ele><time>2026-08-18T18:27:13Z</time></trkpt><trkpt lat="59.3424743414" lon="34.5900562126"><ele>172.69</ele><time>2026-08-18T18:27:31Z</time></trkpt><trkpt lat="59.3424776942" lon="34.5901277941"><ele>172.69</ele><time>2026-08-18T18:27:41Z</time></trkpt><trkpt lat="59.3424789514" lon="34.5901493356"><ele>172.69</ele><time>2026-08-18T18:27:42Z</time></trkpt><trkpt lat="59.3427206855" lon="34.5908088237"><ele>172.69</ele><time>2026-08-18T18:27:59Z</time></trkpt><trkpt lat="59.3429661077" lon="34.5920306537"><ele>172.69</ele><time>2026-08-18T18:28:21Z</time></trkpt><trkpt lat="59.3432109430" lon="34.5931133442"><ele>172.69</ele><time>2026-08-18T18:28:39Z</time></trkpt><trkpt lat="59.3433087599" lon="34.5944732241"><ele>172.69</ele><time>2026-08-18T18:28:53Z</time></trkpt><trkpt lat="59.3432047404" lon="34.5952590276"><ele>173.66</ele><time>2026-08-18T18:29:07Z</time></trkpt><trkpt lat="59.3431548681" lon="34.5957252290"><ele>174.14</ele><time>2026-08-18T18:29:15Z</time></trkpt></trkseg></trk></gpx>